<?xml version="1.0" encoding="UTF-8" standalone="no" ?>
<gpx xmlns="http://www.topografix.com/GPX/1/1" xmlns:xsi="http://www.w3.org/2001/XMLSchema-instance" xsi:schemaLocation="http://www.topografix.com/GPX/1/1 http://www.topografix.com/GPX/1/1/gpx.xsd" version="1.1" creator="VisuGPX - https://www.visugpx.com">
  <metadata>
    <name>Caylus cascade petrifiante</name>
  </metadata>
  <trk>
    <name><![CDATA[Caylus cascade petrifiante_1]]></name>
    <trkseg>
      <trkpt lat="44.23547" lon="1.768">
        <ele>223.4</ele>
        <time>2022-02-19T13:39:42Z</time>
      </trkpt>
      <trkpt lat="44.23545" lon="1.768">
        <ele>223.8</ele>
        <time>2022-02-19T13:39:43Z</time>
      </trkpt>
      <trkpt lat="44.23544" lon="1.768">
        <ele>223.9</ele>
        <time>2022-02-19T13:39:44Z</time>
      </trkpt>
      <trkpt lat="44.23543" lon="1.768">
        <ele>224.2</ele>
        <time>2022-02-19T13:39:45Z</time>
      </trkpt>
      <trkpt lat="44.23543" lon="1.76801">
        <ele>224.3</ele>
        <time>2022-02-19T13:39:46Z</time>
      </trkpt>
      <trkpt lat="44.23544" lon="1.76801">
        <ele>224.4</ele>
        <time>2022-02-19T13:39:47Z</time>
      </trkpt>
      <trkpt lat="44.23545" lon="1.76802">
        <ele>224.6</ele>
        <time>2022-02-19T13:39:49Z</time>
      </trkpt>
      <trkpt lat="44.23546" lon="1.76802">
        <ele>224.7</ele>
        <time>2022-02-19T13:39:50Z</time>
      </trkpt>
      <trkpt lat="44.23546" lon="1.76803">
        <ele>224.9</ele>
        <time>2022-02-19T13:39:51Z</time>
      </trkpt>
      <trkpt lat="44.23547" lon="1.76803">
        <ele>225.1</ele>
        <time>2022-02-19T13:39:52Z</time>
      </trkpt>
      <trkpt lat="44.23548" lon="1.76804">
        <ele>225.2</ele>
        <time>2022-02-19T13:40:09Z</time>
      </trkpt>
      <trkpt lat="44.23549" lon="1.76804">
        <ele>225.4</ele>
        <time>2022-02-19T13:40:10Z</time>
      </trkpt>
      <trkpt lat="44.23549" lon="1.76805">
        <ele>225.5</ele>
        <time>2022-02-19T13:40:11Z</time>
      </trkpt>
      <trkpt lat="44.2355" lon="1.76805">
        <ele>225.7</ele>
        <time>2022-02-19T13:40:12Z</time>
      </trkpt>
      <trkpt lat="44.23552" lon="1.76807">
        <ele>226.1</ele>
        <time>2022-02-19T13:40:13Z</time>
      </trkpt>
      <trkpt lat="44.23555" lon="1.76811">
        <ele>226.9</ele>
        <time>2022-02-19T13:40:15Z</time>
      </trkpt>
      <trkpt lat="44.23558" lon="1.76813">
        <ele>227.6</ele>
        <time>2022-02-19T13:40:16Z</time>
      </trkpt>
      <trkpt lat="44.23561" lon="1.76815">
        <ele>228.1</ele>
        <time>2022-02-19T13:40:17Z</time>
      </trkpt>
      <trkpt lat="44.23564" lon="1.76818">
        <ele>228.3</ele>
        <time>2022-02-19T13:40:18Z</time>
      </trkpt>
      <trkpt lat="44.23565" lon="1.76819">
        <ele>228.3</ele>
        <time>2022-02-19T13:40:19Z</time>
      </trkpt>
      <trkpt lat="44.23566" lon="1.76821">
        <ele>228.3</ele>
        <time>2022-02-19T13:40:20Z</time>
      </trkpt>
      <trkpt lat="44.23568" lon="1.76823">
        <ele>228.2</ele>
        <time>2022-02-19T13:40:21Z</time>
      </trkpt>
      <trkpt lat="44.23569" lon="1.76823">
        <ele>228.2</ele>
        <time>2022-02-19T13:40:22Z</time>
      </trkpt>
      <trkpt lat="44.2357" lon="1.76824">
        <ele>228.2</ele>
        <time>2022-02-19T13:40:23Z</time>
      </trkpt>
      <trkpt lat="44.23571" lon="1.76825">
        <ele>228.2</ele>
        <time>2022-02-19T13:40:24Z</time>
      </trkpt>
      <trkpt lat="44.23572" lon="1.76827">
        <ele>228.2</ele>
        <time>2022-02-19T13:40:25Z</time>
      </trkpt>
      <trkpt lat="44.23575" lon="1.76831">
        <ele>228.3</ele>
        <time>2022-02-19T13:40:27Z</time>
      </trkpt>
      <trkpt lat="44.23578" lon="1.76834">
        <ele>228.3</ele>
        <time>2022-02-19T13:40:28Z</time>
      </trkpt>
      <trkpt lat="44.23579" lon="1.76835">
        <ele>228.3</ele>
        <time>2022-02-19T13:40:29Z</time>
      </trkpt>
      <trkpt lat="44.23581" lon="1.76836">
        <ele>228.3</ele>
        <time>2022-02-19T13:40:30Z</time>
      </trkpt>
      <trkpt lat="44.23582" lon="1.76837">
        <ele>228.6</ele>
        <time>2022-02-19T13:40:31Z</time>
      </trkpt>
      <trkpt lat="44.23584" lon="1.76838">
        <ele>229</ele>
        <time>2022-02-19T13:40:32Z</time>
      </trkpt>
      <trkpt lat="44.23585" lon="1.76839">
        <ele>229.5</ele>
        <time>2022-02-19T13:40:33Z</time>
      </trkpt>
      <trkpt lat="44.23586" lon="1.7684">
        <ele>230</ele>
        <time>2022-02-19T13:40:34Z</time>
      </trkpt>
      <trkpt lat="44.23587" lon="1.76842">
        <ele>230.4</ele>
        <time>2022-02-19T13:40:35Z</time>
      </trkpt>
      <trkpt lat="44.23588" lon="1.76844">
        <ele>230.9</ele>
        <time>2022-02-19T13:40:36Z</time>
      </trkpt>
      <trkpt lat="44.23589" lon="1.76845">
        <ele>231.3</ele>
        <time>2022-02-19T13:40:37Z</time>
      </trkpt>
      <trkpt lat="44.2359" lon="1.76846">
        <ele>231.5</ele>
        <time>2022-02-19T13:40:38Z</time>
      </trkpt>
      <trkpt lat="44.2359" lon="1.76847">
        <ele>231.8</ele>
        <time>2022-02-19T13:40:39Z</time>
      </trkpt>
      <trkpt lat="44.23591" lon="1.76848">
        <ele>232.1</ele>
        <time>2022-02-19T13:40:40Z</time>
      </trkpt>
      <trkpt lat="44.23592" lon="1.76849">
        <ele>232.4</ele>
        <time>2022-02-19T13:40:41Z</time>
      </trkpt>
      <trkpt lat="44.23593" lon="1.7685">
        <ele>232.7</ele>
        <time>2022-02-19T13:40:42Z</time>
      </trkpt>
      <trkpt lat="44.23594" lon="1.76851">
        <ele>233.1</ele>
        <time>2022-02-19T13:40:43Z</time>
      </trkpt>
      <trkpt lat="44.23596" lon="1.76852">
        <ele>233.7</ele>
        <time>2022-02-19T13:40:44Z</time>
      </trkpt>
      <trkpt lat="44.23597" lon="1.76852">
        <ele>233.9</ele>
        <time>2022-02-19T13:40:45Z</time>
      </trkpt>
      <trkpt lat="44.23597" lon="1.76852">
        <ele>234.1</ele>
        <time>2022-02-19T13:40:46Z</time>
      </trkpt>
      <trkpt lat="44.23599" lon="1.76853">
        <ele>234.5</ele>
        <time>2022-02-19T13:40:47Z</time>
      </trkpt>
      <trkpt lat="44.236" lon="1.76855">
        <ele>234.9</ele>
        <time>2022-02-19T13:40:48Z</time>
      </trkpt>
      <trkpt lat="44.23601" lon="1.76856">
        <ele>235.1</ele>
        <time>2022-02-19T13:40:49Z</time>
      </trkpt>
      <trkpt lat="44.23601" lon="1.76858">
        <ele>235.1</ele>
        <time>2022-02-19T13:40:50Z</time>
      </trkpt>
      <trkpt lat="44.23603" lon="1.7686">
        <ele>235.1</ele>
        <time>2022-02-19T13:40:51Z</time>
      </trkpt>
      <trkpt lat="44.23603" lon="1.76861">
        <ele>235.1</ele>
        <time>2022-02-19T13:40:52Z</time>
      </trkpt>
      <trkpt lat="44.23604" lon="1.76862">
        <ele>235.1</ele>
        <time>2022-02-19T13:40:53Z</time>
      </trkpt>
      <trkpt lat="44.23604" lon="1.76865">
        <ele>235.1</ele>
        <time>2022-02-19T13:40:54Z</time>
      </trkpt>
      <trkpt lat="44.23604" lon="1.76867">
        <ele>235.1</ele>
        <time>2022-02-19T13:40:55Z</time>
      </trkpt>
      <trkpt lat="44.23602" lon="1.76869">
        <ele>235.1</ele>
        <time>2022-02-19T13:40:56Z</time>
      </trkpt>
      <trkpt lat="44.23601" lon="1.76869">
        <ele>235.1</ele>
        <time>2022-02-19T13:40:57Z</time>
      </trkpt>
      <trkpt lat="44.236" lon="1.7687">
        <ele>235.1</ele>
        <time>2022-02-19T13:40:58Z</time>
      </trkpt>
      <trkpt lat="44.23598" lon="1.7687">
        <ele>235.1</ele>
        <time>2022-02-19T13:40:59Z</time>
      </trkpt>
      <trkpt lat="44.23597" lon="1.76871">
        <ele>235.1</ele>
        <time>2022-02-19T13:41:00Z</time>
      </trkpt>
      <trkpt lat="44.23596" lon="1.76872">
        <ele>235.1</ele>
        <time>2022-02-19T13:41:01Z</time>
      </trkpt>
      <trkpt lat="44.23595" lon="1.76874">
        <ele>235.1</ele>
        <time>2022-02-19T13:41:02Z</time>
      </trkpt>
      <trkpt lat="44.23593" lon="1.76874">
        <ele>235.1</ele>
        <time>2022-02-19T13:41:03Z</time>
      </trkpt>
      <trkpt lat="44.23592" lon="1.76875">
        <ele>235.2</ele>
        <time>2022-02-19T13:41:04Z</time>
      </trkpt>
      <trkpt lat="44.2359" lon="1.76876">
        <ele>235.2</ele>
        <time>2022-02-19T13:41:05Z</time>
      </trkpt>
      <trkpt lat="44.23589" lon="1.76877">
        <ele>235.3</ele>
        <time>2022-02-19T13:41:07Z</time>
      </trkpt>
      <trkpt lat="44.23588" lon="1.76879">
        <ele>235.4</ele>
        <time>2022-02-19T13:41:08Z</time>
      </trkpt>
      <trkpt lat="44.23588" lon="1.76881">
        <ele>235.5</ele>
        <time>2022-02-19T13:41:09Z</time>
      </trkpt>
      <trkpt lat="44.2359" lon="1.76883">
        <ele>235.7</ele>
        <time>2022-02-19T13:41:10Z</time>
      </trkpt>
      <trkpt lat="44.23591" lon="1.76884">
        <ele>235.8</ele>
        <time>2022-02-19T13:41:11Z</time>
      </trkpt>
      <trkpt lat="44.23591" lon="1.76885">
        <ele>235.8</ele>
        <time>2022-02-19T13:41:12Z</time>
      </trkpt>
      <trkpt lat="44.23593" lon="1.76887">
        <ele>236</ele>
        <time>2022-02-19T13:41:13Z</time>
      </trkpt>
      <trkpt lat="44.23593" lon="1.76889">
        <ele>236.1</ele>
        <time>2022-02-19T13:41:14Z</time>
      </trkpt>
      <trkpt lat="44.23594" lon="1.76891">
        <ele>236.2</ele>
        <time>2022-02-19T13:41:15Z</time>
      </trkpt>
      <trkpt lat="44.23594" lon="1.76893">
        <ele>236.4</ele>
        <time>2022-02-19T13:41:16Z</time>
      </trkpt>
      <trkpt lat="44.23596" lon="1.76895">
        <ele>236.6</ele>
        <time>2022-02-19T13:41:17Z</time>
      </trkpt>
      <trkpt lat="44.23596" lon="1.76896">
        <ele>236.7</ele>
        <time>2022-02-19T13:41:18Z</time>
      </trkpt>
      <trkpt lat="44.23596" lon="1.76897">
        <ele>236.8</ele>
        <time>2022-02-19T13:41:19Z</time>
      </trkpt>
      <trkpt lat="44.23597" lon="1.76899">
        <ele>236.9</ele>
        <time>2022-02-19T13:41:20Z</time>
      </trkpt>
      <trkpt lat="44.23598" lon="1.769">
        <ele>237.1</ele>
        <time>2022-02-19T13:41:21Z</time>
      </trkpt>
      <trkpt lat="44.23598" lon="1.76902">
        <ele>237.2</ele>
        <time>2022-02-19T13:41:22Z</time>
      </trkpt>
      <trkpt lat="44.23599" lon="1.76903">
        <ele>237.3</ele>
        <time>2022-02-19T13:41:23Z</time>
      </trkpt>
      <trkpt lat="44.23601" lon="1.76905">
        <ele>237.6</ele>
        <time>2022-02-19T13:41:25Z</time>
      </trkpt>
      <trkpt lat="44.23602" lon="1.76906">
        <ele>237.7</ele>
        <time>2022-02-19T13:41:26Z</time>
      </trkpt>
      <trkpt lat="44.23603" lon="1.76907">
        <ele>237.8</ele>
        <time>2022-02-19T13:41:27Z</time>
      </trkpt>
      <trkpt lat="44.23604" lon="1.76908">
        <ele>238</ele>
        <time>2022-02-19T13:41:28Z</time>
      </trkpt>
      <trkpt lat="44.23604" lon="1.76909">
        <ele>238.1</ele>
        <time>2022-02-19T13:41:29Z</time>
      </trkpt>
      <trkpt lat="44.23605" lon="1.7691">
        <ele>238.1</ele>
        <time>2022-02-19T13:41:30Z</time>
      </trkpt>
      <trkpt lat="44.23605" lon="1.76911">
        <ele>238.2</ele>
        <time>2022-02-19T13:41:31Z</time>
      </trkpt>
      <trkpt lat="44.23606" lon="1.76914">
        <ele>238.5</ele>
        <time>2022-02-19T13:41:33Z</time>
      </trkpt>
      <trkpt lat="44.23607" lon="1.76917">
        <ele>238.7</ele>
        <time>2022-02-19T13:41:34Z</time>
      </trkpt>
      <trkpt lat="44.23608" lon="1.76917">
        <ele>238.8</ele>
        <time>2022-02-19T13:41:35Z</time>
      </trkpt>
      <trkpt lat="44.23608" lon="1.76918">
        <ele>238.8</ele>
        <time>2022-02-19T13:41:36Z</time>
      </trkpt>
      <trkpt lat="44.23609" lon="1.76921">
        <ele>239.4</ele>
        <time>2022-02-19T13:41:37Z</time>
      </trkpt>
      <trkpt lat="44.2361" lon="1.76922">
        <ele>240.1</ele>
        <time>2022-02-19T13:41:38Z</time>
      </trkpt>
      <trkpt lat="44.2361" lon="1.76923">
        <ele>240.7</ele>
        <time>2022-02-19T13:41:39Z</time>
      </trkpt>
      <trkpt lat="44.23611" lon="1.76925">
        <ele>241.5</ele>
        <time>2022-02-19T13:41:40Z</time>
      </trkpt>
      <trkpt lat="44.23611" lon="1.76926">
        <ele>242.2</ele>
        <time>2022-02-19T13:41:41Z</time>
      </trkpt>
      <trkpt lat="44.23611" lon="1.76927">
        <ele>242.5</ele>
        <time>2022-02-19T13:41:42Z</time>
      </trkpt>
      <trkpt lat="44.23611" lon="1.76927">
        <ele>242.5</ele>
        <time>2022-02-19T13:41:43Z</time>
      </trkpt>
      <trkpt lat="44.23611" lon="1.76929">
        <ele>242.5</ele>
        <time>2022-02-19T13:41:45Z</time>
      </trkpt>
      <trkpt lat="44.23612" lon="1.76929">
        <ele>242.5</ele>
        <time>2022-02-19T13:41:46Z</time>
      </trkpt>
      <trkpt lat="44.23612" lon="1.7693">
        <ele>242.5</ele>
        <time>2022-02-19T13:41:47Z</time>
      </trkpt>
      <trkpt lat="44.23613" lon="1.76929">
        <ele>242.5</ele>
        <time>2022-02-19T13:41:48Z</time>
      </trkpt>
      <trkpt lat="44.23614" lon="1.76928">
        <ele>242.5</ele>
        <time>2022-02-19T13:41:50Z</time>
      </trkpt>
      <trkpt lat="44.23614" lon="1.76926">
        <ele>242.5</ele>
        <time>2022-02-19T13:41:51Z</time>
      </trkpt>
      <trkpt lat="44.23615" lon="1.76926">
        <ele>242.5</ele>
        <time>2022-02-19T13:41:52Z</time>
      </trkpt>
      <trkpt lat="44.23615" lon="1.76925">
        <ele>242.5</ele>
        <time>2022-02-19T13:41:53Z</time>
      </trkpt>
      <trkpt lat="44.23615" lon="1.76925">
        <ele>242.5</ele>
        <time>2022-02-19T13:41:54Z</time>
      </trkpt>
      <trkpt lat="44.23615" lon="1.76925">
        <ele>242.5</ele>
        <time>2022-02-19T13:41:55Z</time>
      </trkpt>
      <trkpt lat="44.23615" lon="1.76925">
        <ele>242.5</ele>
        <time>2022-02-19T13:41:56Z</time>
      </trkpt>
      <trkpt lat="44.23615" lon="1.76925">
        <ele>242.5</ele>
        <time>2022-02-19T13:41:57Z</time>
      </trkpt>
      <trkpt lat="44.23615" lon="1.76925">
        <ele>242.5</ele>
        <time>2022-02-19T13:41:58Z</time>
      </trkpt>
      <trkpt lat="44.23616" lon="1.7693">
        <ele>242.5</ele>
        <time>2022-02-19T13:42:20Z</time>
      </trkpt>
      <trkpt lat="44.23616" lon="1.76932">
        <ele>242.5</ele>
        <time>2022-02-19T13:42:21Z</time>
      </trkpt>
      <trkpt lat="44.23617" lon="1.76934">
        <ele>242.5</ele>
        <time>2022-02-19T13:42:22Z</time>
      </trkpt>
      <trkpt lat="44.23618" lon="1.76936">
        <ele>242.5</ele>
        <time>2022-02-19T13:42:23Z</time>
      </trkpt>
      <trkpt lat="44.23618" lon="1.76938">
        <ele>242.5</ele>
        <time>2022-02-19T13:42:24Z</time>
      </trkpt>
      <trkpt lat="44.23618" lon="1.76941">
        <ele>242.5</ele>
        <time>2022-02-19T13:42:25Z</time>
      </trkpt>
      <trkpt lat="44.23618" lon="1.76943">
        <ele>242.5</ele>
        <time>2022-02-19T13:42:26Z</time>
      </trkpt>
      <trkpt lat="44.23619" lon="1.76944">
        <ele>242.5</ele>
        <time>2022-02-19T13:42:27Z</time>
      </trkpt>
      <trkpt lat="44.23619" lon="1.76947">
        <ele>242.1</ele>
        <time>2022-02-19T13:42:28Z</time>
      </trkpt>
      <trkpt lat="44.23618" lon="1.76948">
        <ele>241.9</ele>
        <time>2022-02-19T13:42:29Z</time>
      </trkpt>
      <trkpt lat="44.23618" lon="1.7695">
        <ele>241.7</ele>
        <time>2022-02-19T13:42:30Z</time>
      </trkpt>
      <trkpt lat="44.23618" lon="1.76952">
        <ele>241.4</ele>
        <time>2022-02-19T13:42:31Z</time>
      </trkpt>
      <trkpt lat="44.23618" lon="1.76954">
        <ele>241</ele>
        <time>2022-02-19T13:42:32Z</time>
      </trkpt>
      <trkpt lat="44.23617" lon="1.76957">
        <ele>240.5</ele>
        <time>2022-02-19T13:42:33Z</time>
      </trkpt>
      <trkpt lat="44.23617" lon="1.76959">
        <ele>240.4</ele>
        <time>2022-02-19T13:42:34Z</time>
      </trkpt>
      <trkpt lat="44.23617" lon="1.7696">
        <ele>240.2</ele>
        <time>2022-02-19T13:42:35Z</time>
      </trkpt>
      <trkpt lat="44.23617" lon="1.76962">
        <ele>239.8</ele>
        <time>2022-02-19T13:42:36Z</time>
      </trkpt>
      <trkpt lat="44.23616" lon="1.76964">
        <ele>239.5</ele>
        <time>2022-02-19T13:42:37Z</time>
      </trkpt>
      <trkpt lat="44.23616" lon="1.76966">
        <ele>239.2</ele>
        <time>2022-02-19T13:42:38Z</time>
      </trkpt>
      <trkpt lat="44.23616" lon="1.76969">
        <ele>238.9</ele>
        <time>2022-02-19T13:42:39Z</time>
      </trkpt>
      <trkpt lat="44.23615" lon="1.76971">
        <ele>238.5</ele>
        <time>2022-02-19T13:42:40Z</time>
      </trkpt>
      <trkpt lat="44.23615" lon="1.76973">
        <ele>238.2</ele>
        <time>2022-02-19T13:42:41Z</time>
      </trkpt>
      <trkpt lat="44.23615" lon="1.76976">
        <ele>237.8</ele>
        <time>2022-02-19T13:42:42Z</time>
      </trkpt>
      <trkpt lat="44.23615" lon="1.76977">
        <ele>237.6</ele>
        <time>2022-02-19T13:42:43Z</time>
      </trkpt>
      <trkpt lat="44.23615" lon="1.76978">
        <ele>237.5</ele>
        <time>2022-02-19T13:42:44Z</time>
      </trkpt>
      <trkpt lat="44.23615" lon="1.76981">
        <ele>237</ele>
        <time>2022-02-19T13:42:45Z</time>
      </trkpt>
      <trkpt lat="44.23615" lon="1.76982">
        <ele>236.8</ele>
        <time>2022-02-19T13:42:46Z</time>
      </trkpt>
      <trkpt lat="44.23615" lon="1.76984">
        <ele>236.6</ele>
        <time>2022-02-19T13:42:47Z</time>
      </trkpt>
      <trkpt lat="44.23615" lon="1.76986">
        <ele>236.6</ele>
        <time>2022-02-19T13:42:48Z</time>
      </trkpt>
      <trkpt lat="44.23615" lon="1.76988">
        <ele>236.7</ele>
        <time>2022-02-19T13:42:49Z</time>
      </trkpt>
      <trkpt lat="44.23615" lon="1.76989">
        <ele>236.8</ele>
        <time>2022-02-19T13:42:50Z</time>
      </trkpt>
      <trkpt lat="44.23615" lon="1.7699">
        <ele>236.9</ele>
        <time>2022-02-19T13:42:51Z</time>
      </trkpt>
      <trkpt lat="44.23616" lon="1.7699">
        <ele>236.9</ele>
        <time>2022-02-19T13:42:52Z</time>
      </trkpt>
      <trkpt lat="44.23616" lon="1.7699">
        <ele>236.9</ele>
        <time>2022-02-19T13:42:53Z</time>
      </trkpt>
      <trkpt lat="44.23616" lon="1.7699">
        <ele>237</ele>
        <time>2022-02-19T13:42:54Z</time>
      </trkpt>
      <trkpt lat="44.23617" lon="1.76989">
        <ele>237</ele>
        <time>2022-02-19T13:42:55Z</time>
      </trkpt>
      <trkpt lat="44.23617" lon="1.76987">
        <ele>237.2</ele>
        <time>2022-02-19T13:42:56Z</time>
      </trkpt>
      <trkpt lat="44.23618" lon="1.76986">
        <ele>237.3</ele>
        <time>2022-02-19T13:42:57Z</time>
      </trkpt>
      <trkpt lat="44.23619" lon="1.76985">
        <ele>237.4</ele>
        <time>2022-02-19T13:42:58Z</time>
      </trkpt>
      <trkpt lat="44.2362" lon="1.76985">
        <ele>237.5</ele>
        <time>2022-02-19T13:42:59Z</time>
      </trkpt>
      <trkpt lat="44.23621" lon="1.76984">
        <ele>237.6</ele>
        <time>2022-02-19T13:43:00Z</time>
      </trkpt>
      <trkpt lat="44.23622" lon="1.76985">
        <ele>237.7</ele>
        <time>2022-02-19T13:43:01Z</time>
      </trkpt>
      <trkpt lat="44.23623" lon="1.76986">
        <ele>237.8</ele>
        <time>2022-02-19T13:43:02Z</time>
      </trkpt>
      <trkpt lat="44.23624" lon="1.76987">
        <ele>237.9</ele>
        <time>2022-02-19T13:43:03Z</time>
      </trkpt>
      <trkpt lat="44.23625" lon="1.76988">
        <ele>238</ele>
        <time>2022-02-19T13:43:04Z</time>
      </trkpt>
      <trkpt lat="44.23626" lon="1.76988">
        <ele>238.1</ele>
        <time>2022-02-19T13:43:05Z</time>
      </trkpt>
      <trkpt lat="44.23627" lon="1.76988">
        <ele>238.2</ele>
        <time>2022-02-19T13:43:06Z</time>
      </trkpt>
      <trkpt lat="44.2363" lon="1.76988">
        <ele>238.5</ele>
        <time>2022-02-19T13:43:07Z</time>
      </trkpt>
      <trkpt lat="44.23631" lon="1.76988">
        <ele>238.6</ele>
        <time>2022-02-19T13:43:08Z</time>
      </trkpt>
      <trkpt lat="44.23635" lon="1.76989">
        <ele>239</ele>
        <time>2022-02-19T13:43:09Z</time>
      </trkpt>
      <trkpt lat="44.23637" lon="1.76989">
        <ele>239.1</ele>
        <time>2022-02-19T13:43:10Z</time>
      </trkpt>
      <trkpt lat="44.23641" lon="1.7699">
        <ele>239.5</ele>
        <time>2022-02-19T13:43:11Z</time>
      </trkpt>
      <trkpt lat="44.23642" lon="1.7699">
        <ele>239.6</ele>
        <time>2022-02-19T13:43:12Z</time>
      </trkpt>
      <trkpt lat="44.23645" lon="1.76991">
        <ele>239.9</ele>
        <time>2022-02-19T13:43:13Z</time>
      </trkpt>
      <trkpt lat="44.23647" lon="1.76992">
        <ele>239.9</ele>
        <time>2022-02-19T13:43:14Z</time>
      </trkpt>
      <trkpt lat="44.23649" lon="1.76994">
        <ele>239.9</ele>
        <time>2022-02-19T13:43:15Z</time>
      </trkpt>
      <trkpt lat="44.23651" lon="1.76994">
        <ele>239.9</ele>
        <time>2022-02-19T13:43:16Z</time>
      </trkpt>
      <trkpt lat="44.23654" lon="1.76996">
        <ele>239.8</ele>
        <time>2022-02-19T13:43:17Z</time>
      </trkpt>
      <trkpt lat="44.23655" lon="1.76996">
        <ele>239.9</ele>
        <time>2022-02-19T13:43:18Z</time>
      </trkpt>
      <trkpt lat="44.23656" lon="1.76996">
        <ele>239.9</ele>
        <time>2022-02-19T13:43:19Z</time>
      </trkpt>
      <trkpt lat="44.23657" lon="1.76997">
        <ele>239.9</ele>
        <time>2022-02-19T13:43:20Z</time>
      </trkpt>
      <trkpt lat="44.23658" lon="1.76996">
        <ele>240</ele>
        <time>2022-02-19T13:43:21Z</time>
      </trkpt>
      <trkpt lat="44.23658" lon="1.76996">
        <ele>240</ele>
        <time>2022-02-19T13:43:22Z</time>
      </trkpt>
      <trkpt lat="44.23658" lon="1.76995">
        <ele>240</ele>
        <time>2022-02-19T13:43:23Z</time>
      </trkpt>
      <trkpt lat="44.23659" lon="1.76995">
        <ele>240</ele>
        <time>2022-02-19T13:43:24Z</time>
      </trkpt>
      <trkpt lat="44.23659" lon="1.76996">
        <ele>240.1</ele>
        <time>2022-02-19T13:43:25Z</time>
      </trkpt>
      <trkpt lat="44.2366" lon="1.76996">
        <ele>240.1</ele>
        <time>2022-02-19T13:43:26Z</time>
      </trkpt>
      <trkpt lat="44.23661" lon="1.76995">
        <ele>240.1</ele>
        <time>2022-02-19T13:43:27Z</time>
      </trkpt>
      <trkpt lat="44.23661" lon="1.76994">
        <ele>240.2</ele>
        <time>2022-02-19T13:43:28Z</time>
      </trkpt>
      <trkpt lat="44.23661" lon="1.76992">
        <ele>240.2</ele>
        <time>2022-02-19T13:43:29Z</time>
      </trkpt>
      <trkpt lat="44.2366" lon="1.7699">
        <ele>240.3</ele>
        <time>2022-02-19T13:43:30Z</time>
      </trkpt>
      <trkpt lat="44.23659" lon="1.76989">
        <ele>240.3</ele>
        <time>2022-02-19T13:43:31Z</time>
      </trkpt>
      <trkpt lat="44.23658" lon="1.76988">
        <ele>240.4</ele>
        <time>2022-02-19T13:43:32Z</time>
      </trkpt>
      <trkpt lat="44.23658" lon="1.76987">
        <ele>240.4</ele>
        <time>2022-02-19T13:43:33Z</time>
      </trkpt>
      <trkpt lat="44.23658" lon="1.76985">
        <ele>240.4</ele>
        <time>2022-02-19T13:43:34Z</time>
      </trkpt>
      <trkpt lat="44.23658" lon="1.76983">
        <ele>240.5</ele>
        <time>2022-02-19T13:43:35Z</time>
      </trkpt>
      <trkpt lat="44.23658" lon="1.76982">
        <ele>240.5</ele>
        <time>2022-02-19T13:43:36Z</time>
      </trkpt>
      <trkpt lat="44.23659" lon="1.7698">
        <ele>240.6</ele>
        <time>2022-02-19T13:43:37Z</time>
      </trkpt>
      <trkpt lat="44.23659" lon="1.76978">
        <ele>240.6</ele>
        <time>2022-02-19T13:43:38Z</time>
      </trkpt>
      <trkpt lat="44.23659" lon="1.76977">
        <ele>240.7</ele>
        <time>2022-02-19T13:43:39Z</time>
      </trkpt>
      <trkpt lat="44.23659" lon="1.76975">
        <ele>240.7</ele>
        <time>2022-02-19T13:43:40Z</time>
      </trkpt>
      <trkpt lat="44.23659" lon="1.76974">
        <ele>240.8</ele>
        <time>2022-02-19T13:43:41Z</time>
      </trkpt>
      <trkpt lat="44.23659" lon="1.76973">
        <ele>240.8</ele>
        <time>2022-02-19T13:43:42Z</time>
      </trkpt>
      <trkpt lat="44.23659" lon="1.7697">
        <ele>240.9</ele>
        <time>2022-02-19T13:43:43Z</time>
      </trkpt>
      <trkpt lat="44.2366" lon="1.76969">
        <ele>240.9</ele>
        <time>2022-02-19T13:43:44Z</time>
      </trkpt>
      <trkpt lat="44.2366" lon="1.76967">
        <ele>241</ele>
        <time>2022-02-19T13:43:45Z</time>
      </trkpt>
      <trkpt lat="44.23661" lon="1.76964">
        <ele>241.1</ele>
        <time>2022-02-19T13:43:46Z</time>
      </trkpt>
      <trkpt lat="44.23661" lon="1.76962">
        <ele>241.2</ele>
        <time>2022-02-19T13:43:47Z</time>
      </trkpt>
      <trkpt lat="44.23661" lon="1.7696">
        <ele>241.3</ele>
        <time>2022-02-19T13:43:48Z</time>
      </trkpt>
      <trkpt lat="44.23661" lon="1.76958">
        <ele>241.4</ele>
        <time>2022-02-19T13:43:49Z</time>
      </trkpt>
      <trkpt lat="44.23661" lon="1.76954">
        <ele>241.5</ele>
        <time>2022-02-19T13:43:50Z</time>
      </trkpt>
      <trkpt lat="44.23661" lon="1.76952">
        <ele>241.6</ele>
        <time>2022-02-19T13:43:51Z</time>
      </trkpt>
      <trkpt lat="44.23662" lon="1.76948">
        <ele>241.8</ele>
        <time>2022-02-19T13:43:52Z</time>
      </trkpt>
      <trkpt lat="44.23662" lon="1.76947">
        <ele>241.9</ele>
        <time>2022-02-19T13:43:53Z</time>
      </trkpt>
      <trkpt lat="44.23661" lon="1.76943">
        <ele>242</ele>
        <time>2022-02-19T13:43:54Z</time>
      </trkpt>
      <trkpt lat="44.23661" lon="1.76941">
        <ele>242.1</ele>
        <time>2022-02-19T13:43:55Z</time>
      </trkpt>
      <trkpt lat="44.23661" lon="1.76939">
        <ele>242.2</ele>
        <time>2022-02-19T13:43:56Z</time>
      </trkpt>
      <trkpt lat="44.23661" lon="1.76937">
        <ele>242.3</ele>
        <time>2022-02-19T13:43:57Z</time>
      </trkpt>
      <trkpt lat="44.23661" lon="1.76935">
        <ele>242.4</ele>
        <time>2022-02-19T13:43:58Z</time>
      </trkpt>
      <trkpt lat="44.23662" lon="1.76932">
        <ele>242.4</ele>
        <time>2022-02-19T13:43:59Z</time>
      </trkpt>
      <trkpt lat="44.23662" lon="1.76929">
        <ele>242.5</ele>
        <time>2022-02-19T13:44:00Z</time>
      </trkpt>
      <trkpt lat="44.23662" lon="1.76927">
        <ele>242.6</ele>
        <time>2022-02-19T13:44:01Z</time>
      </trkpt>
      <trkpt lat="44.23663" lon="1.76923">
        <ele>242.8</ele>
        <time>2022-02-19T13:44:02Z</time>
      </trkpt>
      <trkpt lat="44.23663" lon="1.76921">
        <ele>242.8</ele>
        <time>2022-02-19T13:44:03Z</time>
      </trkpt>
      <trkpt lat="44.23664" lon="1.76918">
        <ele>242.9</ele>
        <time>2022-02-19T13:44:04Z</time>
      </trkpt>
      <trkpt lat="44.23664" lon="1.76917">
        <ele>242.9</ele>
        <time>2022-02-19T13:44:05Z</time>
      </trkpt>
      <trkpt lat="44.23665" lon="1.76914">
        <ele>243</ele>
        <time>2022-02-19T13:44:06Z</time>
      </trkpt>
      <trkpt lat="44.23665" lon="1.76912">
        <ele>243</ele>
        <time>2022-02-19T13:44:07Z</time>
      </trkpt>
      <trkpt lat="44.23665" lon="1.7691">
        <ele>243.1</ele>
        <time>2022-02-19T13:44:08Z</time>
      </trkpt>
      <trkpt lat="44.23666" lon="1.76907">
        <ele>243.1</ele>
        <time>2022-02-19T13:44:09Z</time>
      </trkpt>
      <trkpt lat="44.23667" lon="1.76905">
        <ele>243.2</ele>
        <time>2022-02-19T13:44:10Z</time>
      </trkpt>
      <trkpt lat="44.23668" lon="1.76905">
        <ele>244.2</ele>
        <time>2022-02-19T13:44:11Z</time>
      </trkpt>
      <trkpt lat="44.2367" lon="1.76905">
        <ele>244.6</ele>
        <time>2022-02-19T13:44:12Z</time>
      </trkpt>
      <trkpt lat="44.2367" lon="1.76905">
        <ele>244.8</ele>
        <time>2022-02-19T13:44:13Z</time>
      </trkpt>
      <trkpt lat="44.23671" lon="1.76906">
        <ele>245</ele>
        <time>2022-02-19T13:44:14Z</time>
      </trkpt>
      <trkpt lat="44.23672" lon="1.76908">
        <ele>245.4</ele>
        <time>2022-02-19T13:44:15Z</time>
      </trkpt>
      <trkpt lat="44.23674" lon="1.76913">
        <ele>246.4</ele>
        <time>2022-02-19T13:44:17Z</time>
      </trkpt>
      <trkpt lat="44.23676" lon="1.76916">
        <ele>247.1</ele>
        <time>2022-02-19T13:44:18Z</time>
      </trkpt>
      <trkpt lat="44.23677" lon="1.7692">
        <ele>247.7</ele>
        <time>2022-02-19T13:44:19Z</time>
      </trkpt>
      <trkpt lat="44.23678" lon="1.76925">
        <ele>248.6</ele>
        <time>2022-02-19T13:44:20Z</time>
      </trkpt>
      <trkpt lat="44.23679" lon="1.76926">
        <ele>248.9</ele>
        <time>2022-02-19T13:44:21Z</time>
      </trkpt>
      <trkpt lat="44.2368" lon="1.7693">
        <ele>249.6</ele>
        <time>2022-02-19T13:44:22Z</time>
      </trkpt>
      <trkpt lat="44.23681" lon="1.76932">
        <ele>249.9</ele>
        <time>2022-02-19T13:44:23Z</time>
      </trkpt>
      <trkpt lat="44.23683" lon="1.76935">
        <ele>250.5</ele>
        <time>2022-02-19T13:44:24Z</time>
      </trkpt>
      <trkpt lat="44.23683" lon="1.76936">
        <ele>250.5</ele>
        <time>2022-02-19T13:44:25Z</time>
      </trkpt>
      <trkpt lat="44.23684" lon="1.76939">
        <ele>250.8</ele>
        <time>2022-02-19T13:44:26Z</time>
      </trkpt>
      <trkpt lat="44.23685" lon="1.7694">
        <ele>251</ele>
        <time>2022-02-19T13:44:27Z</time>
      </trkpt>
      <trkpt lat="44.23685" lon="1.76941">
        <ele>251.1</ele>
        <time>2022-02-19T13:44:28Z</time>
      </trkpt>
      <trkpt lat="44.23685" lon="1.76945">
        <ele>251.6</ele>
        <time>2022-02-19T13:44:29Z</time>
      </trkpt>
      <trkpt lat="44.23685" lon="1.76946">
        <ele>251.7</ele>
        <time>2022-02-19T13:44:30Z</time>
      </trkpt>
      <trkpt lat="44.23686" lon="1.76949">
        <ele>252</ele>
        <time>2022-02-19T13:44:31Z</time>
      </trkpt>
      <trkpt lat="44.23686" lon="1.76951">
        <ele>252.3</ele>
        <time>2022-02-19T13:44:32Z</time>
      </trkpt>
      <trkpt lat="44.23686" lon="1.76953">
        <ele>252.5</ele>
        <time>2022-02-19T13:44:33Z</time>
      </trkpt>
      <trkpt lat="44.23686" lon="1.76955">
        <ele>252.8</ele>
        <time>2022-02-19T13:44:34Z</time>
      </trkpt>
      <trkpt lat="44.23686" lon="1.76958">
        <ele>253.1</ele>
        <time>2022-02-19T13:44:35Z</time>
      </trkpt>
      <trkpt lat="44.23686" lon="1.7696">
        <ele>253.4</ele>
        <time>2022-02-19T13:44:36Z</time>
      </trkpt>
      <trkpt lat="44.23686" lon="1.76962">
        <ele>253.6</ele>
        <time>2022-02-19T13:44:37Z</time>
      </trkpt>
      <trkpt lat="44.23685" lon="1.76965">
        <ele>254</ele>
        <time>2022-02-19T13:44:38Z</time>
      </trkpt>
      <trkpt lat="44.23685" lon="1.76967">
        <ele>254.2</ele>
        <time>2022-02-19T13:44:39Z</time>
      </trkpt>
      <trkpt lat="44.23685" lon="1.76969">
        <ele>254.6</ele>
        <time>2022-02-19T13:44:40Z</time>
      </trkpt>
      <trkpt lat="44.23685" lon="1.76973">
        <ele>255.1</ele>
        <time>2022-02-19T13:44:41Z</time>
      </trkpt>
      <trkpt lat="44.23685" lon="1.76974">
        <ele>255.1</ele>
        <time>2022-02-19T13:44:42Z</time>
      </trkpt>
      <trkpt lat="44.23686" lon="1.76976">
        <ele>255.3</ele>
        <time>2022-02-19T13:44:43Z</time>
      </trkpt>
      <trkpt lat="44.23686" lon="1.76978">
        <ele>255.4</ele>
        <time>2022-02-19T13:44:44Z</time>
      </trkpt>
      <trkpt lat="44.23687" lon="1.7698">
        <ele>255.5</ele>
        <time>2022-02-19T13:44:45Z</time>
      </trkpt>
      <trkpt lat="44.23688" lon="1.76981">
        <ele>255.6</ele>
        <time>2022-02-19T13:44:46Z</time>
      </trkpt>
      <trkpt lat="44.2369" lon="1.76981">
        <ele>255.8</ele>
        <time>2022-02-19T13:44:47Z</time>
      </trkpt>
      <trkpt lat="44.23692" lon="1.76981">
        <ele>255.9</ele>
        <time>2022-02-19T13:44:48Z</time>
      </trkpt>
      <trkpt lat="44.23694" lon="1.76977">
        <ele>256.1</ele>
        <time>2022-02-19T13:44:50Z</time>
      </trkpt>
      <trkpt lat="44.23694" lon="1.76975">
        <ele>256.2</ele>
        <time>2022-02-19T13:44:51Z</time>
      </trkpt>
      <trkpt lat="44.23694" lon="1.76972">
        <ele>256.4</ele>
        <time>2022-02-19T13:44:52Z</time>
      </trkpt>
      <trkpt lat="44.23694" lon="1.76969">
        <ele>256.5</ele>
        <time>2022-02-19T13:44:54Z</time>
      </trkpt>
      <trkpt lat="44.23694" lon="1.76967">
        <ele>256.6</ele>
        <time>2022-02-19T13:44:55Z</time>
      </trkpt>
      <trkpt lat="44.23693" lon="1.76966">
        <ele>256.6</ele>
        <time>2022-02-19T13:44:56Z</time>
      </trkpt>
      <trkpt lat="44.23694" lon="1.76964">
        <ele>256.7</ele>
        <time>2022-02-19T13:44:57Z</time>
      </trkpt>
      <trkpt lat="44.23694" lon="1.76963">
        <ele>256.8</ele>
        <time>2022-02-19T13:44:58Z</time>
      </trkpt>
      <trkpt lat="44.23695" lon="1.76962">
        <ele>256.8</ele>
        <time>2022-02-19T13:44:59Z</time>
      </trkpt>
      <trkpt lat="44.23695" lon="1.7696">
        <ele>256.9</ele>
        <time>2022-02-19T13:45:00Z</time>
      </trkpt>
      <trkpt lat="44.23696" lon="1.76958">
        <ele>257</ele>
        <time>2022-02-19T13:45:01Z</time>
      </trkpt>
      <trkpt lat="44.23696" lon="1.76958">
        <ele>257</ele>
        <time>2022-02-19T13:45:02Z</time>
      </trkpt>
      <trkpt lat="44.23697" lon="1.76957">
        <ele>257</ele>
        <time>2022-02-19T13:45:03Z</time>
      </trkpt>
      <trkpt lat="44.23697" lon="1.76956">
        <ele>257.1</ele>
        <time>2022-02-19T13:45:04Z</time>
      </trkpt>
      <trkpt lat="44.23698" lon="1.76955">
        <ele>257.1</ele>
        <time>2022-02-19T13:45:05Z</time>
      </trkpt>
      <trkpt lat="44.23699" lon="1.76954">
        <ele>257.2</ele>
        <time>2022-02-19T13:45:06Z</time>
      </trkpt>
      <trkpt lat="44.237" lon="1.76954">
        <ele>257.2</ele>
        <time>2022-02-19T13:45:07Z</time>
      </trkpt>
      <trkpt lat="44.237" lon="1.76952">
        <ele>257.3</ele>
        <time>2022-02-19T13:45:08Z</time>
      </trkpt>
      <trkpt lat="44.237" lon="1.76951">
        <ele>257.4</ele>
        <time>2022-02-19T13:45:09Z</time>
      </trkpt>
      <trkpt lat="44.237" lon="1.7695">
        <ele>257.5</ele>
        <time>2022-02-19T13:45:10Z</time>
      </trkpt>
      <trkpt lat="44.237" lon="1.76949">
        <ele>257.6</ele>
        <time>2022-02-19T13:45:11Z</time>
      </trkpt>
      <trkpt lat="44.23701" lon="1.76948">
        <ele>257.6</ele>
        <time>2022-02-19T13:45:12Z</time>
      </trkpt>
      <trkpt lat="44.23701" lon="1.76948">
        <ele>257.7</ele>
        <time>2022-02-19T13:45:13Z</time>
      </trkpt>
      <trkpt lat="44.23702" lon="1.76948">
        <ele>257.7</ele>
        <time>2022-02-19T13:45:14Z</time>
      </trkpt>
      <trkpt lat="44.23702" lon="1.76948">
        <ele>257.8</ele>
        <time>2022-02-19T13:45:15Z</time>
      </trkpt>
      <trkpt lat="44.23703" lon="1.76947">
        <ele>257.8</ele>
        <time>2022-02-19T13:45:16Z</time>
      </trkpt>
      <trkpt lat="44.23703" lon="1.76946">
        <ele>257.9</ele>
        <time>2022-02-19T13:45:17Z</time>
      </trkpt>
      <trkpt lat="44.23705" lon="1.76945">
        <ele>258</ele>
        <time>2022-02-19T13:45:19Z</time>
      </trkpt>
      <trkpt lat="44.23705" lon="1.76945">
        <ele>258.1</ele>
        <time>2022-02-19T13:45:20Z</time>
      </trkpt>
      <trkpt lat="44.23706" lon="1.76944">
        <ele>258.1</ele>
        <time>2022-02-19T13:45:21Z</time>
      </trkpt>
      <trkpt lat="44.23707" lon="1.76944">
        <ele>258.2</ele>
        <time>2022-02-19T13:45:22Z</time>
      </trkpt>
      <trkpt lat="44.23707" lon="1.76944">
        <ele>258.3</ele>
        <time>2022-02-19T13:45:23Z</time>
      </trkpt>
      <trkpt lat="44.23708" lon="1.76943">
        <ele>258.3</ele>
        <time>2022-02-19T13:45:24Z</time>
      </trkpt>
      <trkpt lat="44.23709" lon="1.76942">
        <ele>258.4</ele>
        <time>2022-02-19T13:45:25Z</time>
      </trkpt>
      <trkpt lat="44.23709" lon="1.76941">
        <ele>258.5</ele>
        <time>2022-02-19T13:45:26Z</time>
      </trkpt>
      <trkpt lat="44.2371" lon="1.76941">
        <ele>258.5</ele>
        <time>2022-02-19T13:45:27Z</time>
      </trkpt>
      <trkpt lat="44.2371" lon="1.7694">
        <ele>258.6</ele>
        <time>2022-02-19T13:45:28Z</time>
      </trkpt>
      <trkpt lat="44.2371" lon="1.76939">
        <ele>258.6</ele>
        <time>2022-02-19T13:45:29Z</time>
      </trkpt>
      <trkpt lat="44.23711" lon="1.76939">
        <ele>258.7</ele>
        <time>2022-02-19T13:45:30Z</time>
      </trkpt>
      <trkpt lat="44.23711" lon="1.76938">
        <ele>258.7</ele>
        <time>2022-02-19T13:45:31Z</time>
      </trkpt>
      <trkpt lat="44.23712" lon="1.76938">
        <ele>258.8</ele>
        <time>2022-02-19T13:45:32Z</time>
      </trkpt>
      <trkpt lat="44.23712" lon="1.76937">
        <ele>258.9</ele>
        <time>2022-02-19T13:45:34Z</time>
      </trkpt>
      <trkpt lat="44.23713" lon="1.76935">
        <ele>259.1</ele>
        <time>2022-02-19T13:45:36Z</time>
      </trkpt>
      <trkpt lat="44.23714" lon="1.76934">
        <ele>259.1</ele>
        <time>2022-02-19T13:45:37Z</time>
      </trkpt>
      <trkpt lat="44.23714" lon="1.76934">
        <ele>259.2</ele>
        <time>2022-02-19T13:45:38Z</time>
      </trkpt>
      <trkpt lat="44.23715" lon="1.76935">
        <ele>259.2</ele>
        <time>2022-02-19T13:45:39Z</time>
      </trkpt>
      <trkpt lat="44.23715" lon="1.76935">
        <ele>259.2</ele>
        <time>2022-02-19T13:45:41Z</time>
      </trkpt>
      <trkpt lat="44.23715" lon="1.76935">
        <ele>259.3</ele>
        <time>2022-02-19T13:45:42Z</time>
      </trkpt>
      <trkpt lat="44.23715" lon="1.76935">
        <ele>259.3</ele>
        <time>2022-02-19T13:45:43Z</time>
      </trkpt>
      <trkpt lat="44.23714" lon="1.76935">
        <ele>259.3</ele>
        <time>2022-02-19T13:45:44Z</time>
      </trkpt>
      <trkpt lat="44.23714" lon="1.76935">
        <ele>259.3</ele>
        <time>2022-02-19T13:45:45Z</time>
      </trkpt>
      <trkpt lat="44.23714" lon="1.76935">
        <ele>259.3</ele>
        <time>2022-02-19T13:45:46Z</time>
      </trkpt>
      <trkpt lat="44.23714" lon="1.76935">
        <ele>259.3</ele>
        <time>2022-02-19T13:45:47Z</time>
      </trkpt>
      <trkpt lat="44.23714" lon="1.76935">
        <ele>259.3</ele>
        <time>2022-02-19T13:45:48Z</time>
      </trkpt>
      <trkpt lat="44.23714" lon="1.76935">
        <ele>259.4</ele>
        <time>2022-02-19T13:45:49Z</time>
      </trkpt>
      <trkpt lat="44.23715" lon="1.76935">
        <ele>259.4</ele>
        <time>2022-02-19T13:45:50Z</time>
      </trkpt>
      <trkpt lat="44.23715" lon="1.76934">
        <ele>259.5</ele>
        <time>2022-02-19T13:45:51Z</time>
      </trkpt>
      <trkpt lat="44.23718" lon="1.76932">
        <ele>259.8</ele>
        <time>2022-02-19T13:45:56Z</time>
      </trkpt>
      <trkpt lat="44.23719" lon="1.7693">
        <ele>260</ele>
        <time>2022-02-19T13:45:57Z</time>
      </trkpt>
      <trkpt lat="44.2372" lon="1.7693">
        <ele>260.1</ele>
        <time>2022-02-19T13:45:58Z</time>
      </trkpt>
      <trkpt lat="44.23722" lon="1.76928">
        <ele>260.3</ele>
        <time>2022-02-19T13:46:00Z</time>
      </trkpt>
      <trkpt lat="44.23723" lon="1.76927">
        <ele>260.4</ele>
        <time>2022-02-19T13:46:01Z</time>
      </trkpt>
      <trkpt lat="44.23724" lon="1.76925">
        <ele>260.5</ele>
        <time>2022-02-19T13:46:02Z</time>
      </trkpt>
      <trkpt lat="44.23725" lon="1.76923">
        <ele>260.6</ele>
        <time>2022-02-19T13:46:03Z</time>
      </trkpt>
      <trkpt lat="44.23725" lon="1.76922">
        <ele>260.7</ele>
        <time>2022-02-19T13:46:04Z</time>
      </trkpt>
      <trkpt lat="44.23725" lon="1.7692">
        <ele>260.8</ele>
        <time>2022-02-19T13:46:05Z</time>
      </trkpt>
      <trkpt lat="44.23726" lon="1.76919">
        <ele>260.9</ele>
        <time>2022-02-19T13:46:06Z</time>
      </trkpt>
      <trkpt lat="44.23726" lon="1.76918">
        <ele>260.9</ele>
        <time>2022-02-19T13:46:07Z</time>
      </trkpt>
      <trkpt lat="44.23726" lon="1.76916">
        <ele>261</ele>
        <time>2022-02-19T13:46:08Z</time>
      </trkpt>
      <trkpt lat="44.23727" lon="1.76915">
        <ele>261.1</ele>
        <time>2022-02-19T13:46:09Z</time>
      </trkpt>
      <trkpt lat="44.23727" lon="1.76913">
        <ele>261.2</ele>
        <time>2022-02-19T13:46:10Z</time>
      </trkpt>
      <trkpt lat="44.23727" lon="1.76913">
        <ele>261.3</ele>
        <time>2022-02-19T13:46:11Z</time>
      </trkpt>
      <trkpt lat="44.23728" lon="1.76913">
        <ele>261.3</ele>
        <time>2022-02-19T13:46:12Z</time>
      </trkpt>
      <trkpt lat="44.23729" lon="1.76913">
        <ele>261.4</ele>
        <time>2022-02-19T13:46:13Z</time>
      </trkpt>
      <trkpt lat="44.2373" lon="1.76912">
        <ele>261.5</ele>
        <time>2022-02-19T13:46:14Z</time>
      </trkpt>
      <trkpt lat="44.23732" lon="1.7691">
        <ele>261.7</ele>
        <time>2022-02-19T13:46:16Z</time>
      </trkpt>
      <trkpt lat="44.23732" lon="1.76912">
        <ele>261.8</ele>
        <time>2022-02-19T13:46:17Z</time>
      </trkpt>
      <trkpt lat="44.23732" lon="1.76912">
        <ele>261.8</ele>
        <time>2022-02-19T13:46:18Z</time>
      </trkpt>
      <trkpt lat="44.23731" lon="1.76913">
        <ele>261.9</ele>
        <time>2022-02-19T13:46:19Z</time>
      </trkpt>
      <trkpt lat="44.23731" lon="1.76914">
        <ele>261.9</ele>
        <time>2022-02-19T13:46:20Z</time>
      </trkpt>
      <trkpt lat="44.2373" lon="1.76915">
        <ele>262</ele>
        <time>2022-02-19T13:46:22Z</time>
      </trkpt>
      <trkpt lat="44.23729" lon="1.76914">
        <ele>262.1</ele>
        <time>2022-02-19T13:46:23Z</time>
      </trkpt>
      <trkpt lat="44.23729" lon="1.76915">
        <ele>262.1</ele>
        <time>2022-02-19T13:46:24Z</time>
      </trkpt>
      <trkpt lat="44.23728" lon="1.76915">
        <ele>262.2</ele>
        <time>2022-02-19T13:46:26Z</time>
      </trkpt>
      <trkpt lat="44.23728" lon="1.76914">
        <ele>262.2</ele>
        <time>2022-02-19T13:46:27Z</time>
      </trkpt>
      <trkpt lat="44.23728" lon="1.76914">
        <ele>262.2</ele>
        <time>2022-02-19T13:46:28Z</time>
      </trkpt>
      <trkpt lat="44.23729" lon="1.76914">
        <ele>262.2</ele>
        <time>2022-02-19T13:46:29Z</time>
      </trkpt>
      <trkpt lat="44.23729" lon="1.76913">
        <ele>262.3</ele>
        <time>2022-02-19T13:46:30Z</time>
      </trkpt>
      <trkpt lat="44.23729" lon="1.76913">
        <ele>262.3</ele>
        <time>2022-02-19T13:46:31Z</time>
      </trkpt>
      <trkpt lat="44.23729" lon="1.76913">
        <ele>262.3</ele>
        <time>2022-02-19T13:46:32Z</time>
      </trkpt>
      <trkpt lat="44.2373" lon="1.76912">
        <ele>262.3</ele>
        <time>2022-02-19T13:46:33Z</time>
      </trkpt>
      <trkpt lat="44.2373" lon="1.76912">
        <ele>262.4</ele>
        <time>2022-02-19T13:46:34Z</time>
      </trkpt>
      <trkpt lat="44.2373" lon="1.76912">
        <ele>262.4</ele>
        <time>2022-02-19T13:46:35Z</time>
      </trkpt>
      <trkpt lat="44.2373" lon="1.76911">
        <ele>262.4</ele>
        <time>2022-02-19T13:46:36Z</time>
      </trkpt>
      <trkpt lat="44.23731" lon="1.76911">
        <ele>262.4</ele>
        <time>2022-02-19T13:46:37Z</time>
      </trkpt>
      <trkpt lat="44.23731" lon="1.76911">
        <ele>262.5</ele>
        <time>2022-02-19T13:46:38Z</time>
      </trkpt>
      <trkpt lat="44.23731" lon="1.76911">
        <ele>262.5</ele>
        <time>2022-02-19T13:46:39Z</time>
      </trkpt>
      <trkpt lat="44.23731" lon="1.7691">
        <ele>262.5</ele>
        <time>2022-02-19T13:46:40Z</time>
      </trkpt>
      <trkpt lat="44.23732" lon="1.7691">
        <ele>262.5</ele>
        <time>2022-02-19T13:46:41Z</time>
      </trkpt>
      <trkpt lat="44.23732" lon="1.7691">
        <ele>262.6</ele>
        <time>2022-02-19T13:46:42Z</time>
      </trkpt>
      <trkpt lat="44.23732" lon="1.76909">
        <ele>262.6</ele>
        <time>2022-02-19T13:46:51Z</time>
      </trkpt>
      <trkpt lat="44.23732" lon="1.76909">
        <ele>262.6</ele>
        <time>2022-02-19T13:46:52Z</time>
      </trkpt>
      <trkpt lat="44.23733" lon="1.76909">
        <ele>262.7</ele>
        <time>2022-02-19T13:46:53Z</time>
      </trkpt>
      <trkpt lat="44.23733" lon="1.76908">
        <ele>263.4</ele>
        <time>2022-02-19T13:46:54Z</time>
      </trkpt>
      <trkpt lat="44.23734" lon="1.76907">
        <ele>263.6</ele>
        <time>2022-02-19T13:46:55Z</time>
      </trkpt>
      <trkpt lat="44.23736" lon="1.76906">
        <ele>263.8</ele>
        <time>2022-02-19T13:46:56Z</time>
      </trkpt>
      <trkpt lat="44.2374" lon="1.76907">
        <ele>264.4</ele>
        <time>2022-02-19T13:46:58Z</time>
      </trkpt>
      <trkpt lat="44.23741" lon="1.76908">
        <ele>264.6</ele>
        <time>2022-02-19T13:47:00Z</time>
      </trkpt>
      <trkpt lat="44.23743" lon="1.7691">
        <ele>264.7</ele>
        <time>2022-02-19T13:47:01Z</time>
      </trkpt>
      <trkpt lat="44.23743" lon="1.76912">
        <ele>265</ele>
        <time>2022-02-19T13:47:02Z</time>
      </trkpt>
      <trkpt lat="44.23743" lon="1.76915">
        <ele>265.2</ele>
        <time>2022-02-19T13:47:03Z</time>
      </trkpt>
      <trkpt lat="44.23743" lon="1.76918">
        <ele>265.6</ele>
        <time>2022-02-19T13:47:04Z</time>
      </trkpt>
      <trkpt lat="44.23743" lon="1.7692">
        <ele>265.8</ele>
        <time>2022-02-19T13:47:05Z</time>
      </trkpt>
      <trkpt lat="44.23744" lon="1.76922">
        <ele>266.1</ele>
        <time>2022-02-19T13:47:06Z</time>
      </trkpt>
      <trkpt lat="44.23743" lon="1.76924">
        <ele>266.3</ele>
        <time>2022-02-19T13:47:07Z</time>
      </trkpt>
      <trkpt lat="44.23742" lon="1.76925">
        <ele>266.5</ele>
        <time>2022-02-19T13:47:08Z</time>
      </trkpt>
      <trkpt lat="44.23742" lon="1.76927">
        <ele>266.7</ele>
        <time>2022-02-19T13:47:09Z</time>
      </trkpt>
      <trkpt lat="44.23741" lon="1.76931">
        <ele>267.2</ele>
        <time>2022-02-19T13:47:11Z</time>
      </trkpt>
      <trkpt lat="44.2374" lon="1.76934">
        <ele>267.5</ele>
        <time>2022-02-19T13:47:12Z</time>
      </trkpt>
      <trkpt lat="44.23739" lon="1.76936">
        <ele>267.8</ele>
        <time>2022-02-19T13:47:13Z</time>
      </trkpt>
      <trkpt lat="44.23739" lon="1.76938">
        <ele>268.1</ele>
        <time>2022-02-19T13:47:14Z</time>
      </trkpt>
      <trkpt lat="44.23738" lon="1.7694">
        <ele>268.3</ele>
        <time>2022-02-19T13:47:15Z</time>
      </trkpt>
      <trkpt lat="44.23738" lon="1.76942">
        <ele>268.5</ele>
        <time>2022-02-19T13:47:16Z</time>
      </trkpt>
      <trkpt lat="44.23738" lon="1.76943">
        <ele>268.7</ele>
        <time>2022-02-19T13:47:17Z</time>
      </trkpt>
      <trkpt lat="44.23737" lon="1.76947">
        <ele>269.1</ele>
        <time>2022-02-19T13:47:19Z</time>
      </trkpt>
      <trkpt lat="44.23737" lon="1.76949">
        <ele>269.4</ele>
        <time>2022-02-19T13:47:20Z</time>
      </trkpt>
      <trkpt lat="44.23738" lon="1.7695">
        <ele>269.6</ele>
        <time>2022-02-19T13:47:21Z</time>
      </trkpt>
      <trkpt lat="44.23738" lon="1.76951">
        <ele>269.7</ele>
        <time>2022-02-19T13:47:22Z</time>
      </trkpt>
      <trkpt lat="44.23737" lon="1.76954">
        <ele>270.1</ele>
        <time>2022-02-19T13:47:23Z</time>
      </trkpt>
      <trkpt lat="44.23737" lon="1.76956">
        <ele>270.3</ele>
        <time>2022-02-19T13:47:24Z</time>
      </trkpt>
      <trkpt lat="44.23737" lon="1.76957">
        <ele>270.4</ele>
        <time>2022-02-19T13:47:25Z</time>
      </trkpt>
      <trkpt lat="44.23737" lon="1.76958">
        <ele>270.6</ele>
        <time>2022-02-19T13:47:26Z</time>
      </trkpt>
      <trkpt lat="44.23736" lon="1.7696">
        <ele>270.8</ele>
        <time>2022-02-19T13:47:27Z</time>
      </trkpt>
      <trkpt lat="44.23736" lon="1.76961">
        <ele>272.2</ele>
        <time>2022-02-19T13:47:28Z</time>
      </trkpt>
      <trkpt lat="44.23735" lon="1.76962">
        <ele>272.3</ele>
        <time>2022-02-19T13:47:29Z</time>
      </trkpt>
      <trkpt lat="44.23735" lon="1.76962">
        <ele>272.4</ele>
        <time>2022-02-19T13:47:30Z</time>
      </trkpt>
      <trkpt lat="44.23736" lon="1.76962">
        <ele>272.4</ele>
        <time>2022-02-19T13:47:31Z</time>
      </trkpt>
      <trkpt lat="44.23736" lon="1.76962">
        <ele>272.6</ele>
        <time>2022-02-19T13:47:32Z</time>
      </trkpt>
      <trkpt lat="44.23736" lon="1.76961">
        <ele>272.8</ele>
        <time>2022-02-19T13:47:33Z</time>
      </trkpt>
      <trkpt lat="44.23736" lon="1.7696">
        <ele>272.9</ele>
        <time>2022-02-19T13:47:34Z</time>
      </trkpt>
      <trkpt lat="44.23735" lon="1.7696">
        <ele>273</ele>
        <time>2022-02-19T13:47:35Z</time>
      </trkpt>
      <trkpt lat="44.23735" lon="1.7696">
        <ele>273.3</ele>
        <time>2022-02-19T13:47:37Z</time>
      </trkpt>
      <trkpt lat="44.23735" lon="1.7696">
        <ele>273.3</ele>
        <time>2022-02-19T13:47:38Z</time>
      </trkpt>
      <trkpt lat="44.23735" lon="1.7696">
        <ele>273.4</ele>
        <time>2022-02-19T13:47:39Z</time>
      </trkpt>
      <trkpt lat="44.23736" lon="1.7696">
        <ele>273.6</ele>
        <time>2022-02-19T13:47:40Z</time>
      </trkpt>
      <trkpt lat="44.23737" lon="1.76959">
        <ele>273.9</ele>
        <time>2022-02-19T13:47:41Z</time>
      </trkpt>
      <trkpt lat="44.23738" lon="1.76958">
        <ele>274.3</ele>
        <time>2022-02-19T13:47:42Z</time>
      </trkpt>
      <trkpt lat="44.2374" lon="1.76958">
        <ele>274.9</ele>
        <time>2022-02-19T13:47:43Z</time>
      </trkpt>
      <trkpt lat="44.23742" lon="1.76958">
        <ele>275.4</ele>
        <time>2022-02-19T13:47:45Z</time>
      </trkpt>
      <trkpt lat="44.23743" lon="1.76959">
        <ele>275.8</ele>
        <time>2022-02-19T13:47:46Z</time>
      </trkpt>
      <trkpt lat="44.23744" lon="1.76961">
        <ele>276.2</ele>
        <time>2022-02-19T13:47:47Z</time>
      </trkpt>
      <trkpt lat="44.23745" lon="1.76962">
        <ele>276.4</ele>
        <time>2022-02-19T13:47:49Z</time>
      </trkpt>
      <trkpt lat="44.23745" lon="1.76963">
        <ele>276.6</ele>
        <time>2022-02-19T13:47:51Z</time>
      </trkpt>
      <trkpt lat="44.23745" lon="1.76964">
        <ele>276.8</ele>
        <time>2022-02-19T13:47:52Z</time>
      </trkpt>
      <trkpt lat="44.23745" lon="1.76965">
        <ele>277.1</ele>
        <time>2022-02-19T13:47:54Z</time>
      </trkpt>
      <trkpt lat="44.23745" lon="1.76966">
        <ele>277.2</ele>
        <time>2022-02-19T13:47:55Z</time>
      </trkpt>
      <trkpt lat="44.23746" lon="1.76967">
        <ele>277.5</ele>
        <time>2022-02-19T13:47:56Z</time>
      </trkpt>
      <trkpt lat="44.23747" lon="1.76969">
        <ele>277.7</ele>
        <time>2022-02-19T13:47:58Z</time>
      </trkpt>
      <trkpt lat="44.23748" lon="1.7697">
        <ele>278</ele>
        <time>2022-02-19T13:47:59Z</time>
      </trkpt>
      <trkpt lat="44.23748" lon="1.76971">
        <ele>278.2</ele>
        <time>2022-02-19T13:48:00Z</time>
      </trkpt>
      <trkpt lat="44.23748" lon="1.76973">
        <ele>278.4</ele>
        <time>2022-02-19T13:48:01Z</time>
      </trkpt>
      <trkpt lat="44.23747" lon="1.76975">
        <ele>278.8</ele>
        <time>2022-02-19T13:48:03Z</time>
      </trkpt>
      <trkpt lat="44.23747" lon="1.76976">
        <ele>279</ele>
        <time>2022-02-19T13:48:04Z</time>
      </trkpt>
      <trkpt lat="44.23746" lon="1.76977">
        <ele>279.1</ele>
        <time>2022-02-19T13:48:05Z</time>
      </trkpt>
      <trkpt lat="44.23746" lon="1.76978">
        <ele>279.3</ele>
        <time>2022-02-19T13:48:06Z</time>
      </trkpt>
      <trkpt lat="44.23745" lon="1.76978">
        <ele>279.4</ele>
        <time>2022-02-19T13:48:07Z</time>
      </trkpt>
      <trkpt lat="44.23745" lon="1.76978">
        <ele>279.4</ele>
        <time>2022-02-19T13:48:08Z</time>
      </trkpt>
      <trkpt lat="44.23745" lon="1.76978">
        <ele>279.4</ele>
        <time>2022-02-19T13:48:09Z</time>
      </trkpt>
      <trkpt lat="44.23745" lon="1.76978">
        <ele>279.5</ele>
        <time>2022-02-19T13:48:10Z</time>
      </trkpt>
      <trkpt lat="44.23745" lon="1.76979">
        <ele>279.6</ele>
        <time>2022-02-19T13:48:11Z</time>
      </trkpt>
      <trkpt lat="44.23746" lon="1.7698">
        <ele>279.8</ele>
        <time>2022-02-19T13:48:12Z</time>
      </trkpt>
      <trkpt lat="44.23746" lon="1.76981">
        <ele>279.9</ele>
        <time>2022-02-19T13:48:13Z</time>
      </trkpt>
      <trkpt lat="44.23746" lon="1.76982">
        <ele>280</ele>
        <time>2022-02-19T13:48:14Z</time>
      </trkpt>
      <trkpt lat="44.23746" lon="1.76982">
        <ele>280.1</ele>
        <time>2022-02-19T13:48:15Z</time>
      </trkpt>
      <trkpt lat="44.23746" lon="1.76983">
        <ele>280.2</ele>
        <time>2022-02-19T13:48:16Z</time>
      </trkpt>
      <trkpt lat="44.23746" lon="1.76983">
        <ele>280.3</ele>
        <time>2022-02-19T13:48:17Z</time>
      </trkpt>
      <trkpt lat="44.23747" lon="1.76984">
        <ele>280.3</ele>
        <time>2022-02-19T13:48:18Z</time>
      </trkpt>
      <trkpt lat="44.23747" lon="1.76984">
        <ele>280.4</ele>
        <time>2022-02-19T13:48:19Z</time>
      </trkpt>
      <trkpt lat="44.23747" lon="1.76984">
        <ele>280.4</ele>
        <time>2022-02-19T13:48:20Z</time>
      </trkpt>
      <trkpt lat="44.23748" lon="1.76984">
        <ele>280.6</ele>
        <time>2022-02-19T13:48:21Z</time>
      </trkpt>
      <trkpt lat="44.23748" lon="1.76983">
        <ele>280.6</ele>
        <time>2022-02-19T13:48:23Z</time>
      </trkpt>
      <trkpt lat="44.23748" lon="1.76983">
        <ele>280.7</ele>
        <time>2022-02-19T13:48:24Z</time>
      </trkpt>
      <trkpt lat="44.23748" lon="1.76983">
        <ele>280.7</ele>
        <time>2022-02-19T13:48:25Z</time>
      </trkpt>
      <trkpt lat="44.23748" lon="1.76983">
        <ele>280.8</ele>
        <time>2022-02-19T13:48:26Z</time>
      </trkpt>
      <trkpt lat="44.23748" lon="1.76983">
        <ele>280.8</ele>
        <time>2022-02-19T13:48:27Z</time>
      </trkpt>
      <trkpt lat="44.23748" lon="1.76983">
        <ele>280.8</ele>
        <time>2022-02-19T13:48:28Z</time>
      </trkpt>
      <trkpt lat="44.23749" lon="1.76983">
        <ele>280.8</ele>
        <time>2022-02-19T13:48:29Z</time>
      </trkpt>
      <trkpt lat="44.23749" lon="1.76983">
        <ele>280.9</ele>
        <time>2022-02-19T13:48:30Z</time>
      </trkpt>
      <trkpt lat="44.23748" lon="1.76986">
        <ele>281.4</ele>
        <time>2022-02-19T13:50:13Z</time>
      </trkpt>
      <trkpt lat="44.23749" lon="1.76988">
        <ele>281.7</ele>
        <time>2022-02-19T13:50:15Z</time>
      </trkpt>
      <trkpt lat="44.23749" lon="1.76989">
        <ele>281.9</ele>
        <time>2022-02-19T13:50:16Z</time>
      </trkpt>
      <trkpt lat="44.23749" lon="1.76991">
        <ele>282.1</ele>
        <time>2022-02-19T13:50:17Z</time>
      </trkpt>
      <trkpt lat="44.2375" lon="1.76993">
        <ele>282.5</ele>
        <time>2022-02-19T13:50:18Z</time>
      </trkpt>
      <trkpt lat="44.23751" lon="1.76994">
        <ele>282.7</ele>
        <time>2022-02-19T13:50:19Z</time>
      </trkpt>
      <trkpt lat="44.23752" lon="1.76995">
        <ele>282.9</ele>
        <time>2022-02-19T13:50:20Z</time>
      </trkpt>
      <trkpt lat="44.23752" lon="1.76996">
        <ele>283.2</ele>
        <time>2022-02-19T13:50:21Z</time>
      </trkpt>
      <trkpt lat="44.23753" lon="1.76997">
        <ele>283.4</ele>
        <time>2022-02-19T13:50:22Z</time>
      </trkpt>
      <trkpt lat="44.23754" lon="1.76998">
        <ele>283.6</ele>
        <time>2022-02-19T13:50:23Z</time>
      </trkpt>
      <trkpt lat="44.23754" lon="1.76999">
        <ele>283.8</ele>
        <time>2022-02-19T13:50:24Z</time>
      </trkpt>
      <trkpt lat="44.23755" lon="1.77">
        <ele>284</ele>
        <time>2022-02-19T13:50:25Z</time>
      </trkpt>
      <trkpt lat="44.23755" lon="1.77001">
        <ele>284.2</ele>
        <time>2022-02-19T13:50:26Z</time>
      </trkpt>
      <trkpt lat="44.23756" lon="1.77002">
        <ele>284.4</ele>
        <time>2022-02-19T13:50:27Z</time>
      </trkpt>
      <trkpt lat="44.23756" lon="1.77004">
        <ele>284.6</ele>
        <time>2022-02-19T13:50:28Z</time>
      </trkpt>
      <trkpt lat="44.23758" lon="1.77006">
        <ele>285.1</ele>
        <time>2022-02-19T13:50:30Z</time>
      </trkpt>
      <trkpt lat="44.23758" lon="1.77007">
        <ele>285.2</ele>
        <time>2022-02-19T13:50:31Z</time>
      </trkpt>
      <trkpt lat="44.23758" lon="1.77008">
        <ele>285.4</ele>
        <time>2022-02-19T13:50:32Z</time>
      </trkpt>
      <trkpt lat="44.23759" lon="1.77009">
        <ele>285.6</ele>
        <time>2022-02-19T13:50:33Z</time>
      </trkpt>
      <trkpt lat="44.23759" lon="1.7701">
        <ele>285.8</ele>
        <time>2022-02-19T13:50:34Z</time>
      </trkpt>
      <trkpt lat="44.2376" lon="1.77011">
        <ele>286</ele>
        <time>2022-02-19T13:50:35Z</time>
      </trkpt>
      <trkpt lat="44.2376" lon="1.77013">
        <ele>286.2</ele>
        <time>2022-02-19T13:50:37Z</time>
      </trkpt>
      <trkpt lat="44.2376" lon="1.77014">
        <ele>286.4</ele>
        <time>2022-02-19T13:50:38Z</time>
      </trkpt>
      <trkpt lat="44.23761" lon="1.77016">
        <ele>286.7</ele>
        <time>2022-02-19T13:50:39Z</time>
      </trkpt>
      <trkpt lat="44.23761" lon="1.77017">
        <ele>286.9</ele>
        <time>2022-02-19T13:50:40Z</time>
      </trkpt>
      <trkpt lat="44.23762" lon="1.77019">
        <ele>287.1</ele>
        <time>2022-02-19T13:50:41Z</time>
      </trkpt>
      <trkpt lat="44.23762" lon="1.7702">
        <ele>287.3</ele>
        <time>2022-02-19T13:50:42Z</time>
      </trkpt>
      <trkpt lat="44.23762" lon="1.77021">
        <ele>287.5</ele>
        <time>2022-02-19T13:50:43Z</time>
      </trkpt>
      <trkpt lat="44.23763" lon="1.77023">
        <ele>287.9</ele>
        <time>2022-02-19T13:50:44Z</time>
      </trkpt>
      <trkpt lat="44.23764" lon="1.77024">
        <ele>288.1</ele>
        <time>2022-02-19T13:50:46Z</time>
      </trkpt>
      <trkpt lat="44.23765" lon="1.77027">
        <ele>288.6</ele>
        <time>2022-02-19T13:50:47Z</time>
      </trkpt>
      <trkpt lat="44.23765" lon="1.77028">
        <ele>288.7</ele>
        <time>2022-02-19T13:50:48Z</time>
      </trkpt>
      <trkpt lat="44.23766" lon="1.77029">
        <ele>288.9</ele>
        <time>2022-02-19T13:50:49Z</time>
      </trkpt>
      <trkpt lat="44.23766" lon="1.7703">
        <ele>289.1</ele>
        <time>2022-02-19T13:50:50Z</time>
      </trkpt>
      <trkpt lat="44.23767" lon="1.77032">
        <ele>289.4</ele>
        <time>2022-02-19T13:50:51Z</time>
      </trkpt>
      <trkpt lat="44.23768" lon="1.77033">
        <ele>289.6</ele>
        <time>2022-02-19T13:50:52Z</time>
      </trkpt>
      <trkpt lat="44.23768" lon="1.77035">
        <ele>289.9</ele>
        <time>2022-02-19T13:50:54Z</time>
      </trkpt>
      <trkpt lat="44.23768" lon="1.77036">
        <ele>290.1</ele>
        <time>2022-02-19T13:50:55Z</time>
      </trkpt>
      <trkpt lat="44.23769" lon="1.77037">
        <ele>290.2</ele>
        <time>2022-02-19T13:50:56Z</time>
      </trkpt>
      <trkpt lat="44.23769" lon="1.77038">
        <ele>290.4</ele>
        <time>2022-02-19T13:50:57Z</time>
      </trkpt>
      <trkpt lat="44.2377" lon="1.7704">
        <ele>290.7</ele>
        <time>2022-02-19T13:50:59Z</time>
      </trkpt>
      <trkpt lat="44.23771" lon="1.77041">
        <ele>290.9</ele>
        <time>2022-02-19T13:51:00Z</time>
      </trkpt>
      <trkpt lat="44.23772" lon="1.77042">
        <ele>291.1</ele>
        <time>2022-02-19T13:51:01Z</time>
      </trkpt>
      <trkpt lat="44.23772" lon="1.77043">
        <ele>291.3</ele>
        <time>2022-02-19T13:51:02Z</time>
      </trkpt>
      <trkpt lat="44.23773" lon="1.77044">
        <ele>291.5</ele>
        <time>2022-02-19T13:51:03Z</time>
      </trkpt>
      <trkpt lat="44.23774" lon="1.77045">
        <ele>291.7</ele>
        <time>2022-02-19T13:51:04Z</time>
      </trkpt>
      <trkpt lat="44.23774" lon="1.77047">
        <ele>292</ele>
        <time>2022-02-19T13:51:06Z</time>
      </trkpt>
      <trkpt lat="44.23775" lon="1.77048">
        <ele>292.2</ele>
        <time>2022-02-19T13:51:07Z</time>
      </trkpt>
      <trkpt lat="44.23775" lon="1.77049">
        <ele>292.4</ele>
        <time>2022-02-19T13:51:08Z</time>
      </trkpt>
      <trkpt lat="44.23776" lon="1.7705">
        <ele>292.6</ele>
        <time>2022-02-19T13:51:09Z</time>
      </trkpt>
      <trkpt lat="44.23776" lon="1.77052">
        <ele>292.9</ele>
        <time>2022-02-19T13:51:10Z</time>
      </trkpt>
      <trkpt lat="44.23777" lon="1.77053">
        <ele>293.1</ele>
        <time>2022-02-19T13:51:11Z</time>
      </trkpt>
      <trkpt lat="44.23777" lon="1.77055">
        <ele>293.4</ele>
        <time>2022-02-19T13:51:13Z</time>
      </trkpt>
      <trkpt lat="44.23778" lon="1.77056">
        <ele>293.5</ele>
        <time>2022-02-19T13:51:14Z</time>
      </trkpt>
      <trkpt lat="44.23778" lon="1.77058">
        <ele>293.8</ele>
        <time>2022-02-19T13:51:15Z</time>
      </trkpt>
      <trkpt lat="44.23778" lon="1.77059">
        <ele>293.9</ele>
        <time>2022-02-19T13:51:16Z</time>
      </trkpt>
      <trkpt lat="44.23779" lon="1.77059">
        <ele>294.1</ele>
        <time>2022-02-19T13:51:17Z</time>
      </trkpt>
      <trkpt lat="44.23781" lon="1.77061">
        <ele>294.5</ele>
        <time>2022-02-19T13:51:19Z</time>
      </trkpt>
      <trkpt lat="44.23781" lon="1.77062">
        <ele>294.7</ele>
        <time>2022-02-19T13:51:20Z</time>
      </trkpt>
      <trkpt lat="44.23782" lon="1.77063">
        <ele>294.8</ele>
        <time>2022-02-19T13:51:21Z</time>
      </trkpt>
      <trkpt lat="44.23783" lon="1.77064">
        <ele>295.1</ele>
        <time>2022-02-19T13:51:22Z</time>
      </trkpt>
      <trkpt lat="44.23784" lon="1.77065">
        <ele>295.3</ele>
        <time>2022-02-19T13:51:24Z</time>
      </trkpt>
      <trkpt lat="44.23785" lon="1.77065">
        <ele>295.5</ele>
        <time>2022-02-19T13:51:25Z</time>
      </trkpt>
      <trkpt lat="44.23785" lon="1.77066">
        <ele>295.7</ele>
        <time>2022-02-19T13:51:26Z</time>
      </trkpt>
      <trkpt lat="44.23786" lon="1.77068">
        <ele>295.9</ele>
        <time>2022-02-19T13:51:27Z</time>
      </trkpt>
      <trkpt lat="44.23786" lon="1.77069">
        <ele>296.1</ele>
        <time>2022-02-19T13:51:28Z</time>
      </trkpt>
      <trkpt lat="44.23787" lon="1.7707">
        <ele>296.3</ele>
        <time>2022-02-19T13:51:29Z</time>
      </trkpt>
      <trkpt lat="44.23788" lon="1.77071">
        <ele>296.6</ele>
        <time>2022-02-19T13:51:30Z</time>
      </trkpt>
      <trkpt lat="44.23789" lon="1.77073">
        <ele>296.9</ele>
        <time>2022-02-19T13:51:32Z</time>
      </trkpt>
      <trkpt lat="44.2379" lon="1.77074">
        <ele>297</ele>
        <time>2022-02-19T13:51:33Z</time>
      </trkpt>
      <trkpt lat="44.2379" lon="1.77075">
        <ele>297.2</ele>
        <time>2022-02-19T13:51:34Z</time>
      </trkpt>
      <trkpt lat="44.2379" lon="1.77075">
        <ele>297.4</ele>
        <time>2022-02-19T13:51:35Z</time>
      </trkpt>
      <trkpt lat="44.23791" lon="1.77076">
        <ele>297.5</ele>
        <time>2022-02-19T13:51:36Z</time>
      </trkpt>
      <trkpt lat="44.23792" lon="1.77078">
        <ele>297.9</ele>
        <time>2022-02-19T13:51:38Z</time>
      </trkpt>
      <trkpt lat="44.23792" lon="1.77079">
        <ele>298</ele>
        <time>2022-02-19T13:51:39Z</time>
      </trkpt>
      <trkpt lat="44.23793" lon="1.77081">
        <ele>298.3</ele>
        <time>2022-02-19T13:51:40Z</time>
      </trkpt>
      <trkpt lat="44.23794" lon="1.77083">
        <ele>298.6</ele>
        <time>2022-02-19T13:51:41Z</time>
      </trkpt>
      <trkpt lat="44.23794" lon="1.77084">
        <ele>298.7</ele>
        <time>2022-02-19T13:51:42Z</time>
      </trkpt>
      <trkpt lat="44.23794" lon="1.77086">
        <ele>299</ele>
        <time>2022-02-19T13:51:43Z</time>
      </trkpt>
      <trkpt lat="44.23795" lon="1.77088">
        <ele>299.3</ele>
        <time>2022-02-19T13:51:45Z</time>
      </trkpt>
      <trkpt lat="44.23796" lon="1.77089">
        <ele>299.4</ele>
        <time>2022-02-19T13:51:46Z</time>
      </trkpt>
      <trkpt lat="44.23797" lon="1.77091">
        <ele>299.6</ele>
        <time>2022-02-19T13:51:47Z</time>
      </trkpt>
      <trkpt lat="44.23797" lon="1.77091">
        <ele>299.8</ele>
        <time>2022-02-19T13:51:48Z</time>
      </trkpt>
      <trkpt lat="44.23798" lon="1.77093">
        <ele>300</ele>
        <time>2022-02-19T13:51:50Z</time>
      </trkpt>
      <trkpt lat="44.23799" lon="1.77094">
        <ele>300.2</ele>
        <time>2022-02-19T13:51:51Z</time>
      </trkpt>
      <trkpt lat="44.23799" lon="1.77095">
        <ele>300.3</ele>
        <time>2022-02-19T13:51:52Z</time>
      </trkpt>
      <trkpt lat="44.238" lon="1.77096">
        <ele>300.5</ele>
        <time>2022-02-19T13:51:53Z</time>
      </trkpt>
      <trkpt lat="44.23801" lon="1.77098">
        <ele>300.7</ele>
        <time>2022-02-19T13:51:54Z</time>
      </trkpt>
      <trkpt lat="44.23801" lon="1.77099">
        <ele>300.9</ele>
        <time>2022-02-19T13:51:55Z</time>
      </trkpt>
      <trkpt lat="44.23801" lon="1.77101">
        <ele>301.1</ele>
        <time>2022-02-19T13:51:57Z</time>
      </trkpt>
      <trkpt lat="44.23801" lon="1.77103">
        <ele>301.3</ele>
        <time>2022-02-19T13:51:58Z</time>
      </trkpt>
      <trkpt lat="44.23801" lon="1.77104">
        <ele>301.4</ele>
        <time>2022-02-19T13:51:59Z</time>
      </trkpt>
      <trkpt lat="44.23801" lon="1.77105">
        <ele>301.5</ele>
        <time>2022-02-19T13:52:00Z</time>
      </trkpt>
      <trkpt lat="44.23801" lon="1.77106">
        <ele>301.6</ele>
        <time>2022-02-19T13:52:01Z</time>
      </trkpt>
      <trkpt lat="44.23801" lon="1.77106">
        <ele>301.7</ele>
        <time>2022-02-19T13:52:02Z</time>
      </trkpt>
      <trkpt lat="44.23802" lon="1.77107">
        <ele>301.8</ele>
        <time>2022-02-19T13:52:03Z</time>
      </trkpt>
      <trkpt lat="44.23802" lon="1.77107">
        <ele>301.8</ele>
        <time>2022-02-19T13:52:04Z</time>
      </trkpt>
      <trkpt lat="44.23803" lon="1.77108">
        <ele>301.9</ele>
        <time>2022-02-19T13:52:05Z</time>
      </trkpt>
      <trkpt lat="44.23803" lon="1.77108">
        <ele>302</ele>
        <time>2022-02-19T13:52:06Z</time>
      </trkpt>
      <trkpt lat="44.23803" lon="1.77109">
        <ele>302</ele>
        <time>2022-02-19T13:52:07Z</time>
      </trkpt>
      <trkpt lat="44.23804" lon="1.77109">
        <ele>302.1</ele>
        <time>2022-02-19T13:52:09Z</time>
      </trkpt>
      <trkpt lat="44.23804" lon="1.7711">
        <ele>302.2</ele>
        <time>2022-02-19T13:52:10Z</time>
      </trkpt>
      <trkpt lat="44.23804" lon="1.7711">
        <ele>302.3</ele>
        <time>2022-02-19T13:52:11Z</time>
      </trkpt>
      <trkpt lat="44.23805" lon="1.77111">
        <ele>302.3</ele>
        <time>2022-02-19T13:52:12Z</time>
      </trkpt>
      <trkpt lat="44.23805" lon="1.77111">
        <ele>302.4</ele>
        <time>2022-02-19T13:52:13Z</time>
      </trkpt>
      <trkpt lat="44.23805" lon="1.77112">
        <ele>302.5</ele>
        <time>2022-02-19T13:52:14Z</time>
      </trkpt>
      <trkpt lat="44.23806" lon="1.77112">
        <ele>302.5</ele>
        <time>2022-02-19T13:52:15Z</time>
      </trkpt>
      <trkpt lat="44.23806" lon="1.77113">
        <ele>302.6</ele>
        <time>2022-02-19T13:54:25Z</time>
      </trkpt>
      <trkpt lat="44.23806" lon="1.77113">
        <ele>302.7</ele>
        <time>2022-02-19T13:54:26Z</time>
      </trkpt>
      <trkpt lat="44.23807" lon="1.77114">
        <ele>302.7</ele>
        <time>2022-02-19T13:54:27Z</time>
      </trkpt>
      <trkpt lat="44.23807" lon="1.77114">
        <ele>302.8</ele>
        <time>2022-02-19T13:54:28Z</time>
      </trkpt>
      <trkpt lat="44.23807" lon="1.77115">
        <ele>302.8</ele>
        <time>2022-02-19T13:54:29Z</time>
      </trkpt>
      <trkpt lat="44.23808" lon="1.77117">
        <ele>303</ele>
        <time>2022-02-19T13:54:30Z</time>
      </trkpt>
      <trkpt lat="44.23808" lon="1.77118">
        <ele>303.2</ele>
        <time>2022-02-19T13:54:31Z</time>
      </trkpt>
      <trkpt lat="44.23809" lon="1.77121">
        <ele>303.5</ele>
        <time>2022-02-19T13:54:32Z</time>
      </trkpt>
      <trkpt lat="44.23809" lon="1.77122">
        <ele>303.6</ele>
        <time>2022-02-19T13:54:33Z</time>
      </trkpt>
      <trkpt lat="44.23809" lon="1.77123">
        <ele>303.7</ele>
        <time>2022-02-19T13:54:34Z</time>
      </trkpt>
      <trkpt lat="44.2381" lon="1.77124">
        <ele>303.8</ele>
        <time>2022-02-19T13:54:35Z</time>
      </trkpt>
      <trkpt lat="44.23811" lon="1.77125">
        <ele>304</ele>
        <time>2022-02-19T13:54:36Z</time>
      </trkpt>
      <trkpt lat="44.23813" lon="1.77127">
        <ele>304.2</ele>
        <time>2022-02-19T13:54:38Z</time>
      </trkpt>
      <trkpt lat="44.23814" lon="1.77131">
        <ele>304.5</ele>
        <time>2022-02-19T13:54:39Z</time>
      </trkpt>
      <trkpt lat="44.23815" lon="1.77132">
        <ele>304.7</ele>
        <time>2022-02-19T13:54:40Z</time>
      </trkpt>
      <trkpt lat="44.23816" lon="1.77136">
        <ele>305</ele>
        <time>2022-02-19T13:54:42Z</time>
      </trkpt>
      <trkpt lat="44.23818" lon="1.77139">
        <ele>305.3</ele>
        <time>2022-02-19T13:54:43Z</time>
      </trkpt>
      <trkpt lat="44.2382" lon="1.77144">
        <ele>305.6</ele>
        <time>2022-02-19T13:54:44Z</time>
      </trkpt>
      <trkpt lat="44.23821" lon="1.77145">
        <ele>305.7</ele>
        <time>2022-02-19T13:54:45Z</time>
      </trkpt>
      <trkpt lat="44.23824" lon="1.77147">
        <ele>306</ele>
        <time>2022-02-19T13:54:46Z</time>
      </trkpt>
      <trkpt lat="44.23826" lon="1.77149">
        <ele>306.2</ele>
        <time>2022-02-19T13:54:47Z</time>
      </trkpt>
      <trkpt lat="44.23829" lon="1.7715">
        <ele>306.5</ele>
        <time>2022-02-19T13:54:49Z</time>
      </trkpt>
      <trkpt lat="44.23832" lon="1.77148">
        <ele>306.7</ele>
        <time>2022-02-19T13:54:50Z</time>
      </trkpt>
      <trkpt lat="44.23835" lon="1.77146">
        <ele>307</ele>
        <time>2022-02-19T13:54:52Z</time>
      </trkpt>
      <trkpt lat="44.23836" lon="1.77146">
        <ele>307.1</ele>
        <time>2022-02-19T13:54:53Z</time>
      </trkpt>
      <trkpt lat="44.23839" lon="1.77145">
        <ele>307.3</ele>
        <time>2022-02-19T13:54:55Z</time>
      </trkpt>
      <trkpt lat="44.23841" lon="1.77144">
        <ele>307.4</ele>
        <time>2022-02-19T13:54:56Z</time>
      </trkpt>
      <trkpt lat="44.23842" lon="1.77143">
        <ele>307.5</ele>
        <time>2022-02-19T13:54:57Z</time>
      </trkpt>
      <trkpt lat="44.23844" lon="1.77142">
        <ele>307.6</ele>
        <time>2022-02-19T13:54:58Z</time>
      </trkpt>
      <trkpt lat="44.23845" lon="1.77142">
        <ele>307.7</ele>
        <time>2022-02-19T13:54:59Z</time>
      </trkpt>
      <trkpt lat="44.23849" lon="1.7714">
        <ele>307.9</ele>
        <time>2022-02-19T13:55:01Z</time>
      </trkpt>
      <trkpt lat="44.2385" lon="1.7714">
        <ele>308</ele>
        <time>2022-02-19T13:55:02Z</time>
      </trkpt>
      <trkpt lat="44.23851" lon="1.77139">
        <ele>308.1</ele>
        <time>2022-02-19T13:55:03Z</time>
      </trkpt>
      <trkpt lat="44.23853" lon="1.77138">
        <ele>308.2</ele>
        <time>2022-02-19T13:55:04Z</time>
      </trkpt>
      <trkpt lat="44.23856" lon="1.77137">
        <ele>308.3</ele>
        <time>2022-02-19T13:55:05Z</time>
      </trkpt>
      <trkpt lat="44.23857" lon="1.77136">
        <ele>308.3</ele>
        <time>2022-02-19T13:55:06Z</time>
      </trkpt>
      <trkpt lat="44.23858" lon="1.77135">
        <ele>308.4</ele>
        <time>2022-02-19T13:55:07Z</time>
      </trkpt>
      <trkpt lat="44.2386" lon="1.77134">
        <ele>308.5</ele>
        <time>2022-02-19T13:55:08Z</time>
      </trkpt>
      <trkpt lat="44.23862" lon="1.77133">
        <ele>308.5</ele>
        <time>2022-02-19T13:55:09Z</time>
      </trkpt>
      <trkpt lat="44.23865" lon="1.77132">
        <ele>308.6</ele>
        <time>2022-02-19T13:55:11Z</time>
      </trkpt>
      <trkpt lat="44.23869" lon="1.77131">
        <ele>308.7</ele>
        <time>2022-02-19T13:55:12Z</time>
      </trkpt>
      <trkpt lat="44.23872" lon="1.77131">
        <ele>308.8</ele>
        <time>2022-02-19T13:55:13Z</time>
      </trkpt>
      <trkpt lat="44.23875" lon="1.77131">
        <ele>308.8</ele>
        <time>2022-02-19T13:55:14Z</time>
      </trkpt>
      <trkpt lat="44.23878" lon="1.7713">
        <ele>308.9</ele>
        <time>2022-02-19T13:55:15Z</time>
      </trkpt>
      <trkpt lat="44.23881" lon="1.7713">
        <ele>308.9</ele>
        <time>2022-02-19T13:55:17Z</time>
      </trkpt>
      <trkpt lat="44.23884" lon="1.7713">
        <ele>308.9</ele>
        <time>2022-02-19T13:55:18Z</time>
      </trkpt>
      <trkpt lat="44.23888" lon="1.77131">
        <ele>309</ele>
        <time>2022-02-19T13:55:19Z</time>
      </trkpt>
      <trkpt lat="44.23892" lon="1.77131">
        <ele>309</ele>
        <time>2022-02-19T13:55:20Z</time>
      </trkpt>
      <trkpt lat="44.23893" lon="1.77131">
        <ele>309</ele>
        <time>2022-02-19T13:55:21Z</time>
      </trkpt>
      <trkpt lat="44.23896" lon="1.77133">
        <ele>309</ele>
        <time>2022-02-19T13:55:22Z</time>
      </trkpt>
      <trkpt lat="44.23897" lon="1.77133">
        <ele>309</ele>
        <time>2022-02-19T13:55:23Z</time>
      </trkpt>
      <trkpt lat="44.239" lon="1.77133">
        <ele>308.9</ele>
        <time>2022-02-19T13:55:24Z</time>
      </trkpt>
      <trkpt lat="44.23901" lon="1.77134">
        <ele>308.9</ele>
        <time>2022-02-19T13:55:25Z</time>
      </trkpt>
      <trkpt lat="44.23906" lon="1.77135">
        <ele>308.9</ele>
        <time>2022-02-19T13:55:27Z</time>
      </trkpt>
      <trkpt lat="44.23909" lon="1.77136">
        <ele>308.8</ele>
        <time>2022-02-19T13:55:28Z</time>
      </trkpt>
      <trkpt lat="44.23913" lon="1.77138">
        <ele>308.7</ele>
        <time>2022-02-19T13:55:29Z</time>
      </trkpt>
      <trkpt lat="44.23916" lon="1.77139">
        <ele>308.7</ele>
        <time>2022-02-19T13:55:30Z</time>
      </trkpt>
      <trkpt lat="44.2392" lon="1.77142">
        <ele>308.6</ele>
        <time>2022-02-19T13:55:32Z</time>
      </trkpt>
      <trkpt lat="44.23924" lon="1.77144">
        <ele>308.6</ele>
        <time>2022-02-19T13:55:33Z</time>
      </trkpt>
      <trkpt lat="44.23928" lon="1.77145">
        <ele>308.5</ele>
        <time>2022-02-19T13:55:34Z</time>
      </trkpt>
      <trkpt lat="44.23932" lon="1.77148">
        <ele>308.4</ele>
        <time>2022-02-19T13:55:36Z</time>
      </trkpt>
      <trkpt lat="44.23935" lon="1.7715">
        <ele>308.4</ele>
        <time>2022-02-19T13:55:37Z</time>
      </trkpt>
      <trkpt lat="44.23938" lon="1.77151">
        <ele>308.3</ele>
        <time>2022-02-19T13:55:38Z</time>
      </trkpt>
      <trkpt lat="44.23941" lon="1.77152">
        <ele>308.3</ele>
        <time>2022-02-19T13:55:39Z</time>
      </trkpt>
      <trkpt lat="44.23946" lon="1.77153">
        <ele>308.3</ele>
        <time>2022-02-19T13:55:41Z</time>
      </trkpt>
      <trkpt lat="44.2395" lon="1.77153">
        <ele>308.3</ele>
        <time>2022-02-19T13:55:42Z</time>
      </trkpt>
      <trkpt lat="44.23953" lon="1.77154">
        <ele>308.3</ele>
        <time>2022-02-19T13:55:43Z</time>
      </trkpt>
      <trkpt lat="44.23956" lon="1.77154">
        <ele>308.3</ele>
        <time>2022-02-19T13:55:44Z</time>
      </trkpt>
      <trkpt lat="44.23961" lon="1.77155">
        <ele>308.3</ele>
        <time>2022-02-19T13:55:45Z</time>
      </trkpt>
      <trkpt lat="44.23966" lon="1.77156">
        <ele>308.4</ele>
        <time>2022-02-19T13:55:47Z</time>
      </trkpt>
      <trkpt lat="44.23969" lon="1.77156">
        <ele>308.4</ele>
        <time>2022-02-19T13:55:48Z</time>
      </trkpt>
      <trkpt lat="44.23973" lon="1.77156">
        <ele>308.4</ele>
        <time>2022-02-19T13:55:49Z</time>
      </trkpt>
      <trkpt lat="44.23977" lon="1.77156">
        <ele>308.5</ele>
        <time>2022-02-19T13:55:50Z</time>
      </trkpt>
      <trkpt lat="44.2398" lon="1.77156">
        <ele>308.5</ele>
        <time>2022-02-19T13:55:51Z</time>
      </trkpt>
      <trkpt lat="44.23985" lon="1.77156">
        <ele>308.6</ele>
        <time>2022-02-19T13:55:52Z</time>
      </trkpt>
      <trkpt lat="44.23988" lon="1.77156">
        <ele>308.7</ele>
        <time>2022-02-19T13:55:53Z</time>
      </trkpt>
      <trkpt lat="44.23991" lon="1.77156">
        <ele>308.8</ele>
        <time>2022-02-19T13:55:55Z</time>
      </trkpt>
      <trkpt lat="44.23995" lon="1.77156">
        <ele>308.9</ele>
        <time>2022-02-19T13:55:56Z</time>
      </trkpt>
      <trkpt lat="44.23998" lon="1.77157">
        <ele>309</ele>
        <time>2022-02-19T13:55:57Z</time>
      </trkpt>
      <trkpt lat="44.24001" lon="1.77157">
        <ele>309.2</ele>
        <time>2022-02-19T13:55:58Z</time>
      </trkpt>
      <trkpt lat="44.24005" lon="1.77158">
        <ele>309.3</ele>
        <time>2022-02-19T13:55:59Z</time>
      </trkpt>
      <trkpt lat="44.24009" lon="1.77159">
        <ele>309.5</ele>
        <time>2022-02-19T13:56:00Z</time>
      </trkpt>
      <trkpt lat="44.24013" lon="1.7716">
        <ele>309.7</ele>
        <time>2022-02-19T13:56:01Z</time>
      </trkpt>
      <trkpt lat="44.24015" lon="1.77161">
        <ele>309.9</ele>
        <time>2022-02-19T13:56:02Z</time>
      </trkpt>
      <trkpt lat="44.24019" lon="1.77161">
        <ele>310.1</ele>
        <time>2022-02-19T13:56:03Z</time>
      </trkpt>
      <trkpt lat="44.24022" lon="1.77162">
        <ele>310.3</ele>
        <time>2022-02-19T13:56:05Z</time>
      </trkpt>
      <trkpt lat="44.24025" lon="1.77163">
        <ele>310.5</ele>
        <time>2022-02-19T13:56:06Z</time>
      </trkpt>
      <trkpt lat="44.24031" lon="1.77163">
        <ele>310.8</ele>
        <time>2022-02-19T13:56:08Z</time>
      </trkpt>
      <trkpt lat="44.24032" lon="1.77163">
        <ele>310.9</ele>
        <time>2022-02-19T13:56:09Z</time>
      </trkpt>
      <trkpt lat="44.24034" lon="1.77164">
        <ele>311</ele>
        <time>2022-02-19T13:56:10Z</time>
      </trkpt>
      <trkpt lat="44.24038" lon="1.77164">
        <ele>311.3</ele>
        <time>2022-02-19T13:56:11Z</time>
      </trkpt>
      <trkpt lat="44.2404" lon="1.77164">
        <ele>311.4</ele>
        <time>2022-02-19T13:56:12Z</time>
      </trkpt>
      <trkpt lat="44.24043" lon="1.77163">
        <ele>311.7</ele>
        <time>2022-02-19T13:56:14Z</time>
      </trkpt>
      <trkpt lat="44.24046" lon="1.77162">
        <ele>311.9</ele>
        <time>2022-02-19T13:56:15Z</time>
      </trkpt>
      <trkpt lat="44.24049" lon="1.77161">
        <ele>312.1</ele>
        <time>2022-02-19T13:56:16Z</time>
      </trkpt>
      <trkpt lat="44.24052" lon="1.77161">
        <ele>312.2</ele>
        <time>2022-02-19T13:56:17Z</time>
      </trkpt>
      <trkpt lat="44.24056" lon="1.7716">
        <ele>312.5</ele>
        <time>2022-02-19T13:56:18Z</time>
      </trkpt>
      <trkpt lat="44.24058" lon="1.7716">
        <ele>312.6</ele>
        <time>2022-02-19T13:56:19Z</time>
      </trkpt>
      <trkpt lat="44.2406" lon="1.77159">
        <ele>312.8</ele>
        <time>2022-02-19T13:56:20Z</time>
      </trkpt>
      <trkpt lat="44.24064" lon="1.77157">
        <ele>313</ele>
        <time>2022-02-19T13:56:22Z</time>
      </trkpt>
      <trkpt lat="44.24067" lon="1.77157">
        <ele>313.2</ele>
        <time>2022-02-19T13:56:23Z</time>
      </trkpt>
      <trkpt lat="44.24069" lon="1.77157">
        <ele>313.4</ele>
        <time>2022-02-19T13:56:24Z</time>
      </trkpt>
      <trkpt lat="44.24073" lon="1.77156">
        <ele>313.6</ele>
        <time>2022-02-19T13:56:25Z</time>
      </trkpt>
      <trkpt lat="44.24075" lon="1.77156">
        <ele>313.8</ele>
        <time>2022-02-19T13:56:26Z</time>
      </trkpt>
      <trkpt lat="44.24078" lon="1.77155">
        <ele>314</ele>
        <time>2022-02-19T13:56:28Z</time>
      </trkpt>
      <trkpt lat="44.24081" lon="1.77154">
        <ele>314.1</ele>
        <time>2022-02-19T13:56:29Z</time>
      </trkpt>
      <trkpt lat="44.24082" lon="1.77154">
        <ele>314.2</ele>
        <time>2022-02-19T13:56:30Z</time>
      </trkpt>
      <trkpt lat="44.24085" lon="1.77153">
        <ele>314.3</ele>
        <time>2022-02-19T13:56:31Z</time>
      </trkpt>
      <trkpt lat="44.24089" lon="1.77151">
        <ele>314.5</ele>
        <time>2022-02-19T13:56:33Z</time>
      </trkpt>
      <trkpt lat="44.2409" lon="1.7715">
        <ele>314.5</ele>
        <time>2022-02-19T13:56:34Z</time>
      </trkpt>
      <trkpt lat="44.24091" lon="1.7715">
        <ele>314.6</ele>
        <time>2022-02-19T13:56:35Z</time>
      </trkpt>
      <trkpt lat="44.24095" lon="1.77149">
        <ele>314.6</ele>
        <time>2022-02-19T13:56:36Z</time>
      </trkpt>
      <trkpt lat="44.24096" lon="1.77149">
        <ele>314.7</ele>
        <time>2022-02-19T13:56:37Z</time>
      </trkpt>
      <trkpt lat="44.24099" lon="1.77148">
        <ele>314.7</ele>
        <time>2022-02-19T13:56:38Z</time>
      </trkpt>
      <trkpt lat="44.241" lon="1.77147">
        <ele>314.7</ele>
        <time>2022-02-19T13:56:39Z</time>
      </trkpt>
      <trkpt lat="44.24103" lon="1.77146">
        <ele>314.8</ele>
        <time>2022-02-19T13:56:40Z</time>
      </trkpt>
      <trkpt lat="44.24104" lon="1.77146">
        <ele>314.8</ele>
        <time>2022-02-19T13:56:41Z</time>
      </trkpt>
      <trkpt lat="44.24107" lon="1.77145">
        <ele>314.9</ele>
        <time>2022-02-19T13:56:42Z</time>
      </trkpt>
      <trkpt lat="44.2411" lon="1.77143">
        <ele>315</ele>
        <time>2022-02-19T13:56:43Z</time>
      </trkpt>
      <trkpt lat="44.24113" lon="1.77141">
        <ele>315</ele>
        <time>2022-02-19T13:56:44Z</time>
      </trkpt>
      <trkpt lat="44.24117" lon="1.77137">
        <ele>315.1</ele>
        <time>2022-02-19T13:56:46Z</time>
      </trkpt>
      <trkpt lat="44.24118" lon="1.77136">
        <ele>315.1</ele>
        <time>2022-02-19T13:56:47Z</time>
      </trkpt>
      <trkpt lat="44.2412" lon="1.77135">
        <ele>315.1</ele>
        <time>2022-02-19T13:56:48Z</time>
      </trkpt>
      <trkpt lat="44.24122" lon="1.77133">
        <ele>315.2</ele>
        <time>2022-02-19T13:56:49Z</time>
      </trkpt>
      <trkpt lat="44.24123" lon="1.77132">
        <ele>315.2</ele>
        <time>2022-02-19T13:56:50Z</time>
      </trkpt>
      <trkpt lat="44.24127" lon="1.7713">
        <ele>315.2</ele>
        <time>2022-02-19T13:56:51Z</time>
      </trkpt>
      <trkpt lat="44.24129" lon="1.77129">
        <ele>315.2</ele>
        <time>2022-02-19T13:56:52Z</time>
      </trkpt>
      <trkpt lat="44.24131" lon="1.77127">
        <ele>315.3</ele>
        <time>2022-02-19T13:56:53Z</time>
      </trkpt>
      <trkpt lat="44.24134" lon="1.77125">
        <ele>315.3</ele>
        <time>2022-02-19T13:56:54Z</time>
      </trkpt>
      <trkpt lat="44.24137" lon="1.77122">
        <ele>315.3</ele>
        <time>2022-02-19T13:56:56Z</time>
      </trkpt>
      <trkpt lat="44.24139" lon="1.77121">
        <ele>315.3</ele>
        <time>2022-02-19T13:56:57Z</time>
      </trkpt>
      <trkpt lat="44.24142" lon="1.7712">
        <ele>315.3</ele>
        <time>2022-02-19T13:56:58Z</time>
      </trkpt>
      <trkpt lat="44.24144" lon="1.77119">
        <ele>315.3</ele>
        <time>2022-02-19T13:56:59Z</time>
      </trkpt>
      <trkpt lat="44.24148" lon="1.77115">
        <ele>315.3</ele>
        <time>2022-02-19T13:57:01Z</time>
      </trkpt>
      <trkpt lat="44.24152" lon="1.77113">
        <ele>315.3</ele>
        <time>2022-02-19T13:57:02Z</time>
      </trkpt>
      <trkpt lat="44.24152" lon="1.77112">
        <ele>315.3</ele>
        <time>2022-02-19T13:57:03Z</time>
      </trkpt>
      <trkpt lat="44.24156" lon="1.77111">
        <ele>315.3</ele>
        <time>2022-02-19T13:57:05Z</time>
      </trkpt>
      <trkpt lat="44.24158" lon="1.7711">
        <ele>315.3</ele>
        <time>2022-02-19T13:57:06Z</time>
      </trkpt>
      <trkpt lat="44.24159" lon="1.7711">
        <ele>315.3</ele>
        <time>2022-02-19T13:57:07Z</time>
      </trkpt>
      <trkpt lat="44.2416" lon="1.7711">
        <ele>315.3</ele>
        <time>2022-02-19T13:57:08Z</time>
      </trkpt>
      <trkpt lat="44.24162" lon="1.7711">
        <ele>315.3</ele>
        <time>2022-02-19T13:57:09Z</time>
      </trkpt>
      <trkpt lat="44.24162" lon="1.77111">
        <ele>315.3</ele>
        <time>2022-02-19T13:57:10Z</time>
      </trkpt>
      <trkpt lat="44.24164" lon="1.77111">
        <ele>315.3</ele>
        <time>2022-02-19T13:57:11Z</time>
      </trkpt>
      <trkpt lat="44.24164" lon="1.77112">
        <ele>315.3</ele>
        <time>2022-02-19T13:57:12Z</time>
      </trkpt>
      <trkpt lat="44.24165" lon="1.77112">
        <ele>315.3</ele>
        <time>2022-02-19T13:57:13Z</time>
      </trkpt>
      <trkpt lat="44.24165" lon="1.77112">
        <ele>315.3</ele>
        <time>2022-02-19T13:57:14Z</time>
      </trkpt>
      <trkpt lat="44.24166" lon="1.77112">
        <ele>315.3</ele>
        <time>2022-02-19T13:57:15Z</time>
      </trkpt>
      <trkpt lat="44.24169" lon="1.77113">
        <ele>315.3</ele>
        <time>2022-02-19T13:57:16Z</time>
      </trkpt>
      <trkpt lat="44.24171" lon="1.77113">
        <ele>315.3</ele>
        <time>2022-02-19T13:57:17Z</time>
      </trkpt>
      <trkpt lat="44.24174" lon="1.77113">
        <ele>315.3</ele>
        <time>2022-02-19T13:57:19Z</time>
      </trkpt>
      <trkpt lat="44.24177" lon="1.77113">
        <ele>315.3</ele>
        <time>2022-02-19T13:57:20Z</time>
      </trkpt>
      <trkpt lat="44.24181" lon="1.77113">
        <ele>315.3</ele>
        <time>2022-02-19T13:57:21Z</time>
      </trkpt>
      <trkpt lat="44.24184" lon="1.77112">
        <ele>315.4</ele>
        <time>2022-02-19T13:57:22Z</time>
      </trkpt>
      <trkpt lat="44.24188" lon="1.7711">
        <ele>315.5</ele>
        <time>2022-02-19T13:57:23Z</time>
      </trkpt>
      <trkpt lat="44.24192" lon="1.77109">
        <ele>315.5</ele>
        <time>2022-02-19T13:57:24Z</time>
      </trkpt>
      <trkpt lat="44.24196" lon="1.77108">
        <ele>315.6</ele>
        <time>2022-02-19T13:57:26Z</time>
      </trkpt>
      <trkpt lat="44.24199" lon="1.77109">
        <ele>315.7</ele>
        <time>2022-02-19T13:57:27Z</time>
      </trkpt>
      <trkpt lat="44.24202" lon="1.77109">
        <ele>315.8</ele>
        <time>2022-02-19T13:57:28Z</time>
      </trkpt>
      <trkpt lat="44.24205" lon="1.77109">
        <ele>315.9</ele>
        <time>2022-02-19T13:57:29Z</time>
      </trkpt>
      <trkpt lat="44.2421" lon="1.77109">
        <ele>316</ele>
        <time>2022-02-19T13:57:31Z</time>
      </trkpt>
      <trkpt lat="44.24211" lon="1.7711">
        <ele>316.1</ele>
        <time>2022-02-19T13:57:32Z</time>
      </trkpt>
      <trkpt lat="44.24212" lon="1.7711">
        <ele>316.1</ele>
        <time>2022-02-19T13:57:33Z</time>
      </trkpt>
      <trkpt lat="44.24215" lon="1.77109">
        <ele>316.2</ele>
        <time>2022-02-19T13:57:34Z</time>
      </trkpt>
      <trkpt lat="44.24216" lon="1.77109">
        <ele>316.2</ele>
        <time>2022-02-19T13:57:35Z</time>
      </trkpt>
      <trkpt lat="44.24219" lon="1.77108">
        <ele>316.3</ele>
        <time>2022-02-19T13:57:36Z</time>
      </trkpt>
      <trkpt lat="44.24221" lon="1.77107">
        <ele>316.3</ele>
        <time>2022-02-19T13:57:37Z</time>
      </trkpt>
      <trkpt lat="44.24225" lon="1.77107">
        <ele>316.4</ele>
        <time>2022-02-19T13:57:38Z</time>
      </trkpt>
      <trkpt lat="44.24226" lon="1.77106">
        <ele>316.4</ele>
        <time>2022-02-19T13:57:39Z</time>
      </trkpt>
      <trkpt lat="44.24229" lon="1.77106">
        <ele>316.4</ele>
        <time>2022-02-19T13:57:41Z</time>
      </trkpt>
      <trkpt lat="44.24233" lon="1.77105">
        <ele>316.4</ele>
        <time>2022-02-19T13:57:42Z</time>
      </trkpt>
      <trkpt lat="44.24237" lon="1.77104">
        <ele>316.4</ele>
        <time>2022-02-19T13:57:44Z</time>
      </trkpt>
      <trkpt lat="44.2424" lon="1.77104">
        <ele>316.3</ele>
        <time>2022-02-19T13:57:45Z</time>
      </trkpt>
      <trkpt lat="44.24241" lon="1.77103">
        <ele>316.3</ele>
        <time>2022-02-19T13:57:46Z</time>
      </trkpt>
      <trkpt lat="44.24244" lon="1.77104">
        <ele>316.2</ele>
        <time>2022-02-19T13:57:47Z</time>
      </trkpt>
      <trkpt lat="44.24248" lon="1.77103">
        <ele>316.2</ele>
        <time>2022-02-19T13:57:48Z</time>
      </trkpt>
      <trkpt lat="44.2425" lon="1.77102">
        <ele>316.1</ele>
        <time>2022-02-19T13:57:49Z</time>
      </trkpt>
      <trkpt lat="44.24254" lon="1.77101">
        <ele>316</ele>
        <time>2022-02-19T13:57:51Z</time>
      </trkpt>
      <trkpt lat="44.24258" lon="1.771">
        <ele>315.8</ele>
        <time>2022-02-19T13:57:52Z</time>
      </trkpt>
      <trkpt lat="44.24261" lon="1.77099">
        <ele>315.7</ele>
        <time>2022-02-19T13:57:53Z</time>
      </trkpt>
      <trkpt lat="44.24265" lon="1.77099">
        <ele>315.5</ele>
        <time>2022-02-19T13:57:54Z</time>
      </trkpt>
      <trkpt lat="44.24268" lon="1.77098">
        <ele>315.4</ele>
        <time>2022-02-19T13:57:55Z</time>
      </trkpt>
      <trkpt lat="44.24274" lon="1.77097">
        <ele>315</ele>
        <time>2022-02-19T13:57:56Z</time>
      </trkpt>
      <trkpt lat="44.24278" lon="1.77095">
        <ele>314.7</ele>
        <time>2022-02-19T13:57:57Z</time>
      </trkpt>
      <trkpt lat="44.24282" lon="1.77094">
        <ele>314.4</ele>
        <time>2022-02-19T13:57:58Z</time>
      </trkpt>
      <trkpt lat="44.24289" lon="1.77092">
        <ele>313.9</ele>
        <time>2022-02-19T13:58:00Z</time>
      </trkpt>
      <trkpt lat="44.24294" lon="1.7709">
        <ele>313.5</ele>
        <time>2022-02-19T13:58:01Z</time>
      </trkpt>
      <trkpt lat="44.243" lon="1.77088">
        <ele>313</ele>
        <time>2022-02-19T13:58:02Z</time>
      </trkpt>
      <trkpt lat="44.24309" lon="1.77085">
        <ele>312.5</ele>
        <time>2022-02-19T13:58:03Z</time>
      </trkpt>
      <trkpt lat="44.24316" lon="1.77083">
        <ele>312.1</ele>
        <time>2022-02-19T13:58:04Z</time>
      </trkpt>
      <trkpt lat="44.24323" lon="1.7708">
        <ele>311.8</ele>
        <time>2022-02-19T13:58:05Z</time>
      </trkpt>
      <trkpt lat="44.24329" lon="1.77078">
        <ele>311.6</ele>
        <time>2022-02-19T13:58:06Z</time>
      </trkpt>
      <trkpt lat="44.24335" lon="1.77077">
        <ele>311.4</ele>
        <time>2022-02-19T13:58:07Z</time>
      </trkpt>
      <trkpt lat="44.24341" lon="1.77077">
        <ele>311.3</ele>
        <time>2022-02-19T13:58:08Z</time>
      </trkpt>
      <trkpt lat="44.24347" lon="1.77078">
        <ele>311.3</ele>
        <time>2022-02-19T13:58:09Z</time>
      </trkpt>
      <trkpt lat="44.24352" lon="1.77079">
        <ele>311.3</ele>
        <time>2022-02-19T13:58:10Z</time>
      </trkpt>
      <trkpt lat="44.24356" lon="1.7708">
        <ele>311.3</ele>
        <time>2022-02-19T13:58:11Z</time>
      </trkpt>
      <trkpt lat="44.24361" lon="1.77082">
        <ele>311.3</ele>
        <time>2022-02-19T13:58:12Z</time>
      </trkpt>
      <trkpt lat="44.24365" lon="1.77084">
        <ele>311.4</ele>
        <time>2022-02-19T13:58:13Z</time>
      </trkpt>
      <trkpt lat="44.24369" lon="1.77085">
        <ele>311.5</ele>
        <time>2022-02-19T13:58:14Z</time>
      </trkpt>
      <trkpt lat="44.24373" lon="1.77086">
        <ele>311.6</ele>
        <time>2022-02-19T13:58:15Z</time>
      </trkpt>
      <trkpt lat="44.24376" lon="1.77086">
        <ele>311.7</ele>
        <time>2022-02-19T13:58:16Z</time>
      </trkpt>
      <trkpt lat="44.2438" lon="1.77087">
        <ele>311.9</ele>
        <time>2022-02-19T13:58:17Z</time>
      </trkpt>
      <trkpt lat="44.24382" lon="1.77087">
        <ele>311.9</ele>
        <time>2022-02-19T13:58:18Z</time>
      </trkpt>
      <trkpt lat="44.24385" lon="1.77088">
        <ele>312.1</ele>
        <time>2022-02-19T13:58:19Z</time>
      </trkpt>
      <trkpt lat="44.24388" lon="1.77088">
        <ele>312.2</ele>
        <time>2022-02-19T13:58:20Z</time>
      </trkpt>
      <trkpt lat="44.24391" lon="1.77089">
        <ele>312.3</ele>
        <time>2022-02-19T13:58:21Z</time>
      </trkpt>
      <trkpt lat="44.24394" lon="1.77089">
        <ele>312.4</ele>
        <time>2022-02-19T13:58:22Z</time>
      </trkpt>
      <trkpt lat="44.24393" lon="1.77089">
        <ele>312.4</ele>
        <time>2022-02-19T13:58:23Z</time>
      </trkpt>
      <trkpt lat="44.24398" lon="1.7709">
        <ele>312.5</ele>
        <time>2022-02-19T13:58:24Z</time>
      </trkpt>
      <trkpt lat="44.24403" lon="1.7709">
        <ele>312.6</ele>
        <time>2022-02-19T13:58:25Z</time>
      </trkpt>
      <trkpt lat="44.24408" lon="1.77089">
        <ele>312.5</ele>
        <time>2022-02-19T13:58:26Z</time>
      </trkpt>
      <trkpt lat="44.24412" lon="1.77089">
        <ele>312.4</ele>
        <time>2022-02-19T13:58:27Z</time>
      </trkpt>
      <trkpt lat="44.24417" lon="1.77087">
        <ele>312.3</ele>
        <time>2022-02-19T13:58:29Z</time>
      </trkpt>
      <trkpt lat="44.24423" lon="1.77085">
        <ele>312</ele>
        <time>2022-02-19T13:58:30Z</time>
      </trkpt>
      <trkpt lat="44.24428" lon="1.77084">
        <ele>311.8</ele>
        <time>2022-02-19T13:58:32Z</time>
      </trkpt>
      <trkpt lat="44.24433" lon="1.77082">
        <ele>311.4</ele>
        <time>2022-02-19T13:58:33Z</time>
      </trkpt>
      <trkpt lat="44.24437" lon="1.7708">
        <ele>311.2</ele>
        <time>2022-02-19T13:58:34Z</time>
      </trkpt>
      <trkpt lat="44.24443" lon="1.77078">
        <ele>310.8</ele>
        <time>2022-02-19T13:58:35Z</time>
      </trkpt>
      <trkpt lat="44.24452" lon="1.77073">
        <ele>310.2</ele>
        <time>2022-02-19T13:58:37Z</time>
      </trkpt>
      <trkpt lat="44.24459" lon="1.77069">
        <ele>309.6</ele>
        <time>2022-02-19T13:58:38Z</time>
      </trkpt>
      <trkpt lat="44.24465" lon="1.77066">
        <ele>309.3</ele>
        <time>2022-02-19T13:58:39Z</time>
      </trkpt>
      <trkpt lat="44.24471" lon="1.77064">
        <ele>309</ele>
        <time>2022-02-19T13:58:40Z</time>
      </trkpt>
      <trkpt lat="44.24477" lon="1.77062">
        <ele>308.9</ele>
        <time>2022-02-19T13:58:41Z</time>
      </trkpt>
      <trkpt lat="44.24482" lon="1.7706">
        <ele>308.8</ele>
        <time>2022-02-19T13:58:42Z</time>
      </trkpt>
      <trkpt lat="44.24487" lon="1.77059">
        <ele>308.7</ele>
        <time>2022-02-19T13:58:43Z</time>
      </trkpt>
      <trkpt lat="44.24492" lon="1.77059">
        <ele>308.7</ele>
        <time>2022-02-19T13:58:44Z</time>
      </trkpt>
      <trkpt lat="44.24496" lon="1.77058">
        <ele>308.7</ele>
        <time>2022-02-19T13:58:45Z</time>
      </trkpt>
      <trkpt lat="44.24501" lon="1.77057">
        <ele>308.8</ele>
        <time>2022-02-19T13:58:46Z</time>
      </trkpt>
      <trkpt lat="44.24504" lon="1.77057">
        <ele>308.8</ele>
        <time>2022-02-19T13:58:47Z</time>
      </trkpt>
      <trkpt lat="44.24509" lon="1.77057">
        <ele>308.9</ele>
        <time>2022-02-19T13:58:48Z</time>
      </trkpt>
      <trkpt lat="44.2451" lon="1.77057">
        <ele>308.9</ele>
        <time>2022-02-19T13:58:49Z</time>
      </trkpt>
      <trkpt lat="44.24517" lon="1.77056">
        <ele>309.1</ele>
        <time>2022-02-19T13:58:51Z</time>
      </trkpt>
      <trkpt lat="44.24524" lon="1.77054">
        <ele>309.3</ele>
        <time>2022-02-19T13:58:52Z</time>
      </trkpt>
      <trkpt lat="44.24529" lon="1.77053">
        <ele>309.4</ele>
        <time>2022-02-19T13:58:54Z</time>
      </trkpt>
      <trkpt lat="44.24533" lon="1.77052">
        <ele>309.6</ele>
        <time>2022-02-19T13:58:55Z</time>
      </trkpt>
      <trkpt lat="44.24537" lon="1.77051">
        <ele>309.7</ele>
        <time>2022-02-19T13:58:56Z</time>
      </trkpt>
      <trkpt lat="44.24541" lon="1.77049">
        <ele>309.8</ele>
        <time>2022-02-19T13:58:57Z</time>
      </trkpt>
      <trkpt lat="44.24547" lon="1.77047">
        <ele>310</ele>
        <time>2022-02-19T13:58:58Z</time>
      </trkpt>
      <trkpt lat="44.24552" lon="1.77046">
        <ele>310.2</ele>
        <time>2022-02-19T13:58:59Z</time>
      </trkpt>
      <trkpt lat="44.24558" lon="1.77044">
        <ele>310.4</ele>
        <time>2022-02-19T13:59:01Z</time>
      </trkpt>
      <trkpt lat="44.24563" lon="1.77043">
        <ele>310.6</ele>
        <time>2022-02-19T13:59:02Z</time>
      </trkpt>
      <trkpt lat="44.24569" lon="1.77041">
        <ele>310.9</ele>
        <time>2022-02-19T13:59:04Z</time>
      </trkpt>
      <trkpt lat="44.24573" lon="1.7704">
        <ele>311</ele>
        <time>2022-02-19T13:59:05Z</time>
      </trkpt>
      <trkpt lat="44.24577" lon="1.77039">
        <ele>311.2</ele>
        <time>2022-02-19T13:59:06Z</time>
      </trkpt>
      <trkpt lat="44.24581" lon="1.77037">
        <ele>311.3</ele>
        <time>2022-02-19T13:59:07Z</time>
      </trkpt>
      <trkpt lat="44.24584" lon="1.77037">
        <ele>311.5</ele>
        <time>2022-02-19T13:59:08Z</time>
      </trkpt>
      <trkpt lat="44.24587" lon="1.77037">
        <ele>311.6</ele>
        <time>2022-02-19T13:59:10Z</time>
      </trkpt>
      <trkpt lat="44.24591" lon="1.77034">
        <ele>311.8</ele>
        <time>2022-02-19T13:59:11Z</time>
      </trkpt>
      <trkpt lat="44.24595" lon="1.77033">
        <ele>312</ele>
        <time>2022-02-19T13:59:12Z</time>
      </trkpt>
      <trkpt lat="44.24596" lon="1.77033">
        <ele>312.1</ele>
        <time>2022-02-19T13:59:13Z</time>
      </trkpt>
      <trkpt lat="44.24599" lon="1.77033">
        <ele>312.2</ele>
        <time>2022-02-19T13:59:14Z</time>
      </trkpt>
      <trkpt lat="44.24601" lon="1.77032">
        <ele>312.3</ele>
        <time>2022-02-19T13:59:16Z</time>
      </trkpt>
      <trkpt lat="44.24603" lon="1.77033">
        <ele>312.4</ele>
        <time>2022-02-19T13:59:17Z</time>
      </trkpt>
      <trkpt lat="44.24604" lon="1.77033">
        <ele>312.4</ele>
        <time>2022-02-19T13:59:18Z</time>
      </trkpt>
      <trkpt lat="44.24605" lon="1.77032">
        <ele>312.5</ele>
        <time>2022-02-19T13:59:19Z</time>
      </trkpt>
      <trkpt lat="44.24606" lon="1.77031">
        <ele>312.5</ele>
        <time>2022-02-19T13:59:20Z</time>
      </trkpt>
      <trkpt lat="44.24607" lon="1.77031">
        <ele>312.6</ele>
        <time>2022-02-19T13:59:21Z</time>
      </trkpt>
      <trkpt lat="44.24607" lon="1.77031">
        <ele>312.6</ele>
        <time>2022-02-19T13:59:22Z</time>
      </trkpt>
      <trkpt lat="44.24608" lon="1.7703">
        <ele>312.7</ele>
        <time>2022-02-19T13:59:23Z</time>
      </trkpt>
      <trkpt lat="44.24608" lon="1.77029">
        <ele>312.7</ele>
        <time>2022-02-19T13:59:24Z</time>
      </trkpt>
      <trkpt lat="44.24609" lon="1.77028">
        <ele>312.8</ele>
        <time>2022-02-19T13:59:25Z</time>
      </trkpt>
      <trkpt lat="44.24611" lon="1.77026">
        <ele>312.9</ele>
        <time>2022-02-19T13:59:26Z</time>
      </trkpt>
      <trkpt lat="44.24612" lon="1.77025">
        <ele>312.9</ele>
        <time>2022-02-19T13:59:27Z</time>
      </trkpt>
      <trkpt lat="44.24613" lon="1.77024">
        <ele>313</ele>
        <time>2022-02-19T13:59:28Z</time>
      </trkpt>
      <trkpt lat="44.24616" lon="1.77022">
        <ele>313.1</ele>
        <time>2022-02-19T13:59:30Z</time>
      </trkpt>
      <trkpt lat="44.24617" lon="1.77022">
        <ele>313.1</ele>
        <time>2022-02-19T13:59:31Z</time>
      </trkpt>
      <trkpt lat="44.24619" lon="1.77021">
        <ele>313.2</ele>
        <time>2022-02-19T13:59:32Z</time>
      </trkpt>
      <trkpt lat="44.2462" lon="1.7702">
        <ele>313.3</ele>
        <time>2022-02-19T13:59:33Z</time>
      </trkpt>
      <trkpt lat="44.24623" lon="1.77019">
        <ele>313.4</ele>
        <time>2022-02-19T13:59:34Z</time>
      </trkpt>
      <trkpt lat="44.24624" lon="1.77019">
        <ele>313.4</ele>
        <time>2022-02-19T13:59:35Z</time>
      </trkpt>
      <trkpt lat="44.24627" lon="1.77016">
        <ele>313.5</ele>
        <time>2022-02-19T13:59:36Z</time>
      </trkpt>
      <trkpt lat="44.24629" lon="1.77016">
        <ele>313.6</ele>
        <time>2022-02-19T13:59:37Z</time>
      </trkpt>
      <trkpt lat="44.24631" lon="1.77014">
        <ele>313.6</ele>
        <time>2022-02-19T13:59:39Z</time>
      </trkpt>
      <trkpt lat="44.24634" lon="1.77012">
        <ele>313.7</ele>
        <time>2022-02-19T13:59:40Z</time>
      </trkpt>
      <trkpt lat="44.24638" lon="1.7701">
        <ele>313.7</ele>
        <time>2022-02-19T13:59:41Z</time>
      </trkpt>
      <trkpt lat="44.24639" lon="1.77009">
        <ele>313.7</ele>
        <time>2022-02-19T13:59:42Z</time>
      </trkpt>
      <trkpt lat="44.24642" lon="1.77008">
        <ele>313.8</ele>
        <time>2022-02-19T13:59:43Z</time>
      </trkpt>
      <trkpt lat="44.24643" lon="1.77007">
        <ele>313.8</ele>
        <time>2022-02-19T13:59:44Z</time>
      </trkpt>
      <trkpt lat="44.24646" lon="1.77005">
        <ele>313.8</ele>
        <time>2022-02-19T13:59:45Z</time>
      </trkpt>
      <trkpt lat="44.24648" lon="1.77004">
        <ele>313.8</ele>
        <time>2022-02-19T13:59:46Z</time>
      </trkpt>
      <trkpt lat="44.24652" lon="1.77002">
        <ele>313.9</ele>
        <time>2022-02-19T13:59:48Z</time>
      </trkpt>
      <trkpt lat="44.24653" lon="1.77002">
        <ele>313.9</ele>
        <time>2022-02-19T13:59:49Z</time>
      </trkpt>
      <trkpt lat="44.24654" lon="1.77001">
        <ele>313.9</ele>
        <time>2022-02-19T13:59:50Z</time>
      </trkpt>
      <trkpt lat="44.24656" lon="1.77001">
        <ele>313.9</ele>
        <time>2022-02-19T13:59:51Z</time>
      </trkpt>
      <trkpt lat="44.24657" lon="1.76999">
        <ele>313.9</ele>
        <time>2022-02-19T13:59:52Z</time>
      </trkpt>
      <trkpt lat="44.24659" lon="1.76999">
        <ele>314</ele>
        <time>2022-02-19T13:59:53Z</time>
      </trkpt>
      <trkpt lat="44.24659" lon="1.76998">
        <ele>314</ele>
        <time>2022-02-19T13:59:55Z</time>
      </trkpt>
      <trkpt lat="44.2466" lon="1.76998">
        <ele>314</ele>
        <time>2022-02-19T13:59:56Z</time>
      </trkpt>
      <trkpt lat="44.2466" lon="1.76998">
        <ele>314</ele>
        <time>2022-02-19T13:59:57Z</time>
      </trkpt>
      <trkpt lat="44.24661" lon="1.76998">
        <ele>314</ele>
        <time>2022-02-19T13:59:58Z</time>
      </trkpt>
      <trkpt lat="44.24661" lon="1.76998">
        <ele>314</ele>
        <time>2022-02-19T13:59:59Z</time>
      </trkpt>
      <trkpt lat="44.24661" lon="1.76998">
        <ele>314</ele>
        <time>2022-02-19T14:00:00Z</time>
      </trkpt>
      <trkpt lat="44.24662" lon="1.76997">
        <ele>314</ele>
        <time>2022-02-19T14:00:01Z</time>
      </trkpt>
      <trkpt lat="44.24662" lon="1.76997">
        <ele>314</ele>
        <time>2022-02-19T14:00:02Z</time>
      </trkpt>
      <trkpt lat="44.24663" lon="1.76997">
        <ele>314</ele>
        <time>2022-02-19T14:00:03Z</time>
      </trkpt>
      <trkpt lat="44.24663" lon="1.76997">
        <ele>314</ele>
        <time>2022-02-19T14:00:04Z</time>
      </trkpt>
      <trkpt lat="44.24663" lon="1.76997">
        <ele>314</ele>
        <time>2022-02-19T14:00:05Z</time>
      </trkpt>
      <trkpt lat="44.24664" lon="1.76996">
        <ele>314</ele>
        <time>2022-02-19T14:00:06Z</time>
      </trkpt>
      <trkpt lat="44.24664" lon="1.76996">
        <ele>314</ele>
        <time>2022-02-19T14:00:07Z</time>
      </trkpt>
      <trkpt lat="44.24665" lon="1.76996">
        <ele>314</ele>
        <time>2022-02-19T14:00:08Z</time>
      </trkpt>
      <trkpt lat="44.24665" lon="1.76996">
        <ele>314</ele>
        <time>2022-02-19T14:00:09Z</time>
      </trkpt>
      <trkpt lat="44.24666" lon="1.76996">
        <ele>314</ele>
        <time>2022-02-19T14:00:10Z</time>
      </trkpt>
      <trkpt lat="44.24666" lon="1.76996">
        <ele>314</ele>
        <time>2022-02-19T14:00:23Z</time>
      </trkpt>
      <trkpt lat="44.24666" lon="1.76995">
        <ele>314</ele>
        <time>2022-02-19T14:00:24Z</time>
      </trkpt>
      <trkpt lat="44.24667" lon="1.76995">
        <ele>314</ele>
        <time>2022-02-19T14:00:25Z</time>
      </trkpt>
      <trkpt lat="44.2467" lon="1.76994">
        <ele>314</ele>
        <time>2022-02-19T14:00:26Z</time>
      </trkpt>
      <trkpt lat="44.24673" lon="1.76992">
        <ele>314.1</ele>
        <time>2022-02-19T14:00:27Z</time>
      </trkpt>
      <trkpt lat="44.24677" lon="1.7699">
        <ele>314.1</ele>
        <time>2022-02-19T14:00:28Z</time>
      </trkpt>
      <trkpt lat="44.24682" lon="1.76986">
        <ele>314</ele>
        <time>2022-02-19T14:00:30Z</time>
      </trkpt>
      <trkpt lat="44.24686" lon="1.76984">
        <ele>314</ele>
        <time>2022-02-19T14:00:32Z</time>
      </trkpt>
      <trkpt lat="44.2469" lon="1.76982">
        <ele>314</ele>
        <time>2022-02-19T14:00:33Z</time>
      </trkpt>
      <trkpt lat="44.24694" lon="1.7698">
        <ele>313.9</ele>
        <time>2022-02-19T14:00:35Z</time>
      </trkpt>
      <trkpt lat="44.24696" lon="1.76978">
        <ele>313.9</ele>
        <time>2022-02-19T14:00:36Z</time>
      </trkpt>
      <trkpt lat="44.24699" lon="1.76976">
        <ele>313.8</ele>
        <time>2022-02-19T14:00:37Z</time>
      </trkpt>
      <trkpt lat="44.24701" lon="1.76975">
        <ele>313.8</ele>
        <time>2022-02-19T14:00:38Z</time>
      </trkpt>
      <trkpt lat="44.24704" lon="1.76974">
        <ele>313.7</ele>
        <time>2022-02-19T14:00:39Z</time>
      </trkpt>
      <trkpt lat="44.24708" lon="1.76971">
        <ele>313.6</ele>
        <time>2022-02-19T14:00:41Z</time>
      </trkpt>
      <trkpt lat="44.24712" lon="1.7697">
        <ele>313.5</ele>
        <time>2022-02-19T14:00:42Z</time>
      </trkpt>
      <trkpt lat="44.24715" lon="1.76968">
        <ele>313.4</ele>
        <time>2022-02-19T14:00:43Z</time>
      </trkpt>
      <trkpt lat="44.24718" lon="1.76966">
        <ele>313.2</ele>
        <time>2022-02-19T14:00:44Z</time>
      </trkpt>
      <trkpt lat="44.24719" lon="1.76965">
        <ele>313.2</ele>
        <time>2022-02-19T14:00:45Z</time>
      </trkpt>
      <trkpt lat="44.24723" lon="1.76963">
        <ele>312.9</ele>
        <time>2022-02-19T14:00:46Z</time>
      </trkpt>
      <trkpt lat="44.24726" lon="1.76961">
        <ele>312.7</ele>
        <time>2022-02-19T14:00:47Z</time>
      </trkpt>
      <trkpt lat="44.2473" lon="1.76959">
        <ele>312.4</ele>
        <time>2022-02-19T14:00:48Z</time>
      </trkpt>
      <trkpt lat="44.24735" lon="1.76957">
        <ele>312.1</ele>
        <time>2022-02-19T14:00:50Z</time>
      </trkpt>
      <trkpt lat="44.24746" lon="1.7695">
        <ele>311.2</ele>
        <time>2022-02-19T14:00:52Z</time>
      </trkpt>
      <trkpt lat="44.24755" lon="1.76945">
        <ele>310.6</ele>
        <time>2022-02-19T14:00:54Z</time>
      </trkpt>
      <trkpt lat="44.24761" lon="1.76943">
        <ele>310.2</ele>
        <time>2022-02-19T14:00:56Z</time>
      </trkpt>
      <trkpt lat="44.24769" lon="1.76939">
        <ele>309.6</ele>
        <time>2022-02-19T14:00:57Z</time>
      </trkpt>
      <trkpt lat="44.24775" lon="1.76937">
        <ele>309.1</ele>
        <time>2022-02-19T14:00:58Z</time>
      </trkpt>
      <trkpt lat="44.2478" lon="1.76936">
        <ele>308.7</ele>
        <time>2022-02-19T14:00:59Z</time>
      </trkpt>
      <trkpt lat="44.24787" lon="1.76935">
        <ele>308.2</ele>
        <time>2022-02-19T14:01:00Z</time>
      </trkpt>
      <trkpt lat="44.24793" lon="1.76934">
        <ele>307.8</ele>
        <time>2022-02-19T14:01:01Z</time>
      </trkpt>
      <trkpt lat="44.248" lon="1.76932">
        <ele>307.4</ele>
        <time>2022-02-19T14:01:02Z</time>
      </trkpt>
      <trkpt lat="44.24806" lon="1.7693">
        <ele>307</ele>
        <time>2022-02-19T14:01:03Z</time>
      </trkpt>
      <trkpt lat="44.24813" lon="1.76927">
        <ele>306.6</ele>
        <time>2022-02-19T14:01:04Z</time>
      </trkpt>
      <trkpt lat="44.24819" lon="1.76923">
        <ele>306.3</ele>
        <time>2022-02-19T14:01:05Z</time>
      </trkpt>
      <trkpt lat="44.24825" lon="1.76919">
        <ele>306</ele>
        <time>2022-02-19T14:01:06Z</time>
      </trkpt>
      <trkpt lat="44.24831" lon="1.76914">
        <ele>305.7</ele>
        <time>2022-02-19T14:01:07Z</time>
      </trkpt>
      <trkpt lat="44.24837" lon="1.76909">
        <ele>305.4</ele>
        <time>2022-02-19T14:01:08Z</time>
      </trkpt>
      <trkpt lat="44.24843" lon="1.76905">
        <ele>305.2</ele>
        <time>2022-02-19T14:01:09Z</time>
      </trkpt>
      <trkpt lat="44.24848" lon="1.76899">
        <ele>305</ele>
        <time>2022-02-19T14:01:10Z</time>
      </trkpt>
      <trkpt lat="44.24854" lon="1.76893">
        <ele>304.8</ele>
        <time>2022-02-19T14:01:11Z</time>
      </trkpt>
      <trkpt lat="44.24859" lon="1.76888">
        <ele>304.7</ele>
        <time>2022-02-19T14:01:12Z</time>
      </trkpt>
      <trkpt lat="44.24864" lon="1.76882">
        <ele>304.5</ele>
        <time>2022-02-19T14:01:13Z</time>
      </trkpt>
      <trkpt lat="44.24868" lon="1.76876">
        <ele>304.4</ele>
        <time>2022-02-19T14:01:14Z</time>
      </trkpt>
      <trkpt lat="44.24872" lon="1.76869">
        <ele>304.2</ele>
        <time>2022-02-19T14:01:15Z</time>
      </trkpt>
      <trkpt lat="44.24875" lon="1.76862">
        <ele>304.1</ele>
        <time>2022-02-19T14:01:16Z</time>
      </trkpt>
      <trkpt lat="44.24877" lon="1.76856">
        <ele>304</ele>
        <time>2022-02-19T14:01:17Z</time>
      </trkpt>
      <trkpt lat="44.24878" lon="1.76848">
        <ele>304</ele>
        <time>2022-02-19T14:01:18Z</time>
      </trkpt>
      <trkpt lat="44.24879" lon="1.76841">
        <ele>304</ele>
        <time>2022-02-19T14:01:19Z</time>
      </trkpt>
      <trkpt lat="44.2488" lon="1.76835">
        <ele>304</ele>
        <time>2022-02-19T14:01:20Z</time>
      </trkpt>
      <trkpt lat="44.2488" lon="1.76831">
        <ele>304</ele>
        <time>2022-02-19T14:01:21Z</time>
      </trkpt>
      <trkpt lat="44.24881" lon="1.76825">
        <ele>304</ele>
        <time>2022-02-19T14:01:22Z</time>
      </trkpt>
      <trkpt lat="44.24882" lon="1.76819">
        <ele>304</ele>
        <time>2022-02-19T14:01:23Z</time>
      </trkpt>
      <trkpt lat="44.24883" lon="1.76814">
        <ele>304.1</ele>
        <time>2022-02-19T14:01:24Z</time>
      </trkpt>
      <trkpt lat="44.24884" lon="1.7681">
        <ele>304.1</ele>
        <time>2022-02-19T14:01:25Z</time>
      </trkpt>
      <trkpt lat="44.24885" lon="1.76806">
        <ele>304.2</ele>
        <time>2022-02-19T14:01:26Z</time>
      </trkpt>
      <trkpt lat="44.24886" lon="1.76802">
        <ele>304.3</ele>
        <time>2022-02-19T14:01:27Z</time>
      </trkpt>
      <trkpt lat="44.24886" lon="1.76801">
        <ele>304.3</ele>
        <time>2022-02-19T14:01:28Z</time>
      </trkpt>
      <trkpt lat="44.24887" lon="1.76797">
        <ele>304.2</ele>
        <time>2022-02-19T14:01:29Z</time>
      </trkpt>
      <trkpt lat="44.24887" lon="1.76794">
        <ele>304.1</ele>
        <time>2022-02-19T14:01:31Z</time>
      </trkpt>
      <trkpt lat="44.24887" lon="1.76793">
        <ele>304</ele>
        <time>2022-02-19T14:01:32Z</time>
      </trkpt>
      <trkpt lat="44.24888" lon="1.76792">
        <ele>304</ele>
        <time>2022-02-19T14:01:33Z</time>
      </trkpt>
      <trkpt lat="44.24888" lon="1.76791">
        <ele>303.9</ele>
        <time>2022-02-19T14:01:34Z</time>
      </trkpt>
      <trkpt lat="44.24888" lon="1.76789">
        <ele>303.9</ele>
        <time>2022-02-19T14:01:35Z</time>
      </trkpt>
      <trkpt lat="44.24889" lon="1.76788">
        <ele>303.8</ele>
        <time>2022-02-19T14:01:36Z</time>
      </trkpt>
      <trkpt lat="44.24889" lon="1.76787">
        <ele>303.8</ele>
        <time>2022-02-19T14:01:37Z</time>
      </trkpt>
      <trkpt lat="44.24889" lon="1.76786">
        <ele>303.7</ele>
        <time>2022-02-19T14:01:38Z</time>
      </trkpt>
      <trkpt lat="44.2489" lon="1.76784">
        <ele>303.6</ele>
        <time>2022-02-19T14:01:39Z</time>
      </trkpt>
      <trkpt lat="44.2489" lon="1.76783">
        <ele>303.5</ele>
        <time>2022-02-19T14:01:48Z</time>
      </trkpt>
      <trkpt lat="44.2489" lon="1.76782">
        <ele>303.4</ele>
        <time>2022-02-19T14:01:49Z</time>
      </trkpt>
      <trkpt lat="44.24894" lon="1.76775">
        <ele>302.8</ele>
        <time>2022-02-19T14:01:51Z</time>
      </trkpt>
      <trkpt lat="44.24899" lon="1.76768">
        <ele>301.7</ele>
        <time>2022-02-19T14:01:52Z</time>
      </trkpt>
      <trkpt lat="44.24902" lon="1.76761">
        <ele>300.6</ele>
        <time>2022-02-19T14:01:53Z</time>
      </trkpt>
      <trkpt lat="44.24905" lon="1.76753">
        <ele>299.3</ele>
        <time>2022-02-19T14:01:54Z</time>
      </trkpt>
      <trkpt lat="44.24909" lon="1.76744">
        <ele>297.8</ele>
        <time>2022-02-19T14:01:55Z</time>
      </trkpt>
      <trkpt lat="44.24914" lon="1.76734">
        <ele>296</ele>
        <time>2022-02-19T14:01:56Z</time>
      </trkpt>
      <trkpt lat="44.24919" lon="1.76724">
        <ele>293.9</ele>
        <time>2022-02-19T14:01:57Z</time>
      </trkpt>
      <trkpt lat="44.24925" lon="1.76714">
        <ele>291.7</ele>
        <time>2022-02-19T14:01:58Z</time>
      </trkpt>
      <trkpt lat="44.2493" lon="1.76706">
        <ele>289.8</ele>
        <time>2022-02-19T14:01:59Z</time>
      </trkpt>
      <trkpt lat="44.24935" lon="1.767">
        <ele>288.2</ele>
        <time>2022-02-19T14:02:00Z</time>
      </trkpt>
      <trkpt lat="44.24939" lon="1.76694">
        <ele>286.8</ele>
        <time>2022-02-19T14:02:01Z</time>
      </trkpt>
      <trkpt lat="44.24942" lon="1.7669">
        <ele>285.7</ele>
        <time>2022-02-19T14:02:02Z</time>
      </trkpt>
      <trkpt lat="44.24946" lon="1.76687">
        <ele>284.5</ele>
        <time>2022-02-19T14:02:03Z</time>
      </trkpt>
      <trkpt lat="44.24946" lon="1.76685">
        <ele>284.1</ele>
        <time>2022-02-19T14:02:04Z</time>
      </trkpt>
      <trkpt lat="44.24952" lon="1.76681">
        <ele>282.4</ele>
        <time>2022-02-19T14:02:06Z</time>
      </trkpt>
      <trkpt lat="44.24957" lon="1.76678">
        <ele>280.9</ele>
        <time>2022-02-19T14:02:07Z</time>
      </trkpt>
      <trkpt lat="44.24962" lon="1.76674">
        <ele>279.5</ele>
        <time>2022-02-19T14:02:08Z</time>
      </trkpt>
      <trkpt lat="44.24965" lon="1.76671">
        <ele>278.5</ele>
        <time>2022-02-19T14:02:09Z</time>
      </trkpt>
      <trkpt lat="44.24967" lon="1.76669">
        <ele>277.8</ele>
        <time>2022-02-19T14:02:10Z</time>
      </trkpt>
      <trkpt lat="44.2497" lon="1.76666">
        <ele>276.9</ele>
        <time>2022-02-19T14:02:11Z</time>
      </trkpt>
      <trkpt lat="44.24972" lon="1.76662">
        <ele>276</ele>
        <time>2022-02-19T14:02:13Z</time>
      </trkpt>
      <trkpt lat="44.24973" lon="1.76662">
        <ele>275.8</ele>
        <time>2022-02-19T14:02:14Z</time>
      </trkpt>
      <trkpt lat="44.24974" lon="1.76659">
        <ele>275.1</ele>
        <time>2022-02-19T14:02:15Z</time>
      </trkpt>
      <trkpt lat="44.24975" lon="1.76657">
        <ele>274.7</ele>
        <time>2022-02-19T14:02:16Z</time>
      </trkpt>
      <trkpt lat="44.24977" lon="1.76655">
        <ele>274</ele>
        <time>2022-02-19T14:02:17Z</time>
      </trkpt>
      <trkpt lat="44.2498" lon="1.76653">
        <ele>273.1</ele>
        <time>2022-02-19T14:02:19Z</time>
      </trkpt>
      <trkpt lat="44.24984" lon="1.76651">
        <ele>272</ele>
        <time>2022-02-19T14:02:20Z</time>
      </trkpt>
      <trkpt lat="44.24985" lon="1.7665">
        <ele>271.6</ele>
        <time>2022-02-19T14:02:21Z</time>
      </trkpt>
      <trkpt lat="44.24988" lon="1.76649">
        <ele>270.9</ele>
        <time>2022-02-19T14:02:22Z</time>
      </trkpt>
      <trkpt lat="44.24992" lon="1.76649">
        <ele>269.8</ele>
        <time>2022-02-19T14:02:23Z</time>
      </trkpt>
      <trkpt lat="44.24996" lon="1.76647">
        <ele>269</ele>
        <time>2022-02-19T14:02:24Z</time>
      </trkpt>
      <trkpt lat="44.25" lon="1.76644">
        <ele>268</ele>
        <time>2022-02-19T14:02:26Z</time>
      </trkpt>
      <trkpt lat="44.25002" lon="1.76642">
        <ele>267.4</ele>
        <time>2022-02-19T14:02:27Z</time>
      </trkpt>
      <trkpt lat="44.25003" lon="1.76642">
        <ele>267.2</ele>
        <time>2022-02-19T14:02:28Z</time>
      </trkpt>
      <trkpt lat="44.25004" lon="1.76642">
        <ele>267.1</ele>
        <time>2022-02-19T14:02:29Z</time>
      </trkpt>
      <trkpt lat="44.25004" lon="1.76642">
        <ele>267.1</ele>
        <time>2022-02-19T14:02:30Z</time>
      </trkpt>
      <trkpt lat="44.25003" lon="1.76641">
        <ele>267</ele>
        <time>2022-02-19T14:02:31Z</time>
      </trkpt>
      <trkpt lat="44.25003" lon="1.76641">
        <ele>267</ele>
        <time>2022-02-19T14:02:32Z</time>
      </trkpt>
      <trkpt lat="44.25003" lon="1.76641">
        <ele>267</ele>
        <time>2022-02-19T14:02:33Z</time>
      </trkpt>
      <trkpt lat="44.25003" lon="1.76641">
        <ele>266.9</ele>
        <time>2022-02-19T14:02:34Z</time>
      </trkpt>
      <trkpt lat="44.25003" lon="1.76641">
        <ele>266.9</ele>
        <time>2022-02-19T14:02:35Z</time>
      </trkpt>
      <trkpt lat="44.25003" lon="1.76641">
        <ele>266.9</ele>
        <time>2022-02-19T14:02:36Z</time>
      </trkpt>
      <trkpt lat="44.25003" lon="1.76641">
        <ele>266.9</ele>
        <time>2022-02-19T14:02:37Z</time>
      </trkpt>
      <trkpt lat="44.25011" lon="1.76631">
        <ele>265</ele>
        <time>2022-02-19T14:03:19Z</time>
      </trkpt>
      <trkpt lat="44.25014" lon="1.7663">
        <ele>264.4</ele>
        <time>2022-02-19T14:03:20Z</time>
      </trkpt>
      <trkpt lat="44.25017" lon="1.76628">
        <ele>263.9</ele>
        <time>2022-02-19T14:03:21Z</time>
      </trkpt>
      <trkpt lat="44.25018" lon="1.76627">
        <ele>263.7</ele>
        <time>2022-02-19T14:03:22Z</time>
      </trkpt>
      <trkpt lat="44.25019" lon="1.76626">
        <ele>263.4</ele>
        <time>2022-02-19T14:03:23Z</time>
      </trkpt>
      <trkpt lat="44.2502" lon="1.76625">
        <ele>263.2</ele>
        <time>2022-02-19T14:03:24Z</time>
      </trkpt>
      <trkpt lat="44.25021" lon="1.76623">
        <ele>263</ele>
        <time>2022-02-19T14:03:25Z</time>
      </trkpt>
      <trkpt lat="44.25021" lon="1.76622">
        <ele>262.8</ele>
        <time>2022-02-19T14:03:26Z</time>
      </trkpt>
      <trkpt lat="44.25022" lon="1.76621">
        <ele>262.6</ele>
        <time>2022-02-19T14:03:28Z</time>
      </trkpt>
      <trkpt lat="44.25023" lon="1.7662">
        <ele>262.5</ele>
        <time>2022-02-19T14:03:29Z</time>
      </trkpt>
      <trkpt lat="44.25023" lon="1.7662">
        <ele>262.3</ele>
        <time>2022-02-19T14:03:30Z</time>
      </trkpt>
      <trkpt lat="44.25026" lon="1.76619">
        <ele>261.8</ele>
        <time>2022-02-19T14:03:31Z</time>
      </trkpt>
      <trkpt lat="44.25027" lon="1.76619">
        <ele>261.7</ele>
        <time>2022-02-19T14:03:32Z</time>
      </trkpt>
      <trkpt lat="44.25028" lon="1.76619">
        <ele>261.4</ele>
        <time>2022-02-19T14:03:33Z</time>
      </trkpt>
      <trkpt lat="44.25029" lon="1.76618">
        <ele>261.3</ele>
        <time>2022-02-19T14:03:35Z</time>
      </trkpt>
      <trkpt lat="44.2503" lon="1.76618">
        <ele>261.1</ele>
        <time>2022-02-19T14:03:36Z</time>
      </trkpt>
      <trkpt lat="44.2503" lon="1.76617">
        <ele>261</ele>
        <time>2022-02-19T14:03:37Z</time>
      </trkpt>
      <trkpt lat="44.25031" lon="1.76617">
        <ele>260.9</ele>
        <time>2022-02-19T14:03:38Z</time>
      </trkpt>
      <trkpt lat="44.25032" lon="1.76616">
        <ele>260.8</ele>
        <time>2022-02-19T14:03:39Z</time>
      </trkpt>
      <trkpt lat="44.25043" lon="1.76609">
        <ele>259.1</ele>
        <time>2022-02-19T14:03:41Z</time>
      </trkpt>
      <trkpt lat="44.2505" lon="1.76607">
        <ele>258.4</ele>
        <time>2022-02-19T14:03:43Z</time>
      </trkpt>
      <trkpt lat="44.25055" lon="1.76602">
        <ele>257.9</ele>
        <time>2022-02-19T14:03:44Z</time>
      </trkpt>
      <trkpt lat="44.25062" lon="1.76598">
        <ele>257.5</ele>
        <time>2022-02-19T14:03:46Z</time>
      </trkpt>
      <trkpt lat="44.25066" lon="1.76596">
        <ele>257.3</ele>
        <time>2022-02-19T14:03:47Z</time>
      </trkpt>
      <trkpt lat="44.25069" lon="1.76594">
        <ele>257</ele>
        <time>2022-02-19T14:03:48Z</time>
      </trkpt>
      <trkpt lat="44.25073" lon="1.76593">
        <ele>256.8</ele>
        <time>2022-02-19T14:03:49Z</time>
      </trkpt>
      <trkpt lat="44.25077" lon="1.76592">
        <ele>256.5</ele>
        <time>2022-02-19T14:03:50Z</time>
      </trkpt>
      <trkpt lat="44.25082" lon="1.7659">
        <ele>256.1</ele>
        <time>2022-02-19T14:03:51Z</time>
      </trkpt>
      <trkpt lat="44.2509" lon="1.76585">
        <ele>255.3</ele>
        <time>2022-02-19T14:03:53Z</time>
      </trkpt>
      <trkpt lat="44.25095" lon="1.76582">
        <ele>254.8</ele>
        <time>2022-02-19T14:03:54Z</time>
      </trkpt>
      <trkpt lat="44.25101" lon="1.76581">
        <ele>254.4</ele>
        <time>2022-02-19T14:03:55Z</time>
      </trkpt>
      <trkpt lat="44.25106" lon="1.7658">
        <ele>254.2</ele>
        <time>2022-02-19T14:03:56Z</time>
      </trkpt>
      <trkpt lat="44.2511" lon="1.76582">
        <ele>254.1</ele>
        <time>2022-02-19T14:03:57Z</time>
      </trkpt>
      <trkpt lat="44.25113" lon="1.76584">
        <ele>254.1</ele>
        <time>2022-02-19T14:03:59Z</time>
      </trkpt>
      <trkpt lat="44.25118" lon="1.76584">
        <ele>254</ele>
        <time>2022-02-19T14:04:01Z</time>
      </trkpt>
      <trkpt lat="44.2512" lon="1.76581">
        <ele>254</ele>
        <time>2022-02-19T14:04:02Z</time>
      </trkpt>
      <trkpt lat="44.2512" lon="1.7658">
        <ele>254</ele>
        <time>2022-02-19T14:04:03Z</time>
      </trkpt>
      <trkpt lat="44.25121" lon="1.7658">
        <ele>254</ele>
        <time>2022-02-19T14:04:04Z</time>
      </trkpt>
      <trkpt lat="44.25121" lon="1.76579">
        <ele>253.9</ele>
        <time>2022-02-19T14:04:05Z</time>
      </trkpt>
      <trkpt lat="44.25121" lon="1.76578">
        <ele>253.9</ele>
        <time>2022-02-19T14:04:06Z</time>
      </trkpt>
      <trkpt lat="44.25121" lon="1.76577">
        <ele>253.9</ele>
        <time>2022-02-19T14:04:07Z</time>
      </trkpt>
      <trkpt lat="44.25122" lon="1.76576">
        <ele>271.8</ele>
        <time>2022-02-19T14:04:08Z</time>
      </trkpt>
      <trkpt lat="44.25122" lon="1.76575">
        <ele>275.6</ele>
        <time>2022-02-19T14:04:09Z</time>
      </trkpt>
      <trkpt lat="44.25122" lon="1.76575">
        <ele>279</ele>
        <time>2022-02-19T14:04:10Z</time>
      </trkpt>
      <trkpt lat="44.25122" lon="1.76574">
        <ele>281.2</ele>
        <time>2022-02-19T14:04:11Z</time>
      </trkpt>
      <trkpt lat="44.25122" lon="1.76573">
        <ele>281.2</ele>
        <time>2022-02-19T14:04:13Z</time>
      </trkpt>
      <trkpt lat="44.25123" lon="1.76572">
        <ele>281.2</ele>
        <time>2022-02-19T14:04:33Z</time>
      </trkpt>
      <trkpt lat="44.25123" lon="1.76571">
        <ele>281.3</ele>
        <time>2022-02-19T14:04:34Z</time>
      </trkpt>
      <trkpt lat="44.25123" lon="1.7657">
        <ele>281.3</ele>
        <time>2022-02-19T14:04:35Z</time>
      </trkpt>
      <trkpt lat="44.25124" lon="1.76569">
        <ele>281.4</ele>
        <time>2022-02-19T14:04:36Z</time>
      </trkpt>
      <trkpt lat="44.25124" lon="1.76568">
        <ele>281.4</ele>
        <time>2022-02-19T14:04:37Z</time>
      </trkpt>
      <trkpt lat="44.25124" lon="1.76568">
        <ele>281.4</ele>
        <time>2022-02-19T14:04:38Z</time>
      </trkpt>
      <trkpt lat="44.25125" lon="1.76567">
        <ele>281.4</ele>
        <time>2022-02-19T14:04:39Z</time>
      </trkpt>
      <trkpt lat="44.25125" lon="1.76566">
        <ele>281.4</ele>
        <time>2022-02-19T14:04:40Z</time>
      </trkpt>
      <trkpt lat="44.25126" lon="1.76565">
        <ele>281.5</ele>
        <time>2022-02-19T14:04:41Z</time>
      </trkpt>
      <trkpt lat="44.25127" lon="1.76564">
        <ele>281.6</ele>
        <time>2022-02-19T14:04:43Z</time>
      </trkpt>
      <trkpt lat="44.25128" lon="1.76564">
        <ele>281.6</ele>
        <time>2022-02-19T14:04:45Z</time>
      </trkpt>
      <trkpt lat="44.25128" lon="1.76563">
        <ele>281.6</ele>
        <time>2022-02-19T14:04:46Z</time>
      </trkpt>
      <trkpt lat="44.25128" lon="1.76563">
        <ele>281.6</ele>
        <time>2022-02-19T14:04:48Z</time>
      </trkpt>
      <trkpt lat="44.25128" lon="1.76563">
        <ele>281.6</ele>
        <time>2022-02-19T14:04:49Z</time>
      </trkpt>
      <trkpt lat="44.25128" lon="1.76563">
        <ele>281.6</ele>
        <time>2022-02-19T14:04:50Z</time>
      </trkpt>
      <trkpt lat="44.25129" lon="1.76562">
        <ele>281.7</ele>
        <time>2022-02-19T14:04:52Z</time>
      </trkpt>
      <trkpt lat="44.2513" lon="1.76561">
        <ele>281.7</ele>
        <time>2022-02-19T14:04:53Z</time>
      </trkpt>
      <trkpt lat="44.25132" lon="1.76559">
        <ele>281.9</ele>
        <time>2022-02-19T14:04:54Z</time>
      </trkpt>
      <trkpt lat="44.25135" lon="1.76555">
        <ele>282.1</ele>
        <time>2022-02-19T14:04:55Z</time>
      </trkpt>
      <trkpt lat="44.25136" lon="1.76553">
        <ele>282.2</ele>
        <time>2022-02-19T14:04:56Z</time>
      </trkpt>
      <trkpt lat="44.25138" lon="1.76551">
        <ele>282.3</ele>
        <time>2022-02-19T14:04:57Z</time>
      </trkpt>
      <trkpt lat="44.25139" lon="1.7655">
        <ele>282.4</ele>
        <time>2022-02-19T14:04:58Z</time>
      </trkpt>
      <trkpt lat="44.25139" lon="1.76549">
        <ele>282.4</ele>
        <time>2022-02-19T14:04:59Z</time>
      </trkpt>
      <trkpt lat="44.2514" lon="1.76549">
        <ele>282.5</ele>
        <time>2022-02-19T14:05:00Z</time>
      </trkpt>
      <trkpt lat="44.2514" lon="1.76548">
        <ele>282.5</ele>
        <time>2022-02-19T14:05:01Z</time>
      </trkpt>
      <trkpt lat="44.25141" lon="1.76548">
        <ele>282.5</ele>
        <time>2022-02-19T14:05:02Z</time>
      </trkpt>
      <trkpt lat="44.25141" lon="1.76548">
        <ele>282.6</ele>
        <time>2022-02-19T14:05:03Z</time>
      </trkpt>
      <trkpt lat="44.25141" lon="1.76548">
        <ele>282.6</ele>
        <time>2022-02-19T14:05:04Z</time>
      </trkpt>
      <trkpt lat="44.25142" lon="1.76547">
        <ele>282.6</ele>
        <time>2022-02-19T14:05:05Z</time>
      </trkpt>
      <trkpt lat="44.25142" lon="1.76547">
        <ele>282.6</ele>
        <time>2022-02-19T14:05:06Z</time>
      </trkpt>
      <trkpt lat="44.25142" lon="1.76547">
        <ele>282.6</ele>
        <time>2022-02-19T14:05:07Z</time>
      </trkpt>
      <trkpt lat="44.25142" lon="1.76547">
        <ele>282.6</ele>
        <time>2022-02-19T14:05:08Z</time>
      </trkpt>
      <trkpt lat="44.25138" lon="1.76551">
        <ele>282.4</ele>
        <time>2022-02-19T14:09:52Z</time>
      </trkpt>
      <trkpt lat="44.25136" lon="1.76553">
        <ele>282.3</ele>
        <time>2022-02-19T14:09:53Z</time>
      </trkpt>
      <trkpt lat="44.25136" lon="1.76553">
        <ele>282.2</ele>
        <time>2022-02-19T14:09:54Z</time>
      </trkpt>
      <trkpt lat="44.25135" lon="1.76553">
        <ele>282.2</ele>
        <time>2022-02-19T14:09:55Z</time>
      </trkpt>
      <trkpt lat="44.25135" lon="1.76553">
        <ele>282.2</ele>
        <time>2022-02-19T14:09:56Z</time>
      </trkpt>
      <trkpt lat="44.25134" lon="1.76553">
        <ele>282.2</ele>
        <time>2022-02-19T14:09:57Z</time>
      </trkpt>
      <trkpt lat="44.25134" lon="1.76553">
        <ele>282.2</ele>
        <time>2022-02-19T14:09:58Z</time>
      </trkpt>
      <trkpt lat="44.25134" lon="1.76553">
        <ele>282.2</ele>
        <time>2022-02-19T14:09:59Z</time>
      </trkpt>
      <trkpt lat="44.25134" lon="1.76553">
        <ele>282.2</ele>
        <time>2022-02-19T14:10:00Z</time>
      </trkpt>
      <trkpt lat="44.25134" lon="1.76553">
        <ele>282.2</ele>
        <time>2022-02-19T14:10:01Z</time>
      </trkpt>
      <trkpt lat="44.25134" lon="1.76553">
        <ele>282.2</ele>
        <time>2022-02-19T14:10:02Z</time>
      </trkpt>
      <trkpt lat="44.25134" lon="1.76553">
        <ele>282.2</ele>
        <time>2022-02-19T14:10:03Z</time>
      </trkpt>
      <trkpt lat="44.25134" lon="1.76553">
        <ele>282.2</ele>
        <time>2022-02-19T14:10:04Z</time>
      </trkpt>
      <trkpt lat="44.25134" lon="1.76553">
        <ele>282.2</ele>
        <time>2022-02-19T14:10:05Z</time>
      </trkpt>
      <trkpt lat="44.25134" lon="1.76553">
        <ele>282.2</ele>
        <time>2022-02-19T14:10:06Z</time>
      </trkpt>
      <trkpt lat="44.25132" lon="1.76552">
        <ele>282.1</ele>
        <time>2022-02-19T14:10:07Z</time>
      </trkpt>
      <trkpt lat="44.2513" lon="1.76551">
        <ele>282</ele>
        <time>2022-02-19T14:10:08Z</time>
      </trkpt>
      <trkpt lat="44.2513" lon="1.7655">
        <ele>281.9</ele>
        <time>2022-02-19T14:10:09Z</time>
      </trkpt>
      <trkpt lat="44.25129" lon="1.76551">
        <ele>281.9</ele>
        <time>2022-02-19T14:10:10Z</time>
      </trkpt>
      <trkpt lat="44.25128" lon="1.76551">
        <ele>281.9</ele>
        <time>2022-02-19T14:10:11Z</time>
      </trkpt>
      <trkpt lat="44.25128" lon="1.76552">
        <ele>281.8</ele>
        <time>2022-02-19T14:10:12Z</time>
      </trkpt>
      <trkpt lat="44.25127" lon="1.76552">
        <ele>281.8</ele>
        <time>2022-02-19T14:10:13Z</time>
      </trkpt>
      <trkpt lat="44.25127" lon="1.76553">
        <ele>281.8</ele>
        <time>2022-02-19T14:10:14Z</time>
      </trkpt>
      <trkpt lat="44.25126" lon="1.76554">
        <ele>281.8</ele>
        <time>2022-02-19T14:10:15Z</time>
      </trkpt>
      <trkpt lat="44.25126" lon="1.76554">
        <ele>281.7</ele>
        <time>2022-02-19T14:10:16Z</time>
      </trkpt>
      <trkpt lat="44.25124" lon="1.76558">
        <ele>281.6</ele>
        <time>2022-02-19T14:10:17Z</time>
      </trkpt>
      <trkpt lat="44.25123" lon="1.76559">
        <ele>281.6</ele>
        <time>2022-02-19T14:10:18Z</time>
      </trkpt>
      <trkpt lat="44.25122" lon="1.76561">
        <ele>281.5</ele>
        <time>2022-02-19T14:10:19Z</time>
      </trkpt>
      <trkpt lat="44.25121" lon="1.76563">
        <ele>281.5</ele>
        <time>2022-02-19T14:10:20Z</time>
      </trkpt>
      <trkpt lat="44.2512" lon="1.76565">
        <ele>281.4</ele>
        <time>2022-02-19T14:10:21Z</time>
      </trkpt>
      <trkpt lat="44.2512" lon="1.76567">
        <ele>281.4</ele>
        <time>2022-02-19T14:10:22Z</time>
      </trkpt>
      <trkpt lat="44.25119" lon="1.76569">
        <ele>281.3</ele>
        <time>2022-02-19T14:10:23Z</time>
      </trkpt>
      <trkpt lat="44.2512" lon="1.7657">
        <ele>281.3</ele>
        <time>2022-02-19T14:10:24Z</time>
      </trkpt>
      <trkpt lat="44.2512" lon="1.76571">
        <ele>281.2</ele>
        <time>2022-02-19T14:10:25Z</time>
      </trkpt>
      <trkpt lat="44.2512" lon="1.76572">
        <ele>281.2</ele>
        <time>2022-02-19T14:10:26Z</time>
      </trkpt>
      <trkpt lat="44.2512" lon="1.76573">
        <ele>280.4</ele>
        <time>2022-02-19T14:10:27Z</time>
      </trkpt>
      <trkpt lat="44.2512" lon="1.76574">
        <ele>276.6</ele>
        <time>2022-02-19T14:10:28Z</time>
      </trkpt>
      <trkpt lat="44.2512" lon="1.76575">
        <ele>272.7</ele>
        <time>2022-02-19T14:10:29Z</time>
      </trkpt>
      <trkpt lat="44.2512" lon="1.76576">
        <ele>269.2</ele>
        <time>2022-02-19T14:10:30Z</time>
      </trkpt>
      <trkpt lat="44.2512" lon="1.76577">
        <ele>265.4</ele>
        <time>2022-02-19T14:10:31Z</time>
      </trkpt>
      <trkpt lat="44.2512" lon="1.76578">
        <ele>261.5</ele>
        <time>2022-02-19T14:10:32Z</time>
      </trkpt>
      <trkpt lat="44.2512" lon="1.76579">
        <ele>258</ele>
        <time>2022-02-19T14:11:03Z</time>
      </trkpt>
      <trkpt lat="44.2512" lon="1.76581">
        <ele>253.9</ele>
        <time>2022-02-19T14:11:04Z</time>
      </trkpt>
      <trkpt lat="44.25121" lon="1.76584">
        <ele>253.8</ele>
        <time>2022-02-19T14:11:05Z</time>
      </trkpt>
      <trkpt lat="44.25121" lon="1.76586">
        <ele>253.8</ele>
        <time>2022-02-19T14:11:06Z</time>
      </trkpt>
      <trkpt lat="44.2512" lon="1.76588">
        <ele>253.7</ele>
        <time>2022-02-19T14:11:07Z</time>
      </trkpt>
      <trkpt lat="44.2512" lon="1.7659">
        <ele>253.6</ele>
        <time>2022-02-19T14:11:08Z</time>
      </trkpt>
      <trkpt lat="44.2512" lon="1.76591">
        <ele>253.6</ele>
        <time>2022-02-19T14:11:09Z</time>
      </trkpt>
      <trkpt lat="44.25119" lon="1.76593">
        <ele>253.5</ele>
        <time>2022-02-19T14:11:10Z</time>
      </trkpt>
      <trkpt lat="44.25119" lon="1.76595">
        <ele>253.4</ele>
        <time>2022-02-19T14:11:11Z</time>
      </trkpt>
      <trkpt lat="44.25118" lon="1.76597">
        <ele>253.4</ele>
        <time>2022-02-19T14:11:12Z</time>
      </trkpt>
      <trkpt lat="44.25118" lon="1.766">
        <ele>253.3</ele>
        <time>2022-02-19T14:11:13Z</time>
      </trkpt>
      <trkpt lat="44.25117" lon="1.76602">
        <ele>253.3</ele>
        <time>2022-02-19T14:11:14Z</time>
      </trkpt>
      <trkpt lat="44.25116" lon="1.76604">
        <ele>253.2</ele>
        <time>2022-02-19T14:11:15Z</time>
      </trkpt>
      <trkpt lat="44.25116" lon="1.76606">
        <ele>253.1</ele>
        <time>2022-02-19T14:11:16Z</time>
      </trkpt>
      <trkpt lat="44.25115" lon="1.76609">
        <ele>253.1</ele>
        <time>2022-02-19T14:11:17Z</time>
      </trkpt>
      <trkpt lat="44.25115" lon="1.76611">
        <ele>253</ele>
        <time>2022-02-19T14:11:18Z</time>
      </trkpt>
      <trkpt lat="44.25114" lon="1.76613">
        <ele>253</ele>
        <time>2022-02-19T14:11:19Z</time>
      </trkpt>
      <trkpt lat="44.25114" lon="1.76618">
        <ele>252.9</ele>
        <time>2022-02-19T14:11:20Z</time>
      </trkpt>
      <trkpt lat="44.25113" lon="1.76619">
        <ele>252.8</ele>
        <time>2022-02-19T14:11:21Z</time>
      </trkpt>
      <trkpt lat="44.25112" lon="1.76624">
        <ele>252.7</ele>
        <time>2022-02-19T14:11:22Z</time>
      </trkpt>
      <trkpt lat="44.25111" lon="1.76625">
        <ele>252.7</ele>
        <time>2022-02-19T14:11:23Z</time>
      </trkpt>
      <trkpt lat="44.2511" lon="1.76629">
        <ele>252.6</ele>
        <time>2022-02-19T14:11:24Z</time>
      </trkpt>
      <trkpt lat="44.25108" lon="1.76633">
        <ele>252.5</ele>
        <time>2022-02-19T14:11:25Z</time>
      </trkpt>
      <trkpt lat="44.25106" lon="1.76637">
        <ele>252.4</ele>
        <time>2022-02-19T14:11:26Z</time>
      </trkpt>
      <trkpt lat="44.25104" lon="1.76641">
        <ele>252.3</ele>
        <time>2022-02-19T14:11:27Z</time>
      </trkpt>
      <trkpt lat="44.25103" lon="1.76643">
        <ele>252.3</ele>
        <time>2022-02-19T14:11:28Z</time>
      </trkpt>
      <trkpt lat="44.25102" lon="1.76647">
        <ele>252.2</ele>
        <time>2022-02-19T14:11:29Z</time>
      </trkpt>
      <trkpt lat="44.251" lon="1.7665">
        <ele>252.1</ele>
        <time>2022-02-19T14:11:30Z</time>
      </trkpt>
      <trkpt lat="44.25098" lon="1.76653">
        <ele>252.1</ele>
        <time>2022-02-19T14:11:31Z</time>
      </trkpt>
      <trkpt lat="44.25097" lon="1.76656">
        <ele>252</ele>
        <time>2022-02-19T14:11:32Z</time>
      </trkpt>
      <trkpt lat="44.25095" lon="1.7666">
        <ele>252</ele>
        <time>2022-02-19T14:11:33Z</time>
      </trkpt>
      <trkpt lat="44.25093" lon="1.76664">
        <ele>251.9</ele>
        <time>2022-02-19T14:11:34Z</time>
      </trkpt>
      <trkpt lat="44.25092" lon="1.76665">
        <ele>251.8</ele>
        <time>2022-02-19T14:11:35Z</time>
      </trkpt>
      <trkpt lat="44.25091" lon="1.76669">
        <ele>251.8</ele>
        <time>2022-02-19T14:11:36Z</time>
      </trkpt>
      <trkpt lat="44.2509" lon="1.76671">
        <ele>251.7</ele>
        <time>2022-02-19T14:11:37Z</time>
      </trkpt>
      <trkpt lat="44.25089" lon="1.76676">
        <ele>251.6</ele>
        <time>2022-02-19T14:11:38Z</time>
      </trkpt>
      <trkpt lat="44.25088" lon="1.76677">
        <ele>251.6</ele>
        <time>2022-02-19T14:11:39Z</time>
      </trkpt>
      <trkpt lat="44.25085" lon="1.76681">
        <ele>251.5</ele>
        <time>2022-02-19T14:11:40Z</time>
      </trkpt>
      <trkpt lat="44.25085" lon="1.76683">
        <ele>251.5</ele>
        <time>2022-02-19T14:11:41Z</time>
      </trkpt>
      <trkpt lat="44.25083" lon="1.76686">
        <ele>251.4</ele>
        <time>2022-02-19T14:11:42Z</time>
      </trkpt>
      <trkpt lat="44.25082" lon="1.76691">
        <ele>251.3</ele>
        <time>2022-02-19T14:11:43Z</time>
      </trkpt>
      <trkpt lat="44.25081" lon="1.76693">
        <ele>251.3</ele>
        <time>2022-02-19T14:11:44Z</time>
      </trkpt>
      <trkpt lat="44.2508" lon="1.76697">
        <ele>251.2</ele>
        <time>2022-02-19T14:11:45Z</time>
      </trkpt>
      <trkpt lat="44.25078" lon="1.76702">
        <ele>251.2</ele>
        <time>2022-02-19T14:11:46Z</time>
      </trkpt>
      <trkpt lat="44.25077" lon="1.76706">
        <ele>251.1</ele>
        <time>2022-02-19T14:11:47Z</time>
      </trkpt>
      <trkpt lat="44.25076" lon="1.7671">
        <ele>251</ele>
        <time>2022-02-19T14:11:48Z</time>
      </trkpt>
      <trkpt lat="44.25075" lon="1.76715">
        <ele>250.9</ele>
        <time>2022-02-19T14:11:49Z</time>
      </trkpt>
      <trkpt lat="44.25074" lon="1.76719">
        <ele>250.9</ele>
        <time>2022-02-19T14:11:50Z</time>
      </trkpt>
      <trkpt lat="44.25072" lon="1.76722">
        <ele>250.8</ele>
        <time>2022-02-19T14:11:51Z</time>
      </trkpt>
      <trkpt lat="44.25071" lon="1.76723">
        <ele>250.8</ele>
        <time>2022-02-19T14:11:52Z</time>
      </trkpt>
      <trkpt lat="44.2507" lon="1.76723">
        <ele>250.7</ele>
        <time>2022-02-19T14:11:53Z</time>
      </trkpt>
      <trkpt lat="44.25069" lon="1.76724">
        <ele>250.7</ele>
        <time>2022-02-19T14:11:54Z</time>
      </trkpt>
      <trkpt lat="44.25069" lon="1.76724">
        <ele>250.7</ele>
        <time>2022-02-19T14:11:55Z</time>
      </trkpt>
      <trkpt lat="44.25069" lon="1.76724">
        <ele>250.7</ele>
        <time>2022-02-19T14:11:56Z</time>
      </trkpt>
      <trkpt lat="44.25069" lon="1.76725">
        <ele>256.2</ele>
        <time>2022-02-19T14:11:57Z</time>
      </trkpt>
      <trkpt lat="44.25069" lon="1.76725">
        <ele>256.4</ele>
        <time>2022-02-19T14:11:58Z</time>
      </trkpt>
      <trkpt lat="44.25068" lon="1.76725">
        <ele>259.9</ele>
        <time>2022-02-19T14:11:59Z</time>
      </trkpt>
      <trkpt lat="44.25065" lon="1.76724">
        <ele>268.7</ele>
        <time>2022-02-19T14:12:00Z</time>
      </trkpt>
      <trkpt lat="44.25062" lon="1.76722">
        <ele>266.7</ele>
        <time>2022-02-19T14:12:01Z</time>
      </trkpt>
      <trkpt lat="44.25062" lon="1.76721">
        <ele>265.7</ele>
        <time>2022-02-19T14:12:02Z</time>
      </trkpt>
      <trkpt lat="44.25059" lon="1.76718">
        <ele>262</ele>
        <time>2022-02-19T14:12:03Z</time>
      </trkpt>
      <trkpt lat="44.25058" lon="1.76717">
        <ele>261.2</ele>
        <time>2022-02-19T14:12:04Z</time>
      </trkpt>
      <trkpt lat="44.25054" lon="1.76716">
        <ele>261.2</ele>
        <time>2022-02-19T14:12:05Z</time>
      </trkpt>
      <trkpt lat="44.25053" lon="1.76716">
        <ele>261.2</ele>
        <time>2022-02-19T14:12:06Z</time>
      </trkpt>
      <trkpt lat="44.25049" lon="1.76717">
        <ele>261.2</ele>
        <time>2022-02-19T14:12:07Z</time>
      </trkpt>
      <trkpt lat="44.25048" lon="1.76718">
        <ele>261.2</ele>
        <time>2022-02-19T14:12:08Z</time>
      </trkpt>
      <trkpt lat="44.25045" lon="1.76719">
        <ele>261.2</ele>
        <time>2022-02-19T14:12:09Z</time>
      </trkpt>
      <trkpt lat="44.25044" lon="1.7672">
        <ele>261.2</ele>
        <time>2022-02-19T14:12:10Z</time>
      </trkpt>
      <trkpt lat="44.25041" lon="1.76722">
        <ele>260.9</ele>
        <time>2022-02-19T14:12:11Z</time>
      </trkpt>
      <trkpt lat="44.2504" lon="1.76723">
        <ele>260.8</ele>
        <time>2022-02-19T14:12:12Z</time>
      </trkpt>
      <trkpt lat="44.25037" lon="1.76725">
        <ele>260.7</ele>
        <time>2022-02-19T14:12:13Z</time>
      </trkpt>
      <trkpt lat="44.25034" lon="1.76729">
        <ele>260.5</ele>
        <time>2022-02-19T14:12:14Z</time>
      </trkpt>
      <trkpt lat="44.25033" lon="1.7673">
        <ele>260.4</ele>
        <time>2022-02-19T14:12:15Z</time>
      </trkpt>
      <trkpt lat="44.25031" lon="1.76734">
        <ele>260.2</ele>
        <time>2022-02-19T14:12:16Z</time>
      </trkpt>
      <trkpt lat="44.25029" lon="1.76737">
        <ele>260.1</ele>
        <time>2022-02-19T14:12:17Z</time>
      </trkpt>
      <trkpt lat="44.25027" lon="1.76741">
        <ele>259.9</ele>
        <time>2022-02-19T14:12:18Z</time>
      </trkpt>
      <trkpt lat="44.25025" lon="1.76745">
        <ele>259.7</ele>
        <time>2022-02-19T14:12:19Z</time>
      </trkpt>
      <trkpt lat="44.25023" lon="1.76749">
        <ele>259.5</ele>
        <time>2022-02-19T14:12:20Z</time>
      </trkpt>
      <trkpt lat="44.25021" lon="1.76754">
        <ele>259.4</ele>
        <time>2022-02-19T14:12:21Z</time>
      </trkpt>
      <trkpt lat="44.25019" lon="1.76758">
        <ele>259.2</ele>
        <time>2022-02-19T14:12:22Z</time>
      </trkpt>
      <trkpt lat="44.25017" lon="1.76762">
        <ele>259.1</ele>
        <time>2022-02-19T14:12:23Z</time>
      </trkpt>
      <trkpt lat="44.25015" lon="1.76766">
        <ele>258.9</ele>
        <time>2022-02-19T14:12:24Z</time>
      </trkpt>
      <trkpt lat="44.25013" lon="1.7677">
        <ele>258.8</ele>
        <time>2022-02-19T14:12:25Z</time>
      </trkpt>
      <trkpt lat="44.25013" lon="1.76772">
        <ele>258.7</ele>
        <time>2022-02-19T14:12:26Z</time>
      </trkpt>
      <trkpt lat="44.25011" lon="1.76775">
        <ele>258.6</ele>
        <time>2022-02-19T14:12:27Z</time>
      </trkpt>
      <trkpt lat="44.2501" lon="1.76779">
        <ele>258.5</ele>
        <time>2022-02-19T14:12:28Z</time>
      </trkpt>
      <trkpt lat="44.25009" lon="1.76783">
        <ele>258.4</ele>
        <time>2022-02-19T14:12:29Z</time>
      </trkpt>
      <trkpt lat="44.25007" lon="1.76788">
        <ele>258.2</ele>
        <time>2022-02-19T14:12:30Z</time>
      </trkpt>
      <trkpt lat="44.25005" lon="1.76794">
        <ele>258.1</ele>
        <time>2022-02-19T14:12:31Z</time>
      </trkpt>
      <trkpt lat="44.25004" lon="1.76798">
        <ele>258</ele>
        <time>2022-02-19T14:12:32Z</time>
      </trkpt>
      <trkpt lat="44.25002" lon="1.76803">
        <ele>257.8</ele>
        <time>2022-02-19T14:12:33Z</time>
      </trkpt>
      <trkpt lat="44.25001" lon="1.76807">
        <ele>257.7</ele>
        <time>2022-02-19T14:12:34Z</time>
      </trkpt>
      <trkpt lat="44.24999" lon="1.76812">
        <ele>257.5</ele>
        <time>2022-02-19T14:12:35Z</time>
      </trkpt>
      <trkpt lat="44.24997" lon="1.76817">
        <ele>257.4</ele>
        <time>2022-02-19T14:12:36Z</time>
      </trkpt>
      <trkpt lat="44.24995" lon="1.76822">
        <ele>257.2</ele>
        <time>2022-02-19T14:12:37Z</time>
      </trkpt>
      <trkpt lat="44.24994" lon="1.76827">
        <ele>257</ele>
        <time>2022-02-19T14:12:38Z</time>
      </trkpt>
      <trkpt lat="44.24992" lon="1.76832">
        <ele>256.9</ele>
        <time>2022-02-19T14:12:39Z</time>
      </trkpt>
      <trkpt lat="44.2499" lon="1.76837">
        <ele>256.7</ele>
        <time>2022-02-19T14:12:40Z</time>
      </trkpt>
      <trkpt lat="44.24989" lon="1.76841">
        <ele>256.6</ele>
        <time>2022-02-19T14:12:41Z</time>
      </trkpt>
      <trkpt lat="44.24988" lon="1.76846">
        <ele>256.5</ele>
        <time>2022-02-19T14:12:42Z</time>
      </trkpt>
      <trkpt lat="44.24987" lon="1.76851">
        <ele>256.4</ele>
        <time>2022-02-19T14:12:43Z</time>
      </trkpt>
      <trkpt lat="44.24986" lon="1.76856">
        <ele>256.3</ele>
        <time>2022-02-19T14:12:44Z</time>
      </trkpt>
      <trkpt lat="44.24986" lon="1.76862">
        <ele>256.2</ele>
        <time>2022-02-19T14:12:45Z</time>
      </trkpt>
      <trkpt lat="44.24985" lon="1.76867">
        <ele>256</ele>
        <time>2022-02-19T14:12:46Z</time>
      </trkpt>
      <trkpt lat="44.24985" lon="1.76873">
        <ele>255.9</ele>
        <time>2022-02-19T14:12:47Z</time>
      </trkpt>
      <trkpt lat="44.24984" lon="1.76877">
        <ele>255.9</ele>
        <time>2022-02-19T14:12:48Z</time>
      </trkpt>
      <trkpt lat="44.24984" lon="1.76882">
        <ele>255.8</ele>
        <time>2022-02-19T14:12:49Z</time>
      </trkpt>
      <trkpt lat="44.24984" lon="1.76886">
        <ele>255.7</ele>
        <time>2022-02-19T14:12:50Z</time>
      </trkpt>
      <trkpt lat="44.24983" lon="1.76891">
        <ele>255.6</ele>
        <time>2022-02-19T14:12:51Z</time>
      </trkpt>
      <trkpt lat="44.24982" lon="1.76896">
        <ele>255.4</ele>
        <time>2022-02-19T14:12:52Z</time>
      </trkpt>
      <trkpt lat="44.24981" lon="1.76901">
        <ele>255.3</ele>
        <time>2022-02-19T14:12:53Z</time>
      </trkpt>
      <trkpt lat="44.24981" lon="1.76906">
        <ele>255.2</ele>
        <time>2022-02-19T14:12:54Z</time>
      </trkpt>
      <trkpt lat="44.24979" lon="1.7691">
        <ele>255.1</ele>
        <time>2022-02-19T14:12:55Z</time>
      </trkpt>
      <trkpt lat="44.24978" lon="1.76915">
        <ele>254.9</ele>
        <time>2022-02-19T14:12:56Z</time>
      </trkpt>
      <trkpt lat="44.24976" lon="1.76918">
        <ele>254.8</ele>
        <time>2022-02-19T14:12:57Z</time>
      </trkpt>
      <trkpt lat="44.24975" lon="1.76923">
        <ele>254.7</ele>
        <time>2022-02-19T14:12:58Z</time>
      </trkpt>
      <trkpt lat="44.24974" lon="1.76928">
        <ele>254.5</ele>
        <time>2022-02-19T14:12:59Z</time>
      </trkpt>
      <trkpt lat="44.24972" lon="1.76932">
        <ele>254.4</ele>
        <time>2022-02-19T14:13:00Z</time>
      </trkpt>
      <trkpt lat="44.24971" lon="1.76937">
        <ele>254.3</ele>
        <time>2022-02-19T14:13:01Z</time>
      </trkpt>
      <trkpt lat="44.24971" lon="1.76938">
        <ele>254.2</ele>
        <time>2022-02-19T14:13:02Z</time>
      </trkpt>
      <trkpt lat="44.24969" lon="1.76942">
        <ele>254.1</ele>
        <time>2022-02-19T14:13:03Z</time>
      </trkpt>
      <trkpt lat="44.24968" lon="1.76945">
        <ele>254</ele>
        <time>2022-02-19T14:13:04Z</time>
      </trkpt>
      <trkpt lat="44.24966" lon="1.76949">
        <ele>253.9</ele>
        <time>2022-02-19T14:13:05Z</time>
      </trkpt>
      <trkpt lat="44.24964" lon="1.76953">
        <ele>253.8</ele>
        <time>2022-02-19T14:13:06Z</time>
      </trkpt>
      <trkpt lat="44.24964" lon="1.76955">
        <ele>253.8</ele>
        <time>2022-02-19T14:13:07Z</time>
      </trkpt>
      <trkpt lat="44.24962" lon="1.76959">
        <ele>253.7</ele>
        <time>2022-02-19T14:13:08Z</time>
      </trkpt>
      <trkpt lat="44.24962" lon="1.7696">
        <ele>253.6</ele>
        <time>2022-02-19T14:13:09Z</time>
      </trkpt>
      <trkpt lat="44.24961" lon="1.76965">
        <ele>253.5</ele>
        <time>2022-02-19T14:13:10Z</time>
      </trkpt>
      <trkpt lat="44.24961" lon="1.76967">
        <ele>253.5</ele>
        <time>2022-02-19T14:13:11Z</time>
      </trkpt>
      <trkpt lat="44.2496" lon="1.76972">
        <ele>253.4</ele>
        <time>2022-02-19T14:13:12Z</time>
      </trkpt>
      <trkpt lat="44.24959" lon="1.76974">
        <ele>253.3</ele>
        <time>2022-02-19T14:13:13Z</time>
      </trkpt>
      <trkpt lat="44.24959" lon="1.7698">
        <ele>253.2</ele>
        <time>2022-02-19T14:13:14Z</time>
      </trkpt>
      <trkpt lat="44.24959" lon="1.76982">
        <ele>253.2</ele>
        <time>2022-02-19T14:13:15Z</time>
      </trkpt>
      <trkpt lat="44.24959" lon="1.76987">
        <ele>253</ele>
        <time>2022-02-19T14:13:16Z</time>
      </trkpt>
      <trkpt lat="44.24959" lon="1.76989">
        <ele>253</ele>
        <time>2022-02-19T14:13:17Z</time>
      </trkpt>
      <trkpt lat="44.24959" lon="1.76994">
        <ele>252.9</ele>
        <time>2022-02-19T14:13:18Z</time>
      </trkpt>
      <trkpt lat="44.24959" lon="1.76996">
        <ele>252.8</ele>
        <time>2022-02-19T14:13:19Z</time>
      </trkpt>
      <trkpt lat="44.24959" lon="1.77">
        <ele>252.7</ele>
        <time>2022-02-19T14:13:20Z</time>
      </trkpt>
      <trkpt lat="44.2496" lon="1.77005">
        <ele>252.6</ele>
        <time>2022-02-19T14:13:21Z</time>
      </trkpt>
      <trkpt lat="44.2496" lon="1.7701">
        <ele>252.5</ele>
        <time>2022-02-19T14:13:22Z</time>
      </trkpt>
      <trkpt lat="44.2496" lon="1.77015">
        <ele>252.4</ele>
        <time>2022-02-19T14:13:23Z</time>
      </trkpt>
      <trkpt lat="44.2496" lon="1.77021">
        <ele>252.2</ele>
        <time>2022-02-19T14:13:24Z</time>
      </trkpt>
      <trkpt lat="44.24959" lon="1.77026">
        <ele>252.1</ele>
        <time>2022-02-19T14:13:25Z</time>
      </trkpt>
      <trkpt lat="44.24958" lon="1.7703">
        <ele>251.9</ele>
        <time>2022-02-19T14:13:26Z</time>
      </trkpt>
      <trkpt lat="44.24958" lon="1.77035">
        <ele>251.8</ele>
        <time>2022-02-19T14:13:27Z</time>
      </trkpt>
      <trkpt lat="44.24958" lon="1.7704">
        <ele>251.6</ele>
        <time>2022-02-19T14:13:28Z</time>
      </trkpt>
      <trkpt lat="44.24957" lon="1.77045">
        <ele>251.4</ele>
        <time>2022-02-19T14:13:29Z</time>
      </trkpt>
      <trkpt lat="44.24956" lon="1.7705">
        <ele>251.3</ele>
        <time>2022-02-19T14:13:30Z</time>
      </trkpt>
      <trkpt lat="44.24956" lon="1.77054">
        <ele>251.1</ele>
        <time>2022-02-19T14:13:31Z</time>
      </trkpt>
      <trkpt lat="44.24955" lon="1.77059">
        <ele>251</ele>
        <time>2022-02-19T14:13:32Z</time>
      </trkpt>
      <trkpt lat="44.24956" lon="1.77065">
        <ele>250.8</ele>
        <time>2022-02-19T14:13:33Z</time>
      </trkpt>
      <trkpt lat="44.24957" lon="1.77069">
        <ele>250.7</ele>
        <time>2022-02-19T14:13:34Z</time>
      </trkpt>
      <trkpt lat="44.24957" lon="1.77074">
        <ele>250.6</ele>
        <time>2022-02-19T14:13:35Z</time>
      </trkpt>
      <trkpt lat="44.24958" lon="1.77079">
        <ele>250.4</ele>
        <time>2022-02-19T14:13:36Z</time>
      </trkpt>
      <trkpt lat="44.24959" lon="1.77084">
        <ele>250.3</ele>
        <time>2022-02-19T14:13:37Z</time>
      </trkpt>
      <trkpt lat="44.2496" lon="1.77088">
        <ele>250.2</ele>
        <time>2022-02-19T14:13:38Z</time>
      </trkpt>
      <trkpt lat="44.24961" lon="1.77092">
        <ele>250.1</ele>
        <time>2022-02-19T14:13:39Z</time>
      </trkpt>
      <trkpt lat="44.24962" lon="1.77096">
        <ele>250</ele>
        <time>2022-02-19T14:13:40Z</time>
      </trkpt>
      <trkpt lat="44.24963" lon="1.771">
        <ele>249.9</ele>
        <time>2022-02-19T14:13:41Z</time>
      </trkpt>
      <trkpt lat="44.24965" lon="1.77104">
        <ele>249.8</ele>
        <time>2022-02-19T14:13:42Z</time>
      </trkpt>
      <trkpt lat="44.24967" lon="1.77108">
        <ele>249.7</ele>
        <time>2022-02-19T14:13:43Z</time>
      </trkpt>
      <trkpt lat="44.24969" lon="1.77112">
        <ele>249.6</ele>
        <time>2022-02-19T14:13:44Z</time>
      </trkpt>
      <trkpt lat="44.2497" lon="1.77115">
        <ele>249.5</ele>
        <time>2022-02-19T14:13:45Z</time>
      </trkpt>
      <trkpt lat="44.24972" lon="1.77119">
        <ele>249.5</ele>
        <time>2022-02-19T14:13:46Z</time>
      </trkpt>
      <trkpt lat="44.24973" lon="1.77123">
        <ele>249.4</ele>
        <time>2022-02-19T14:13:47Z</time>
      </trkpt>
      <trkpt lat="44.24974" lon="1.77126">
        <ele>249.4</ele>
        <time>2022-02-19T14:13:48Z</time>
      </trkpt>
      <trkpt lat="44.24975" lon="1.77127">
        <ele>249.4</ele>
        <time>2022-02-19T14:13:49Z</time>
      </trkpt>
      <trkpt lat="44.24976" lon="1.77128">
        <ele>249.4</ele>
        <time>2022-02-19T14:13:50Z</time>
      </trkpt>
      <trkpt lat="44.24976" lon="1.77128">
        <ele>249.4</ele>
        <time>2022-02-19T14:13:51Z</time>
      </trkpt>
      <trkpt lat="44.24976" lon="1.77129">
        <ele>249.4</ele>
        <time>2022-02-19T14:13:52Z</time>
      </trkpt>
      <trkpt lat="44.24977" lon="1.7713">
        <ele>249.4</ele>
        <time>2022-02-19T14:13:53Z</time>
      </trkpt>
      <trkpt lat="44.24977" lon="1.7713">
        <ele>249.4</ele>
        <time>2022-02-19T14:13:54Z</time>
      </trkpt>
      <trkpt lat="44.24977" lon="1.7713">
        <ele>249.4</ele>
        <time>2022-02-19T14:13:55Z</time>
      </trkpt>
      <trkpt lat="44.24977" lon="1.7713">
        <ele>249.4</ele>
        <time>2022-02-19T14:13:56Z</time>
      </trkpt>
      <trkpt lat="44.24977" lon="1.7713">
        <ele>249.4</ele>
        <time>2022-02-19T14:13:57Z</time>
      </trkpt>
      <trkpt lat="44.24977" lon="1.7713">
        <ele>249.4</ele>
        <time>2022-02-19T14:13:58Z</time>
      </trkpt>
      <trkpt lat="44.24977" lon="1.7713">
        <ele>249.4</ele>
        <time>2022-02-19T14:13:59Z</time>
      </trkpt>
      <trkpt lat="44.24976" lon="1.77136">
        <ele>249.3</ele>
        <time>2022-02-19T14:14:16Z</time>
      </trkpt>
      <trkpt lat="44.24976" lon="1.7714">
        <ele>249.3</ele>
        <time>2022-02-19T14:14:17Z</time>
      </trkpt>
      <trkpt lat="44.24977" lon="1.77144">
        <ele>249.3</ele>
        <time>2022-02-19T14:14:18Z</time>
      </trkpt>
      <trkpt lat="44.24977" lon="1.77149">
        <ele>249.2</ele>
        <time>2022-02-19T14:14:19Z</time>
      </trkpt>
      <trkpt lat="44.24978" lon="1.77154">
        <ele>249.2</ele>
        <time>2022-02-19T14:14:20Z</time>
      </trkpt>
      <trkpt lat="44.24977" lon="1.77158">
        <ele>249.2</ele>
        <time>2022-02-19T14:14:21Z</time>
      </trkpt>
      <trkpt lat="44.24977" lon="1.77163">
        <ele>249.2</ele>
        <time>2022-02-19T14:14:22Z</time>
      </trkpt>
      <trkpt lat="44.24976" lon="1.77167">
        <ele>249.2</ele>
        <time>2022-02-19T14:14:23Z</time>
      </trkpt>
      <trkpt lat="44.24976" lon="1.77172">
        <ele>249.2</ele>
        <time>2022-02-19T14:14:24Z</time>
      </trkpt>
      <trkpt lat="44.24975" lon="1.77176">
        <ele>249.2</ele>
        <time>2022-02-19T14:14:25Z</time>
      </trkpt>
      <trkpt lat="44.24975" lon="1.77181">
        <ele>249.2</ele>
        <time>2022-02-19T14:14:26Z</time>
      </trkpt>
      <trkpt lat="44.24974" lon="1.77185">
        <ele>249.2</ele>
        <time>2022-02-19T14:14:27Z</time>
      </trkpt>
      <trkpt lat="44.24973" lon="1.77191">
        <ele>249.2</ele>
        <time>2022-02-19T14:14:28Z</time>
      </trkpt>
      <trkpt lat="44.24973" lon="1.77192">
        <ele>249.2</ele>
        <time>2022-02-19T14:14:29Z</time>
      </trkpt>
      <trkpt lat="44.24972" lon="1.77196">
        <ele>249.2</ele>
        <time>2022-02-19T14:14:30Z</time>
      </trkpt>
      <trkpt lat="44.24971" lon="1.772">
        <ele>249.2</ele>
        <time>2022-02-19T14:14:31Z</time>
      </trkpt>
      <trkpt lat="44.2497" lon="1.77205">
        <ele>249.2</ele>
        <time>2022-02-19T14:14:32Z</time>
      </trkpt>
      <trkpt lat="44.2497" lon="1.77207">
        <ele>249.3</ele>
        <time>2022-02-19T14:14:33Z</time>
      </trkpt>
      <trkpt lat="44.2497" lon="1.77211">
        <ele>249.3</ele>
        <time>2022-02-19T14:14:34Z</time>
      </trkpt>
      <trkpt lat="44.24969" lon="1.77213">
        <ele>249.3</ele>
        <time>2022-02-19T14:14:35Z</time>
      </trkpt>
      <trkpt lat="44.24967" lon="1.77218">
        <ele>249.3</ele>
        <time>2022-02-19T14:14:36Z</time>
      </trkpt>
      <trkpt lat="44.24966" lon="1.7722">
        <ele>249.3</ele>
        <time>2022-02-19T14:14:37Z</time>
      </trkpt>
      <trkpt lat="44.24965" lon="1.77225">
        <ele>249.4</ele>
        <time>2022-02-19T14:14:38Z</time>
      </trkpt>
      <trkpt lat="44.24964" lon="1.77227">
        <ele>249.4</ele>
        <time>2022-02-19T14:14:39Z</time>
      </trkpt>
      <trkpt lat="44.24963" lon="1.77231">
        <ele>249.4</ele>
        <time>2022-02-19T14:14:40Z</time>
      </trkpt>
      <trkpt lat="44.24962" lon="1.77235">
        <ele>249.4</ele>
        <time>2022-02-19T14:14:41Z</time>
      </trkpt>
      <trkpt lat="44.24961" lon="1.7724">
        <ele>249.4</ele>
        <time>2022-02-19T14:14:42Z</time>
      </trkpt>
      <trkpt lat="44.2496" lon="1.77242">
        <ele>249.4</ele>
        <time>2022-02-19T14:14:43Z</time>
      </trkpt>
      <trkpt lat="44.2496" lon="1.77246">
        <ele>249.3</ele>
        <time>2022-02-19T14:14:44Z</time>
      </trkpt>
      <trkpt lat="44.2496" lon="1.77249">
        <ele>249.3</ele>
        <time>2022-02-19T14:14:45Z</time>
      </trkpt>
      <trkpt lat="44.2496" lon="1.7725">
        <ele>249.3</ele>
        <time>2022-02-19T14:14:46Z</time>
      </trkpt>
      <trkpt lat="44.2496" lon="1.77252">
        <ele>249.3</ele>
        <time>2022-02-19T14:14:47Z</time>
      </trkpt>
      <trkpt lat="44.2496" lon="1.77253">
        <ele>249.3</ele>
        <time>2022-02-19T14:14:48Z</time>
      </trkpt>
      <trkpt lat="44.2496" lon="1.77254">
        <ele>249.1</ele>
        <time>2022-02-19T14:14:49Z</time>
      </trkpt>
      <trkpt lat="44.24959" lon="1.77256">
        <ele>249</ele>
        <time>2022-02-19T14:14:50Z</time>
      </trkpt>
      <trkpt lat="44.24959" lon="1.77259">
        <ele>248.7</ele>
        <time>2022-02-19T14:14:51Z</time>
      </trkpt>
      <trkpt lat="44.2496" lon="1.77263">
        <ele>248.3</ele>
        <time>2022-02-19T14:14:52Z</time>
      </trkpt>
      <trkpt lat="44.24961" lon="1.77268">
        <ele>247.9</ele>
        <time>2022-02-19T14:14:53Z</time>
      </trkpt>
      <trkpt lat="44.24961" lon="1.7727">
        <ele>247.7</ele>
        <time>2022-02-19T14:14:54Z</time>
      </trkpt>
      <trkpt lat="44.24962" lon="1.77274">
        <ele>247.3</ele>
        <time>2022-02-19T14:14:55Z</time>
      </trkpt>
      <trkpt lat="44.24963" lon="1.77278">
        <ele>246.9</ele>
        <time>2022-02-19T14:14:56Z</time>
      </trkpt>
      <trkpt lat="44.24966" lon="1.7728">
        <ele>246.5</ele>
        <time>2022-02-19T14:14:57Z</time>
      </trkpt>
      <trkpt lat="44.2497" lon="1.77281">
        <ele>246.3</ele>
        <time>2022-02-19T14:14:58Z</time>
      </trkpt>
      <trkpt lat="44.24974" lon="1.77284">
        <ele>245.9</ele>
        <time>2022-02-19T14:14:59Z</time>
      </trkpt>
      <trkpt lat="44.24979" lon="1.77287">
        <ele>245.7</ele>
        <time>2022-02-19T14:15:00Z</time>
      </trkpt>
      <trkpt lat="44.24982" lon="1.77293">
        <ele>245.1</ele>
        <time>2022-02-19T14:15:01Z</time>
      </trkpt>
      <trkpt lat="44.24982" lon="1.77298">
        <ele>244.8</ele>
        <time>2022-02-19T14:15:02Z</time>
      </trkpt>
      <trkpt lat="44.24982" lon="1.77303">
        <ele>244.4</ele>
        <time>2022-02-19T14:15:03Z</time>
      </trkpt>
      <trkpt lat="44.24981" lon="1.77311">
        <ele>243.9</ele>
        <time>2022-02-19T14:15:04Z</time>
      </trkpt>
      <trkpt lat="44.24981" lon="1.77319">
        <ele>243.3</ele>
        <time>2022-02-19T14:15:05Z</time>
      </trkpt>
      <trkpt lat="44.24981" lon="1.77329">
        <ele>242.8</ele>
        <time>2022-02-19T14:15:06Z</time>
      </trkpt>
      <trkpt lat="44.24982" lon="1.77338">
        <ele>242.5</ele>
        <time>2022-02-19T14:15:07Z</time>
      </trkpt>
      <trkpt lat="44.24984" lon="1.77346">
        <ele>242.1</ele>
        <time>2022-02-19T14:15:08Z</time>
      </trkpt>
      <trkpt lat="44.24985" lon="1.7735">
        <ele>242</ele>
        <time>2022-02-19T14:15:09Z</time>
      </trkpt>
      <trkpt lat="44.24985" lon="1.77355">
        <ele>241.7</ele>
        <time>2022-02-19T14:15:10Z</time>
      </trkpt>
      <trkpt lat="44.24985" lon="1.77357">
        <ele>241.6</ele>
        <time>2022-02-19T14:15:11Z</time>
      </trkpt>
      <trkpt lat="44.24983" lon="1.7736">
        <ele>241.4</ele>
        <time>2022-02-19T14:15:12Z</time>
      </trkpt>
      <trkpt lat="44.24983" lon="1.77361">
        <ele>241.3</ele>
        <time>2022-02-19T14:15:13Z</time>
      </trkpt>
      <trkpt lat="44.24982" lon="1.77364">
        <ele>241.1</ele>
        <time>2022-02-19T14:15:14Z</time>
      </trkpt>
      <trkpt lat="44.24981" lon="1.77365">
        <ele>241.1</ele>
        <time>2022-02-19T14:15:15Z</time>
      </trkpt>
      <trkpt lat="44.24981" lon="1.77366">
        <ele>241</ele>
        <time>2022-02-19T14:15:16Z</time>
      </trkpt>
      <trkpt lat="44.24981" lon="1.77367">
        <ele>240.9</ele>
        <time>2022-02-19T14:15:17Z</time>
      </trkpt>
      <trkpt lat="44.2498" lon="1.77369">
        <ele>240.8</ele>
        <time>2022-02-19T14:15:18Z</time>
      </trkpt>
      <trkpt lat="44.24979" lon="1.77371">
        <ele>240.6</ele>
        <time>2022-02-19T14:15:19Z</time>
      </trkpt>
      <trkpt lat="44.24978" lon="1.77373">
        <ele>240.5</ele>
        <time>2022-02-19T14:15:20Z</time>
      </trkpt>
      <trkpt lat="44.24977" lon="1.77375">
        <ele>240.5</ele>
        <time>2022-02-19T14:15:21Z</time>
      </trkpt>
      <trkpt lat="44.24976" lon="1.77376">
        <ele>240.4</ele>
        <time>2022-02-19T14:15:22Z</time>
      </trkpt>
      <trkpt lat="44.24976" lon="1.77377">
        <ele>240.4</ele>
        <time>2022-02-19T14:15:23Z</time>
      </trkpt>
      <trkpt lat="44.24975" lon="1.77378">
        <ele>240.4</ele>
        <time>2022-02-19T14:15:24Z</time>
      </trkpt>
      <trkpt lat="44.24975" lon="1.77378">
        <ele>240.3</ele>
        <time>2022-02-19T14:15:25Z</time>
      </trkpt>
      <trkpt lat="44.24975" lon="1.77379">
        <ele>240.3</ele>
        <time>2022-02-19T14:15:26Z</time>
      </trkpt>
      <trkpt lat="44.24974" lon="1.77379">
        <ele>240.3</ele>
        <time>2022-02-19T14:15:27Z</time>
      </trkpt>
      <trkpt lat="44.24974" lon="1.7738">
        <ele>240.3</ele>
        <time>2022-02-19T14:15:28Z</time>
      </trkpt>
      <trkpt lat="44.24974" lon="1.77381">
        <ele>240.2</ele>
        <time>2022-02-19T14:15:29Z</time>
      </trkpt>
      <trkpt lat="44.24973" lon="1.77382">
        <ele>240.2</ele>
        <time>2022-02-19T14:15:30Z</time>
      </trkpt>
      <trkpt lat="44.24973" lon="1.77383">
        <ele>240.2</ele>
        <time>2022-02-19T14:15:31Z</time>
      </trkpt>
      <trkpt lat="44.24973" lon="1.77384">
        <ele>240.2</ele>
        <time>2022-02-19T14:15:32Z</time>
      </trkpt>
      <trkpt lat="44.24972" lon="1.77386">
        <ele>240.1</ele>
        <time>2022-02-19T14:15:33Z</time>
      </trkpt>
      <trkpt lat="44.24972" lon="1.77389">
        <ele>240.1</ele>
        <time>2022-02-19T14:15:34Z</time>
      </trkpt>
      <trkpt lat="44.24972" lon="1.77393">
        <ele>240</ele>
        <time>2022-02-19T14:15:35Z</time>
      </trkpt>
      <trkpt lat="44.24971" lon="1.77394">
        <ele>240</ele>
        <time>2022-02-19T14:15:36Z</time>
      </trkpt>
      <trkpt lat="44.2497" lon="1.77399">
        <ele>240</ele>
        <time>2022-02-19T14:15:37Z</time>
      </trkpt>
      <trkpt lat="44.24969" lon="1.77401">
        <ele>240</ele>
        <time>2022-02-19T14:15:38Z</time>
      </trkpt>
      <trkpt lat="44.24967" lon="1.77404">
        <ele>240</ele>
        <time>2022-02-19T14:15:39Z</time>
      </trkpt>
      <trkpt lat="44.24967" lon="1.77405">
        <ele>240</ele>
        <time>2022-02-19T14:15:40Z</time>
      </trkpt>
      <trkpt lat="44.24966" lon="1.77409">
        <ele>240</ele>
        <time>2022-02-19T14:15:41Z</time>
      </trkpt>
      <trkpt lat="44.24966" lon="1.77411">
        <ele>240</ele>
        <time>2022-02-19T14:15:42Z</time>
      </trkpt>
      <trkpt lat="44.24965" lon="1.77413">
        <ele>240</ele>
        <time>2022-02-19T14:15:43Z</time>
      </trkpt>
      <trkpt lat="44.24966" lon="1.77416">
        <ele>240</ele>
        <time>2022-02-19T14:15:44Z</time>
      </trkpt>
      <trkpt lat="44.24965" lon="1.77419">
        <ele>240.1</ele>
        <time>2022-02-19T14:15:45Z</time>
      </trkpt>
      <trkpt lat="44.24965" lon="1.77421">
        <ele>240.1</ele>
        <time>2022-02-19T14:15:46Z</time>
      </trkpt>
      <trkpt lat="44.24963" lon="1.77424">
        <ele>240.2</ele>
        <time>2022-02-19T14:15:47Z</time>
      </trkpt>
      <trkpt lat="44.24963" lon="1.77425">
        <ele>240.2</ele>
        <time>2022-02-19T14:15:48Z</time>
      </trkpt>
      <trkpt lat="44.24961" lon="1.77429">
        <ele>240.3</ele>
        <time>2022-02-19T14:15:49Z</time>
      </trkpt>
      <trkpt lat="44.24961" lon="1.7743">
        <ele>240.3</ele>
        <time>2022-02-19T14:15:50Z</time>
      </trkpt>
      <trkpt lat="44.2496" lon="1.77433">
        <ele>240.4</ele>
        <time>2022-02-19T14:15:51Z</time>
      </trkpt>
      <trkpt lat="44.24959" lon="1.77434">
        <ele>240.4</ele>
        <time>2022-02-19T14:15:52Z</time>
      </trkpt>
      <trkpt lat="44.24957" lon="1.77438">
        <ele>240.5</ele>
        <time>2022-02-19T14:15:53Z</time>
      </trkpt>
      <trkpt lat="44.24957" lon="1.7744">
        <ele>240.5</ele>
        <time>2022-02-19T14:15:54Z</time>
      </trkpt>
      <trkpt lat="44.24955" lon="1.77443">
        <ele>240.6</ele>
        <time>2022-02-19T14:15:55Z</time>
      </trkpt>
      <trkpt lat="44.24955" lon="1.77445">
        <ele>240.6</ele>
        <time>2022-02-19T14:15:56Z</time>
      </trkpt>
      <trkpt lat="44.24953" lon="1.7745">
        <ele>240.7</ele>
        <time>2022-02-19T14:15:57Z</time>
      </trkpt>
      <trkpt lat="44.24953" lon="1.77451">
        <ele>240.7</ele>
        <time>2022-02-19T14:15:58Z</time>
      </trkpt>
      <trkpt lat="44.24952" lon="1.77454">
        <ele>240.8</ele>
        <time>2022-02-19T14:15:59Z</time>
      </trkpt>
      <trkpt lat="44.24952" lon="1.77456">
        <ele>240.8</ele>
        <time>2022-02-19T14:16:00Z</time>
      </trkpt>
      <trkpt lat="44.24952" lon="1.7746">
        <ele>240.9</ele>
        <time>2022-02-19T14:16:01Z</time>
      </trkpt>
      <trkpt lat="44.24952" lon="1.77462">
        <ele>240.9</ele>
        <time>2022-02-19T14:16:02Z</time>
      </trkpt>
      <trkpt lat="44.24953" lon="1.77463">
        <ele>240.9</ele>
        <time>2022-02-19T14:16:03Z</time>
      </trkpt>
      <trkpt lat="44.24954" lon="1.77465">
        <ele>240.9</ele>
        <time>2022-02-19T14:16:04Z</time>
      </trkpt>
      <trkpt lat="44.24956" lon="1.77468">
        <ele>240.9</ele>
        <time>2022-02-19T14:16:05Z</time>
      </trkpt>
      <trkpt lat="44.24957" lon="1.77469">
        <ele>241</ele>
        <time>2022-02-19T14:16:06Z</time>
      </trkpt>
      <trkpt lat="44.2496" lon="1.77471">
        <ele>241</ele>
        <time>2022-02-19T14:16:07Z</time>
      </trkpt>
      <trkpt lat="44.2496" lon="1.77472">
        <ele>241</ele>
        <time>2022-02-19T14:16:08Z</time>
      </trkpt>
      <trkpt lat="44.24961" lon="1.77473">
        <ele>241</ele>
        <time>2022-02-19T14:16:09Z</time>
      </trkpt>
      <trkpt lat="44.24963" lon="1.77475">
        <ele>241</ele>
        <time>2022-02-19T14:16:10Z</time>
      </trkpt>
      <trkpt lat="44.24965" lon="1.77477">
        <ele>241</ele>
        <time>2022-02-19T14:16:11Z</time>
      </trkpt>
      <trkpt lat="44.24966" lon="1.77478">
        <ele>241</ele>
        <time>2022-02-19T14:16:12Z</time>
      </trkpt>
      <trkpt lat="44.24968" lon="1.77482">
        <ele>241</ele>
        <time>2022-02-19T14:16:13Z</time>
      </trkpt>
      <trkpt lat="44.24969" lon="1.77483">
        <ele>241</ele>
        <time>2022-02-19T14:16:14Z</time>
      </trkpt>
      <trkpt lat="44.24971" lon="1.77487">
        <ele>241</ele>
        <time>2022-02-19T14:16:15Z</time>
      </trkpt>
      <trkpt lat="44.24972" lon="1.77488">
        <ele>241</ele>
        <time>2022-02-19T14:16:16Z</time>
      </trkpt>
      <trkpt lat="44.24974" lon="1.77491">
        <ele>241.1</ele>
        <time>2022-02-19T14:16:17Z</time>
      </trkpt>
      <trkpt lat="44.24978" lon="1.77494">
        <ele>241.1</ele>
        <time>2022-02-19T14:16:18Z</time>
      </trkpt>
      <trkpt lat="44.24979" lon="1.77495">
        <ele>241.1</ele>
        <time>2022-02-19T14:16:19Z</time>
      </trkpt>
      <trkpt lat="44.24981" lon="1.77497">
        <ele>241.1</ele>
        <time>2022-02-19T14:16:20Z</time>
      </trkpt>
      <trkpt lat="44.24984" lon="1.775">
        <ele>241.1</ele>
        <time>2022-02-19T14:16:21Z</time>
      </trkpt>
      <trkpt lat="44.24986" lon="1.77501">
        <ele>241.2</ele>
        <time>2022-02-19T14:16:22Z</time>
      </trkpt>
      <trkpt lat="44.24989" lon="1.77504">
        <ele>241.2</ele>
        <time>2022-02-19T14:16:23Z</time>
      </trkpt>
      <trkpt lat="44.24991" lon="1.77505">
        <ele>241.2</ele>
        <time>2022-02-19T14:16:24Z</time>
      </trkpt>
      <trkpt lat="44.24994" lon="1.77508">
        <ele>241.2</ele>
        <time>2022-02-19T14:16:25Z</time>
      </trkpt>
      <trkpt lat="44.24995" lon="1.77509">
        <ele>241.2</ele>
        <time>2022-02-19T14:16:26Z</time>
      </trkpt>
      <trkpt lat="44.24998" lon="1.77511">
        <ele>241.2</ele>
        <time>2022-02-19T14:16:27Z</time>
      </trkpt>
      <trkpt lat="44.25001" lon="1.77513">
        <ele>241.2</ele>
        <time>2022-02-19T14:16:28Z</time>
      </trkpt>
      <trkpt lat="44.25002" lon="1.77515">
        <ele>241.3</ele>
        <time>2022-02-19T14:16:29Z</time>
      </trkpt>
      <trkpt lat="44.25006" lon="1.77517">
        <ele>241.3</ele>
        <time>2022-02-19T14:16:30Z</time>
      </trkpt>
      <trkpt lat="44.25007" lon="1.77517">
        <ele>241.3</ele>
        <time>2022-02-19T14:16:31Z</time>
      </trkpt>
      <trkpt lat="44.2501" lon="1.77518">
        <ele>241.3</ele>
        <time>2022-02-19T14:16:32Z</time>
      </trkpt>
      <trkpt lat="44.25012" lon="1.77519">
        <ele>241.3</ele>
        <time>2022-02-19T14:16:33Z</time>
      </trkpt>
      <trkpt lat="44.25015" lon="1.7752">
        <ele>241.3</ele>
        <time>2022-02-19T14:16:34Z</time>
      </trkpt>
      <trkpt lat="44.25019" lon="1.77521">
        <ele>241.3</ele>
        <time>2022-02-19T14:16:35Z</time>
      </trkpt>
      <trkpt lat="44.25021" lon="1.77521">
        <ele>241.3</ele>
        <time>2022-02-19T14:16:36Z</time>
      </trkpt>
      <trkpt lat="44.25023" lon="1.77521">
        <ele>241.3</ele>
        <time>2022-02-19T14:16:37Z</time>
      </trkpt>
      <trkpt lat="44.25027" lon="1.77522">
        <ele>241.3</ele>
        <time>2022-02-19T14:16:38Z</time>
      </trkpt>
      <trkpt lat="44.2503" lon="1.77522">
        <ele>241.5</ele>
        <time>2022-02-19T14:16:39Z</time>
      </trkpt>
      <trkpt lat="44.25033" lon="1.77523">
        <ele>241.6</ele>
        <time>2022-02-19T14:16:40Z</time>
      </trkpt>
      <trkpt lat="44.25036" lon="1.77523">
        <ele>241.6</ele>
        <time>2022-02-19T14:16:41Z</time>
      </trkpt>
      <trkpt lat="44.25038" lon="1.77523">
        <ele>241.6</ele>
        <time>2022-02-19T14:16:42Z</time>
      </trkpt>
      <trkpt lat="44.25041" lon="1.77523">
        <ele>241.7</ele>
        <time>2022-02-19T14:16:43Z</time>
      </trkpt>
      <trkpt lat="44.25042" lon="1.77523">
        <ele>241.7</ele>
        <time>2022-02-19T14:16:44Z</time>
      </trkpt>
      <trkpt lat="44.25045" lon="1.77523">
        <ele>241.7</ele>
        <time>2022-02-19T14:16:45Z</time>
      </trkpt>
      <trkpt lat="44.25046" lon="1.77523">
        <ele>241.7</ele>
        <time>2022-02-19T14:16:46Z</time>
      </trkpt>
      <trkpt lat="44.25048" lon="1.77523">
        <ele>241.7</ele>
        <time>2022-02-19T14:16:47Z</time>
      </trkpt>
      <trkpt lat="44.2505" lon="1.77523">
        <ele>241.7</ele>
        <time>2022-02-19T14:16:48Z</time>
      </trkpt>
      <trkpt lat="44.25052" lon="1.77523">
        <ele>241.7</ele>
        <time>2022-02-19T14:16:49Z</time>
      </trkpt>
      <trkpt lat="44.25053" lon="1.77523">
        <ele>241.7</ele>
        <time>2022-02-19T14:16:50Z</time>
      </trkpt>
      <trkpt lat="44.25055" lon="1.77523">
        <ele>241.8</ele>
        <time>2022-02-19T14:16:51Z</time>
      </trkpt>
      <trkpt lat="44.25057" lon="1.77523">
        <ele>241.8</ele>
        <time>2022-02-19T14:16:52Z</time>
      </trkpt>
      <trkpt lat="44.25058" lon="1.77522">
        <ele>241.8</ele>
        <time>2022-02-19T14:16:53Z</time>
      </trkpt>
      <trkpt lat="44.2506" lon="1.77522">
        <ele>241.8</ele>
        <time>2022-02-19T14:16:54Z</time>
      </trkpt>
      <trkpt lat="44.25062" lon="1.77522">
        <ele>241.9</ele>
        <time>2022-02-19T14:16:55Z</time>
      </trkpt>
      <trkpt lat="44.25063" lon="1.77522">
        <ele>241.9</ele>
        <time>2022-02-19T14:16:56Z</time>
      </trkpt>
      <trkpt lat="44.25065" lon="1.77521">
        <ele>241.9</ele>
        <time>2022-02-19T14:16:57Z</time>
      </trkpt>
      <trkpt lat="44.25067" lon="1.77521">
        <ele>242</ele>
        <time>2022-02-19T14:16:58Z</time>
      </trkpt>
      <trkpt lat="44.25068" lon="1.77521">
        <ele>242</ele>
        <time>2022-02-19T14:16:59Z</time>
      </trkpt>
      <trkpt lat="44.2507" lon="1.77521">
        <ele>242</ele>
        <time>2022-02-19T14:17:00Z</time>
      </trkpt>
      <trkpt lat="44.25071" lon="1.7752">
        <ele>242.1</ele>
        <time>2022-02-19T14:17:01Z</time>
      </trkpt>
      <trkpt lat="44.25073" lon="1.7752">
        <ele>242.1</ele>
        <time>2022-02-19T14:17:02Z</time>
      </trkpt>
      <trkpt lat="44.25076" lon="1.77519">
        <ele>242.2</ele>
        <time>2022-02-19T14:17:03Z</time>
      </trkpt>
      <trkpt lat="44.25076" lon="1.77519">
        <ele>242.2</ele>
        <time>2022-02-19T14:17:04Z</time>
      </trkpt>
      <trkpt lat="44.25078" lon="1.77518">
        <ele>242.2</ele>
        <time>2022-02-19T14:17:05Z</time>
      </trkpt>
      <trkpt lat="44.2508" lon="1.77518">
        <ele>242.3</ele>
        <time>2022-02-19T14:17:06Z</time>
      </trkpt>
      <trkpt lat="44.25083" lon="1.77517">
        <ele>242.3</ele>
        <time>2022-02-19T14:17:07Z</time>
      </trkpt>
      <trkpt lat="44.25084" lon="1.77517">
        <ele>242.4</ele>
        <time>2022-02-19T14:17:08Z</time>
      </trkpt>
      <trkpt lat="44.25088" lon="1.77517">
        <ele>242.5</ele>
        <time>2022-02-19T14:17:09Z</time>
      </trkpt>
      <trkpt lat="44.25089" lon="1.77516">
        <ele>242.5</ele>
        <time>2022-02-19T14:17:10Z</time>
      </trkpt>
      <trkpt lat="44.25092" lon="1.77516">
        <ele>242.6</ele>
        <time>2022-02-19T14:17:11Z</time>
      </trkpt>
      <trkpt lat="44.25093" lon="1.77515">
        <ele>242.6</ele>
        <time>2022-02-19T14:17:12Z</time>
      </trkpt>
      <trkpt lat="44.25096" lon="1.77515">
        <ele>242.7</ele>
        <time>2022-02-19T14:17:13Z</time>
      </trkpt>
      <trkpt lat="44.25098" lon="1.77514">
        <ele>242.8</ele>
        <time>2022-02-19T14:17:14Z</time>
      </trkpt>
      <trkpt lat="44.25103" lon="1.77514">
        <ele>242.8</ele>
        <time>2022-02-19T14:17:16Z</time>
      </trkpt>
      <trkpt lat="44.25105" lon="1.77514">
        <ele>242.7</ele>
        <time>2022-02-19T14:17:17Z</time>
      </trkpt>
      <trkpt lat="44.25107" lon="1.77513">
        <ele>242.7</ele>
        <time>2022-02-19T14:17:18Z</time>
      </trkpt>
      <trkpt lat="44.25111" lon="1.77513">
        <ele>242.6</ele>
        <time>2022-02-19T14:17:19Z</time>
      </trkpt>
      <trkpt lat="44.25112" lon="1.77513">
        <ele>242.6</ele>
        <time>2022-02-19T14:17:20Z</time>
      </trkpt>
      <trkpt lat="44.25115" lon="1.77512">
        <ele>242.5</ele>
        <time>2022-02-19T14:17:21Z</time>
      </trkpt>
      <trkpt lat="44.25117" lon="1.77512">
        <ele>242.4</ele>
        <time>2022-02-19T14:17:22Z</time>
      </trkpt>
      <trkpt lat="44.25121" lon="1.77512">
        <ele>242.3</ele>
        <time>2022-02-19T14:17:23Z</time>
      </trkpt>
      <trkpt lat="44.25122" lon="1.77511">
        <ele>242.3</ele>
        <time>2022-02-19T14:17:24Z</time>
      </trkpt>
      <trkpt lat="44.25126" lon="1.77512">
        <ele>242.3</ele>
        <time>2022-02-19T14:17:25Z</time>
      </trkpt>
      <trkpt lat="44.25127" lon="1.77512">
        <ele>242.3</ele>
        <time>2022-02-19T14:17:26Z</time>
      </trkpt>
      <trkpt lat="44.25131" lon="1.77513">
        <ele>242.3</ele>
        <time>2022-02-19T14:17:27Z</time>
      </trkpt>
      <trkpt lat="44.25132" lon="1.77513">
        <ele>242.3</ele>
        <time>2022-02-19T14:17:28Z</time>
      </trkpt>
      <trkpt lat="44.25135" lon="1.77514">
        <ele>242.3</ele>
        <time>2022-02-19T14:17:29Z</time>
      </trkpt>
      <trkpt lat="44.25137" lon="1.77519">
        <ele>242.4</ele>
        <time>2022-02-19T14:17:30Z</time>
      </trkpt>
      <trkpt lat="44.25138" lon="1.77524">
        <ele>242.4</ele>
        <time>2022-02-19T14:17:32Z</time>
      </trkpt>
      <trkpt lat="44.25141" lon="1.77527">
        <ele>242.4</ele>
        <time>2022-02-19T14:17:33Z</time>
      </trkpt>
      <trkpt lat="44.25142" lon="1.77527">
        <ele>242.4</ele>
        <time>2022-02-19T14:17:34Z</time>
      </trkpt>
      <trkpt lat="44.25143" lon="1.77528">
        <ele>242.4</ele>
        <time>2022-02-19T14:17:35Z</time>
      </trkpt>
      <trkpt lat="44.25144" lon="1.77528">
        <ele>242.4</ele>
        <time>2022-02-19T14:17:36Z</time>
      </trkpt>
      <trkpt lat="44.25145" lon="1.77528">
        <ele>242.4</ele>
        <time>2022-02-19T14:17:37Z</time>
      </trkpt>
      <trkpt lat="44.25144" lon="1.77529">
        <ele>242.4</ele>
        <time>2022-02-19T14:17:39Z</time>
      </trkpt>
      <trkpt lat="44.25145" lon="1.77529">
        <ele>242.4</ele>
        <time>2022-02-19T14:17:40Z</time>
      </trkpt>
      <trkpt lat="44.25145" lon="1.77529">
        <ele>242.4</ele>
        <time>2022-02-19T14:17:41Z</time>
      </trkpt>
      <trkpt lat="44.25145" lon="1.77529">
        <ele>242.4</ele>
        <time>2022-02-19T14:17:42Z</time>
      </trkpt>
      <trkpt lat="44.25145" lon="1.77529">
        <ele>242.4</ele>
        <time>2022-02-19T14:17:43Z</time>
      </trkpt>
      <trkpt lat="44.25145" lon="1.77529">
        <ele>242.4</ele>
        <time>2022-02-19T14:17:44Z</time>
      </trkpt>
      <trkpt lat="44.25145" lon="1.77529">
        <ele>242.4</ele>
        <time>2022-02-19T14:17:45Z</time>
      </trkpt>
      <trkpt lat="44.25145" lon="1.77529">
        <ele>242.4</ele>
        <time>2022-02-19T14:17:46Z</time>
      </trkpt>
      <trkpt lat="44.25142" lon="1.77526">
        <ele>242.5</ele>
        <time>2022-02-19T14:17:55Z</time>
      </trkpt>
      <trkpt lat="44.2514" lon="1.77525">
        <ele>242.5</ele>
        <time>2022-02-19T14:17:56Z</time>
      </trkpt>
      <trkpt lat="44.2514" lon="1.77525">
        <ele>242.5</ele>
        <time>2022-02-19T14:17:57Z</time>
      </trkpt>
      <trkpt lat="44.25139" lon="1.77525">
        <ele>242.5</ele>
        <time>2022-02-19T14:17:58Z</time>
      </trkpt>
      <trkpt lat="44.25139" lon="1.77524">
        <ele>242.5</ele>
        <time>2022-02-19T14:17:59Z</time>
      </trkpt>
      <trkpt lat="44.25139" lon="1.77522">
        <ele>242.5</ele>
        <time>2022-02-19T14:18:00Z</time>
      </trkpt>
      <trkpt lat="44.2514" lon="1.77521">
        <ele>242.5</ele>
        <time>2022-02-19T14:18:01Z</time>
      </trkpt>
      <trkpt lat="44.2514" lon="1.77519">
        <ele>242.5</ele>
        <time>2022-02-19T14:18:02Z</time>
      </trkpt>
      <trkpt lat="44.25144" lon="1.77519">
        <ele>242.6</ele>
        <time>2022-02-19T14:18:03Z</time>
      </trkpt>
      <trkpt lat="44.25145" lon="1.7752">
        <ele>242.6</ele>
        <time>2022-02-19T14:18:04Z</time>
      </trkpt>
      <trkpt lat="44.25148" lon="1.77521">
        <ele>242.6</ele>
        <time>2022-02-19T14:18:05Z</time>
      </trkpt>
      <trkpt lat="44.25149" lon="1.77522">
        <ele>242.6</ele>
        <time>2022-02-19T14:18:06Z</time>
      </trkpt>
      <trkpt lat="44.25151" lon="1.77524">
        <ele>242.7</ele>
        <time>2022-02-19T14:18:07Z</time>
      </trkpt>
      <trkpt lat="44.25152" lon="1.77525">
        <ele>242.7</ele>
        <time>2022-02-19T14:18:08Z</time>
      </trkpt>
      <trkpt lat="44.25155" lon="1.77526">
        <ele>242.7</ele>
        <time>2022-02-19T14:18:09Z</time>
      </trkpt>
      <trkpt lat="44.25156" lon="1.77527">
        <ele>242.7</ele>
        <time>2022-02-19T14:18:10Z</time>
      </trkpt>
      <trkpt lat="44.25159" lon="1.77528">
        <ele>242.8</ele>
        <time>2022-02-19T14:18:11Z</time>
      </trkpt>
      <trkpt lat="44.25162" lon="1.77532">
        <ele>242.9</ele>
        <time>2022-02-19T14:18:13Z</time>
      </trkpt>
      <trkpt lat="44.25164" lon="1.77533">
        <ele>242.9</ele>
        <time>2022-02-19T14:18:14Z</time>
      </trkpt>
      <trkpt lat="44.25165" lon="1.77534">
        <ele>242.9</ele>
        <time>2022-02-19T14:18:15Z</time>
      </trkpt>
      <trkpt lat="44.25169" lon="1.77534">
        <ele>243</ele>
        <time>2022-02-19T14:18:16Z</time>
      </trkpt>
      <trkpt lat="44.2517" lon="1.77535">
        <ele>243</ele>
        <time>2022-02-19T14:18:17Z</time>
      </trkpt>
      <trkpt lat="44.25175" lon="1.77538">
        <ele>243.1</ele>
        <time>2022-02-19T14:18:19Z</time>
      </trkpt>
      <trkpt lat="44.25176" lon="1.77538">
        <ele>243.2</ele>
        <time>2022-02-19T14:18:20Z</time>
      </trkpt>
      <trkpt lat="44.25178" lon="1.77539">
        <ele>243.2</ele>
        <time>2022-02-19T14:18:21Z</time>
      </trkpt>
      <trkpt lat="44.25182" lon="1.77539">
        <ele>243.3</ele>
        <time>2022-02-19T14:18:22Z</time>
      </trkpt>
      <trkpt lat="44.25186" lon="1.77539">
        <ele>243.4</ele>
        <time>2022-02-19T14:18:24Z</time>
      </trkpt>
      <trkpt lat="44.25189" lon="1.77538">
        <ele>243.5</ele>
        <time>2022-02-19T14:18:25Z</time>
      </trkpt>
      <trkpt lat="44.2519" lon="1.77538">
        <ele>243.6</ele>
        <time>2022-02-19T14:18:26Z</time>
      </trkpt>
      <trkpt lat="44.25193" lon="1.77538">
        <ele>243.7</ele>
        <time>2022-02-19T14:18:27Z</time>
      </trkpt>
      <trkpt lat="44.25196" lon="1.77538">
        <ele>243.8</ele>
        <time>2022-02-19T14:18:28Z</time>
      </trkpt>
      <trkpt lat="44.252" lon="1.77537">
        <ele>243.9</ele>
        <time>2022-02-19T14:18:30Z</time>
      </trkpt>
      <trkpt lat="44.25203" lon="1.77536">
        <ele>244.1</ele>
        <time>2022-02-19T14:18:31Z</time>
      </trkpt>
      <trkpt lat="44.25206" lon="1.77536">
        <ele>244.2</ele>
        <time>2022-02-19T14:18:32Z</time>
      </trkpt>
      <trkpt lat="44.25208" lon="1.77536">
        <ele>244.3</ele>
        <time>2022-02-19T14:18:33Z</time>
      </trkpt>
      <trkpt lat="44.25211" lon="1.77534">
        <ele>244.5</ele>
        <time>2022-02-19T14:18:34Z</time>
      </trkpt>
      <trkpt lat="44.25212" lon="1.77534">
        <ele>244.5</ele>
        <time>2022-02-19T14:18:35Z</time>
      </trkpt>
      <trkpt lat="44.25215" lon="1.77533">
        <ele>244.7</ele>
        <time>2022-02-19T14:18:36Z</time>
      </trkpt>
      <trkpt lat="44.25216" lon="1.77532">
        <ele>244.8</ele>
        <time>2022-02-19T14:18:37Z</time>
      </trkpt>
      <trkpt lat="44.25219" lon="1.7753">
        <ele>245</ele>
        <time>2022-02-19T14:18:38Z</time>
      </trkpt>
      <trkpt lat="44.2522" lon="1.7753">
        <ele>245.1</ele>
        <time>2022-02-19T14:18:39Z</time>
      </trkpt>
      <trkpt lat="44.25223" lon="1.77528">
        <ele>245.3</ele>
        <time>2022-02-19T14:18:40Z</time>
      </trkpt>
      <trkpt lat="44.25224" lon="1.77527">
        <ele>245.4</ele>
        <time>2022-02-19T14:18:41Z</time>
      </trkpt>
      <trkpt lat="44.25227" lon="1.77526">
        <ele>245.7</ele>
        <time>2022-02-19T14:18:42Z</time>
      </trkpt>
      <trkpt lat="44.25228" lon="1.77525">
        <ele>245.8</ele>
        <time>2022-02-19T14:18:43Z</time>
      </trkpt>
      <trkpt lat="44.25231" lon="1.77524">
        <ele>246.1</ele>
        <time>2022-02-19T14:18:44Z</time>
      </trkpt>
      <trkpt lat="44.25233" lon="1.77523">
        <ele>246.2</ele>
        <time>2022-02-19T14:18:45Z</time>
      </trkpt>
      <trkpt lat="44.25236" lon="1.77522">
        <ele>246.5</ele>
        <time>2022-02-19T14:18:46Z</time>
      </trkpt>
      <trkpt lat="44.25237" lon="1.77521">
        <ele>246.5</ele>
        <time>2022-02-19T14:18:47Z</time>
      </trkpt>
      <trkpt lat="44.2524" lon="1.77519">
        <ele>246.9</ele>
        <time>2022-02-19T14:18:49Z</time>
      </trkpt>
      <trkpt lat="44.25243" lon="1.77518">
        <ele>247.2</ele>
        <time>2022-02-19T14:18:50Z</time>
      </trkpt>
      <trkpt lat="44.25244" lon="1.77517">
        <ele>247.3</ele>
        <time>2022-02-19T14:18:51Z</time>
      </trkpt>
      <trkpt lat="44.25247" lon="1.77515">
        <ele>247.7</ele>
        <time>2022-02-19T14:18:52Z</time>
      </trkpt>
      <trkpt lat="44.25252" lon="1.77512">
        <ele>248.2</ele>
        <time>2022-02-19T14:18:54Z</time>
      </trkpt>
      <trkpt lat="44.25253" lon="1.77512">
        <ele>248.3</ele>
        <time>2022-02-19T14:18:55Z</time>
      </trkpt>
      <trkpt lat="44.25255" lon="1.77511">
        <ele>248.5</ele>
        <time>2022-02-19T14:18:56Z</time>
      </trkpt>
      <trkpt lat="44.25259" lon="1.7751">
        <ele>248.9</ele>
        <time>2022-02-19T14:18:57Z</time>
      </trkpt>
      <trkpt lat="44.2526" lon="1.7751">
        <ele>249.1</ele>
        <time>2022-02-19T14:18:58Z</time>
      </trkpt>
      <trkpt lat="44.25264" lon="1.77509">
        <ele>249.5</ele>
        <time>2022-02-19T14:18:59Z</time>
      </trkpt>
      <trkpt lat="44.25265" lon="1.77509">
        <ele>249.6</ele>
        <time>2022-02-19T14:19:00Z</time>
      </trkpt>
      <trkpt lat="44.25268" lon="1.77509">
        <ele>249.9</ele>
        <time>2022-02-19T14:19:01Z</time>
      </trkpt>
      <trkpt lat="44.25269" lon="1.77509">
        <ele>250.1</ele>
        <time>2022-02-19T14:19:02Z</time>
      </trkpt>
      <trkpt lat="44.25273" lon="1.7751">
        <ele>250.5</ele>
        <time>2022-02-19T14:19:04Z</time>
      </trkpt>
      <trkpt lat="44.25276" lon="1.77511">
        <ele>250.9</ele>
        <time>2022-02-19T14:19:05Z</time>
      </trkpt>
      <trkpt lat="44.25277" lon="1.77511">
        <ele>251</ele>
        <time>2022-02-19T14:19:06Z</time>
      </trkpt>
      <trkpt lat="44.25278" lon="1.77512">
        <ele>251.1</ele>
        <time>2022-02-19T14:19:07Z</time>
      </trkpt>
      <trkpt lat="44.2528" lon="1.77513">
        <ele>251.4</ele>
        <time>2022-02-19T14:19:08Z</time>
      </trkpt>
      <trkpt lat="44.25281" lon="1.77514">
        <ele>251.5</ele>
        <time>2022-02-19T14:19:09Z</time>
      </trkpt>
      <trkpt lat="44.25283" lon="1.77515">
        <ele>251.7</ele>
        <time>2022-02-19T14:19:10Z</time>
      </trkpt>
      <trkpt lat="44.25285" lon="1.77516">
        <ele>252</ele>
        <time>2022-02-19T14:19:11Z</time>
      </trkpt>
      <trkpt lat="44.25286" lon="1.77517">
        <ele>252.1</ele>
        <time>2022-02-19T14:19:12Z</time>
      </trkpt>
      <trkpt lat="44.25288" lon="1.77517">
        <ele>252.3</ele>
        <time>2022-02-19T14:19:13Z</time>
      </trkpt>
      <trkpt lat="44.25289" lon="1.77518">
        <ele>252.5</ele>
        <time>2022-02-19T14:19:14Z</time>
      </trkpt>
      <trkpt lat="44.25292" lon="1.7752">
        <ele>252.8</ele>
        <time>2022-02-19T14:19:16Z</time>
      </trkpt>
      <trkpt lat="44.25293" lon="1.77521">
        <ele>253</ele>
        <time>2022-02-19T14:19:17Z</time>
      </trkpt>
      <trkpt lat="44.25295" lon="1.77522">
        <ele>253.1</ele>
        <time>2022-02-19T14:19:18Z</time>
      </trkpt>
      <trkpt lat="44.25298" lon="1.77523">
        <ele>253.4</ele>
        <time>2022-02-19T14:19:19Z</time>
      </trkpt>
      <trkpt lat="44.25302" lon="1.77525">
        <ele>253.9</ele>
        <time>2022-02-19T14:19:21Z</time>
      </trkpt>
      <trkpt lat="44.25304" lon="1.77525">
        <ele>254.1</ele>
        <time>2022-02-19T14:19:23Z</time>
      </trkpt>
      <trkpt lat="44.25306" lon="1.77526">
        <ele>254.3</ele>
        <time>2022-02-19T14:19:24Z</time>
      </trkpt>
      <trkpt lat="44.25308" lon="1.77527">
        <ele>254.5</ele>
        <time>2022-02-19T14:19:25Z</time>
      </trkpt>
      <trkpt lat="44.25311" lon="1.77528">
        <ele>254.8</ele>
        <time>2022-02-19T14:19:26Z</time>
      </trkpt>
      <trkpt lat="44.25312" lon="1.77528">
        <ele>254.9</ele>
        <time>2022-02-19T14:19:27Z</time>
      </trkpt>
      <trkpt lat="44.25313" lon="1.77529">
        <ele>255.1</ele>
        <time>2022-02-19T14:19:28Z</time>
      </trkpt>
      <trkpt lat="44.25314" lon="1.77531">
        <ele>255.2</ele>
        <time>2022-02-19T14:19:29Z</time>
      </trkpt>
      <trkpt lat="44.25315" lon="1.77532">
        <ele>255.3</ele>
        <time>2022-02-19T14:19:30Z</time>
      </trkpt>
      <trkpt lat="44.25316" lon="1.77533">
        <ele>255.5</ele>
        <time>2022-02-19T14:19:31Z</time>
      </trkpt>
      <trkpt lat="44.25318" lon="1.77533">
        <ele>255.7</ele>
        <time>2022-02-19T14:19:33Z</time>
      </trkpt>
      <trkpt lat="44.2532" lon="1.77534">
        <ele>255.9</ele>
        <time>2022-02-19T14:19:34Z</time>
      </trkpt>
      <trkpt lat="44.25321" lon="1.77534">
        <ele>256</ele>
        <time>2022-02-19T14:19:35Z</time>
      </trkpt>
      <trkpt lat="44.25322" lon="1.77534">
        <ele>256.2</ele>
        <time>2022-02-19T14:19:36Z</time>
      </trkpt>
      <trkpt lat="44.25324" lon="1.77536">
        <ele>256.4</ele>
        <time>2022-02-19T14:19:37Z</time>
      </trkpt>
      <trkpt lat="44.25326" lon="1.77537">
        <ele>256.6</ele>
        <time>2022-02-19T14:19:38Z</time>
      </trkpt>
      <trkpt lat="44.25327" lon="1.77537">
        <ele>256.7</ele>
        <time>2022-02-19T14:19:39Z</time>
      </trkpt>
      <trkpt lat="44.25329" lon="1.77538">
        <ele>256.9</ele>
        <time>2022-02-19T14:19:40Z</time>
      </trkpt>
      <trkpt lat="44.2533" lon="1.77538">
        <ele>257.1</ele>
        <time>2022-02-19T14:19:41Z</time>
      </trkpt>
      <trkpt lat="44.25332" lon="1.77538">
        <ele>257.3</ele>
        <time>2022-02-19T14:19:42Z</time>
      </trkpt>
      <trkpt lat="44.25334" lon="1.77538">
        <ele>257.5</ele>
        <time>2022-02-19T14:19:43Z</time>
      </trkpt>
      <trkpt lat="44.25335" lon="1.77538">
        <ele>257.6</ele>
        <time>2022-02-19T14:19:44Z</time>
      </trkpt>
      <trkpt lat="44.25336" lon="1.77538">
        <ele>257.7</ele>
        <time>2022-02-19T14:19:45Z</time>
      </trkpt>
      <trkpt lat="44.25337" lon="1.77537">
        <ele>257.8</ele>
        <time>2022-02-19T14:19:46Z</time>
      </trkpt>
      <trkpt lat="44.25338" lon="1.77538">
        <ele>258</ele>
        <time>2022-02-19T14:19:47Z</time>
      </trkpt>
      <trkpt lat="44.25339" lon="1.77539">
        <ele>258.1</ele>
        <time>2022-02-19T14:19:49Z</time>
      </trkpt>
      <trkpt lat="44.2534" lon="1.7754">
        <ele>258.3</ele>
        <time>2022-02-19T14:19:50Z</time>
      </trkpt>
      <trkpt lat="44.25341" lon="1.77543">
        <ele>258.6</ele>
        <time>2022-02-19T14:19:51Z</time>
      </trkpt>
      <trkpt lat="44.25341" lon="1.77545">
        <ele>258.7</ele>
        <time>2022-02-19T14:19:52Z</time>
      </trkpt>
      <trkpt lat="44.25342" lon="1.77546">
        <ele>258.8</ele>
        <time>2022-02-19T14:19:53Z</time>
      </trkpt>
      <trkpt lat="44.25342" lon="1.77547">
        <ele>258.9</ele>
        <time>2022-02-19T14:19:54Z</time>
      </trkpt>
      <trkpt lat="44.25341" lon="1.77547">
        <ele>258.9</ele>
        <time>2022-02-19T14:19:55Z</time>
      </trkpt>
      <trkpt lat="44.25341" lon="1.77547">
        <ele>258.9</ele>
        <time>2022-02-19T14:19:56Z</time>
      </trkpt>
      <trkpt lat="44.25341" lon="1.77547">
        <ele>259</ele>
        <time>2022-02-19T14:19:57Z</time>
      </trkpt>
      <trkpt lat="44.25341" lon="1.77548">
        <ele>259</ele>
        <time>2022-02-19T14:19:58Z</time>
      </trkpt>
      <trkpt lat="44.25341" lon="1.77548">
        <ele>259</ele>
        <time>2022-02-19T14:19:59Z</time>
      </trkpt>
      <trkpt lat="44.25341" lon="1.77548">
        <ele>259.1</ele>
        <time>2022-02-19T14:20:00Z</time>
      </trkpt>
      <trkpt lat="44.25341" lon="1.77548">
        <ele>259.1</ele>
        <time>2022-02-19T14:20:01Z</time>
      </trkpt>
      <trkpt lat="44.25341" lon="1.77545">
        <ele>259.4</ele>
        <time>2022-02-19T14:20:02Z</time>
      </trkpt>
      <trkpt lat="44.25341" lon="1.77542">
        <ele>259.6</ele>
        <time>2022-02-19T14:20:03Z</time>
      </trkpt>
      <trkpt lat="44.25341" lon="1.77539">
        <ele>259.9</ele>
        <time>2022-02-19T14:22:49Z</time>
      </trkpt>
      <trkpt lat="44.25341" lon="1.77536">
        <ele>260.2</ele>
        <time>2022-02-19T14:22:50Z</time>
      </trkpt>
      <trkpt lat="44.25341" lon="1.77531">
        <ele>260.6</ele>
        <time>2022-02-19T14:22:51Z</time>
      </trkpt>
      <trkpt lat="44.25341" lon="1.7753">
        <ele>260.7</ele>
        <time>2022-02-19T14:22:52Z</time>
      </trkpt>
      <trkpt lat="44.25341" lon="1.77528">
        <ele>260.8</ele>
        <time>2022-02-19T14:22:53Z</time>
      </trkpt>
      <trkpt lat="44.25341" lon="1.77527">
        <ele>260.8</ele>
        <time>2022-02-19T14:22:54Z</time>
      </trkpt>
      <trkpt lat="44.25341" lon="1.77525">
        <ele>260.8</ele>
        <time>2022-02-19T14:22:55Z</time>
      </trkpt>
      <trkpt lat="44.25341" lon="1.77523">
        <ele>260.8</ele>
        <time>2022-02-19T14:22:56Z</time>
      </trkpt>
      <trkpt lat="44.25341" lon="1.77522">
        <ele>260.8</ele>
        <time>2022-02-19T14:22:57Z</time>
      </trkpt>
      <trkpt lat="44.25341" lon="1.77521">
        <ele>260.9</ele>
        <time>2022-02-19T14:22:58Z</time>
      </trkpt>
      <trkpt lat="44.25342" lon="1.77518">
        <ele>260.9</ele>
        <time>2022-02-19T14:22:59Z</time>
      </trkpt>
      <trkpt lat="44.25342" lon="1.77517">
        <ele>260.9</ele>
        <time>2022-02-19T14:23:00Z</time>
      </trkpt>
      <trkpt lat="44.25342" lon="1.77515">
        <ele>260.9</ele>
        <time>2022-02-19T14:23:01Z</time>
      </trkpt>
      <trkpt lat="44.25341" lon="1.77514">
        <ele>260.9</ele>
        <time>2022-02-19T14:23:02Z</time>
      </trkpt>
      <trkpt lat="44.25341" lon="1.77513">
        <ele>260.9</ele>
        <time>2022-02-19T14:23:03Z</time>
      </trkpt>
      <trkpt lat="44.25341" lon="1.77512">
        <ele>260.9</ele>
        <time>2022-02-19T14:23:04Z</time>
      </trkpt>
      <trkpt lat="44.25341" lon="1.77511">
        <ele>260.9</ele>
        <time>2022-02-19T14:23:05Z</time>
      </trkpt>
      <trkpt lat="44.25342" lon="1.7751">
        <ele>261</ele>
        <time>2022-02-19T14:23:06Z</time>
      </trkpt>
      <trkpt lat="44.25343" lon="1.77509">
        <ele>261</ele>
        <time>2022-02-19T14:23:07Z</time>
      </trkpt>
      <trkpt lat="44.25343" lon="1.77509">
        <ele>261</ele>
        <time>2022-02-19T14:23:08Z</time>
      </trkpt>
      <trkpt lat="44.25344" lon="1.77508">
        <ele>261</ele>
        <time>2022-02-19T14:23:09Z</time>
      </trkpt>
      <trkpt lat="44.25345" lon="1.77507">
        <ele>261</ele>
        <time>2022-02-19T14:23:10Z</time>
      </trkpt>
      <trkpt lat="44.25346" lon="1.77505">
        <ele>261.1</ele>
        <time>2022-02-19T14:23:11Z</time>
      </trkpt>
      <trkpt lat="44.25347" lon="1.77504">
        <ele>261.1</ele>
        <time>2022-02-19T14:23:12Z</time>
      </trkpt>
      <trkpt lat="44.25348" lon="1.77504">
        <ele>261.1</ele>
        <time>2022-02-19T14:23:13Z</time>
      </trkpt>
      <trkpt lat="44.25349" lon="1.77502">
        <ele>261.1</ele>
        <time>2022-02-19T14:23:14Z</time>
      </trkpt>
      <trkpt lat="44.2535" lon="1.77501">
        <ele>261.2</ele>
        <time>2022-02-19T14:23:15Z</time>
      </trkpt>
      <trkpt lat="44.25351" lon="1.775">
        <ele>261.2</ele>
        <time>2022-02-19T14:23:16Z</time>
      </trkpt>
      <trkpt lat="44.25352" lon="1.775">
        <ele>261.2</ele>
        <time>2022-02-19T14:23:17Z</time>
      </trkpt>
      <trkpt lat="44.25353" lon="1.77499">
        <ele>261.3</ele>
        <time>2022-02-19T14:23:18Z</time>
      </trkpt>
      <trkpt lat="44.25355" lon="1.77497">
        <ele>261.3</ele>
        <time>2022-02-19T14:23:19Z</time>
      </trkpt>
      <trkpt lat="44.25355" lon="1.77497">
        <ele>261.3</ele>
        <time>2022-02-19T14:23:20Z</time>
      </trkpt>
      <trkpt lat="44.25356" lon="1.77496">
        <ele>261.3</ele>
        <time>2022-02-19T14:23:21Z</time>
      </trkpt>
      <trkpt lat="44.25356" lon="1.77496">
        <ele>261.3</ele>
        <time>2022-02-19T14:23:22Z</time>
      </trkpt>
      <trkpt lat="44.25356" lon="1.77496">
        <ele>261.3</ele>
        <time>2022-02-19T14:23:23Z</time>
      </trkpt>
      <trkpt lat="44.25356" lon="1.77496">
        <ele>261.3</ele>
        <time>2022-02-19T14:23:24Z</time>
      </trkpt>
      <trkpt lat="44.25357" lon="1.77496">
        <ele>261.3</ele>
        <time>2022-02-19T14:23:25Z</time>
      </trkpt>
      <trkpt lat="44.25357" lon="1.77496">
        <ele>261.3</ele>
        <time>2022-02-19T14:23:26Z</time>
      </trkpt>
      <trkpt lat="44.25357" lon="1.77496">
        <ele>261.3</ele>
        <time>2022-02-19T14:23:27Z</time>
      </trkpt>
      <trkpt lat="44.25357" lon="1.77496">
        <ele>261.3</ele>
        <time>2022-02-19T14:23:28Z</time>
      </trkpt>
      <trkpt lat="44.25357" lon="1.77496">
        <ele>261.3</ele>
        <time>2022-02-19T14:23:29Z</time>
      </trkpt>
      <trkpt lat="44.25354" lon="1.775">
        <ele>261.2</ele>
        <time>2022-02-19T14:23:47Z</time>
      </trkpt>
      <trkpt lat="44.25353" lon="1.77501">
        <ele>261.2</ele>
        <time>2022-02-19T14:23:48Z</time>
      </trkpt>
      <trkpt lat="44.25351" lon="1.77502">
        <ele>261.1</ele>
        <time>2022-02-19T14:23:49Z</time>
      </trkpt>
      <trkpt lat="44.25348" lon="1.77505">
        <ele>261.1</ele>
        <time>2022-02-19T14:23:50Z</time>
      </trkpt>
      <trkpt lat="44.25346" lon="1.77506">
        <ele>261</ele>
        <time>2022-02-19T14:23:51Z</time>
      </trkpt>
      <trkpt lat="44.25345" lon="1.77508">
        <ele>261</ele>
        <time>2022-02-19T14:23:52Z</time>
      </trkpt>
      <trkpt lat="44.25344" lon="1.7751">
        <ele>261</ele>
        <time>2022-02-19T14:23:53Z</time>
      </trkpt>
      <trkpt lat="44.25344" lon="1.77511">
        <ele>261</ele>
        <time>2022-02-19T14:23:54Z</time>
      </trkpt>
      <trkpt lat="44.25344" lon="1.77512">
        <ele>261</ele>
        <time>2022-02-19T14:23:55Z</time>
      </trkpt>
      <trkpt lat="44.25344" lon="1.77513">
        <ele>261</ele>
        <time>2022-02-19T14:23:56Z</time>
      </trkpt>
      <trkpt lat="44.25344" lon="1.77513">
        <ele>260.9</ele>
        <time>2022-02-19T14:23:57Z</time>
      </trkpt>
      <trkpt lat="44.25344" lon="1.77513">
        <ele>260.9</ele>
        <time>2022-02-19T14:23:58Z</time>
      </trkpt>
      <trkpt lat="44.25344" lon="1.77513">
        <ele>260.9</ele>
        <time>2022-02-19T14:23:59Z</time>
      </trkpt>
      <trkpt lat="44.25344" lon="1.77513">
        <ele>260.9</ele>
        <time>2022-02-19T14:24:00Z</time>
      </trkpt>
      <trkpt lat="44.25344" lon="1.77514">
        <ele>260.9</ele>
        <time>2022-02-19T14:24:01Z</time>
      </trkpt>
      <trkpt lat="44.25344" lon="1.77514">
        <ele>260.9</ele>
        <time>2022-02-19T14:24:02Z</time>
      </trkpt>
      <trkpt lat="44.25344" lon="1.77514">
        <ele>260.9</ele>
        <time>2022-02-19T14:24:03Z</time>
      </trkpt>
      <trkpt lat="44.25344" lon="1.77516">
        <ele>260.9</ele>
        <time>2022-02-19T14:24:04Z</time>
      </trkpt>
      <trkpt lat="44.25344" lon="1.77518">
        <ele>260.9</ele>
        <time>2022-02-19T14:24:05Z</time>
      </trkpt>
      <trkpt lat="44.25344" lon="1.77524">
        <ele>260.8</ele>
        <time>2022-02-19T14:24:06Z</time>
      </trkpt>
      <trkpt lat="44.25345" lon="1.77526">
        <ele>260.8</ele>
        <time>2022-02-19T14:24:07Z</time>
      </trkpt>
      <trkpt lat="44.25344" lon="1.77529">
        <ele>260.8</ele>
        <time>2022-02-19T14:24:08Z</time>
      </trkpt>
      <trkpt lat="44.25344" lon="1.7753">
        <ele>260.8</ele>
        <time>2022-02-19T14:24:09Z</time>
      </trkpt>
      <trkpt lat="44.25344" lon="1.7753">
        <ele>260.8</ele>
        <time>2022-02-19T14:24:10Z</time>
      </trkpt>
      <trkpt lat="44.25344" lon="1.77529">
        <ele>260.8</ele>
        <time>2022-02-19T14:24:11Z</time>
      </trkpt>
      <trkpt lat="44.25344" lon="1.77529">
        <ele>260.8</ele>
        <time>2022-02-19T14:24:12Z</time>
      </trkpt>
      <trkpt lat="44.25344" lon="1.77529">
        <ele>260.8</ele>
        <time>2022-02-19T14:24:13Z</time>
      </trkpt>
      <trkpt lat="44.25344" lon="1.77529">
        <ele>260.8</ele>
        <time>2022-02-19T14:24:14Z</time>
      </trkpt>
      <trkpt lat="44.25344" lon="1.77529">
        <ele>260.8</ele>
        <time>2022-02-19T14:24:15Z</time>
      </trkpt>
      <trkpt lat="44.25344" lon="1.77529">
        <ele>260.8</ele>
        <time>2022-02-19T14:24:17Z</time>
      </trkpt>
      <trkpt lat="44.25344" lon="1.77529">
        <ele>260.8</ele>
        <time>2022-02-19T14:24:18Z</time>
      </trkpt>
      <trkpt lat="44.25347" lon="1.77537">
        <ele>260.8</ele>
        <time>2022-02-19T14:24:26Z</time>
      </trkpt>
      <trkpt lat="44.25347" lon="1.7754">
        <ele>261.1</ele>
        <time>2022-02-19T14:24:27Z</time>
      </trkpt>
      <trkpt lat="44.25348" lon="1.77541">
        <ele>261.2</ele>
        <time>2022-02-19T14:24:28Z</time>
      </trkpt>
      <trkpt lat="44.2535" lon="1.77541">
        <ele>261.2</ele>
        <time>2022-02-19T14:24:29Z</time>
      </trkpt>
      <trkpt lat="44.25352" lon="1.77541">
        <ele>261.3</ele>
        <time>2022-02-19T14:24:30Z</time>
      </trkpt>
      <trkpt lat="44.25355" lon="1.77543">
        <ele>261.4</ele>
        <time>2022-02-19T14:24:31Z</time>
      </trkpt>
      <trkpt lat="44.25356" lon="1.77543">
        <ele>261.4</ele>
        <time>2022-02-19T14:24:32Z</time>
      </trkpt>
      <trkpt lat="44.2536" lon="1.77544">
        <ele>261.4</ele>
        <time>2022-02-19T14:24:34Z</time>
      </trkpt>
      <trkpt lat="44.2536" lon="1.77544">
        <ele>261.4</ele>
        <time>2022-02-19T14:24:35Z</time>
      </trkpt>
      <trkpt lat="44.25362" lon="1.77545">
        <ele>261.4</ele>
        <time>2022-02-19T14:24:36Z</time>
      </trkpt>
      <trkpt lat="44.25363" lon="1.77545">
        <ele>261.4</ele>
        <time>2022-02-19T14:24:38Z</time>
      </trkpt>
      <trkpt lat="44.25364" lon="1.77544">
        <ele>261.4</ele>
        <time>2022-02-19T14:24:39Z</time>
      </trkpt>
      <trkpt lat="44.25365" lon="1.77544">
        <ele>261.4</ele>
        <time>2022-02-19T14:24:40Z</time>
      </trkpt>
      <trkpt lat="44.25368" lon="1.77544">
        <ele>261.3</ele>
        <time>2022-02-19T14:24:41Z</time>
      </trkpt>
      <trkpt lat="44.25368" lon="1.77543">
        <ele>261.3</ele>
        <time>2022-02-19T14:24:42Z</time>
      </trkpt>
      <trkpt lat="44.25372" lon="1.77545">
        <ele>261.2</ele>
        <time>2022-02-19T14:24:43Z</time>
      </trkpt>
      <trkpt lat="44.25375" lon="1.77545">
        <ele>261.2</ele>
        <time>2022-02-19T14:24:45Z</time>
      </trkpt>
      <trkpt lat="44.25377" lon="1.77545">
        <ele>261.1</ele>
        <time>2022-02-19T14:24:46Z</time>
      </trkpt>
      <trkpt lat="44.25378" lon="1.77545">
        <ele>261.1</ele>
        <time>2022-02-19T14:24:47Z</time>
      </trkpt>
      <trkpt lat="44.25382" lon="1.77545">
        <ele>261</ele>
        <time>2022-02-19T14:24:48Z</time>
      </trkpt>
      <trkpt lat="44.25384" lon="1.77545">
        <ele>261</ele>
        <time>2022-02-19T14:24:49Z</time>
      </trkpt>
      <trkpt lat="44.25387" lon="1.77545">
        <ele>260.9</ele>
        <time>2022-02-19T14:24:50Z</time>
      </trkpt>
      <trkpt lat="44.25391" lon="1.77545">
        <ele>260.8</ele>
        <time>2022-02-19T14:24:51Z</time>
      </trkpt>
      <trkpt lat="44.25392" lon="1.77545">
        <ele>260.8</ele>
        <time>2022-02-19T14:24:52Z</time>
      </trkpt>
      <trkpt lat="44.25395" lon="1.77546">
        <ele>260.7</ele>
        <time>2022-02-19T14:24:54Z</time>
      </trkpt>
      <trkpt lat="44.25397" lon="1.77547">
        <ele>260.7</ele>
        <time>2022-02-19T14:24:55Z</time>
      </trkpt>
      <trkpt lat="44.25401" lon="1.77547">
        <ele>260.6</ele>
        <time>2022-02-19T14:24:57Z</time>
      </trkpt>
      <trkpt lat="44.25405" lon="1.77547">
        <ele>260.6</ele>
        <time>2022-02-19T14:24:58Z</time>
      </trkpt>
      <trkpt lat="44.25406" lon="1.77547">
        <ele>260.5</ele>
        <time>2022-02-19T14:24:59Z</time>
      </trkpt>
      <trkpt lat="44.2541" lon="1.77547">
        <ele>260.5</ele>
        <time>2022-02-19T14:25:00Z</time>
      </trkpt>
      <trkpt lat="44.25411" lon="1.77547">
        <ele>260.4</ele>
        <time>2022-02-19T14:25:01Z</time>
      </trkpt>
      <trkpt lat="44.25414" lon="1.77547">
        <ele>260.4</ele>
        <time>2022-02-19T14:25:02Z</time>
      </trkpt>
      <trkpt lat="44.25418" lon="1.77546">
        <ele>260.3</ele>
        <time>2022-02-19T14:25:04Z</time>
      </trkpt>
      <trkpt lat="44.25422" lon="1.77545">
        <ele>260.3</ele>
        <time>2022-02-19T14:25:05Z</time>
      </trkpt>
      <trkpt lat="44.25424" lon="1.77544">
        <ele>260.2</ele>
        <time>2022-02-19T14:25:06Z</time>
      </trkpt>
      <trkpt lat="44.25427" lon="1.77543">
        <ele>260.2</ele>
        <time>2022-02-19T14:25:07Z</time>
      </trkpt>
      <trkpt lat="44.25431" lon="1.77541">
        <ele>260.1</ele>
        <time>2022-02-19T14:25:08Z</time>
      </trkpt>
      <trkpt lat="44.25432" lon="1.77541">
        <ele>260.1</ele>
        <time>2022-02-19T14:25:09Z</time>
      </trkpt>
      <trkpt lat="44.25434" lon="1.7754">
        <ele>260</ele>
        <time>2022-02-19T14:25:10Z</time>
      </trkpt>
      <trkpt lat="44.25437" lon="1.7754">
        <ele>259.9</ele>
        <time>2022-02-19T14:25:12Z</time>
      </trkpt>
      <trkpt lat="44.25441" lon="1.77541">
        <ele>259.8</ele>
        <time>2022-02-19T14:25:13Z</time>
      </trkpt>
      <trkpt lat="44.25442" lon="1.77541">
        <ele>259.8</ele>
        <time>2022-02-19T14:25:14Z</time>
      </trkpt>
      <trkpt lat="44.25445" lon="1.77542">
        <ele>259.6</ele>
        <time>2022-02-19T14:25:15Z</time>
      </trkpt>
      <trkpt lat="44.25447" lon="1.77543">
        <ele>259.5</ele>
        <time>2022-02-19T14:25:16Z</time>
      </trkpt>
      <trkpt lat="44.2545" lon="1.77543">
        <ele>259.4</ele>
        <time>2022-02-19T14:25:17Z</time>
      </trkpt>
      <trkpt lat="44.25453" lon="1.77545">
        <ele>259.2</ele>
        <time>2022-02-19T14:25:18Z</time>
      </trkpt>
      <trkpt lat="44.25458" lon="1.77545">
        <ele>258.9</ele>
        <time>2022-02-19T14:25:19Z</time>
      </trkpt>
      <trkpt lat="44.25464" lon="1.77546">
        <ele>258.6</ele>
        <time>2022-02-19T14:25:20Z</time>
      </trkpt>
      <trkpt lat="44.25468" lon="1.77547">
        <ele>258.3</ele>
        <time>2022-02-19T14:25:21Z</time>
      </trkpt>
      <trkpt lat="44.25474" lon="1.77549">
        <ele>257.9</ele>
        <time>2022-02-19T14:25:22Z</time>
      </trkpt>
      <trkpt lat="44.25482" lon="1.77552">
        <ele>257.5</ele>
        <time>2022-02-19T14:25:24Z</time>
      </trkpt>
      <trkpt lat="44.25488" lon="1.77552">
        <ele>257.3</ele>
        <time>2022-02-19T14:25:26Z</time>
      </trkpt>
      <trkpt lat="44.25491" lon="1.77555">
        <ele>257.1</ele>
        <time>2022-02-19T14:25:27Z</time>
      </trkpt>
      <trkpt lat="44.25495" lon="1.77559">
        <ele>257.1</ele>
        <time>2022-02-19T14:25:28Z</time>
      </trkpt>
      <trkpt lat="44.25499" lon="1.77563">
        <ele>257</ele>
        <time>2022-02-19T14:25:29Z</time>
      </trkpt>
      <trkpt lat="44.25503" lon="1.77567">
        <ele>257.1</ele>
        <time>2022-02-19T14:25:30Z</time>
      </trkpt>
      <trkpt lat="44.25507" lon="1.77571">
        <ele>257.2</ele>
        <time>2022-02-19T14:25:31Z</time>
      </trkpt>
      <trkpt lat="44.25512" lon="1.77577">
        <ele>257.5</ele>
        <time>2022-02-19T14:25:32Z</time>
      </trkpt>
      <trkpt lat="44.25516" lon="1.77583">
        <ele>257.9</ele>
        <time>2022-02-19T14:25:34Z</time>
      </trkpt>
      <trkpt lat="44.2552" lon="1.77585">
        <ele>258.1</ele>
        <time>2022-02-19T14:25:35Z</time>
      </trkpt>
      <trkpt lat="44.25525" lon="1.77588">
        <ele>258.5</ele>
        <time>2022-02-19T14:25:36Z</time>
      </trkpt>
      <trkpt lat="44.2553" lon="1.7759">
        <ele>258.8</ele>
        <time>2022-02-19T14:25:37Z</time>
      </trkpt>
      <trkpt lat="44.25535" lon="1.77593">
        <ele>259.1</ele>
        <time>2022-02-19T14:25:38Z</time>
      </trkpt>
      <trkpt lat="44.2554" lon="1.77595">
        <ele>259.3</ele>
        <time>2022-02-19T14:25:39Z</time>
      </trkpt>
      <trkpt lat="44.25545" lon="1.77596">
        <ele>259.5</ele>
        <time>2022-02-19T14:25:41Z</time>
      </trkpt>
      <trkpt lat="44.2555" lon="1.77597">
        <ele>259.6</ele>
        <time>2022-02-19T14:25:42Z</time>
      </trkpt>
      <trkpt lat="44.25555" lon="1.77597">
        <ele>259.6</ele>
        <time>2022-02-19T14:25:43Z</time>
      </trkpt>
      <trkpt lat="44.25561" lon="1.77597">
        <ele>259.5</ele>
        <time>2022-02-19T14:25:44Z</time>
      </trkpt>
      <trkpt lat="44.25566" lon="1.77597">
        <ele>259.4</ele>
        <time>2022-02-19T14:25:45Z</time>
      </trkpt>
      <trkpt lat="44.2557" lon="1.77595">
        <ele>259.2</ele>
        <time>2022-02-19T14:25:46Z</time>
      </trkpt>
      <trkpt lat="44.25576" lon="1.77596">
        <ele>259.1</ele>
        <time>2022-02-19T14:25:47Z</time>
      </trkpt>
      <trkpt lat="44.25582" lon="1.77597">
        <ele>259</ele>
        <time>2022-02-19T14:25:49Z</time>
      </trkpt>
      <trkpt lat="44.25588" lon="1.77598">
        <ele>258.9</ele>
        <time>2022-02-19T14:25:50Z</time>
      </trkpt>
      <trkpt lat="44.25592" lon="1.77598">
        <ele>258.8</ele>
        <time>2022-02-19T14:25:51Z</time>
      </trkpt>
      <trkpt lat="44.25597" lon="1.77597">
        <ele>258.7</ele>
        <time>2022-02-19T14:25:52Z</time>
      </trkpt>
      <trkpt lat="44.25603" lon="1.77597">
        <ele>258.6</ele>
        <time>2022-02-19T14:25:53Z</time>
      </trkpt>
      <trkpt lat="44.25609" lon="1.77595">
        <ele>258.4</ele>
        <time>2022-02-19T14:25:54Z</time>
      </trkpt>
      <trkpt lat="44.25614" lon="1.77594">
        <ele>258.2</ele>
        <time>2022-02-19T14:25:55Z</time>
      </trkpt>
      <trkpt lat="44.2562" lon="1.77592">
        <ele>258</ele>
        <time>2022-02-19T14:25:56Z</time>
      </trkpt>
      <trkpt lat="44.25625" lon="1.7759">
        <ele>257.7</ele>
        <time>2022-02-19T14:25:57Z</time>
      </trkpt>
      <trkpt lat="44.25631" lon="1.77588">
        <ele>257.5</ele>
        <time>2022-02-19T14:25:58Z</time>
      </trkpt>
      <trkpt lat="44.25636" lon="1.77586">
        <ele>257.2</ele>
        <time>2022-02-19T14:25:59Z</time>
      </trkpt>
      <trkpt lat="44.25641" lon="1.77583">
        <ele>256.9</ele>
        <time>2022-02-19T14:26:00Z</time>
      </trkpt>
      <trkpt lat="44.25646" lon="1.77579">
        <ele>256.6</ele>
        <time>2022-02-19T14:26:01Z</time>
      </trkpt>
      <trkpt lat="44.2565" lon="1.77575">
        <ele>256.1</ele>
        <time>2022-02-19T14:26:02Z</time>
      </trkpt>
      <trkpt lat="44.25656" lon="1.7757">
        <ele>255.7</ele>
        <time>2022-02-19T14:26:03Z</time>
      </trkpt>
      <trkpt lat="44.25661" lon="1.77565">
        <ele>255.2</ele>
        <time>2022-02-19T14:26:04Z</time>
      </trkpt>
      <trkpt lat="44.25666" lon="1.7756">
        <ele>254.7</ele>
        <time>2022-02-19T14:26:05Z</time>
      </trkpt>
      <trkpt lat="44.25672" lon="1.77557">
        <ele>254.3</ele>
        <time>2022-02-19T14:26:06Z</time>
      </trkpt>
      <trkpt lat="44.25678" lon="1.77554">
        <ele>253.8</ele>
        <time>2022-02-19T14:26:07Z</time>
      </trkpt>
      <trkpt lat="44.25685" lon="1.77552">
        <ele>253.4</ele>
        <time>2022-02-19T14:26:08Z</time>
      </trkpt>
      <trkpt lat="44.25691" lon="1.77551">
        <ele>252.9</ele>
        <time>2022-02-19T14:26:09Z</time>
      </trkpt>
      <trkpt lat="44.25697" lon="1.7755">
        <ele>252.3</ele>
        <time>2022-02-19T14:26:10Z</time>
      </trkpt>
      <trkpt lat="44.25703" lon="1.77553">
        <ele>251.5</ele>
        <time>2022-02-19T14:26:11Z</time>
      </trkpt>
      <trkpt lat="44.25709" lon="1.77558">
        <ele>250.7</ele>
        <time>2022-02-19T14:26:12Z</time>
      </trkpt>
      <trkpt lat="44.25714" lon="1.77565">
        <ele>249.7</ele>
        <time>2022-02-19T14:26:13Z</time>
      </trkpt>
      <trkpt lat="44.2572" lon="1.7757">
        <ele>248.7</ele>
        <time>2022-02-19T14:26:14Z</time>
      </trkpt>
      <trkpt lat="44.25724" lon="1.77577">
        <ele>247.6</ele>
        <time>2022-02-19T14:26:15Z</time>
      </trkpt>
      <trkpt lat="44.25728" lon="1.77585">
        <ele>246.3</ele>
        <time>2022-02-19T14:26:16Z</time>
      </trkpt>
      <trkpt lat="44.25731" lon="1.77594">
        <ele>245</ele>
        <time>2022-02-19T14:26:17Z</time>
      </trkpt>
      <trkpt lat="44.25734" lon="1.77603">
        <ele>243.8</ele>
        <time>2022-02-19T14:26:18Z</time>
      </trkpt>
      <trkpt lat="44.25738" lon="1.77612">
        <ele>242.6</ele>
        <time>2022-02-19T14:26:19Z</time>
      </trkpt>
      <trkpt lat="44.25741" lon="1.77622">
        <ele>241.6</ele>
        <time>2022-02-19T14:26:20Z</time>
      </trkpt>
      <trkpt lat="44.25746" lon="1.7763">
        <ele>240.8</ele>
        <time>2022-02-19T14:26:21Z</time>
      </trkpt>
      <trkpt lat="44.25751" lon="1.77637">
        <ele>240.2</ele>
        <time>2022-02-19T14:26:22Z</time>
      </trkpt>
      <trkpt lat="44.25756" lon="1.77646">
        <ele>239.8</ele>
        <time>2022-02-19T14:26:23Z</time>
      </trkpt>
      <trkpt lat="44.25761" lon="1.77654">
        <ele>239.3</ele>
        <time>2022-02-19T14:26:24Z</time>
      </trkpt>
      <trkpt lat="44.25764" lon="1.77663">
        <ele>238.7</ele>
        <time>2022-02-19T14:26:25Z</time>
      </trkpt>
      <trkpt lat="44.25768" lon="1.77671">
        <ele>238.2</ele>
        <time>2022-02-19T14:26:26Z</time>
      </trkpt>
      <trkpt lat="44.25773" lon="1.77679">
        <ele>237.8</ele>
        <time>2022-02-19T14:26:27Z</time>
      </trkpt>
      <trkpt lat="44.25777" lon="1.77687">
        <ele>237.5</ele>
        <time>2022-02-19T14:26:28Z</time>
      </trkpt>
      <trkpt lat="44.25781" lon="1.77694">
        <ele>237.4</ele>
        <time>2022-02-19T14:26:29Z</time>
      </trkpt>
      <trkpt lat="44.25785" lon="1.77699">
        <ele>237.3</ele>
        <time>2022-02-19T14:26:30Z</time>
      </trkpt>
      <trkpt lat="44.25789" lon="1.77704">
        <ele>237.1</ele>
        <time>2022-02-19T14:26:31Z</time>
      </trkpt>
      <trkpt lat="44.25794" lon="1.77708">
        <ele>237</ele>
        <time>2022-02-19T14:26:32Z</time>
      </trkpt>
      <trkpt lat="44.25798" lon="1.77713">
        <ele>236.7</ele>
        <time>2022-02-19T14:26:33Z</time>
      </trkpt>
      <trkpt lat="44.25801" lon="1.77717">
        <ele>236.5</ele>
        <time>2022-02-19T14:26:34Z</time>
      </trkpt>
      <trkpt lat="44.25802" lon="1.7772">
        <ele>236.4</ele>
        <time>2022-02-19T14:26:35Z</time>
      </trkpt>
      <trkpt lat="44.25804" lon="1.77724">
        <ele>236.2</ele>
        <time>2022-02-19T14:26:36Z</time>
      </trkpt>
      <trkpt lat="44.25807" lon="1.77727">
        <ele>236</ele>
        <time>2022-02-19T14:26:37Z</time>
      </trkpt>
      <trkpt lat="44.2581" lon="1.77731">
        <ele>235.7</ele>
        <time>2022-02-19T14:26:38Z</time>
      </trkpt>
      <trkpt lat="44.25813" lon="1.77735">
        <ele>235.5</ele>
        <time>2022-02-19T14:26:39Z</time>
      </trkpt>
      <trkpt lat="44.25816" lon="1.7774">
        <ele>235.3</ele>
        <time>2022-02-19T14:26:40Z</time>
      </trkpt>
      <trkpt lat="44.2582" lon="1.77744">
        <ele>235</ele>
        <time>2022-02-19T14:26:41Z</time>
      </trkpt>
      <trkpt lat="44.25818" lon="1.77748">
        <ele>234.9</ele>
        <time>2022-02-19T14:26:42Z</time>
      </trkpt>
      <trkpt lat="44.25822" lon="1.77754">
        <ele>234.6</ele>
        <time>2022-02-19T14:26:43Z</time>
      </trkpt>
      <trkpt lat="44.25827" lon="1.77761">
        <ele>234.4</ele>
        <time>2022-02-19T14:26:45Z</time>
      </trkpt>
      <trkpt lat="44.25833" lon="1.77766">
        <ele>234.1</ele>
        <time>2022-02-19T14:26:46Z</time>
      </trkpt>
      <trkpt lat="44.25838" lon="1.77771">
        <ele>233.9</ele>
        <time>2022-02-19T14:26:47Z</time>
      </trkpt>
      <trkpt lat="44.25842" lon="1.77778">
        <ele>233.7</ele>
        <time>2022-02-19T14:26:48Z</time>
      </trkpt>
      <trkpt lat="44.25845" lon="1.77783">
        <ele>233.4</ele>
        <time>2022-02-19T14:26:49Z</time>
      </trkpt>
      <trkpt lat="44.25848" lon="1.77789">
        <ele>233.1</ele>
        <time>2022-02-19T14:26:50Z</time>
      </trkpt>
      <trkpt lat="44.25852" lon="1.77794">
        <ele>232.7</ele>
        <time>2022-02-19T14:26:51Z</time>
      </trkpt>
      <trkpt lat="44.25853" lon="1.778">
        <ele>232.4</ele>
        <time>2022-02-19T14:26:52Z</time>
      </trkpt>
      <trkpt lat="44.25856" lon="1.77804">
        <ele>231.9</ele>
        <time>2022-02-19T14:26:53Z</time>
      </trkpt>
      <trkpt lat="44.25859" lon="1.77811">
        <ele>231.3</ele>
        <time>2022-02-19T14:26:54Z</time>
      </trkpt>
      <trkpt lat="44.25861" lon="1.77816">
        <ele>230.6</ele>
        <time>2022-02-19T14:26:56Z</time>
      </trkpt>
      <trkpt lat="44.25862" lon="1.7782">
        <ele>230.2</ele>
        <time>2022-02-19T14:26:57Z</time>
      </trkpt>
      <trkpt lat="44.25862" lon="1.77824">
        <ele>229.8</ele>
        <time>2022-02-19T14:26:58Z</time>
      </trkpt>
      <trkpt lat="44.25863" lon="1.77828">
        <ele>229.4</ele>
        <time>2022-02-19T14:26:59Z</time>
      </trkpt>
      <trkpt lat="44.25864" lon="1.77834">
        <ele>228.7</ele>
        <time>2022-02-19T14:27:01Z</time>
      </trkpt>
      <trkpt lat="44.25864" lon="1.77836">
        <ele>228.5</ele>
        <time>2022-02-19T14:27:02Z</time>
      </trkpt>
      <trkpt lat="44.25864" lon="1.77838">
        <ele>228.3</ele>
        <time>2022-02-19T14:27:03Z</time>
      </trkpt>
      <trkpt lat="44.25864" lon="1.77842">
        <ele>227.9</ele>
        <time>2022-02-19T14:27:04Z</time>
      </trkpt>
      <trkpt lat="44.25864" lon="1.77849">
        <ele>227.1</ele>
        <time>2022-02-19T14:27:06Z</time>
      </trkpt>
      <trkpt lat="44.25865" lon="1.77855">
        <ele>226.6</ele>
        <time>2022-02-19T14:27:07Z</time>
      </trkpt>
      <trkpt lat="44.25866" lon="1.7786">
        <ele>226.1</ele>
        <time>2022-02-19T14:27:08Z</time>
      </trkpt>
      <trkpt lat="44.25868" lon="1.77864">
        <ele>225.7</ele>
        <time>2022-02-19T14:27:09Z</time>
      </trkpt>
      <trkpt lat="44.2587" lon="1.77869">
        <ele>225.3</ele>
        <time>2022-02-19T14:27:10Z</time>
      </trkpt>
      <trkpt lat="44.25873" lon="1.77874">
        <ele>225</ele>
        <time>2022-02-19T14:27:11Z</time>
      </trkpt>
      <trkpt lat="44.25877" lon="1.77879">
        <ele>224.7</ele>
        <time>2022-02-19T14:27:12Z</time>
      </trkpt>
      <trkpt lat="44.25879" lon="1.77884">
        <ele>224.6</ele>
        <time>2022-02-19T14:27:13Z</time>
      </trkpt>
      <trkpt lat="44.25882" lon="1.77888">
        <ele>224.4</ele>
        <time>2022-02-19T14:27:15Z</time>
      </trkpt>
      <trkpt lat="44.25884" lon="1.77893">
        <ele>224.4</ele>
        <time>2022-02-19T14:27:16Z</time>
      </trkpt>
      <trkpt lat="44.25887" lon="1.77896">
        <ele>224.4</ele>
        <time>2022-02-19T14:27:17Z</time>
      </trkpt>
      <trkpt lat="44.25889" lon="1.779">
        <ele>224.4</ele>
        <time>2022-02-19T14:27:18Z</time>
      </trkpt>
      <trkpt lat="44.25891" lon="1.77903">
        <ele>224.4</ele>
        <time>2022-02-19T14:27:19Z</time>
      </trkpt>
      <trkpt lat="44.25894" lon="1.77906">
        <ele>224.5</ele>
        <time>2022-02-19T14:27:21Z</time>
      </trkpt>
      <trkpt lat="44.25898" lon="1.77908">
        <ele>224.6</ele>
        <time>2022-02-19T14:27:22Z</time>
      </trkpt>
      <trkpt lat="44.25901" lon="1.7791">
        <ele>224.8</ele>
        <time>2022-02-19T14:27:23Z</time>
      </trkpt>
      <trkpt lat="44.25902" lon="1.7791">
        <ele>224.9</ele>
        <time>2022-02-19T14:27:24Z</time>
      </trkpt>
      <trkpt lat="44.25906" lon="1.77912">
        <ele>225.1</ele>
        <time>2022-02-19T14:27:25Z</time>
      </trkpt>
      <trkpt lat="44.25909" lon="1.77913">
        <ele>225.4</ele>
        <time>2022-02-19T14:27:27Z</time>
      </trkpt>
      <trkpt lat="44.2591" lon="1.77913">
        <ele>225.5</ele>
        <time>2022-02-19T14:27:28Z</time>
      </trkpt>
      <trkpt lat="44.25911" lon="1.77914">
        <ele>225.6</ele>
        <time>2022-02-19T14:27:29Z</time>
      </trkpt>
      <trkpt lat="44.25913" lon="1.77914">
        <ele>225.7</ele>
        <time>2022-02-19T14:27:30Z</time>
      </trkpt>
      <trkpt lat="44.25915" lon="1.77915">
        <ele>226</ele>
        <time>2022-02-19T14:27:31Z</time>
      </trkpt>
      <trkpt lat="44.25916" lon="1.77916">
        <ele>226</ele>
        <time>2022-02-19T14:27:32Z</time>
      </trkpt>
      <trkpt lat="44.25919" lon="1.77919">
        <ele>226.3</ele>
        <time>2022-02-19T14:27:33Z</time>
      </trkpt>
      <trkpt lat="44.25919" lon="1.7792">
        <ele>226.4</ele>
        <time>2022-02-19T14:27:34Z</time>
      </trkpt>
      <trkpt lat="44.25923" lon="1.77922">
        <ele>226.7</ele>
        <time>2022-02-19T14:27:36Z</time>
      </trkpt>
      <trkpt lat="44.25925" lon="1.77923">
        <ele>226.8</ele>
        <time>2022-02-19T14:27:37Z</time>
      </trkpt>
      <trkpt lat="44.25926" lon="1.77924">
        <ele>226.9</ele>
        <time>2022-02-19T14:27:38Z</time>
      </trkpt>
      <trkpt lat="44.25928" lon="1.77925">
        <ele>227</ele>
        <time>2022-02-19T14:27:39Z</time>
      </trkpt>
      <trkpt lat="44.2593" lon="1.77926">
        <ele>227.1</ele>
        <time>2022-02-19T14:27:40Z</time>
      </trkpt>
      <trkpt lat="44.25932" lon="1.77928">
        <ele>227.3</ele>
        <time>2022-02-19T14:27:41Z</time>
      </trkpt>
      <trkpt lat="44.25933" lon="1.77928">
        <ele>227.3</ele>
        <time>2022-02-19T14:27:42Z</time>
      </trkpt>
      <trkpt lat="44.25934" lon="1.77931">
        <ele>227.4</ele>
        <time>2022-02-19T14:27:43Z</time>
      </trkpt>
      <trkpt lat="44.25936" lon="1.77934">
        <ele>227.5</ele>
        <time>2022-02-19T14:27:45Z</time>
      </trkpt>
      <trkpt lat="44.25939" lon="1.77936">
        <ele>227.6</ele>
        <time>2022-02-19T14:27:46Z</time>
      </trkpt>
      <trkpt lat="44.25941" lon="1.77939">
        <ele>227.7</ele>
        <time>2022-02-19T14:27:47Z</time>
      </trkpt>
      <trkpt lat="44.25941" lon="1.7794">
        <ele>227.8</ele>
        <time>2022-02-19T14:27:48Z</time>
      </trkpt>
      <trkpt lat="44.25944" lon="1.77944">
        <ele>227.9</ele>
        <time>2022-02-19T14:27:49Z</time>
      </trkpt>
      <trkpt lat="44.25944" lon="1.77946">
        <ele>227.9</ele>
        <time>2022-02-19T14:27:50Z</time>
      </trkpt>
      <trkpt lat="44.25945" lon="1.77948">
        <ele>228</ele>
        <time>2022-02-19T14:27:51Z</time>
      </trkpt>
      <trkpt lat="44.25946" lon="1.77951">
        <ele>228</ele>
        <time>2022-02-19T14:27:53Z</time>
      </trkpt>
      <trkpt lat="44.25947" lon="1.77951">
        <ele>228.1</ele>
        <time>2022-02-19T14:27:54Z</time>
      </trkpt>
      <trkpt lat="44.25947" lon="1.77951">
        <ele>228.1</ele>
        <time>2022-02-19T14:27:55Z</time>
      </trkpt>
      <trkpt lat="44.25946" lon="1.7795">
        <ele>228.1</ele>
        <time>2022-02-19T14:27:57Z</time>
      </trkpt>
      <trkpt lat="44.25946" lon="1.7795">
        <ele>228.1</ele>
        <time>2022-02-19T14:27:58Z</time>
      </trkpt>
      <trkpt lat="44.25946" lon="1.7795">
        <ele>228.1</ele>
        <time>2022-02-19T14:27:59Z</time>
      </trkpt>
      <trkpt lat="44.25946" lon="1.7795">
        <ele>228.1</ele>
        <time>2022-02-19T14:28:00Z</time>
      </trkpt>
      <trkpt lat="44.25946" lon="1.7795">
        <ele>228.1</ele>
        <time>2022-02-19T14:28:01Z</time>
      </trkpt>
      <trkpt lat="44.25953" lon="1.77953">
        <ele>228.3</ele>
        <time>2022-02-19T14:32:03Z</time>
      </trkpt>
      <trkpt lat="44.25955" lon="1.77956">
        <ele>228.3</ele>
        <time>2022-02-19T14:32:04Z</time>
      </trkpt>
      <trkpt lat="44.25957" lon="1.77959">
        <ele>228.4</ele>
        <time>2022-02-19T14:32:05Z</time>
      </trkpt>
      <trkpt lat="44.25957" lon="1.7796">
        <ele>228.4</ele>
        <time>2022-02-19T14:32:06Z</time>
      </trkpt>
      <trkpt lat="44.25959" lon="1.77963">
        <ele>228.5</ele>
        <time>2022-02-19T14:32:07Z</time>
      </trkpt>
      <trkpt lat="44.25959" lon="1.77965">
        <ele>228.6</ele>
        <time>2022-02-19T14:32:08Z</time>
      </trkpt>
      <trkpt lat="44.2596" lon="1.77967">
        <ele>228.6</ele>
        <time>2022-02-19T14:32:09Z</time>
      </trkpt>
      <trkpt lat="44.25964" lon="1.77971">
        <ele>228.8</ele>
        <time>2022-02-19T14:32:11Z</time>
      </trkpt>
      <trkpt lat="44.25966" lon="1.77973">
        <ele>228.9</ele>
        <time>2022-02-19T14:32:12Z</time>
      </trkpt>
      <trkpt lat="44.25967" lon="1.77974">
        <ele>229</ele>
        <time>2022-02-19T14:32:13Z</time>
      </trkpt>
      <trkpt lat="44.2597" lon="1.77977">
        <ele>229.1</ele>
        <time>2022-02-19T14:32:14Z</time>
      </trkpt>
      <trkpt lat="44.25974" lon="1.77981">
        <ele>229.4</ele>
        <time>2022-02-19T14:32:16Z</time>
      </trkpt>
      <trkpt lat="44.25976" lon="1.77981">
        <ele>229.5</ele>
        <time>2022-02-19T14:32:17Z</time>
      </trkpt>
      <trkpt lat="44.25978" lon="1.77982">
        <ele>229.6</ele>
        <time>2022-02-19T14:32:18Z</time>
      </trkpt>
      <trkpt lat="44.2598" lon="1.77983">
        <ele>229.7</ele>
        <time>2022-02-19T14:32:19Z</time>
      </trkpt>
      <trkpt lat="44.25984" lon="1.77984">
        <ele>229.8</ele>
        <time>2022-02-19T14:32:20Z</time>
      </trkpt>
      <trkpt lat="44.25987" lon="1.77985">
        <ele>230</ele>
        <time>2022-02-19T14:32:21Z</time>
      </trkpt>
      <trkpt lat="44.25992" lon="1.77985">
        <ele>230</ele>
        <time>2022-02-19T14:32:22Z</time>
      </trkpt>
      <trkpt lat="44.25996" lon="1.77986">
        <ele>230</ele>
        <time>2022-02-19T14:32:24Z</time>
      </trkpt>
      <trkpt lat="44.25998" lon="1.77987">
        <ele>230</ele>
        <time>2022-02-19T14:32:25Z</time>
      </trkpt>
      <trkpt lat="44.25999" lon="1.77987">
        <ele>230</ele>
        <time>2022-02-19T14:32:26Z</time>
      </trkpt>
      <trkpt lat="44.26004" lon="1.77988">
        <ele>229.8</ele>
        <time>2022-02-19T14:32:27Z</time>
      </trkpt>
      <trkpt lat="44.26005" lon="1.77989">
        <ele>229.8</ele>
        <time>2022-02-19T14:32:28Z</time>
      </trkpt>
      <trkpt lat="44.2601" lon="1.7799">
        <ele>229.6</ele>
        <time>2022-02-19T14:32:29Z</time>
      </trkpt>
      <trkpt lat="44.26014" lon="1.77992">
        <ele>229.5</ele>
        <time>2022-02-19T14:32:30Z</time>
      </trkpt>
      <trkpt lat="44.26017" lon="1.77993">
        <ele>229.4</ele>
        <time>2022-02-19T14:32:31Z</time>
      </trkpt>
      <trkpt lat="44.26021" lon="1.77994">
        <ele>229.2</ele>
        <time>2022-02-19T14:32:32Z</time>
      </trkpt>
      <trkpt lat="44.26023" lon="1.77995">
        <ele>229.2</ele>
        <time>2022-02-19T14:32:33Z</time>
      </trkpt>
      <trkpt lat="44.26026" lon="1.77995">
        <ele>229.2</ele>
        <time>2022-02-19T14:32:34Z</time>
      </trkpt>
      <trkpt lat="44.2603" lon="1.77995">
        <ele>229.1</ele>
        <time>2022-02-19T14:32:35Z</time>
      </trkpt>
      <trkpt lat="44.26034" lon="1.77994">
        <ele>229.1</ele>
        <time>2022-02-19T14:32:37Z</time>
      </trkpt>
      <trkpt lat="44.26038" lon="1.77995">
        <ele>229.1</ele>
        <time>2022-02-19T14:32:38Z</time>
      </trkpt>
      <trkpt lat="44.26041" lon="1.77995">
        <ele>229.1</ele>
        <time>2022-02-19T14:32:39Z</time>
      </trkpt>
      <trkpt lat="44.26044" lon="1.77996">
        <ele>229.1</ele>
        <time>2022-02-19T14:32:40Z</time>
      </trkpt>
      <trkpt lat="44.26047" lon="1.77995">
        <ele>229.1</ele>
        <time>2022-02-19T14:32:42Z</time>
      </trkpt>
      <trkpt lat="44.26051" lon="1.77994">
        <ele>229.3</ele>
        <time>2022-02-19T14:32:43Z</time>
      </trkpt>
      <trkpt lat="44.26054" lon="1.77994">
        <ele>229.5</ele>
        <time>2022-02-19T14:32:44Z</time>
      </trkpt>
      <trkpt lat="44.26056" lon="1.77994">
        <ele>229.6</ele>
        <time>2022-02-19T14:32:45Z</time>
      </trkpt>
      <trkpt lat="44.26057" lon="1.77994">
        <ele>229.6</ele>
        <time>2022-02-19T14:32:47Z</time>
      </trkpt>
      <trkpt lat="44.26057" lon="1.77995">
        <ele>229.6</ele>
        <time>2022-02-19T14:32:48Z</time>
      </trkpt>
      <trkpt lat="44.26058" lon="1.77995">
        <ele>229.6</ele>
        <time>2022-02-19T14:32:49Z</time>
      </trkpt>
      <trkpt lat="44.26058" lon="1.77995">
        <ele>229.7</ele>
        <time>2022-02-19T14:32:50Z</time>
      </trkpt>
      <trkpt lat="44.26059" lon="1.77995">
        <ele>229.7</ele>
        <time>2022-02-19T14:32:51Z</time>
      </trkpt>
      <trkpt lat="44.26059" lon="1.77995">
        <ele>229.7</ele>
        <time>2022-02-19T14:32:52Z</time>
      </trkpt>
      <trkpt lat="44.26059" lon="1.77995">
        <ele>229.7</ele>
        <time>2022-02-19T14:32:53Z</time>
      </trkpt>
      <trkpt lat="44.2606" lon="1.77996">
        <ele>229.8</ele>
        <time>2022-02-19T14:32:54Z</time>
      </trkpt>
      <trkpt lat="44.2606" lon="1.77996">
        <ele>229.8</ele>
        <time>2022-02-19T14:32:55Z</time>
      </trkpt>
      <trkpt lat="44.26064" lon="1.77995">
        <ele>230.1</ele>
        <time>2022-02-19T14:32:56Z</time>
      </trkpt>
      <trkpt lat="44.26068" lon="1.77994">
        <ele>230.4</ele>
        <time>2022-02-19T14:32:57Z</time>
      </trkpt>
      <trkpt lat="44.26072" lon="1.77992">
        <ele>230.7</ele>
        <time>2022-02-19T14:32:58Z</time>
      </trkpt>
      <trkpt lat="44.26075" lon="1.77991">
        <ele>231</ele>
        <time>2022-02-19T14:32:59Z</time>
      </trkpt>
      <trkpt lat="44.26076" lon="1.77991">
        <ele>231.1</ele>
        <time>2022-02-19T14:33:00Z</time>
      </trkpt>
      <trkpt lat="44.26079" lon="1.77989">
        <ele>231.4</ele>
        <time>2022-02-19T14:33:02Z</time>
      </trkpt>
      <trkpt lat="44.26079" lon="1.77989">
        <ele>231.5</ele>
        <time>2022-02-19T14:33:03Z</time>
      </trkpt>
      <trkpt lat="44.26081" lon="1.77988">
        <ele>231.7</ele>
        <time>2022-02-19T14:33:04Z</time>
      </trkpt>
      <trkpt lat="44.26082" lon="1.77987">
        <ele>231.8</ele>
        <time>2022-02-19T14:33:05Z</time>
      </trkpt>
      <trkpt lat="44.26084" lon="1.77986">
        <ele>232</ele>
        <time>2022-02-19T14:33:06Z</time>
      </trkpt>
      <trkpt lat="44.26086" lon="1.77985">
        <ele>232.3</ele>
        <time>2022-02-19T14:33:07Z</time>
      </trkpt>
      <trkpt lat="44.26087" lon="1.77984">
        <ele>232.4</ele>
        <time>2022-02-19T14:33:08Z</time>
      </trkpt>
      <trkpt lat="44.26089" lon="1.77983">
        <ele>232.6</ele>
        <time>2022-02-19T14:33:10Z</time>
      </trkpt>
      <trkpt lat="44.2609" lon="1.77983">
        <ele>232.7</ele>
        <time>2022-02-19T14:33:11Z</time>
      </trkpt>
      <trkpt lat="44.26091" lon="1.77983">
        <ele>232.8</ele>
        <time>2022-02-19T14:33:12Z</time>
      </trkpt>
      <trkpt lat="44.26093" lon="1.77982">
        <ele>233</ele>
        <time>2022-02-19T14:33:14Z</time>
      </trkpt>
      <trkpt lat="44.26094" lon="1.77981">
        <ele>233.2</ele>
        <time>2022-02-19T14:33:15Z</time>
      </trkpt>
      <trkpt lat="44.26095" lon="1.77981">
        <ele>233.4</ele>
        <time>2022-02-19T14:33:16Z</time>
      </trkpt>
      <trkpt lat="44.26096" lon="1.7798">
        <ele>233.5</ele>
        <time>2022-02-19T14:33:18Z</time>
      </trkpt>
      <trkpt lat="44.261" lon="1.77977">
        <ele>234</ele>
        <time>2022-02-19T14:33:21Z</time>
      </trkpt>
      <trkpt lat="44.26105" lon="1.77974">
        <ele>234.6</ele>
        <time>2022-02-19T14:33:22Z</time>
      </trkpt>
      <trkpt lat="44.26107" lon="1.77972">
        <ele>234.9</ele>
        <time>2022-02-19T14:33:23Z</time>
      </trkpt>
      <trkpt lat="44.26111" lon="1.77969">
        <ele>235.4</ele>
        <time>2022-02-19T14:33:24Z</time>
      </trkpt>
      <trkpt lat="44.26114" lon="1.77967">
        <ele>235.9</ele>
        <time>2022-02-19T14:33:25Z</time>
      </trkpt>
      <trkpt lat="44.26115" lon="1.77966">
        <ele>236</ele>
        <time>2022-02-19T14:33:26Z</time>
      </trkpt>
      <trkpt lat="44.26117" lon="1.77966">
        <ele>236.3</ele>
        <time>2022-02-19T14:33:28Z</time>
      </trkpt>
      <trkpt lat="44.26118" lon="1.77965">
        <ele>236.4</ele>
        <time>2022-02-19T14:33:29Z</time>
      </trkpt>
      <trkpt lat="44.26119" lon="1.77965">
        <ele>236.6</ele>
        <time>2022-02-19T14:33:30Z</time>
      </trkpt>
      <trkpt lat="44.26121" lon="1.77964">
        <ele>236.8</ele>
        <time>2022-02-19T14:33:32Z</time>
      </trkpt>
      <trkpt lat="44.26122" lon="1.77963">
        <ele>237</ele>
        <time>2022-02-19T14:33:33Z</time>
      </trkpt>
      <trkpt lat="44.26136" lon="1.77954">
        <ele>238.9</ele>
        <time>2022-02-19T14:33:41Z</time>
      </trkpt>
      <trkpt lat="44.26137" lon="1.77953">
        <ele>239.1</ele>
        <time>2022-02-19T14:33:42Z</time>
      </trkpt>
      <trkpt lat="44.26139" lon="1.77951">
        <ele>239.3</ele>
        <time>2022-02-19T14:33:43Z</time>
      </trkpt>
      <trkpt lat="44.26143" lon="1.77948">
        <ele>239.9</ele>
        <time>2022-02-19T14:33:45Z</time>
      </trkpt>
      <trkpt lat="44.26146" lon="1.77946">
        <ele>240.3</ele>
        <time>2022-02-19T14:33:46Z</time>
      </trkpt>
      <trkpt lat="44.2615" lon="1.77944">
        <ele>240.8</ele>
        <time>2022-02-19T14:33:47Z</time>
      </trkpt>
      <trkpt lat="44.26151" lon="1.77943">
        <ele>241</ele>
        <time>2022-02-19T14:33:48Z</time>
      </trkpt>
      <trkpt lat="44.26154" lon="1.77942">
        <ele>241.3</ele>
        <time>2022-02-19T14:33:49Z</time>
      </trkpt>
      <trkpt lat="44.26157" lon="1.7794">
        <ele>241.6</ele>
        <time>2022-02-19T14:33:51Z</time>
      </trkpt>
      <trkpt lat="44.26159" lon="1.77939">
        <ele>242</ele>
        <time>2022-02-19T14:33:52Z</time>
      </trkpt>
      <trkpt lat="44.26162" lon="1.77937">
        <ele>242.3</ele>
        <time>2022-02-19T14:33:53Z</time>
      </trkpt>
      <trkpt lat="44.26163" lon="1.77937">
        <ele>242.4</ele>
        <time>2022-02-19T14:33:54Z</time>
      </trkpt>
      <trkpt lat="44.26165" lon="1.77936">
        <ele>242.7</ele>
        <time>2022-02-19T14:33:55Z</time>
      </trkpt>
      <trkpt lat="44.26166" lon="1.77936">
        <ele>242.8</ele>
        <time>2022-02-19T14:33:56Z</time>
      </trkpt>
      <trkpt lat="44.26167" lon="1.77936">
        <ele>242.9</ele>
        <time>2022-02-19T14:33:57Z</time>
      </trkpt>
      <trkpt lat="44.26171" lon="1.77935">
        <ele>243.4</ele>
        <time>2022-02-19T14:33:58Z</time>
      </trkpt>
      <trkpt lat="44.26173" lon="1.77934">
        <ele>243.7</ele>
        <time>2022-02-19T14:33:59Z</time>
      </trkpt>
      <trkpt lat="44.26175" lon="1.77934">
        <ele>243.9</ele>
        <time>2022-02-19T14:34:00Z</time>
      </trkpt>
      <trkpt lat="44.26179" lon="1.77934">
        <ele>244.3</ele>
        <time>2022-02-19T14:34:02Z</time>
      </trkpt>
      <trkpt lat="44.26181" lon="1.77933">
        <ele>244.6</ele>
        <time>2022-02-19T14:34:03Z</time>
      </trkpt>
      <trkpt lat="44.26182" lon="1.77933">
        <ele>244.8</ele>
        <time>2022-02-19T14:34:04Z</time>
      </trkpt>
      <trkpt lat="44.26186" lon="1.77931">
        <ele>245.2</ele>
        <time>2022-02-19T14:34:05Z</time>
      </trkpt>
      <trkpt lat="44.26187" lon="1.77931">
        <ele>245.4</ele>
        <time>2022-02-19T14:34:06Z</time>
      </trkpt>
      <trkpt lat="44.2619" lon="1.7793">
        <ele>245.7</ele>
        <time>2022-02-19T14:34:07Z</time>
      </trkpt>
      <trkpt lat="44.26192" lon="1.77929">
        <ele>246</ele>
        <time>2022-02-19T14:34:09Z</time>
      </trkpt>
      <trkpt lat="44.26195" lon="1.77928">
        <ele>246.5</ele>
        <time>2022-02-19T14:34:10Z</time>
      </trkpt>
      <trkpt lat="44.26196" lon="1.77928">
        <ele>246.6</ele>
        <time>2022-02-19T14:34:11Z</time>
      </trkpt>
      <trkpt lat="44.26198" lon="1.77927">
        <ele>246.9</ele>
        <time>2022-02-19T14:34:13Z</time>
      </trkpt>
      <trkpt lat="44.26198" lon="1.77927">
        <ele>246.9</ele>
        <time>2022-02-19T14:34:14Z</time>
      </trkpt>
      <trkpt lat="44.26199" lon="1.77926">
        <ele>247</ele>
        <time>2022-02-19T14:34:15Z</time>
      </trkpt>
      <trkpt lat="44.26199" lon="1.77926">
        <ele>247.2</ele>
        <time>2022-02-19T14:34:16Z</time>
      </trkpt>
      <trkpt lat="44.262" lon="1.77925">
        <ele>247.2</ele>
        <time>2022-02-19T14:34:17Z</time>
      </trkpt>
      <trkpt lat="44.262" lon="1.77925">
        <ele>247.3</ele>
        <time>2022-02-19T14:34:18Z</time>
      </trkpt>
      <trkpt lat="44.26201" lon="1.77925">
        <ele>247.4</ele>
        <time>2022-02-19T14:34:19Z</time>
      </trkpt>
      <trkpt lat="44.26201" lon="1.77924">
        <ele>247.4</ele>
        <time>2022-02-19T14:34:20Z</time>
      </trkpt>
      <trkpt lat="44.26201" lon="1.77924">
        <ele>247.5</ele>
        <time>2022-02-19T14:34:21Z</time>
      </trkpt>
      <trkpt lat="44.26202" lon="1.77924">
        <ele>247.6</ele>
        <time>2022-02-19T14:34:22Z</time>
      </trkpt>
      <trkpt lat="44.26204" lon="1.77923">
        <ele>247.9</ele>
        <time>2022-02-19T14:34:23Z</time>
      </trkpt>
      <trkpt lat="44.26212" lon="1.77926">
        <ele>249.3</ele>
        <time>2022-02-19T14:34:25Z</time>
      </trkpt>
      <trkpt lat="44.26219" lon="1.77928">
        <ele>255.6</ele>
        <time>2022-02-19T14:42:10Z</time>
      </trkpt>
      <trkpt lat="44.26225" lon="1.77931">
        <ele>256.7</ele>
        <time>2022-02-19T14:42:11Z</time>
      </trkpt>
      <trkpt lat="44.26221" lon="1.77938">
        <ele>257.5</ele>
        <time>2022-02-19T14:42:12Z</time>
      </trkpt>
      <trkpt lat="44.26219" lon="1.77942">
        <ele>258</ele>
        <time>2022-02-19T14:42:13Z</time>
      </trkpt>
      <trkpt lat="44.26219" lon="1.77943">
        <ele>258.1</ele>
        <time>2022-02-19T14:42:14Z</time>
      </trkpt>
      <trkpt lat="44.26216" lon="1.77947">
        <ele>258.5</ele>
        <time>2022-02-19T14:42:15Z</time>
      </trkpt>
      <trkpt lat="44.26215" lon="1.77948">
        <ele>258.7</ele>
        <time>2022-02-19T14:42:16Z</time>
      </trkpt>
      <trkpt lat="44.26214" lon="1.7795">
        <ele>258.9</ele>
        <time>2022-02-19T14:42:18Z</time>
      </trkpt>
      <trkpt lat="44.26213" lon="1.77952">
        <ele>259.1</ele>
        <time>2022-02-19T14:42:19Z</time>
      </trkpt>
      <trkpt lat="44.26211" lon="1.77953">
        <ele>259.3</ele>
        <time>2022-02-19T14:42:20Z</time>
      </trkpt>
      <trkpt lat="44.26209" lon="1.77957">
        <ele>259.7</ele>
        <time>2022-02-19T14:42:22Z</time>
      </trkpt>
      <trkpt lat="44.26207" lon="1.77959">
        <ele>260.1</ele>
        <time>2022-02-19T14:42:23Z</time>
      </trkpt>
      <trkpt lat="44.26205" lon="1.77962">
        <ele>260.5</ele>
        <time>2022-02-19T14:42:24Z</time>
      </trkpt>
      <trkpt lat="44.26203" lon="1.77965">
        <ele>260.9</ele>
        <time>2022-02-19T14:42:25Z</time>
      </trkpt>
      <trkpt lat="44.26202" lon="1.77967">
        <ele>261.2</ele>
        <time>2022-02-19T14:42:26Z</time>
      </trkpt>
      <trkpt lat="44.26201" lon="1.77969">
        <ele>261.4</ele>
        <time>2022-02-19T14:42:28Z</time>
      </trkpt>
      <trkpt lat="44.26201" lon="1.7797">
        <ele>261.6</ele>
        <time>2022-02-19T14:42:29Z</time>
      </trkpt>
      <trkpt lat="44.26199" lon="1.77975">
        <ele>262.2</ele>
        <time>2022-02-19T14:42:30Z</time>
      </trkpt>
      <trkpt lat="44.26199" lon="1.77977">
        <ele>262.5</ele>
        <time>2022-02-19T14:42:31Z</time>
      </trkpt>
      <trkpt lat="44.26199" lon="1.7798">
        <ele>262.9</ele>
        <time>2022-02-19T14:42:32Z</time>
      </trkpt>
      <trkpt lat="44.26199" lon="1.77985">
        <ele>263.6</ele>
        <time>2022-02-19T14:42:34Z</time>
      </trkpt>
      <trkpt lat="44.26199" lon="1.77989">
        <ele>264.1</ele>
        <time>2022-02-19T14:42:35Z</time>
      </trkpt>
      <trkpt lat="44.26199" lon="1.77991">
        <ele>264.4</ele>
        <time>2022-02-19T14:42:36Z</time>
      </trkpt>
      <trkpt lat="44.26199" lon="1.77993">
        <ele>264.6</ele>
        <time>2022-02-19T14:42:37Z</time>
      </trkpt>
      <trkpt lat="44.26199" lon="1.77998">
        <ele>265.3</ele>
        <time>2022-02-19T14:42:38Z</time>
      </trkpt>
      <trkpt lat="44.26199" lon="1.78">
        <ele>265.5</ele>
        <time>2022-02-19T14:42:39Z</time>
      </trkpt>
      <trkpt lat="44.26198" lon="1.78004">
        <ele>266.1</ele>
        <time>2022-02-19T14:42:41Z</time>
      </trkpt>
      <trkpt lat="44.26198" lon="1.78005">
        <ele>266.3</ele>
        <time>2022-02-19T14:42:42Z</time>
      </trkpt>
      <trkpt lat="44.26198" lon="1.78009">
        <ele>266.8</ele>
        <time>2022-02-19T14:42:43Z</time>
      </trkpt>
      <trkpt lat="44.26198" lon="1.78011">
        <ele>267</ele>
        <time>2022-02-19T14:42:44Z</time>
      </trkpt>
      <trkpt lat="44.26198" lon="1.78013">
        <ele>267.3</ele>
        <time>2022-02-19T14:42:45Z</time>
      </trkpt>
      <trkpt lat="44.26198" lon="1.78014">
        <ele>267.5</ele>
        <time>2022-02-19T14:42:47Z</time>
      </trkpt>
      <trkpt lat="44.26198" lon="1.78016">
        <ele>267.7</ele>
        <time>2022-02-19T14:42:48Z</time>
      </trkpt>
      <trkpt lat="44.26198" lon="1.78017">
        <ele>267.9</ele>
        <time>2022-02-19T14:42:49Z</time>
      </trkpt>
      <trkpt lat="44.26198" lon="1.78019">
        <ele>268.1</ele>
        <time>2022-02-19T14:42:50Z</time>
      </trkpt>
      <trkpt lat="44.26198" lon="1.7802">
        <ele>268.2</ele>
        <time>2022-02-19T14:42:51Z</time>
      </trkpt>
      <trkpt lat="44.26198" lon="1.78022">
        <ele>268.4</ele>
        <time>2022-02-19T14:42:52Z</time>
      </trkpt>
      <trkpt lat="44.26198" lon="1.78023">
        <ele>268.6</ele>
        <time>2022-02-19T14:42:53Z</time>
      </trkpt>
      <trkpt lat="44.26198" lon="1.78025">
        <ele>268.8</ele>
        <time>2022-02-19T14:42:55Z</time>
      </trkpt>
      <trkpt lat="44.26198" lon="1.78026">
        <ele>269</ele>
        <time>2022-02-19T14:43:02Z</time>
      </trkpt>
      <trkpt lat="44.26198" lon="1.78027">
        <ele>269.2</ele>
        <time>2022-02-19T14:43:03Z</time>
      </trkpt>
      <trkpt lat="44.26196" lon="1.78033">
        <ele>270</ele>
        <time>2022-02-19T14:43:05Z</time>
      </trkpt>
      <trkpt lat="44.26196" lon="1.78035">
        <ele>270.3</ele>
        <time>2022-02-19T14:43:06Z</time>
      </trkpt>
      <trkpt lat="44.26195" lon="1.78037">
        <ele>270.6</ele>
        <time>2022-02-19T14:43:07Z</time>
      </trkpt>
      <trkpt lat="44.26195" lon="1.78038">
        <ele>270.7</ele>
        <time>2022-02-19T14:43:08Z</time>
      </trkpt>
      <trkpt lat="44.26195" lon="1.78038">
        <ele>270.8</ele>
        <time>2022-02-19T14:43:09Z</time>
      </trkpt>
      <trkpt lat="44.26195" lon="1.7804">
        <ele>270.9</ele>
        <time>2022-02-19T14:43:10Z</time>
      </trkpt>
      <trkpt lat="44.26195" lon="1.7804">
        <ele>271</ele>
        <time>2022-02-19T14:43:11Z</time>
      </trkpt>
      <trkpt lat="44.26195" lon="1.78041">
        <ele>271.1</ele>
        <time>2022-02-19T14:43:13Z</time>
      </trkpt>
      <trkpt lat="44.26195" lon="1.78041">
        <ele>271.2</ele>
        <time>2022-02-19T14:43:14Z</time>
      </trkpt>
      <trkpt lat="44.26195" lon="1.78042">
        <ele>271.2</ele>
        <time>2022-02-19T14:43:15Z</time>
      </trkpt>
      <trkpt lat="44.26194" lon="1.78042">
        <ele>271.2</ele>
        <time>2022-02-19T14:43:16Z</time>
      </trkpt>
      <trkpt lat="44.26194" lon="1.78042">
        <ele>271.3</ele>
        <time>2022-02-19T14:43:17Z</time>
      </trkpt>
      <trkpt lat="44.26192" lon="1.78057">
        <ele>273.3</ele>
        <time>2022-02-19T14:43:20Z</time>
      </trkpt>
      <trkpt lat="44.26191" lon="1.78062">
        <ele>274</ele>
        <time>2022-02-19T14:43:22Z</time>
      </trkpt>
      <trkpt lat="44.26191" lon="1.78064">
        <ele>274.2</ele>
        <time>2022-02-19T14:43:24Z</time>
      </trkpt>
      <trkpt lat="44.2619" lon="1.78065">
        <ele>274.4</ele>
        <time>2022-02-19T14:43:25Z</time>
      </trkpt>
      <trkpt lat="44.2619" lon="1.78067">
        <ele>274.6</ele>
        <time>2022-02-19T14:43:27Z</time>
      </trkpt>
      <trkpt lat="44.2619" lon="1.78069">
        <ele>274.9</ele>
        <time>2022-02-19T14:43:28Z</time>
      </trkpt>
      <trkpt lat="44.26189" lon="1.7807">
        <ele>275.1</ele>
        <time>2022-02-19T14:43:29Z</time>
      </trkpt>
      <trkpt lat="44.26189" lon="1.78072">
        <ele>275.3</ele>
        <time>2022-02-19T14:43:30Z</time>
      </trkpt>
      <trkpt lat="44.26188" lon="1.78075">
        <ele>275.8</ele>
        <time>2022-02-19T14:43:31Z</time>
      </trkpt>
      <trkpt lat="44.26188" lon="1.78077">
        <ele>276</ele>
        <time>2022-02-19T14:43:32Z</time>
      </trkpt>
      <trkpt lat="44.26188" lon="1.78079">
        <ele>276.2</ele>
        <time>2022-02-19T14:43:33Z</time>
      </trkpt>
      <trkpt lat="44.26187" lon="1.7808">
        <ele>276.4</ele>
        <time>2022-02-19T14:43:34Z</time>
      </trkpt>
      <trkpt lat="44.26187" lon="1.78082">
        <ele>276.6</ele>
        <time>2022-02-19T14:43:35Z</time>
      </trkpt>
      <trkpt lat="44.26187" lon="1.78087">
        <ele>277.3</ele>
        <time>2022-02-19T14:43:37Z</time>
      </trkpt>
      <trkpt lat="44.26187" lon="1.78089">
        <ele>277.6</ele>
        <time>2022-02-19T14:43:38Z</time>
      </trkpt>
      <trkpt lat="44.26186" lon="1.78092">
        <ele>277.9</ele>
        <time>2022-02-19T14:43:40Z</time>
      </trkpt>
      <trkpt lat="44.26186" lon="1.78096">
        <ele>278.5</ele>
        <time>2022-02-19T14:43:41Z</time>
      </trkpt>
      <trkpt lat="44.26185" lon="1.78097">
        <ele>278.7</ele>
        <time>2022-02-19T14:43:42Z</time>
      </trkpt>
      <trkpt lat="44.26185" lon="1.78099">
        <ele>279</ele>
        <time>2022-02-19T14:43:43Z</time>
      </trkpt>
      <trkpt lat="44.26184" lon="1.781">
        <ele>279.2</ele>
        <time>2022-02-19T14:43:45Z</time>
      </trkpt>
      <trkpt lat="44.26184" lon="1.78103">
        <ele>279.5</ele>
        <time>2022-02-19T14:43:46Z</time>
      </trkpt>
      <trkpt lat="44.26184" lon="1.78105">
        <ele>279.8</ele>
        <time>2022-02-19T14:43:47Z</time>
      </trkpt>
      <trkpt lat="44.26182" lon="1.78109">
        <ele>280.5</ele>
        <time>2022-02-19T14:43:48Z</time>
      </trkpt>
      <trkpt lat="44.26182" lon="1.78111">
        <ele>280.7</ele>
        <time>2022-02-19T14:43:49Z</time>
      </trkpt>
      <trkpt lat="44.26181" lon="1.78113">
        <ele>281</ele>
        <time>2022-02-19T14:43:51Z</time>
      </trkpt>
      <trkpt lat="44.2618" lon="1.78116">
        <ele>281.4</ele>
        <time>2022-02-19T14:43:53Z</time>
      </trkpt>
      <trkpt lat="44.2618" lon="1.78116">
        <ele>281.4</ele>
        <time>2022-02-19T14:43:54Z</time>
      </trkpt>
      <trkpt lat="44.2618" lon="1.78117">
        <ele>281.6</ele>
        <time>2022-02-19T14:43:55Z</time>
      </trkpt>
      <trkpt lat="44.26179" lon="1.78118">
        <ele>281.7</ele>
        <time>2022-02-19T14:43:57Z</time>
      </trkpt>
      <trkpt lat="44.26179" lon="1.7812">
        <ele>281.9</ele>
        <time>2022-02-19T14:43:58Z</time>
      </trkpt>
      <trkpt lat="44.26179" lon="1.78124">
        <ele>282.4</ele>
        <time>2022-02-19T14:43:59Z</time>
      </trkpt>
      <trkpt lat="44.26179" lon="1.78125">
        <ele>282.5</ele>
        <time>2022-02-19T14:44:00Z</time>
      </trkpt>
      <trkpt lat="44.26179" lon="1.7813">
        <ele>283</ele>
        <time>2022-02-19T14:44:01Z</time>
      </trkpt>
      <trkpt lat="44.26178" lon="1.78135">
        <ele>283.4</ele>
        <time>2022-02-19T14:44:02Z</time>
      </trkpt>
      <trkpt lat="44.26178" lon="1.78136">
        <ele>283.5</ele>
        <time>2022-02-19T14:44:03Z</time>
      </trkpt>
      <trkpt lat="44.26177" lon="1.7814">
        <ele>283.9</ele>
        <time>2022-02-19T14:44:06Z</time>
      </trkpt>
      <trkpt lat="44.26177" lon="1.78142">
        <ele>284</ele>
        <time>2022-02-19T14:44:07Z</time>
      </trkpt>
      <trkpt lat="44.26177" lon="1.78144">
        <ele>284.2</ele>
        <time>2022-02-19T14:44:08Z</time>
      </trkpt>
      <trkpt lat="44.26176" lon="1.78148">
        <ele>284.5</ele>
        <time>2022-02-19T14:44:10Z</time>
      </trkpt>
      <trkpt lat="44.26176" lon="1.7815">
        <ele>284.6</ele>
        <time>2022-02-19T14:44:11Z</time>
      </trkpt>
      <trkpt lat="44.26176" lon="1.78152">
        <ele>284.8</ele>
        <time>2022-02-19T14:44:12Z</time>
      </trkpt>
      <trkpt lat="44.26176" lon="1.78154">
        <ele>284.9</ele>
        <time>2022-02-19T14:44:13Z</time>
      </trkpt>
      <trkpt lat="44.26176" lon="1.78158">
        <ele>285.2</ele>
        <time>2022-02-19T14:44:14Z</time>
      </trkpt>
      <trkpt lat="44.26177" lon="1.78159">
        <ele>285.3</ele>
        <time>2022-02-19T14:44:15Z</time>
      </trkpt>
      <trkpt lat="44.26177" lon="1.78161">
        <ele>285.4</ele>
        <time>2022-02-19T14:44:16Z</time>
      </trkpt>
      <trkpt lat="44.26177" lon="1.78164">
        <ele>285.6</ele>
        <time>2022-02-19T14:44:18Z</time>
      </trkpt>
      <trkpt lat="44.26177" lon="1.78166">
        <ele>285.8</ele>
        <time>2022-02-19T14:44:19Z</time>
      </trkpt>
      <trkpt lat="44.26177" lon="1.78168">
        <ele>285.9</ele>
        <time>2022-02-19T14:44:20Z</time>
      </trkpt>
      <trkpt lat="44.26178" lon="1.78168">
        <ele>285.9</ele>
        <time>2022-02-19T14:44:21Z</time>
      </trkpt>
      <trkpt lat="44.26178" lon="1.78171">
        <ele>286.1</ele>
        <time>2022-02-19T14:44:22Z</time>
      </trkpt>
      <trkpt lat="44.26178" lon="1.78174">
        <ele>286.3</ele>
        <time>2022-02-19T14:44:24Z</time>
      </trkpt>
      <trkpt lat="44.26178" lon="1.78178">
        <ele>286.6</ele>
        <time>2022-02-19T14:44:25Z</time>
      </trkpt>
      <trkpt lat="44.26178" lon="1.78181">
        <ele>286.7</ele>
        <time>2022-02-19T14:44:27Z</time>
      </trkpt>
      <trkpt lat="44.26178" lon="1.78183">
        <ele>286.8</ele>
        <time>2022-02-19T14:44:28Z</time>
      </trkpt>
      <trkpt lat="44.2618" lon="1.78187">
        <ele>287.2</ele>
        <time>2022-02-19T14:44:29Z</time>
      </trkpt>
      <trkpt lat="44.2618" lon="1.78188">
        <ele>287.2</ele>
        <time>2022-02-19T14:44:30Z</time>
      </trkpt>
      <trkpt lat="44.2618" lon="1.7819">
        <ele>287.4</ele>
        <time>2022-02-19T14:44:31Z</time>
      </trkpt>
      <trkpt lat="44.26181" lon="1.78192">
        <ele>287.5</ele>
        <time>2022-02-19T14:44:32Z</time>
      </trkpt>
      <trkpt lat="44.26182" lon="1.78196">
        <ele>287.8</ele>
        <time>2022-02-19T14:44:34Z</time>
      </trkpt>
      <trkpt lat="44.26183" lon="1.78198">
        <ele>287.9</ele>
        <time>2022-02-19T14:44:35Z</time>
      </trkpt>
      <trkpt lat="44.26184" lon="1.78202">
        <ele>288.2</ele>
        <time>2022-02-19T14:44:37Z</time>
      </trkpt>
      <trkpt lat="44.26184" lon="1.78204">
        <ele>288.4</ele>
        <time>2022-02-19T14:44:38Z</time>
      </trkpt>
      <trkpt lat="44.26184" lon="1.78205">
        <ele>288.5</ele>
        <time>2022-02-19T14:44:39Z</time>
      </trkpt>
      <trkpt lat="44.26185" lon="1.78207">
        <ele>288.6</ele>
        <time>2022-02-19T14:44:40Z</time>
      </trkpt>
      <trkpt lat="44.26186" lon="1.7821">
        <ele>288.8</ele>
        <time>2022-02-19T14:44:42Z</time>
      </trkpt>
      <trkpt lat="44.26186" lon="1.78213">
        <ele>289.1</ele>
        <time>2022-02-19T14:44:43Z</time>
      </trkpt>
      <trkpt lat="44.26187" lon="1.78216">
        <ele>289.3</ele>
        <time>2022-02-19T14:44:45Z</time>
      </trkpt>
      <trkpt lat="44.26188" lon="1.78217">
        <ele>289.4</ele>
        <time>2022-02-19T14:44:46Z</time>
      </trkpt>
      <trkpt lat="44.26188" lon="1.78219">
        <ele>289.5</ele>
        <time>2022-02-19T14:44:47Z</time>
      </trkpt>
      <trkpt lat="44.26189" lon="1.78221">
        <ele>289.7</ele>
        <time>2022-02-19T14:44:49Z</time>
      </trkpt>
      <trkpt lat="44.26189" lon="1.78224">
        <ele>289.9</ele>
        <time>2022-02-19T14:44:50Z</time>
      </trkpt>
      <trkpt lat="44.2619" lon="1.78225">
        <ele>290</ele>
        <time>2022-02-19T14:44:51Z</time>
      </trkpt>
      <trkpt lat="44.26191" lon="1.78226">
        <ele>290.1</ele>
        <time>2022-02-19T14:44:52Z</time>
      </trkpt>
      <trkpt lat="44.26192" lon="1.78227">
        <ele>290.3</ele>
        <time>2022-02-19T14:44:53Z</time>
      </trkpt>
      <trkpt lat="44.26194" lon="1.78229">
        <ele>290.5</ele>
        <time>2022-02-19T14:44:55Z</time>
      </trkpt>
      <trkpt lat="44.26196" lon="1.78231">
        <ele>290.7</ele>
        <time>2022-02-19T14:44:56Z</time>
      </trkpt>
      <trkpt lat="44.26196" lon="1.78232">
        <ele>290.8</ele>
        <time>2022-02-19T14:44:57Z</time>
      </trkpt>
      <trkpt lat="44.26197" lon="1.78233">
        <ele>291</ele>
        <time>2022-02-19T14:44:58Z</time>
      </trkpt>
      <trkpt lat="44.26199" lon="1.78234">
        <ele>291.1</ele>
        <time>2022-02-19T14:44:59Z</time>
      </trkpt>
      <trkpt lat="44.262" lon="1.78235">
        <ele>291.3</ele>
        <time>2022-02-19T14:45:00Z</time>
      </trkpt>
      <trkpt lat="44.26201" lon="1.78236">
        <ele>291.5</ele>
        <time>2022-02-19T14:45:01Z</time>
      </trkpt>
      <trkpt lat="44.26202" lon="1.78238">
        <ele>291.6</ele>
        <time>2022-02-19T14:45:02Z</time>
      </trkpt>
      <trkpt lat="44.26205" lon="1.7824">
        <ele>292</ele>
        <time>2022-02-19T14:45:04Z</time>
      </trkpt>
      <trkpt lat="44.26205" lon="1.78241">
        <ele>292.1</ele>
        <time>2022-02-19T14:45:05Z</time>
      </trkpt>
      <trkpt lat="44.26208" lon="1.78242">
        <ele>292.5</ele>
        <time>2022-02-19T14:45:06Z</time>
      </trkpt>
      <trkpt lat="44.2621" lon="1.78242">
        <ele>292.6</ele>
        <time>2022-02-19T14:45:09Z</time>
      </trkpt>
      <trkpt lat="44.26211" lon="1.78243">
        <ele>292.8</ele>
        <time>2022-02-19T14:45:10Z</time>
      </trkpt>
      <trkpt lat="44.26212" lon="1.78243">
        <ele>292.9</ele>
        <time>2022-02-19T14:45:11Z</time>
      </trkpt>
      <trkpt lat="44.26213" lon="1.78243">
        <ele>293.1</ele>
        <time>2022-02-19T14:45:12Z</time>
      </trkpt>
      <trkpt lat="44.26215" lon="1.78243">
        <ele>293.3</ele>
        <time>2022-02-19T14:45:13Z</time>
      </trkpt>
      <trkpt lat="44.26216" lon="1.78243">
        <ele>293.5</ele>
        <time>2022-02-19T14:45:14Z</time>
      </trkpt>
      <trkpt lat="44.26219" lon="1.78243">
        <ele>293.8</ele>
        <time>2022-02-19T14:45:16Z</time>
      </trkpt>
      <trkpt lat="44.26221" lon="1.78243">
        <ele>294.2</ele>
        <time>2022-02-19T14:45:17Z</time>
      </trkpt>
      <trkpt lat="44.26222" lon="1.78243">
        <ele>294.3</ele>
        <time>2022-02-19T14:45:18Z</time>
      </trkpt>
      <trkpt lat="44.26223" lon="1.78243">
        <ele>294.5</ele>
        <time>2022-02-19T14:45:20Z</time>
      </trkpt>
      <trkpt lat="44.26225" lon="1.78242">
        <ele>294.8</ele>
        <time>2022-02-19T14:45:21Z</time>
      </trkpt>
      <trkpt lat="44.26229" lon="1.78242">
        <ele>295.4</ele>
        <time>2022-02-19T14:45:22Z</time>
      </trkpt>
      <trkpt lat="44.2623" lon="1.78242">
        <ele>295.6</ele>
        <time>2022-02-19T14:45:23Z</time>
      </trkpt>
      <trkpt lat="44.26233" lon="1.78241">
        <ele>296.1</ele>
        <time>2022-02-19T14:45:24Z</time>
      </trkpt>
      <trkpt lat="44.26234" lon="1.78241">
        <ele>296.3</ele>
        <time>2022-02-19T14:45:25Z</time>
      </trkpt>
      <trkpt lat="44.26236" lon="1.78241">
        <ele>296.6</ele>
        <time>2022-02-19T14:45:26Z</time>
      </trkpt>
      <trkpt lat="44.26236" lon="1.78241">
        <ele>296.7</ele>
        <time>2022-02-19T14:45:27Z</time>
      </trkpt>
      <trkpt lat="44.26237" lon="1.78241">
        <ele>296.8</ele>
        <time>2022-02-19T14:45:28Z</time>
      </trkpt>
      <trkpt lat="44.26238" lon="1.78241">
        <ele>297</ele>
        <time>2022-02-19T14:45:29Z</time>
      </trkpt>
      <trkpt lat="44.26239" lon="1.78241">
        <ele>297.1</ele>
        <time>2022-02-19T14:45:30Z</time>
      </trkpt>
      <trkpt lat="44.26242" lon="1.78242">
        <ele>297.6</ele>
        <time>2022-02-19T14:45:31Z</time>
      </trkpt>
      <trkpt lat="44.26242" lon="1.78242">
        <ele>297.7</ele>
        <time>2022-02-19T14:45:32Z</time>
      </trkpt>
      <trkpt lat="44.26245" lon="1.78243">
        <ele>298.2</ele>
        <time>2022-02-19T14:45:33Z</time>
      </trkpt>
      <trkpt lat="44.26246" lon="1.78244">
        <ele>298.4</ele>
        <time>2022-02-19T14:45:34Z</time>
      </trkpt>
      <trkpt lat="44.26247" lon="1.78244">
        <ele>298.6</ele>
        <time>2022-02-19T14:45:35Z</time>
      </trkpt>
      <trkpt lat="44.26248" lon="1.78245">
        <ele>298.8</ele>
        <time>2022-02-19T14:45:36Z</time>
      </trkpt>
      <trkpt lat="44.26249" lon="1.78245">
        <ele>298.9</ele>
        <time>2022-02-19T14:45:38Z</time>
      </trkpt>
      <trkpt lat="44.26251" lon="1.78246">
        <ele>299.1</ele>
        <time>2022-02-19T14:45:39Z</time>
      </trkpt>
      <trkpt lat="44.26254" lon="1.78247">
        <ele>299.5</ele>
        <time>2022-02-19T14:45:40Z</time>
      </trkpt>
      <trkpt lat="44.26257" lon="1.78248">
        <ele>300</ele>
        <time>2022-02-19T14:45:42Z</time>
      </trkpt>
      <trkpt lat="44.26258" lon="1.78249">
        <ele>300.1</ele>
        <time>2022-02-19T14:45:43Z</time>
      </trkpt>
      <trkpt lat="44.26261" lon="1.7825">
        <ele>300.5</ele>
        <time>2022-02-19T14:45:44Z</time>
      </trkpt>
      <trkpt lat="44.26262" lon="1.78251">
        <ele>300.6</ele>
        <time>2022-02-19T14:45:45Z</time>
      </trkpt>
      <trkpt lat="44.26265" lon="1.78251">
        <ele>300.9</ele>
        <time>2022-02-19T14:45:46Z</time>
      </trkpt>
      <trkpt lat="44.26266" lon="1.78251">
        <ele>301</ele>
        <time>2022-02-19T14:45:47Z</time>
      </trkpt>
      <trkpt lat="44.26268" lon="1.78251">
        <ele>301.2</ele>
        <time>2022-02-19T14:45:48Z</time>
      </trkpt>
      <trkpt lat="44.26269" lon="1.78251">
        <ele>301.3</ele>
        <time>2022-02-19T14:45:50Z</time>
      </trkpt>
      <trkpt lat="44.2627" lon="1.78252">
        <ele>301.4</ele>
        <time>2022-02-19T14:45:51Z</time>
      </trkpt>
      <trkpt lat="44.26271" lon="1.78252">
        <ele>301.4</ele>
        <time>2022-02-19T14:45:52Z</time>
      </trkpt>
      <trkpt lat="44.26271" lon="1.78252">
        <ele>301.5</ele>
        <time>2022-02-19T14:45:53Z</time>
      </trkpt>
      <trkpt lat="44.26272" lon="1.78252">
        <ele>301.6</ele>
        <time>2022-02-19T14:45:54Z</time>
      </trkpt>
      <trkpt lat="44.26273" lon="1.78253">
        <ele>301.7</ele>
        <time>2022-02-19T14:45:55Z</time>
      </trkpt>
      <trkpt lat="44.26274" lon="1.78253">
        <ele>301.8</ele>
        <time>2022-02-19T14:45:56Z</time>
      </trkpt>
      <trkpt lat="44.26275" lon="1.78253">
        <ele>301.9</ele>
        <time>2022-02-19T14:45:57Z</time>
      </trkpt>
      <trkpt lat="44.26275" lon="1.78253">
        <ele>301.9</ele>
        <time>2022-02-19T14:45:58Z</time>
      </trkpt>
      <trkpt lat="44.26276" lon="1.78254">
        <ele>302</ele>
        <time>2022-02-19T14:45:59Z</time>
      </trkpt>
      <trkpt lat="44.26277" lon="1.78254">
        <ele>302.1</ele>
        <time>2022-02-19T14:46:00Z</time>
      </trkpt>
      <trkpt lat="44.26278" lon="1.78254">
        <ele>302.2</ele>
        <time>2022-02-19T14:46:01Z</time>
      </trkpt>
      <trkpt lat="44.26279" lon="1.78254">
        <ele>302.3</ele>
        <time>2022-02-19T15:01:39Z</time>
      </trkpt>
      <trkpt lat="44.2628" lon="1.78255">
        <ele>302.4</ele>
        <time>2022-02-19T15:01:40Z</time>
      </trkpt>
      <trkpt lat="44.26283" lon="1.78256">
        <ele>302.7</ele>
        <time>2022-02-19T15:01:41Z</time>
      </trkpt>
      <trkpt lat="44.26286" lon="1.78256">
        <ele>303</ele>
        <time>2022-02-19T15:01:42Z</time>
      </trkpt>
      <trkpt lat="44.26287" lon="1.78257">
        <ele>303.1</ele>
        <time>2022-02-19T15:01:43Z</time>
      </trkpt>
      <trkpt lat="44.26288" lon="1.78257">
        <ele>303.2</ele>
        <time>2022-02-19T15:01:44Z</time>
      </trkpt>
      <trkpt lat="44.2629" lon="1.78257">
        <ele>303.4</ele>
        <time>2022-02-19T15:01:45Z</time>
      </trkpt>
      <trkpt lat="44.26291" lon="1.78258">
        <ele>303.5</ele>
        <time>2022-02-19T15:01:46Z</time>
      </trkpt>
      <trkpt lat="44.26291" lon="1.78258">
        <ele>303.6</ele>
        <time>2022-02-19T15:01:47Z</time>
      </trkpt>
      <trkpt lat="44.26292" lon="1.78259">
        <ele>303.6</ele>
        <time>2022-02-19T15:01:48Z</time>
      </trkpt>
      <trkpt lat="44.26292" lon="1.78259">
        <ele>303.7</ele>
        <time>2022-02-19T15:01:49Z</time>
      </trkpt>
      <trkpt lat="44.26292" lon="1.78259">
        <ele>303.7</ele>
        <time>2022-02-19T15:01:50Z</time>
      </trkpt>
      <trkpt lat="44.26292" lon="1.78259">
        <ele>303.7</ele>
        <time>2022-02-19T15:01:51Z</time>
      </trkpt>
      <trkpt lat="44.26292" lon="1.78259">
        <ele>303.7</ele>
        <time>2022-02-19T15:01:52Z</time>
      </trkpt>
      <trkpt lat="44.26294" lon="1.7826">
        <ele>303.9</ele>
        <time>2022-02-19T15:01:53Z</time>
      </trkpt>
      <trkpt lat="44.26296" lon="1.78262">
        <ele>304.2</ele>
        <time>2022-02-19T15:01:54Z</time>
      </trkpt>
      <trkpt lat="44.26298" lon="1.78263">
        <ele>304.4</ele>
        <time>2022-02-19T15:01:57Z</time>
      </trkpt>
      <trkpt lat="44.263" lon="1.78264">
        <ele>304.6</ele>
        <time>2022-02-19T15:01:58Z</time>
      </trkpt>
      <trkpt lat="44.26303" lon="1.78266">
        <ele>304.9</ele>
        <time>2022-02-19T15:01:59Z</time>
      </trkpt>
      <trkpt lat="44.26306" lon="1.78268">
        <ele>305.3</ele>
        <time>2022-02-19T15:02:00Z</time>
      </trkpt>
      <trkpt lat="44.26306" lon="1.78269">
        <ele>305.4</ele>
        <time>2022-02-19T15:02:01Z</time>
      </trkpt>
      <trkpt lat="44.26308" lon="1.7827">
        <ele>305.5</ele>
        <time>2022-02-19T15:02:02Z</time>
      </trkpt>
      <trkpt lat="44.26309" lon="1.78271">
        <ele>305.7</ele>
        <time>2022-02-19T15:02:03Z</time>
      </trkpt>
      <trkpt lat="44.2631" lon="1.78272">
        <ele>305.8</ele>
        <time>2022-02-19T15:02:04Z</time>
      </trkpt>
      <trkpt lat="44.26311" lon="1.78273">
        <ele>306</ele>
        <time>2022-02-19T15:02:05Z</time>
      </trkpt>
      <trkpt lat="44.26312" lon="1.78273">
        <ele>306</ele>
        <time>2022-02-19T15:02:06Z</time>
      </trkpt>
      <trkpt lat="44.26313" lon="1.78274">
        <ele>306.1</ele>
        <time>2022-02-19T15:02:07Z</time>
      </trkpt>
      <trkpt lat="44.26313" lon="1.78274">
        <ele>306.2</ele>
        <time>2022-02-19T15:02:08Z</time>
      </trkpt>
      <trkpt lat="44.26314" lon="1.78275">
        <ele>306.3</ele>
        <time>2022-02-19T15:02:09Z</time>
      </trkpt>
      <trkpt lat="44.26317" lon="1.78277">
        <ele>306.7</ele>
        <time>2022-02-19T15:02:10Z</time>
      </trkpt>
      <trkpt lat="44.26318" lon="1.78278">
        <ele>306.8</ele>
        <time>2022-02-19T15:02:11Z</time>
      </trkpt>
      <trkpt lat="44.26319" lon="1.78279">
        <ele>307</ele>
        <time>2022-02-19T15:02:12Z</time>
      </trkpt>
      <trkpt lat="44.2632" lon="1.7828">
        <ele>307.1</ele>
        <time>2022-02-19T15:02:13Z</time>
      </trkpt>
      <trkpt lat="44.26321" lon="1.78281">
        <ele>307.2</ele>
        <time>2022-02-19T15:02:14Z</time>
      </trkpt>
      <trkpt lat="44.26323" lon="1.78281">
        <ele>307.4</ele>
        <time>2022-02-19T15:02:15Z</time>
      </trkpt>
      <trkpt lat="44.26324" lon="1.78282">
        <ele>307.5</ele>
        <time>2022-02-19T15:02:16Z</time>
      </trkpt>
      <trkpt lat="44.26326" lon="1.78284">
        <ele>307.8</ele>
        <time>2022-02-19T15:02:17Z</time>
      </trkpt>
      <trkpt lat="44.26327" lon="1.78284">
        <ele>307.9</ele>
        <time>2022-02-19T15:02:18Z</time>
      </trkpt>
      <trkpt lat="44.26328" lon="1.78285">
        <ele>308</ele>
        <time>2022-02-19T15:02:19Z</time>
      </trkpt>
      <trkpt lat="44.26329" lon="1.78287">
        <ele>308.2</ele>
        <time>2022-02-19T15:02:20Z</time>
      </trkpt>
      <trkpt lat="44.2633" lon="1.78288">
        <ele>308.4</ele>
        <time>2022-02-19T15:02:21Z</time>
      </trkpt>
      <trkpt lat="44.26331" lon="1.78288">
        <ele>308.5</ele>
        <time>2022-02-19T15:02:22Z</time>
      </trkpt>
      <trkpt lat="44.26334" lon="1.7829">
        <ele>308.8</ele>
        <time>2022-02-19T15:02:23Z</time>
      </trkpt>
      <trkpt lat="44.26335" lon="1.7829">
        <ele>308.9</ele>
        <time>2022-02-19T15:02:24Z</time>
      </trkpt>
      <trkpt lat="44.26336" lon="1.78291">
        <ele>309.1</ele>
        <time>2022-02-19T15:02:25Z</time>
      </trkpt>
      <trkpt lat="44.26337" lon="1.78293">
        <ele>309.2</ele>
        <time>2022-02-19T15:02:26Z</time>
      </trkpt>
      <trkpt lat="44.26339" lon="1.78294">
        <ele>309.4</ele>
        <time>2022-02-19T15:02:27Z</time>
      </trkpt>
      <trkpt lat="44.2634" lon="1.78295">
        <ele>309.6</ele>
        <time>2022-02-19T15:02:28Z</time>
      </trkpt>
      <trkpt lat="44.26342" lon="1.78296">
        <ele>309.7</ele>
        <time>2022-02-19T15:02:29Z</time>
      </trkpt>
      <trkpt lat="44.26343" lon="1.78297">
        <ele>309.9</ele>
        <time>2022-02-19T15:02:30Z</time>
      </trkpt>
      <trkpt lat="44.26345" lon="1.78299">
        <ele>310.2</ele>
        <time>2022-02-19T15:02:31Z</time>
      </trkpt>
      <trkpt lat="44.26346" lon="1.78299">
        <ele>310.3</ele>
        <time>2022-02-19T15:02:32Z</time>
      </trkpt>
      <trkpt lat="44.26347" lon="1.783">
        <ele>310.4</ele>
        <time>2022-02-19T15:02:33Z</time>
      </trkpt>
      <trkpt lat="44.26349" lon="1.78301">
        <ele>310.6</ele>
        <time>2022-02-19T15:02:34Z</time>
      </trkpt>
      <trkpt lat="44.2635" lon="1.78302">
        <ele>310.7</ele>
        <time>2022-02-19T15:02:35Z</time>
      </trkpt>
      <trkpt lat="44.26351" lon="1.78303">
        <ele>310.9</ele>
        <time>2022-02-19T15:02:36Z</time>
      </trkpt>
      <trkpt lat="44.26353" lon="1.78304">
        <ele>311.1</ele>
        <time>2022-02-19T15:02:37Z</time>
      </trkpt>
      <trkpt lat="44.26355" lon="1.78306">
        <ele>311.3</ele>
        <time>2022-02-19T15:02:38Z</time>
      </trkpt>
      <trkpt lat="44.26356" lon="1.78307">
        <ele>311.4</ele>
        <time>2022-02-19T15:02:39Z</time>
      </trkpt>
      <trkpt lat="44.26357" lon="1.78308">
        <ele>311.6</ele>
        <time>2022-02-19T15:02:40Z</time>
      </trkpt>
      <trkpt lat="44.26359" lon="1.78309">
        <ele>311.7</ele>
        <time>2022-02-19T15:02:41Z</time>
      </trkpt>
      <trkpt lat="44.2636" lon="1.78309">
        <ele>311.9</ele>
        <time>2022-02-19T15:02:42Z</time>
      </trkpt>
      <trkpt lat="44.26362" lon="1.7831">
        <ele>312.1</ele>
        <time>2022-02-19T15:02:43Z</time>
      </trkpt>
      <trkpt lat="44.26363" lon="1.7831">
        <ele>312.3</ele>
        <time>2022-02-19T15:02:44Z</time>
      </trkpt>
      <trkpt lat="44.26365" lon="1.7831">
        <ele>312.4</ele>
        <time>2022-02-19T15:02:45Z</time>
      </trkpt>
      <trkpt lat="44.26366" lon="1.78309">
        <ele>312.6</ele>
        <time>2022-02-19T15:02:46Z</time>
      </trkpt>
      <trkpt lat="44.26367" lon="1.78308">
        <ele>312.7</ele>
        <time>2022-02-19T15:02:47Z</time>
      </trkpt>
      <trkpt lat="44.26367" lon="1.78308">
        <ele>312.8</ele>
        <time>2022-02-19T15:02:48Z</time>
      </trkpt>
      <trkpt lat="44.26367" lon="1.78307">
        <ele>312.8</ele>
        <time>2022-02-19T15:02:49Z</time>
      </trkpt>
      <trkpt lat="44.26368" lon="1.78307">
        <ele>312.9</ele>
        <time>2022-02-19T15:02:50Z</time>
      </trkpt>
      <trkpt lat="44.26368" lon="1.78307">
        <ele>312.9</ele>
        <time>2022-02-19T15:02:51Z</time>
      </trkpt>
      <trkpt lat="44.26368" lon="1.78307">
        <ele>312.9</ele>
        <time>2022-02-19T15:02:52Z</time>
      </trkpt>
      <trkpt lat="44.26368" lon="1.78307">
        <ele>312.9</ele>
        <time>2022-02-19T15:02:53Z</time>
      </trkpt>
      <trkpt lat="44.26368" lon="1.78307">
        <ele>312.9</ele>
        <time>2022-02-19T15:02:54Z</time>
      </trkpt>
      <trkpt lat="44.26368" lon="1.78307">
        <ele>312.9</ele>
        <time>2022-02-19T15:02:55Z</time>
      </trkpt>
      <trkpt lat="44.26368" lon="1.78307">
        <ele>312.9</ele>
        <time>2022-02-19T15:02:56Z</time>
      </trkpt>
      <trkpt lat="44.26371" lon="1.78308">
        <ele>313.2</ele>
        <time>2022-02-19T15:03:02Z</time>
      </trkpt>
      <trkpt lat="44.26374" lon="1.78309">
        <ele>313.4</ele>
        <time>2022-02-19T15:03:03Z</time>
      </trkpt>
      <trkpt lat="44.26379" lon="1.7831">
        <ele>313.7</ele>
        <time>2022-02-19T15:03:04Z</time>
      </trkpt>
      <trkpt lat="44.26381" lon="1.78311">
        <ele>313.8</ele>
        <time>2022-02-19T15:03:05Z</time>
      </trkpt>
      <trkpt lat="44.26381" lon="1.78311">
        <ele>313.8</ele>
        <time>2022-02-19T15:03:06Z</time>
      </trkpt>
      <trkpt lat="44.26382" lon="1.78311">
        <ele>313.9</ele>
        <time>2022-02-19T15:03:07Z</time>
      </trkpt>
      <trkpt lat="44.26382" lon="1.7831">
        <ele>313.9</ele>
        <time>2022-02-19T15:03:08Z</time>
      </trkpt>
      <trkpt lat="44.26382" lon="1.7831">
        <ele>313.9</ele>
        <time>2022-02-19T15:03:09Z</time>
      </trkpt>
      <trkpt lat="44.26382" lon="1.7831">
        <ele>313.9</ele>
        <time>2022-02-19T15:03:10Z</time>
      </trkpt>
      <trkpt lat="44.26382" lon="1.7831">
        <ele>313.9</ele>
        <time>2022-02-19T15:03:11Z</time>
      </trkpt>
      <trkpt lat="44.26383" lon="1.7831">
        <ele>313.9</ele>
        <time>2022-02-19T15:03:12Z</time>
      </trkpt>
      <trkpt lat="44.26383" lon="1.7831">
        <ele>313.9</ele>
        <time>2022-02-19T15:03:13Z</time>
      </trkpt>
      <trkpt lat="44.26383" lon="1.7831">
        <ele>313.9</ele>
        <time>2022-02-19T15:03:14Z</time>
      </trkpt>
      <trkpt lat="44.26384" lon="1.78313">
        <ele>314</ele>
        <time>2022-02-19T15:03:15Z</time>
      </trkpt>
      <trkpt lat="44.26387" lon="1.78316">
        <ele>314.2</ele>
        <time>2022-02-19T15:03:16Z</time>
      </trkpt>
      <trkpt lat="44.26387" lon="1.78317">
        <ele>314.2</ele>
        <time>2022-02-19T15:03:17Z</time>
      </trkpt>
      <trkpt lat="44.26388" lon="1.78318">
        <ele>314.3</ele>
        <time>2022-02-19T15:03:18Z</time>
      </trkpt>
      <trkpt lat="44.26388" lon="1.78318">
        <ele>314.3</ele>
        <time>2022-02-19T15:03:19Z</time>
      </trkpt>
      <trkpt lat="44.26389" lon="1.78319">
        <ele>314.3</ele>
        <time>2022-02-19T15:03:20Z</time>
      </trkpt>
      <trkpt lat="44.2639" lon="1.78321">
        <ele>314.4</ele>
        <time>2022-02-19T15:03:21Z</time>
      </trkpt>
      <trkpt lat="44.26391" lon="1.78321">
        <ele>314.5</ele>
        <time>2022-02-19T15:03:22Z</time>
      </trkpt>
      <trkpt lat="44.26392" lon="1.78322">
        <ele>314.5</ele>
        <time>2022-02-19T15:03:23Z</time>
      </trkpt>
      <trkpt lat="44.26392" lon="1.78323">
        <ele>314.5</ele>
        <time>2022-02-19T15:03:24Z</time>
      </trkpt>
      <trkpt lat="44.26394" lon="1.78323">
        <ele>314.6</ele>
        <time>2022-02-19T15:03:25Z</time>
      </trkpt>
      <trkpt lat="44.26396" lon="1.78324">
        <ele>314.7</ele>
        <time>2022-02-19T15:03:26Z</time>
      </trkpt>
      <trkpt lat="44.26397" lon="1.78325">
        <ele>314.7</ele>
        <time>2022-02-19T15:03:27Z</time>
      </trkpt>
      <trkpt lat="44.26397" lon="1.78326">
        <ele>314.8</ele>
        <time>2022-02-19T15:03:28Z</time>
      </trkpt>
      <trkpt lat="44.26398" lon="1.78326">
        <ele>314.8</ele>
        <time>2022-02-19T15:03:29Z</time>
      </trkpt>
      <trkpt lat="44.26399" lon="1.78328">
        <ele>314.9</ele>
        <time>2022-02-19T15:03:30Z</time>
      </trkpt>
      <trkpt lat="44.264" lon="1.78329">
        <ele>314.9</ele>
        <time>2022-02-19T15:03:31Z</time>
      </trkpt>
      <trkpt lat="44.26401" lon="1.7833">
        <ele>314.9</ele>
        <time>2022-02-19T15:03:32Z</time>
      </trkpt>
      <trkpt lat="44.26402" lon="1.78331">
        <ele>315</ele>
        <time>2022-02-19T15:03:33Z</time>
      </trkpt>
      <trkpt lat="44.26403" lon="1.78332">
        <ele>315.1</ele>
        <time>2022-02-19T15:03:34Z</time>
      </trkpt>
      <trkpt lat="44.26404" lon="1.78333">
        <ele>315.1</ele>
        <time>2022-02-19T15:03:35Z</time>
      </trkpt>
      <trkpt lat="44.26405" lon="1.78334">
        <ele>315.2</ele>
        <time>2022-02-19T15:03:36Z</time>
      </trkpt>
      <trkpt lat="44.26407" lon="1.78335">
        <ele>315.2</ele>
        <time>2022-02-19T15:03:37Z</time>
      </trkpt>
      <trkpt lat="44.26408" lon="1.78336">
        <ele>315.3</ele>
        <time>2022-02-19T15:03:38Z</time>
      </trkpt>
      <trkpt lat="44.26409" lon="1.78337">
        <ele>315.3</ele>
        <time>2022-02-19T15:03:39Z</time>
      </trkpt>
      <trkpt lat="44.2641" lon="1.7834">
        <ele>315.4</ele>
        <time>2022-02-19T15:03:40Z</time>
      </trkpt>
      <trkpt lat="44.26411" lon="1.7834">
        <ele>315.4</ele>
        <time>2022-02-19T15:03:41Z</time>
      </trkpt>
      <trkpt lat="44.26412" lon="1.78341">
        <ele>315.5</ele>
        <time>2022-02-19T15:03:42Z</time>
      </trkpt>
      <trkpt lat="44.26415" lon="1.78343">
        <ele>315.6</ele>
        <time>2022-02-19T15:03:43Z</time>
      </trkpt>
      <trkpt lat="44.26416" lon="1.78343">
        <ele>315.6</ele>
        <time>2022-02-19T15:03:44Z</time>
      </trkpt>
      <trkpt lat="44.26417" lon="1.78344">
        <ele>315.6</ele>
        <time>2022-02-19T15:03:45Z</time>
      </trkpt>
      <trkpt lat="44.26417" lon="1.78344">
        <ele>315.6</ele>
        <time>2022-02-19T15:03:46Z</time>
      </trkpt>
      <trkpt lat="44.26418" lon="1.78345">
        <ele>315.7</ele>
        <time>2022-02-19T15:03:47Z</time>
      </trkpt>
      <trkpt lat="44.2642" lon="1.78346">
        <ele>315.7</ele>
        <time>2022-02-19T15:03:48Z</time>
      </trkpt>
      <trkpt lat="44.26421" lon="1.78346">
        <ele>315.7</ele>
        <time>2022-02-19T15:03:49Z</time>
      </trkpt>
      <trkpt lat="44.26422" lon="1.78347">
        <ele>315.8</ele>
        <time>2022-02-19T15:03:50Z</time>
      </trkpt>
      <trkpt lat="44.26423" lon="1.78348">
        <ele>315.8</ele>
        <time>2022-02-19T15:03:51Z</time>
      </trkpt>
      <trkpt lat="44.26424" lon="1.78348">
        <ele>315.8</ele>
        <time>2022-02-19T15:03:52Z</time>
      </trkpt>
      <trkpt lat="44.26424" lon="1.78349">
        <ele>315.9</ele>
        <time>2022-02-19T15:03:53Z</time>
      </trkpt>
      <trkpt lat="44.26425" lon="1.78351">
        <ele>315.9</ele>
        <time>2022-02-19T15:03:54Z</time>
      </trkpt>
      <trkpt lat="44.26426" lon="1.78351">
        <ele>315.9</ele>
        <time>2022-02-19T15:03:55Z</time>
      </trkpt>
      <trkpt lat="44.26427" lon="1.78353">
        <ele>315.9</ele>
        <time>2022-02-19T15:03:56Z</time>
      </trkpt>
      <trkpt lat="44.26429" lon="1.78355">
        <ele>316</ele>
        <time>2022-02-19T15:03:57Z</time>
      </trkpt>
      <trkpt lat="44.26429" lon="1.78356">
        <ele>316</ele>
        <time>2022-02-19T15:03:58Z</time>
      </trkpt>
      <trkpt lat="44.2643" lon="1.78357">
        <ele>316</ele>
        <time>2022-02-19T15:03:59Z</time>
      </trkpt>
      <trkpt lat="44.26431" lon="1.78358">
        <ele>316</ele>
        <time>2022-02-19T15:04:00Z</time>
      </trkpt>
      <trkpt lat="44.26432" lon="1.78359">
        <ele>316</ele>
        <time>2022-02-19T15:04:01Z</time>
      </trkpt>
      <trkpt lat="44.26432" lon="1.7836">
        <ele>316</ele>
        <time>2022-02-19T15:04:02Z</time>
      </trkpt>
      <trkpt lat="44.26433" lon="1.78361">
        <ele>316.1</ele>
        <time>2022-02-19T15:04:03Z</time>
      </trkpt>
      <trkpt lat="44.26434" lon="1.78362">
        <ele>316.1</ele>
        <time>2022-02-19T15:04:04Z</time>
      </trkpt>
      <trkpt lat="44.26434" lon="1.78363">
        <ele>316.1</ele>
        <time>2022-02-19T15:04:05Z</time>
      </trkpt>
      <trkpt lat="44.26435" lon="1.78363">
        <ele>316.1</ele>
        <time>2022-02-19T15:04:06Z</time>
      </trkpt>
      <trkpt lat="44.26435" lon="1.78364">
        <ele>316.1</ele>
        <time>2022-02-19T15:04:07Z</time>
      </trkpt>
      <trkpt lat="44.26436" lon="1.78364">
        <ele>316.1</ele>
        <time>2022-02-19T15:04:08Z</time>
      </trkpt>
      <trkpt lat="44.26436" lon="1.78364">
        <ele>316.1</ele>
        <time>2022-02-19T15:04:09Z</time>
      </trkpt>
      <trkpt lat="44.26436" lon="1.78364">
        <ele>316.1</ele>
        <time>2022-02-19T15:04:10Z</time>
      </trkpt>
      <trkpt lat="44.26436" lon="1.78365">
        <ele>316.1</ele>
        <time>2022-02-19T15:04:11Z</time>
      </trkpt>
      <trkpt lat="44.26436" lon="1.78365">
        <ele>316.1</ele>
        <time>2022-02-19T15:04:12Z</time>
      </trkpt>
      <trkpt lat="44.26436" lon="1.78365">
        <ele>316.1</ele>
        <time>2022-02-19T15:04:13Z</time>
      </trkpt>
      <trkpt lat="44.26436" lon="1.78365">
        <ele>316.1</ele>
        <time>2022-02-19T15:04:14Z</time>
      </trkpt>
      <trkpt lat="44.26436" lon="1.78365">
        <ele>316.1</ele>
        <time>2022-02-19T15:04:15Z</time>
      </trkpt>
      <trkpt lat="44.26439" lon="1.78368">
        <ele>316.1</ele>
        <time>2022-02-19T15:04:19Z</time>
      </trkpt>
      <trkpt lat="44.26442" lon="1.78372">
        <ele>316.1</ele>
        <time>2022-02-19T15:04:20Z</time>
      </trkpt>
      <trkpt lat="44.26443" lon="1.78373">
        <ele>316</ele>
        <time>2022-02-19T15:04:21Z</time>
      </trkpt>
      <trkpt lat="44.26443" lon="1.78373">
        <ele>316</ele>
        <time>2022-02-19T15:04:22Z</time>
      </trkpt>
      <trkpt lat="44.26443" lon="1.78373">
        <ele>316</ele>
        <time>2022-02-19T15:04:23Z</time>
      </trkpt>
      <trkpt lat="44.26443" lon="1.78373">
        <ele>316</ele>
        <time>2022-02-19T15:04:24Z</time>
      </trkpt>
      <trkpt lat="44.26444" lon="1.78373">
        <ele>316</ele>
        <time>2022-02-19T15:04:25Z</time>
      </trkpt>
      <trkpt lat="44.26444" lon="1.78374">
        <ele>316</ele>
        <time>2022-02-19T15:04:26Z</time>
      </trkpt>
      <trkpt lat="44.26444" lon="1.78374">
        <ele>316</ele>
        <time>2022-02-19T15:04:27Z</time>
      </trkpt>
      <trkpt lat="44.26444" lon="1.78374">
        <ele>316</ele>
        <time>2022-02-19T15:04:28Z</time>
      </trkpt>
      <trkpt lat="44.26445" lon="1.78374">
        <ele>316</ele>
        <time>2022-02-19T15:04:29Z</time>
      </trkpt>
      <trkpt lat="44.26445" lon="1.78374">
        <ele>316</ele>
        <time>2022-02-19T15:04:30Z</time>
      </trkpt>
      <trkpt lat="44.26445" lon="1.78374">
        <ele>316</ele>
        <time>2022-02-19T15:04:31Z</time>
      </trkpt>
      <trkpt lat="44.26448" lon="1.78376">
        <ele>315.9</ele>
        <time>2022-02-19T15:04:32Z</time>
      </trkpt>
      <trkpt lat="44.26449" lon="1.78377">
        <ele>315.9</ele>
        <time>2022-02-19T15:04:33Z</time>
      </trkpt>
      <trkpt lat="44.26451" lon="1.78379">
        <ele>315.8</ele>
        <time>2022-02-19T15:04:34Z</time>
      </trkpt>
      <trkpt lat="44.26452" lon="1.7838">
        <ele>315.7</ele>
        <time>2022-02-19T15:04:35Z</time>
      </trkpt>
      <trkpt lat="44.26455" lon="1.78384">
        <ele>315.6</ele>
        <time>2022-02-19T15:04:36Z</time>
      </trkpt>
      <trkpt lat="44.26456" lon="1.78385">
        <ele>315.5</ele>
        <time>2022-02-19T15:04:37Z</time>
      </trkpt>
      <trkpt lat="44.2646" lon="1.78388">
        <ele>315.4</ele>
        <time>2022-02-19T15:04:38Z</time>
      </trkpt>
      <trkpt lat="44.26462" lon="1.78389">
        <ele>315.3</ele>
        <time>2022-02-19T15:04:39Z</time>
      </trkpt>
      <trkpt lat="44.26465" lon="1.78392">
        <ele>315.2</ele>
        <time>2022-02-19T15:04:40Z</time>
      </trkpt>
      <trkpt lat="44.26468" lon="1.78394">
        <ele>315.1</ele>
        <time>2022-02-19T15:04:41Z</time>
      </trkpt>
      <trkpt lat="44.26471" lon="1.78396">
        <ele>315.1</ele>
        <time>2022-02-19T15:04:42Z</time>
      </trkpt>
      <trkpt lat="44.26475" lon="1.78398">
        <ele>315.1</ele>
        <time>2022-02-19T15:04:43Z</time>
      </trkpt>
      <trkpt lat="44.26476" lon="1.78399">
        <ele>315.1</ele>
        <time>2022-02-19T15:04:44Z</time>
      </trkpt>
      <trkpt lat="44.2648" lon="1.78401">
        <ele>315.1</ele>
        <time>2022-02-19T15:04:45Z</time>
      </trkpt>
      <trkpt lat="44.26481" lon="1.78402">
        <ele>315.1</ele>
        <time>2022-02-19T15:04:46Z</time>
      </trkpt>
      <trkpt lat="44.26484" lon="1.78404">
        <ele>315.1</ele>
        <time>2022-02-19T15:04:47Z</time>
      </trkpt>
      <trkpt lat="44.26485" lon="1.78404">
        <ele>315.1</ele>
        <time>2022-02-19T15:04:48Z</time>
      </trkpt>
      <trkpt lat="44.26487" lon="1.78406">
        <ele>315.2</ele>
        <time>2022-02-19T15:04:49Z</time>
      </trkpt>
      <trkpt lat="44.2649" lon="1.78407">
        <ele>315.3</ele>
        <time>2022-02-19T15:04:50Z</time>
      </trkpt>
      <trkpt lat="44.26493" lon="1.78409">
        <ele>315.3</ele>
        <time>2022-02-19T15:04:51Z</time>
      </trkpt>
      <trkpt lat="44.26496" lon="1.7841">
        <ele>315.4</ele>
        <time>2022-02-19T15:04:52Z</time>
      </trkpt>
      <trkpt lat="44.26497" lon="1.78411">
        <ele>315.5</ele>
        <time>2022-02-19T15:04:53Z</time>
      </trkpt>
      <trkpt lat="44.265" lon="1.78412">
        <ele>315.6</ele>
        <time>2022-02-19T15:04:54Z</time>
      </trkpt>
      <trkpt lat="44.26501" lon="1.78412">
        <ele>315.6</ele>
        <time>2022-02-19T15:04:55Z</time>
      </trkpt>
      <trkpt lat="44.26504" lon="1.78413">
        <ele>315.7</ele>
        <time>2022-02-19T15:04:56Z</time>
      </trkpt>
      <trkpt lat="44.26506" lon="1.78413">
        <ele>315.8</ele>
        <time>2022-02-19T15:04:57Z</time>
      </trkpt>
      <trkpt lat="44.26508" lon="1.78413">
        <ele>315.9</ele>
        <time>2022-02-19T15:04:58Z</time>
      </trkpt>
      <trkpt lat="44.26512" lon="1.78413">
        <ele>316</ele>
        <time>2022-02-19T15:04:59Z</time>
      </trkpt>
      <trkpt lat="44.26513" lon="1.78414">
        <ele>316</ele>
        <time>2022-02-19T15:05:00Z</time>
      </trkpt>
      <trkpt lat="44.26516" lon="1.78414">
        <ele>316.1</ele>
        <time>2022-02-19T15:05:01Z</time>
      </trkpt>
      <trkpt lat="44.26518" lon="1.78414">
        <ele>316.1</ele>
        <time>2022-02-19T15:05:02Z</time>
      </trkpt>
      <trkpt lat="44.2652" lon="1.78415">
        <ele>316.2</ele>
        <time>2022-02-19T15:05:03Z</time>
      </trkpt>
      <trkpt lat="44.26523" lon="1.78415">
        <ele>316.3</ele>
        <time>2022-02-19T15:05:04Z</time>
      </trkpt>
      <trkpt lat="44.26526" lon="1.78415">
        <ele>316.3</ele>
        <time>2022-02-19T15:05:05Z</time>
      </trkpt>
      <trkpt lat="44.26528" lon="1.78415">
        <ele>316.4</ele>
        <time>2022-02-19T15:05:06Z</time>
      </trkpt>
      <trkpt lat="44.26531" lon="1.78414">
        <ele>316.5</ele>
        <time>2022-02-19T15:05:07Z</time>
      </trkpt>
      <trkpt lat="44.26532" lon="1.78414">
        <ele>316.5</ele>
        <time>2022-02-19T15:05:08Z</time>
      </trkpt>
      <trkpt lat="44.26535" lon="1.78413">
        <ele>316.6</ele>
        <time>2022-02-19T15:05:09Z</time>
      </trkpt>
      <trkpt lat="44.26536" lon="1.78413">
        <ele>316.6</ele>
        <time>2022-02-19T15:05:10Z</time>
      </trkpt>
      <trkpt lat="44.26539" lon="1.78412">
        <ele>316.7</ele>
        <time>2022-02-19T15:05:11Z</time>
      </trkpt>
      <trkpt lat="44.2654" lon="1.78412">
        <ele>316.7</ele>
        <time>2022-02-19T15:05:12Z</time>
      </trkpt>
      <trkpt lat="44.26543" lon="1.78412">
        <ele>316.8</ele>
        <time>2022-02-19T15:05:13Z</time>
      </trkpt>
      <trkpt lat="44.26544" lon="1.78413">
        <ele>316.8</ele>
        <time>2022-02-19T15:05:14Z</time>
      </trkpt>
      <trkpt lat="44.26548" lon="1.78413">
        <ele>316.8</ele>
        <time>2022-02-19T15:05:15Z</time>
      </trkpt>
      <trkpt lat="44.26549" lon="1.78414">
        <ele>316.9</ele>
        <time>2022-02-19T15:05:16Z</time>
      </trkpt>
      <trkpt lat="44.26552" lon="1.78415">
        <ele>316.9</ele>
        <time>2022-02-19T15:05:17Z</time>
      </trkpt>
      <trkpt lat="44.26553" lon="1.78416">
        <ele>316.9</ele>
        <time>2022-02-19T15:05:18Z</time>
      </trkpt>
      <trkpt lat="44.26556" lon="1.78417">
        <ele>316.9</ele>
        <time>2022-02-19T15:05:19Z</time>
      </trkpt>
      <trkpt lat="44.26558" lon="1.78418">
        <ele>316.9</ele>
        <time>2022-02-19T15:05:20Z</time>
      </trkpt>
      <trkpt lat="44.2656" lon="1.78419">
        <ele>316.9</ele>
        <time>2022-02-19T15:05:21Z</time>
      </trkpt>
      <trkpt lat="44.26561" lon="1.7842">
        <ele>316.9</ele>
        <time>2022-02-19T15:05:22Z</time>
      </trkpt>
      <trkpt lat="44.26564" lon="1.78421">
        <ele>316.8</ele>
        <time>2022-02-19T15:05:23Z</time>
      </trkpt>
      <trkpt lat="44.26567" lon="1.78422">
        <ele>316.7</ele>
        <time>2022-02-19T15:05:24Z</time>
      </trkpt>
      <trkpt lat="44.26571" lon="1.78424">
        <ele>316.6</ele>
        <time>2022-02-19T15:05:25Z</time>
      </trkpt>
      <trkpt lat="44.26572" lon="1.78424">
        <ele>316.6</ele>
        <time>2022-02-19T15:05:26Z</time>
      </trkpt>
      <trkpt lat="44.26575" lon="1.78424">
        <ele>316.4</ele>
        <time>2022-02-19T15:05:27Z</time>
      </trkpt>
      <trkpt lat="44.26579" lon="1.78426">
        <ele>316.2</ele>
        <time>2022-02-19T15:05:28Z</time>
      </trkpt>
      <trkpt lat="44.2658" lon="1.78426">
        <ele>316.1</ele>
        <time>2022-02-19T15:05:29Z</time>
      </trkpt>
      <trkpt lat="44.26584" lon="1.78428">
        <ele>315.9</ele>
        <time>2022-02-19T15:05:30Z</time>
      </trkpt>
      <trkpt lat="44.26587" lon="1.7843">
        <ele>315.7</ele>
        <time>2022-02-19T15:05:31Z</time>
      </trkpt>
      <trkpt lat="44.2659" lon="1.78431">
        <ele>315.5</ele>
        <time>2022-02-19T15:05:32Z</time>
      </trkpt>
      <trkpt lat="44.26594" lon="1.78433">
        <ele>315.2</ele>
        <time>2022-02-19T15:05:33Z</time>
      </trkpt>
      <trkpt lat="44.26597" lon="1.78434">
        <ele>315</ele>
        <time>2022-02-19T15:05:34Z</time>
      </trkpt>
      <trkpt lat="44.26601" lon="1.78436">
        <ele>314.7</ele>
        <time>2022-02-19T15:05:35Z</time>
      </trkpt>
      <trkpt lat="44.26603" lon="1.78436">
        <ele>314.6</ele>
        <time>2022-02-19T15:05:36Z</time>
      </trkpt>
      <trkpt lat="44.26607" lon="1.78437">
        <ele>314.4</ele>
        <time>2022-02-19T15:05:37Z</time>
      </trkpt>
      <trkpt lat="44.26608" lon="1.78437">
        <ele>314.3</ele>
        <time>2022-02-19T15:05:38Z</time>
      </trkpt>
      <trkpt lat="44.26611" lon="1.78438">
        <ele>314.2</ele>
        <time>2022-02-19T15:05:39Z</time>
      </trkpt>
      <trkpt lat="44.26615" lon="1.78439">
        <ele>314.1</ele>
        <time>2022-02-19T15:05:40Z</time>
      </trkpt>
      <trkpt lat="44.26617" lon="1.78439">
        <ele>314</ele>
        <time>2022-02-19T15:05:41Z</time>
      </trkpt>
      <trkpt lat="44.2662" lon="1.78439">
        <ele>314</ele>
        <time>2022-02-19T15:05:42Z</time>
      </trkpt>
      <trkpt lat="44.26623" lon="1.7844">
        <ele>313.9</ele>
        <time>2022-02-19T15:05:43Z</time>
      </trkpt>
      <trkpt lat="44.26627" lon="1.78441">
        <ele>313.8</ele>
        <time>2022-02-19T15:05:44Z</time>
      </trkpt>
      <trkpt lat="44.2663" lon="1.78442">
        <ele>313.8</ele>
        <time>2022-02-19T15:05:45Z</time>
      </trkpt>
      <trkpt lat="44.26634" lon="1.78443">
        <ele>313.7</ele>
        <time>2022-02-19T15:05:46Z</time>
      </trkpt>
      <trkpt lat="44.26637" lon="1.78443">
        <ele>313.7</ele>
        <time>2022-02-19T15:05:47Z</time>
      </trkpt>
      <trkpt lat="44.2664" lon="1.78444">
        <ele>313.6</ele>
        <time>2022-02-19T15:05:48Z</time>
      </trkpt>
      <trkpt lat="44.26641" lon="1.78444">
        <ele>313.6</ele>
        <time>2022-02-19T15:05:49Z</time>
      </trkpt>
      <trkpt lat="44.26645" lon="1.78445">
        <ele>313.6</ele>
        <time>2022-02-19T15:05:50Z</time>
      </trkpt>
      <trkpt lat="44.26646" lon="1.78445">
        <ele>313.6</ele>
        <time>2022-02-19T15:05:51Z</time>
      </trkpt>
      <trkpt lat="44.26648" lon="1.78445">
        <ele>313.6</ele>
        <time>2022-02-19T15:05:52Z</time>
      </trkpt>
      <trkpt lat="44.26649" lon="1.78444">
        <ele>313.6</ele>
        <time>2022-02-19T15:05:53Z</time>
      </trkpt>
      <trkpt lat="44.26651" lon="1.78443">
        <ele>313.6</ele>
        <time>2022-02-19T15:05:54Z</time>
      </trkpt>
      <trkpt lat="44.26652" lon="1.78443">
        <ele>313.6</ele>
        <time>2022-02-19T15:05:55Z</time>
      </trkpt>
      <trkpt lat="44.26654" lon="1.78443">
        <ele>313.6</ele>
        <time>2022-02-19T15:05:56Z</time>
      </trkpt>
      <trkpt lat="44.26656" lon="1.78444">
        <ele>313.6</ele>
        <time>2022-02-19T15:05:57Z</time>
      </trkpt>
      <trkpt lat="44.26657" lon="1.78444">
        <ele>313.5</ele>
        <time>2022-02-19T15:05:58Z</time>
      </trkpt>
      <trkpt lat="44.26659" lon="1.78445">
        <ele>313.5</ele>
        <time>2022-02-19T15:05:59Z</time>
      </trkpt>
      <trkpt lat="44.26662" lon="1.78448">
        <ele>313.5</ele>
        <time>2022-02-19T15:06:00Z</time>
      </trkpt>
      <trkpt lat="44.26663" lon="1.78449">
        <ele>313.5</ele>
        <time>2022-02-19T15:06:01Z</time>
      </trkpt>
      <trkpt lat="44.26666" lon="1.78449">
        <ele>313.5</ele>
        <time>2022-02-19T15:06:02Z</time>
      </trkpt>
      <trkpt lat="44.26666" lon="1.78448">
        <ele>313.5</ele>
        <time>2022-02-19T15:06:03Z</time>
      </trkpt>
      <trkpt lat="44.26667" lon="1.78446">
        <ele>314.2</ele>
        <time>2022-02-19T15:06:04Z</time>
      </trkpt>
      <trkpt lat="44.26669" lon="1.78445">
        <ele>317.6</ele>
        <time>2022-02-19T15:06:05Z</time>
      </trkpt>
      <trkpt lat="44.26672" lon="1.78446">
        <ele>317.6</ele>
        <time>2022-02-19T15:06:06Z</time>
      </trkpt>
      <trkpt lat="44.26672" lon="1.78447">
        <ele>317.6</ele>
        <time>2022-02-19T15:06:07Z</time>
      </trkpt>
      <trkpt lat="44.26675" lon="1.78448">
        <ele>317.7</ele>
        <time>2022-02-19T15:06:08Z</time>
      </trkpt>
      <trkpt lat="44.26676" lon="1.78448">
        <ele>317.7</ele>
        <time>2022-02-19T15:06:09Z</time>
      </trkpt>
      <trkpt lat="44.26679" lon="1.7845">
        <ele>317.6</ele>
        <time>2022-02-19T15:06:10Z</time>
      </trkpt>
      <trkpt lat="44.2668" lon="1.7845">
        <ele>317.6</ele>
        <time>2022-02-19T15:06:11Z</time>
      </trkpt>
      <trkpt lat="44.26683" lon="1.78453">
        <ele>317.6</ele>
        <time>2022-02-19T15:06:12Z</time>
      </trkpt>
      <trkpt lat="44.26684" lon="1.78454">
        <ele>317.5</ele>
        <time>2022-02-19T15:06:13Z</time>
      </trkpt>
      <trkpt lat="44.26687" lon="1.78456">
        <ele>317.4</ele>
        <time>2022-02-19T15:06:14Z</time>
      </trkpt>
      <trkpt lat="44.26688" lon="1.78457">
        <ele>317.4</ele>
        <time>2022-02-19T15:06:15Z</time>
      </trkpt>
      <trkpt lat="44.26691" lon="1.78457">
        <ele>317.4</ele>
        <time>2022-02-19T15:06:16Z</time>
      </trkpt>
      <trkpt lat="44.26692" lon="1.78458">
        <ele>317.4</ele>
        <time>2022-02-19T15:06:17Z</time>
      </trkpt>
      <trkpt lat="44.26695" lon="1.78459">
        <ele>317.4</ele>
        <time>2022-02-19T15:06:18Z</time>
      </trkpt>
      <trkpt lat="44.26696" lon="1.7846">
        <ele>317.4</ele>
        <time>2022-02-19T15:06:19Z</time>
      </trkpt>
      <trkpt lat="44.26697" lon="1.78461">
        <ele>317.4</ele>
        <time>2022-02-19T15:06:20Z</time>
      </trkpt>
      <trkpt lat="44.26698" lon="1.78462">
        <ele>317.4</ele>
        <time>2022-02-19T15:06:21Z</time>
      </trkpt>
      <trkpt lat="44.267" lon="1.78462">
        <ele>317.3</ele>
        <time>2022-02-19T15:06:22Z</time>
      </trkpt>
      <trkpt lat="44.26701" lon="1.78463">
        <ele>317.3</ele>
        <time>2022-02-19T15:06:23Z</time>
      </trkpt>
      <trkpt lat="44.26701" lon="1.78463">
        <ele>317.3</ele>
        <time>2022-02-19T15:06:24Z</time>
      </trkpt>
      <trkpt lat="44.26703" lon="1.78463">
        <ele>317.3</ele>
        <time>2022-02-19T15:06:25Z</time>
      </trkpt>
      <trkpt lat="44.26703" lon="1.78463">
        <ele>317.3</ele>
        <time>2022-02-19T15:06:26Z</time>
      </trkpt>
      <trkpt lat="44.26704" lon="1.78464">
        <ele>317.3</ele>
        <time>2022-02-19T15:06:27Z</time>
      </trkpt>
      <trkpt lat="44.26705" lon="1.78464">
        <ele>317.3</ele>
        <time>2022-02-19T15:06:28Z</time>
      </trkpt>
      <trkpt lat="44.26706" lon="1.78464">
        <ele>317.3</ele>
        <time>2022-02-19T15:06:29Z</time>
      </trkpt>
      <trkpt lat="44.26707" lon="1.78464">
        <ele>316</ele>
        <time>2022-02-19T15:06:30Z</time>
      </trkpt>
      <trkpt lat="44.26708" lon="1.78464">
        <ele>315.5</ele>
        <time>2022-02-19T15:06:31Z</time>
      </trkpt>
      <trkpt lat="44.26709" lon="1.78465">
        <ele>315</ele>
        <time>2022-02-19T15:06:32Z</time>
      </trkpt>
      <trkpt lat="44.2671" lon="1.78465">
        <ele>314.5</ele>
        <time>2022-02-19T15:07:04Z</time>
      </trkpt>
      <trkpt lat="44.26711" lon="1.78465">
        <ele>314</ele>
        <time>2022-02-19T15:07:05Z</time>
      </trkpt>
      <trkpt lat="44.26714" lon="1.78466">
        <ele>312.9</ele>
        <time>2022-02-19T15:07:06Z</time>
      </trkpt>
      <trkpt lat="44.26714" lon="1.78465">
        <ele>312.9</ele>
        <time>2022-02-19T15:07:07Z</time>
      </trkpt>
      <trkpt lat="44.26714" lon="1.78465">
        <ele>312.9</ele>
        <time>2022-02-19T15:07:08Z</time>
      </trkpt>
      <trkpt lat="44.26714" lon="1.78465">
        <ele>312.9</ele>
        <time>2022-02-19T15:07:09Z</time>
      </trkpt>
      <trkpt lat="44.26714" lon="1.78465">
        <ele>312.9</ele>
        <time>2022-02-19T15:07:10Z</time>
      </trkpt>
      <trkpt lat="44.26714" lon="1.78465">
        <ele>312.9</ele>
        <time>2022-02-19T15:07:11Z</time>
      </trkpt>
      <trkpt lat="44.26714" lon="1.78465">
        <ele>312.9</ele>
        <time>2022-02-19T15:07:12Z</time>
      </trkpt>
      <trkpt lat="44.26714" lon="1.78465">
        <ele>312.9</ele>
        <time>2022-02-19T15:07:13Z</time>
      </trkpt>
      <trkpt lat="44.26713" lon="1.78465">
        <ele>313</ele>
        <time>2022-02-19T15:07:14Z</time>
      </trkpt>
      <trkpt lat="44.26713" lon="1.78464">
        <ele>313</ele>
        <time>2022-02-19T15:07:15Z</time>
      </trkpt>
      <trkpt lat="44.26713" lon="1.78464">
        <ele>313</ele>
        <time>2022-02-19T15:12:13Z</time>
      </trkpt>
      <trkpt lat="44.26713" lon="1.78464">
        <ele>313</ele>
        <time>2022-02-19T15:12:14Z</time>
      </trkpt>
      <trkpt lat="44.26713" lon="1.78464">
        <ele>313</ele>
        <time>2022-02-19T15:12:15Z</time>
      </trkpt>
      <trkpt lat="44.26713" lon="1.78463">
        <ele>313</ele>
        <time>2022-02-19T15:12:16Z</time>
      </trkpt>
      <trkpt lat="44.26713" lon="1.78462">
        <ele>313</ele>
        <time>2022-02-19T15:12:17Z</time>
      </trkpt>
      <trkpt lat="44.26714" lon="1.7846">
        <ele>313</ele>
        <time>2022-02-19T15:12:19Z</time>
      </trkpt>
      <trkpt lat="44.26715" lon="1.78457">
        <ele>313.1</ele>
        <time>2022-02-19T15:12:20Z</time>
      </trkpt>
      <trkpt lat="44.26716" lon="1.78452">
        <ele>313.1</ele>
        <time>2022-02-19T15:12:21Z</time>
      </trkpt>
      <trkpt lat="44.26717" lon="1.78448">
        <ele>313.2</ele>
        <time>2022-02-19T15:12:23Z</time>
      </trkpt>
      <trkpt lat="44.26718" lon="1.78447">
        <ele>313.2</ele>
        <time>2022-02-19T15:12:24Z</time>
      </trkpt>
      <trkpt lat="44.26718" lon="1.78446">
        <ele>313.2</ele>
        <time>2022-02-19T15:12:25Z</time>
      </trkpt>
      <trkpt lat="44.26717" lon="1.78445">
        <ele>313.2</ele>
        <time>2022-02-19T15:12:26Z</time>
      </trkpt>
      <trkpt lat="44.26717" lon="1.78444">
        <ele>313.2</ele>
        <time>2022-02-19T15:12:27Z</time>
      </trkpt>
      <trkpt lat="44.26717" lon="1.78444">
        <ele>313.2</ele>
        <time>2022-02-19T15:12:28Z</time>
      </trkpt>
      <trkpt lat="44.26718" lon="1.78443">
        <ele>313.3</ele>
        <time>2022-02-19T15:12:29Z</time>
      </trkpt>
      <trkpt lat="44.26718" lon="1.78442">
        <ele>313.3</ele>
        <time>2022-02-19T15:12:30Z</time>
      </trkpt>
      <trkpt lat="44.26719" lon="1.78436">
        <ele>313.3</ele>
        <time>2022-02-19T15:12:32Z</time>
      </trkpt>
      <trkpt lat="44.2672" lon="1.78432">
        <ele>313.4</ele>
        <time>2022-02-19T15:12:33Z</time>
      </trkpt>
      <trkpt lat="44.26721" lon="1.78428">
        <ele>313.5</ele>
        <time>2022-02-19T15:12:35Z</time>
      </trkpt>
      <trkpt lat="44.26721" lon="1.78426">
        <ele>313.5</ele>
        <time>2022-02-19T15:12:36Z</time>
      </trkpt>
      <trkpt lat="44.26722" lon="1.78424">
        <ele>313.5</ele>
        <time>2022-02-19T15:12:38Z</time>
      </trkpt>
      <trkpt lat="44.26721" lon="1.78424">
        <ele>313.5</ele>
        <time>2022-02-19T15:12:39Z</time>
      </trkpt>
      <trkpt lat="44.26722" lon="1.78424">
        <ele>313.5</ele>
        <time>2022-02-19T15:12:40Z</time>
      </trkpt>
      <trkpt lat="44.26722" lon="1.78424">
        <ele>313.5</ele>
        <time>2022-02-19T15:12:41Z</time>
      </trkpt>
      <trkpt lat="44.26723" lon="1.78424">
        <ele>313.5</ele>
        <time>2022-02-19T15:12:42Z</time>
      </trkpt>
      <trkpt lat="44.26723" lon="1.78424">
        <ele>313.6</ele>
        <time>2022-02-19T15:12:43Z</time>
      </trkpt>
      <trkpt lat="44.26724" lon="1.78424">
        <ele>313.6</ele>
        <time>2022-02-19T15:12:45Z</time>
      </trkpt>
      <trkpt lat="44.26724" lon="1.78424">
        <ele>313.6</ele>
        <time>2022-02-19T15:12:46Z</time>
      </trkpt>
      <trkpt lat="44.26725" lon="1.78424">
        <ele>313.6</ele>
        <time>2022-02-19T15:13:29Z</time>
      </trkpt>
      <trkpt lat="44.26725" lon="1.78424">
        <ele>313.6</ele>
        <time>2022-02-19T15:13:30Z</time>
      </trkpt>
      <trkpt lat="44.26726" lon="1.78424">
        <ele>313.6</ele>
        <time>2022-02-19T15:13:31Z</time>
      </trkpt>
      <trkpt lat="44.26726" lon="1.78419">
        <ele>313.7</ele>
        <time>2022-02-19T15:13:32Z</time>
      </trkpt>
      <trkpt lat="44.26727" lon="1.78417">
        <ele>313.7</ele>
        <time>2022-02-19T15:13:33Z</time>
      </trkpt>
      <trkpt lat="44.26726" lon="1.78413">
        <ele>313.8</ele>
        <time>2022-02-19T15:13:34Z</time>
      </trkpt>
      <trkpt lat="44.26726" lon="1.78409">
        <ele>313.8</ele>
        <time>2022-02-19T15:13:35Z</time>
      </trkpt>
      <trkpt lat="44.26727" lon="1.78404">
        <ele>313.9</ele>
        <time>2022-02-19T15:13:37Z</time>
      </trkpt>
      <trkpt lat="44.26728" lon="1.784">
        <ele>314</ele>
        <time>2022-02-19T15:13:38Z</time>
      </trkpt>
      <trkpt lat="44.26729" lon="1.78399">
        <ele>314</ele>
        <time>2022-02-19T15:13:39Z</time>
      </trkpt>
      <trkpt lat="44.2673" lon="1.78395">
        <ele>314</ele>
        <time>2022-02-19T15:13:40Z</time>
      </trkpt>
      <trkpt lat="44.26731" lon="1.78394">
        <ele>314.1</ele>
        <time>2022-02-19T15:13:41Z</time>
      </trkpt>
      <trkpt lat="44.26732" lon="1.78392">
        <ele>314.1</ele>
        <time>2022-02-19T15:13:42Z</time>
      </trkpt>
      <trkpt lat="44.26732" lon="1.7839">
        <ele>314.1</ele>
        <time>2022-02-19T15:13:43Z</time>
      </trkpt>
      <trkpt lat="44.26736" lon="1.78387">
        <ele>314.2</ele>
        <time>2022-02-19T15:13:45Z</time>
      </trkpt>
      <trkpt lat="44.26737" lon="1.78387">
        <ele>314.1</ele>
        <time>2022-02-19T15:13:46Z</time>
      </trkpt>
      <trkpt lat="44.26738" lon="1.78388">
        <ele>314.1</ele>
        <time>2022-02-19T15:13:47Z</time>
      </trkpt>
      <trkpt lat="44.26742" lon="1.78392">
        <ele>314</ele>
        <time>2022-02-19T15:13:48Z</time>
      </trkpt>
      <trkpt lat="44.26744" lon="1.78393">
        <ele>314</ele>
        <time>2022-02-19T15:13:49Z</time>
      </trkpt>
      <trkpt lat="44.26746" lon="1.78398">
        <ele>313.9</ele>
        <time>2022-02-19T15:13:51Z</time>
      </trkpt>
      <trkpt lat="44.26747" lon="1.78399">
        <ele>313.9</ele>
        <time>2022-02-19T15:13:52Z</time>
      </trkpt>
      <trkpt lat="44.26748" lon="1.78401">
        <ele>313.8</ele>
        <time>2022-02-19T15:13:53Z</time>
      </trkpt>
      <trkpt lat="44.26751" lon="1.78404">
        <ele>313.8</ele>
        <time>2022-02-19T15:13:54Z</time>
      </trkpt>
      <trkpt lat="44.26752" lon="1.78405">
        <ele>313.8</ele>
        <time>2022-02-19T15:13:55Z</time>
      </trkpt>
      <trkpt lat="44.26756" lon="1.78409">
        <ele>313.7</ele>
        <time>2022-02-19T15:13:56Z</time>
      </trkpt>
      <trkpt lat="44.26757" lon="1.78411">
        <ele>313.7</ele>
        <time>2022-02-19T15:13:57Z</time>
      </trkpt>
      <trkpt lat="44.2676" lon="1.78414">
        <ele>313.6</ele>
        <time>2022-02-19T15:13:58Z</time>
      </trkpt>
      <trkpt lat="44.26763" lon="1.78418">
        <ele>313.6</ele>
        <time>2022-02-19T15:14:00Z</time>
      </trkpt>
      <trkpt lat="44.26767" lon="1.78422">
        <ele>313.5</ele>
        <time>2022-02-19T15:14:01Z</time>
      </trkpt>
      <trkpt lat="44.26768" lon="1.78424">
        <ele>313.5</ele>
        <time>2022-02-19T15:14:02Z</time>
      </trkpt>
      <trkpt lat="44.26771" lon="1.78427">
        <ele>313.4</ele>
        <time>2022-02-19T15:14:03Z</time>
      </trkpt>
      <trkpt lat="44.26775" lon="1.78432">
        <ele>313.4</ele>
        <time>2022-02-19T15:14:05Z</time>
      </trkpt>
      <trkpt lat="44.26777" lon="1.78435">
        <ele>313.3</ele>
        <time>2022-02-19T15:14:06Z</time>
      </trkpt>
      <trkpt lat="44.2678" lon="1.78437">
        <ele>313.3</ele>
        <time>2022-02-19T15:14:07Z</time>
      </trkpt>
      <trkpt lat="44.26782" lon="1.7844">
        <ele>313.2</ele>
        <time>2022-02-19T15:14:08Z</time>
      </trkpt>
      <trkpt lat="44.26785" lon="1.78446">
        <ele>313.2</ele>
        <time>2022-02-19T15:14:10Z</time>
      </trkpt>
      <trkpt lat="44.26788" lon="1.78449">
        <ele>313.1</ele>
        <time>2022-02-19T15:14:11Z</time>
      </trkpt>
      <trkpt lat="44.26791" lon="1.78453">
        <ele>313.1</ele>
        <time>2022-02-19T15:14:12Z</time>
      </trkpt>
      <trkpt lat="44.26794" lon="1.78456">
        <ele>313.1</ele>
        <time>2022-02-19T15:14:13Z</time>
      </trkpt>
      <trkpt lat="44.26797" lon="1.7846">
        <ele>313</ele>
        <time>2022-02-19T15:14:14Z</time>
      </trkpt>
      <trkpt lat="44.268" lon="1.78464">
        <ele>313</ele>
        <time>2022-02-19T15:14:15Z</time>
      </trkpt>
      <trkpt lat="44.26803" lon="1.78467">
        <ele>313</ele>
        <time>2022-02-19T15:14:16Z</time>
      </trkpt>
      <trkpt lat="44.26807" lon="1.78472">
        <ele>312.9</ele>
        <time>2022-02-19T15:14:18Z</time>
      </trkpt>
      <trkpt lat="44.26809" lon="1.78475">
        <ele>312.9</ele>
        <time>2022-02-19T15:14:19Z</time>
      </trkpt>
      <trkpt lat="44.26812" lon="1.78479">
        <ele>312.9</ele>
        <time>2022-02-19T15:14:20Z</time>
      </trkpt>
      <trkpt lat="44.26817" lon="1.78485">
        <ele>312.8</ele>
        <time>2022-02-19T15:14:22Z</time>
      </trkpt>
      <trkpt lat="44.2682" lon="1.78488">
        <ele>312.8</ele>
        <time>2022-02-19T15:14:23Z</time>
      </trkpt>
      <trkpt lat="44.26822" lon="1.78492">
        <ele>312.8</ele>
        <time>2022-02-19T15:14:24Z</time>
      </trkpt>
      <trkpt lat="44.26824" lon="1.78494">
        <ele>312.8</ele>
        <time>2022-02-19T15:14:25Z</time>
      </trkpt>
      <trkpt lat="44.26827" lon="1.78497">
        <ele>312.8</ele>
        <time>2022-02-19T15:14:26Z</time>
      </trkpt>
      <trkpt lat="44.26829" lon="1.78499">
        <ele>312.8</ele>
        <time>2022-02-19T15:14:27Z</time>
      </trkpt>
      <trkpt lat="44.26832" lon="1.78501">
        <ele>312.8</ele>
        <time>2022-02-19T15:14:28Z</time>
      </trkpt>
      <trkpt lat="44.26834" lon="1.78504">
        <ele>312.7</ele>
        <time>2022-02-19T15:14:29Z</time>
      </trkpt>
      <trkpt lat="44.26835" lon="1.78508">
        <ele>312.7</ele>
        <time>2022-02-19T15:14:30Z</time>
      </trkpt>
      <trkpt lat="44.26835" lon="1.78512">
        <ele>312.6</ele>
        <time>2022-02-19T15:14:31Z</time>
      </trkpt>
      <trkpt lat="44.26835" lon="1.78516">
        <ele>312.6</ele>
        <time>2022-02-19T15:14:32Z</time>
      </trkpt>
      <trkpt lat="44.26834" lon="1.78521">
        <ele>312.6</ele>
        <time>2022-02-19T15:14:33Z</time>
      </trkpt>
      <trkpt lat="44.26833" lon="1.78528">
        <ele>312.5</ele>
        <time>2022-02-19T15:14:35Z</time>
      </trkpt>
      <trkpt lat="44.2683" lon="1.78535">
        <ele>312.4</ele>
        <time>2022-02-19T15:14:36Z</time>
      </trkpt>
      <trkpt lat="44.26828" lon="1.78539">
        <ele>312.4</ele>
        <time>2022-02-19T15:14:38Z</time>
      </trkpt>
      <trkpt lat="44.26826" lon="1.78545">
        <ele>312.4</ele>
        <time>2022-02-19T15:14:39Z</time>
      </trkpt>
      <trkpt lat="44.26824" lon="1.78554">
        <ele>312.3</ele>
        <time>2022-02-19T15:14:41Z</time>
      </trkpt>
      <trkpt lat="44.26822" lon="1.78559">
        <ele>312.2</ele>
        <time>2022-02-19T15:14:42Z</time>
      </trkpt>
      <trkpt lat="44.2682" lon="1.78564">
        <ele>312.2</ele>
        <time>2022-02-19T15:14:43Z</time>
      </trkpt>
      <trkpt lat="44.26818" lon="1.7857">
        <ele>311.9</ele>
        <time>2022-02-19T15:14:44Z</time>
      </trkpt>
      <trkpt lat="44.26815" lon="1.78574">
        <ele>311.6</ele>
        <time>2022-02-19T15:14:45Z</time>
      </trkpt>
      <trkpt lat="44.2681" lon="1.78578">
        <ele>311.2</ele>
        <time>2022-02-19T15:14:46Z</time>
      </trkpt>
      <trkpt lat="44.26807" lon="1.7858">
        <ele>310.9</ele>
        <time>2022-02-19T15:14:47Z</time>
      </trkpt>
      <trkpt lat="44.26802" lon="1.78581">
        <ele>310.4</ele>
        <time>2022-02-19T15:14:49Z</time>
      </trkpt>
      <trkpt lat="44.26799" lon="1.78579">
        <ele>310.1</ele>
        <time>2022-02-19T15:14:50Z</time>
      </trkpt>
      <trkpt lat="44.26796" lon="1.78577">
        <ele>309.8</ele>
        <time>2022-02-19T15:14:51Z</time>
      </trkpt>
      <trkpt lat="44.26793" lon="1.78576">
        <ele>309.5</ele>
        <time>2022-02-19T15:14:52Z</time>
      </trkpt>
      <trkpt lat="44.2679" lon="1.78575">
        <ele>309.2</ele>
        <time>2022-02-19T15:14:53Z</time>
      </trkpt>
      <trkpt lat="44.26789" lon="1.78575">
        <ele>309</ele>
        <time>2022-02-19T15:14:54Z</time>
      </trkpt>
      <trkpt lat="44.26787" lon="1.78574">
        <ele>308.7</ele>
        <time>2022-02-19T15:14:55Z</time>
      </trkpt>
      <trkpt lat="44.26785" lon="1.78574">
        <ele>308.5</ele>
        <time>2022-02-19T15:14:56Z</time>
      </trkpt>
      <trkpt lat="44.26785" lon="1.78576">
        <ele>308.3</ele>
        <time>2022-02-19T15:14:57Z</time>
      </trkpt>
      <trkpt lat="44.26785" lon="1.78576">
        <ele>308.3</ele>
        <time>2022-02-19T15:14:58Z</time>
      </trkpt>
      <trkpt lat="44.26785" lon="1.78575">
        <ele>308.2</ele>
        <time>2022-02-19T15:14:59Z</time>
      </trkpt>
      <trkpt lat="44.26784" lon="1.78575">
        <ele>308.1</ele>
        <time>2022-02-19T15:15:00Z</time>
      </trkpt>
      <trkpt lat="44.26784" lon="1.78574">
        <ele>308.1</ele>
        <time>2022-02-19T15:15:01Z</time>
      </trkpt>
      <trkpt lat="44.26784" lon="1.78574">
        <ele>308.1</ele>
        <time>2022-02-19T15:15:02Z</time>
      </trkpt>
      <trkpt lat="44.26784" lon="1.78574">
        <ele>308.1</ele>
        <time>2022-02-19T15:15:03Z</time>
      </trkpt>
      <trkpt lat="44.26784" lon="1.78574">
        <ele>308.1</ele>
        <time>2022-02-19T15:15:04Z</time>
      </trkpt>
      <trkpt lat="44.26784" lon="1.78574">
        <ele>308.1</ele>
        <time>2022-02-19T15:15:05Z</time>
      </trkpt>
      <trkpt lat="44.26784" lon="1.78574">
        <ele>308.1</ele>
        <time>2022-02-19T15:15:06Z</time>
      </trkpt>
      <trkpt lat="44.26781" lon="1.78572">
        <ele>307.7</ele>
        <time>2022-02-19T15:15:10Z</time>
      </trkpt>
      <trkpt lat="44.26778" lon="1.78572">
        <ele>307.3</ele>
        <time>2022-02-19T15:15:11Z</time>
      </trkpt>
      <trkpt lat="44.26771" lon="1.78572">
        <ele>306.6</ele>
        <time>2022-02-19T15:15:12Z</time>
      </trkpt>
      <trkpt lat="44.26766" lon="1.78573">
        <ele>306</ele>
        <time>2022-02-19T15:15:14Z</time>
      </trkpt>
      <trkpt lat="44.2676" lon="1.78573">
        <ele>305.3</ele>
        <time>2022-02-19T15:15:15Z</time>
      </trkpt>
      <trkpt lat="44.26754" lon="1.78573">
        <ele>304.6</ele>
        <time>2022-02-19T15:15:16Z</time>
      </trkpt>
      <trkpt lat="44.26748" lon="1.78574">
        <ele>303.9</ele>
        <time>2022-02-19T15:15:17Z</time>
      </trkpt>
      <trkpt lat="44.26741" lon="1.78575">
        <ele>303.1</ele>
        <time>2022-02-19T15:15:18Z</time>
      </trkpt>
      <trkpt lat="44.26734" lon="1.78577">
        <ele>302.3</ele>
        <time>2022-02-19T15:15:19Z</time>
      </trkpt>
      <trkpt lat="44.26726" lon="1.78578">
        <ele>301.4</ele>
        <time>2022-02-19T15:15:20Z</time>
      </trkpt>
      <trkpt lat="44.26718" lon="1.78578">
        <ele>300.5</ele>
        <time>2022-02-19T15:15:21Z</time>
      </trkpt>
      <trkpt lat="44.2671" lon="1.78576">
        <ele>299.6</ele>
        <time>2022-02-19T15:15:22Z</time>
      </trkpt>
      <trkpt lat="44.26704" lon="1.78573">
        <ele>298.8</ele>
        <time>2022-02-19T15:15:23Z</time>
      </trkpt>
      <trkpt lat="44.26699" lon="1.78569">
        <ele>298.2</ele>
        <time>2022-02-19T15:15:24Z</time>
      </trkpt>
      <trkpt lat="44.26695" lon="1.78564">
        <ele>297.6</ele>
        <time>2022-02-19T15:15:25Z</time>
      </trkpt>
      <trkpt lat="44.2669" lon="1.78561">
        <ele>297</ele>
        <time>2022-02-19T15:15:26Z</time>
      </trkpt>
      <trkpt lat="44.26685" lon="1.78556">
        <ele>296.3</ele>
        <time>2022-02-19T15:15:27Z</time>
      </trkpt>
      <trkpt lat="44.26679" lon="1.78551">
        <ele>295.6</ele>
        <time>2022-02-19T15:15:28Z</time>
      </trkpt>
      <trkpt lat="44.26673" lon="1.78547">
        <ele>294.7</ele>
        <time>2022-02-19T15:15:29Z</time>
      </trkpt>
      <trkpt lat="44.26665" lon="1.78544">
        <ele>293.9</ele>
        <time>2022-02-19T15:15:30Z</time>
      </trkpt>
      <trkpt lat="44.26657" lon="1.78542">
        <ele>293</ele>
        <time>2022-02-19T15:15:31Z</time>
      </trkpt>
      <trkpt lat="44.26648" lon="1.78543">
        <ele>292</ele>
        <time>2022-02-19T15:15:32Z</time>
      </trkpt>
      <trkpt lat="44.26638" lon="1.78544">
        <ele>290.9</ele>
        <time>2022-02-19T15:15:33Z</time>
      </trkpt>
      <trkpt lat="44.26629" lon="1.78544">
        <ele>289.8</ele>
        <time>2022-02-19T15:15:34Z</time>
      </trkpt>
      <trkpt lat="44.2662" lon="1.78545">
        <ele>288.8</ele>
        <time>2022-02-19T15:15:35Z</time>
      </trkpt>
      <trkpt lat="44.2661" lon="1.78543">
        <ele>287.6</ele>
        <time>2022-02-19T15:15:36Z</time>
      </trkpt>
      <trkpt lat="44.26601" lon="1.78541">
        <ele>286.7</ele>
        <time>2022-02-19T15:15:37Z</time>
      </trkpt>
      <trkpt lat="44.26591" lon="1.78539">
        <ele>285.8</ele>
        <time>2022-02-19T15:15:38Z</time>
      </trkpt>
      <trkpt lat="44.26584" lon="1.78539">
        <ele>284.9</ele>
        <time>2022-02-19T15:15:39Z</time>
      </trkpt>
      <trkpt lat="44.26579" lon="1.78543">
        <ele>284.2</ele>
        <time>2022-02-19T15:15:40Z</time>
      </trkpt>
      <trkpt lat="44.26576" lon="1.78549">
        <ele>283.6</ele>
        <time>2022-02-19T15:15:41Z</time>
      </trkpt>
      <trkpt lat="44.26576" lon="1.78557">
        <ele>282.9</ele>
        <time>2022-02-19T15:15:42Z</time>
      </trkpt>
      <trkpt lat="44.2658" lon="1.78563">
        <ele>282.1</ele>
        <time>2022-02-19T15:15:43Z</time>
      </trkpt>
      <trkpt lat="44.26587" lon="1.78569">
        <ele>281.9</ele>
        <time>2022-02-19T15:15:44Z</time>
      </trkpt>
      <trkpt lat="44.26596" lon="1.78571">
        <ele>281.5</ele>
        <time>2022-02-19T15:15:45Z</time>
      </trkpt>
      <trkpt lat="44.26605" lon="1.78571">
        <ele>280.6</ele>
        <time>2022-02-19T15:15:46Z</time>
      </trkpt>
      <trkpt lat="44.26611" lon="1.78571">
        <ele>279.6</ele>
        <time>2022-02-19T15:15:47Z</time>
      </trkpt>
      <trkpt lat="44.26615" lon="1.78571">
        <ele>279</ele>
        <time>2022-02-19T15:15:48Z</time>
      </trkpt>
      <trkpt lat="44.26617" lon="1.78572">
        <ele>278.6</ele>
        <time>2022-02-19T15:15:49Z</time>
      </trkpt>
      <trkpt lat="44.26617" lon="1.78573">
        <ele>278.5</ele>
        <time>2022-02-19T15:15:50Z</time>
      </trkpt>
      <trkpt lat="44.26618" lon="1.78574">
        <ele>278.4</ele>
        <time>2022-02-19T15:15:51Z</time>
      </trkpt>
      <trkpt lat="44.26618" lon="1.78575">
        <ele>278.2</ele>
        <time>2022-02-19T15:15:52Z</time>
      </trkpt>
      <trkpt lat="44.26619" lon="1.78575">
        <ele>278</ele>
        <time>2022-02-19T15:15:53Z</time>
      </trkpt>
      <trkpt lat="44.2662" lon="1.78576">
        <ele>277.8</ele>
        <time>2022-02-19T15:15:54Z</time>
      </trkpt>
      <trkpt lat="44.26621" lon="1.78576">
        <ele>277.7</ele>
        <time>2022-02-19T15:15:55Z</time>
      </trkpt>
      <trkpt lat="44.26622" lon="1.78577">
        <ele>277.5</ele>
        <time>2022-02-19T15:15:56Z</time>
      </trkpt>
      <trkpt lat="44.26623" lon="1.78577">
        <ele>277.3</ele>
        <time>2022-02-19T15:15:57Z</time>
      </trkpt>
      <trkpt lat="44.26623" lon="1.78578">
        <ele>277.1</ele>
        <time>2022-02-19T15:15:58Z</time>
      </trkpt>
      <trkpt lat="44.26624" lon="1.78578">
        <ele>276.9</ele>
        <time>2022-02-19T15:15:59Z</time>
      </trkpt>
      <trkpt lat="44.26625" lon="1.78579">
        <ele>276.7</ele>
        <time>2022-02-19T15:17:16Z</time>
      </trkpt>
      <trkpt lat="44.26626" lon="1.7858">
        <ele>276.5</ele>
        <time>2022-02-19T15:17:17Z</time>
      </trkpt>
      <trkpt lat="44.26629" lon="1.78581">
        <ele>275.8</ele>
        <time>2022-02-19T15:17:18Z</time>
      </trkpt>
      <trkpt lat="44.26632" lon="1.78583">
        <ele>275.1</ele>
        <time>2022-02-19T15:17:19Z</time>
      </trkpt>
      <trkpt lat="44.26636" lon="1.78586">
        <ele>274.2</ele>
        <time>2022-02-19T15:17:20Z</time>
      </trkpt>
      <trkpt lat="44.26641" lon="1.78591">
        <ele>272.8</ele>
        <time>2022-02-19T15:17:21Z</time>
      </trkpt>
      <trkpt lat="44.26647" lon="1.78597">
        <ele>270.9</ele>
        <time>2022-02-19T15:17:22Z</time>
      </trkpt>
      <trkpt lat="44.26652" lon="1.78605">
        <ele>269.1</ele>
        <time>2022-02-19T15:17:23Z</time>
      </trkpt>
      <trkpt lat="44.26658" lon="1.78614">
        <ele>267.1</ele>
        <time>2022-02-19T15:17:24Z</time>
      </trkpt>
      <trkpt lat="44.26663" lon="1.78624">
        <ele>265.1</ele>
        <time>2022-02-19T15:17:25Z</time>
      </trkpt>
      <trkpt lat="44.26668" lon="1.78633">
        <ele>263.2</ele>
        <time>2022-02-19T15:17:26Z</time>
      </trkpt>
      <trkpt lat="44.26671" lon="1.7864">
        <ele>261.7</ele>
        <time>2022-02-19T15:17:27Z</time>
      </trkpt>
      <trkpt lat="44.26673" lon="1.78649">
        <ele>260.2</ele>
        <time>2022-02-19T15:17:28Z</time>
      </trkpt>
      <trkpt lat="44.26674" lon="1.78659">
        <ele>258.6</ele>
        <time>2022-02-19T15:17:29Z</time>
      </trkpt>
      <trkpt lat="44.26675" lon="1.78669">
        <ele>256.7</ele>
        <time>2022-02-19T15:17:30Z</time>
      </trkpt>
      <trkpt lat="44.26675" lon="1.78679">
        <ele>255.1</ele>
        <time>2022-02-19T15:17:31Z</time>
      </trkpt>
      <trkpt lat="44.26675" lon="1.78687">
        <ele>253.5</ele>
        <time>2022-02-19T15:17:32Z</time>
      </trkpt>
      <trkpt lat="44.26674" lon="1.78695">
        <ele>252</ele>
        <time>2022-02-19T15:17:33Z</time>
      </trkpt>
      <trkpt lat="44.26673" lon="1.78705">
        <ele>250.1</ele>
        <time>2022-02-19T15:17:34Z</time>
      </trkpt>
      <trkpt lat="44.26673" lon="1.78715">
        <ele>248.5</ele>
        <time>2022-02-19T15:17:35Z</time>
      </trkpt>
      <trkpt lat="44.26674" lon="1.78725">
        <ele>247</ele>
        <time>2022-02-19T15:17:36Z</time>
      </trkpt>
      <trkpt lat="44.26677" lon="1.78734">
        <ele>245.4</ele>
        <time>2022-02-19T15:17:37Z</time>
      </trkpt>
      <trkpt lat="44.2668" lon="1.78744">
        <ele>243.6</ele>
        <time>2022-02-19T15:17:38Z</time>
      </trkpt>
      <trkpt lat="44.26683" lon="1.78754">
        <ele>241.7</ele>
        <time>2022-02-19T15:17:39Z</time>
      </trkpt>
      <trkpt lat="44.26686" lon="1.78765">
        <ele>239.6</ele>
        <time>2022-02-19T15:17:40Z</time>
      </trkpt>
      <trkpt lat="44.2669" lon="1.78776">
        <ele>237.5</ele>
        <time>2022-02-19T15:17:41Z</time>
      </trkpt>
      <trkpt lat="44.26694" lon="1.78786">
        <ele>235.7</ele>
        <time>2022-02-19T15:17:42Z</time>
      </trkpt>
      <trkpt lat="44.26697" lon="1.78795">
        <ele>234.2</ele>
        <time>2022-02-19T15:17:43Z</time>
      </trkpt>
      <trkpt lat="44.26699" lon="1.78804">
        <ele>232.8</ele>
        <time>2022-02-19T15:17:44Z</time>
      </trkpt>
      <trkpt lat="44.26699" lon="1.78812">
        <ele>231.7</ele>
        <time>2022-02-19T15:17:45Z</time>
      </trkpt>
      <trkpt lat="44.26698" lon="1.78819">
        <ele>230.7</ele>
        <time>2022-02-19T15:17:46Z</time>
      </trkpt>
      <trkpt lat="44.26697" lon="1.78825">
        <ele>229.9</ele>
        <time>2022-02-19T15:17:47Z</time>
      </trkpt>
      <trkpt lat="44.26697" lon="1.78827">
        <ele>229.5</ele>
        <time>2022-02-19T15:17:48Z</time>
      </trkpt>
      <trkpt lat="44.26697" lon="1.7883">
        <ele>229.1</ele>
        <time>2022-02-19T15:17:49Z</time>
      </trkpt>
      <trkpt lat="44.26696" lon="1.78832">
        <ele>228.9</ele>
        <time>2022-02-19T15:17:50Z</time>
      </trkpt>
      <trkpt lat="44.26695" lon="1.78834">
        <ele>228.4</ele>
        <time>2022-02-19T15:17:51Z</time>
      </trkpt>
      <trkpt lat="44.26694" lon="1.78836">
        <ele>228.1</ele>
        <time>2022-02-19T15:17:52Z</time>
      </trkpt>
      <trkpt lat="44.26693" lon="1.78838">
        <ele>227.7</ele>
        <time>2022-02-19T15:17:53Z</time>
      </trkpt>
      <trkpt lat="44.26692" lon="1.7884">
        <ele>227.4</ele>
        <time>2022-02-19T15:17:54Z</time>
      </trkpt>
      <trkpt lat="44.26691" lon="1.78842">
        <ele>227</ele>
        <time>2022-02-19T15:17:55Z</time>
      </trkpt>
      <trkpt lat="44.26691" lon="1.78844">
        <ele>226.7</ele>
        <time>2022-02-19T15:17:56Z</time>
      </trkpt>
      <trkpt lat="44.2669" lon="1.78846">
        <ele>226.4</ele>
        <time>2022-02-19T15:17:57Z</time>
      </trkpt>
      <trkpt lat="44.26689" lon="1.78848">
        <ele>226</ele>
        <time>2022-02-19T15:17:58Z</time>
      </trkpt>
      <trkpt lat="44.26688" lon="1.7885">
        <ele>225.7</ele>
        <time>2022-02-19T15:17:59Z</time>
      </trkpt>
      <trkpt lat="44.26687" lon="1.78852">
        <ele>225.4</ele>
        <time>2022-02-19T15:19:40Z</time>
      </trkpt>
      <trkpt lat="44.26686" lon="1.78854">
        <ele>225.1</ele>
        <time>2022-02-19T15:19:41Z</time>
      </trkpt>
      <trkpt lat="44.26684" lon="1.78854">
        <ele>224.7</ele>
        <time>2022-02-19T15:19:42Z</time>
      </trkpt>
      <trkpt lat="44.2668" lon="1.78857">
        <ele>222.3</ele>
        <time>2022-02-19T15:19:44Z</time>
      </trkpt>
      <trkpt lat="44.26678" lon="1.78857">
        <ele>222.3</ele>
        <time>2022-02-19T15:19:45Z</time>
      </trkpt>
      <trkpt lat="44.26675" lon="1.78857">
        <ele>222.3</ele>
        <time>2022-02-19T15:19:47Z</time>
      </trkpt>
      <trkpt lat="44.26673" lon="1.78855">
        <ele>222.2</ele>
        <time>2022-02-19T15:19:48Z</time>
      </trkpt>
      <trkpt lat="44.26672" lon="1.78854">
        <ele>222.2</ele>
        <time>2022-02-19T15:19:49Z</time>
      </trkpt>
      <trkpt lat="44.26669" lon="1.78854">
        <ele>222.2</ele>
        <time>2022-02-19T15:19:50Z</time>
      </trkpt>
      <trkpt lat="44.26668" lon="1.78854">
        <ele>222.2</ele>
        <time>2022-02-19T15:19:51Z</time>
      </trkpt>
      <trkpt lat="44.26664" lon="1.78853">
        <ele>222.1</ele>
        <time>2022-02-19T15:19:53Z</time>
      </trkpt>
      <trkpt lat="44.26664" lon="1.78853">
        <ele>222.1</ele>
        <time>2022-02-19T15:19:54Z</time>
      </trkpt>
      <trkpt lat="44.26662" lon="1.78852">
        <ele>222.1</ele>
        <time>2022-02-19T15:19:55Z</time>
      </trkpt>
      <trkpt lat="44.2666" lon="1.78852">
        <ele>222.1</ele>
        <time>2022-02-19T15:19:56Z</time>
      </trkpt>
      <trkpt lat="44.26658" lon="1.78853">
        <ele>222.1</ele>
        <time>2022-02-19T15:19:58Z</time>
      </trkpt>
      <trkpt lat="44.26655" lon="1.78853">
        <ele>222</ele>
        <time>2022-02-19T15:19:59Z</time>
      </trkpt>
      <trkpt lat="44.26652" lon="1.78853">
        <ele>222</ele>
        <time>2022-02-19T15:20:00Z</time>
      </trkpt>
      <trkpt lat="44.26649" lon="1.78853">
        <ele>222</ele>
        <time>2022-02-19T15:20:01Z</time>
      </trkpt>
      <trkpt lat="44.26646" lon="1.78852">
        <ele>222</ele>
        <time>2022-02-19T15:20:02Z</time>
      </trkpt>
      <trkpt lat="44.26641" lon="1.78851">
        <ele>221.9</ele>
        <time>2022-02-19T15:20:03Z</time>
      </trkpt>
      <trkpt lat="44.26637" lon="1.7885">
        <ele>221.9</ele>
        <time>2022-02-19T15:20:05Z</time>
      </trkpt>
      <trkpt lat="44.26633" lon="1.78848">
        <ele>221.8</ele>
        <time>2022-02-19T15:20:06Z</time>
      </trkpt>
      <trkpt lat="44.26631" lon="1.78848">
        <ele>221.8</ele>
        <time>2022-02-19T15:20:07Z</time>
      </trkpt>
      <trkpt lat="44.26628" lon="1.78848">
        <ele>221.8</ele>
        <time>2022-02-19T15:20:08Z</time>
      </trkpt>
      <trkpt lat="44.26623" lon="1.78848">
        <ele>221.7</ele>
        <time>2022-02-19T15:20:09Z</time>
      </trkpt>
      <trkpt lat="44.26619" lon="1.78846">
        <ele>221.7</ele>
        <time>2022-02-19T15:20:10Z</time>
      </trkpt>
      <trkpt lat="44.26616" lon="1.78845">
        <ele>221.6</ele>
        <time>2022-02-19T15:20:11Z</time>
      </trkpt>
      <trkpt lat="44.26611" lon="1.78842">
        <ele>221.6</ele>
        <time>2022-02-19T15:20:13Z</time>
      </trkpt>
      <trkpt lat="44.26608" lon="1.7884">
        <ele>221.5</ele>
        <time>2022-02-19T15:20:14Z</time>
      </trkpt>
      <trkpt lat="44.26604" lon="1.7884">
        <ele>221.5</ele>
        <time>2022-02-19T15:20:15Z</time>
      </trkpt>
      <trkpt lat="44.26601" lon="1.78838">
        <ele>221.5</ele>
        <time>2022-02-19T15:20:16Z</time>
      </trkpt>
      <trkpt lat="44.26597" lon="1.78836">
        <ele>221.4</ele>
        <time>2022-02-19T15:20:17Z</time>
      </trkpt>
      <trkpt lat="44.26593" lon="1.78834">
        <ele>221.4</ele>
        <time>2022-02-19T15:20:18Z</time>
      </trkpt>
      <trkpt lat="44.26587" lon="1.78832">
        <ele>221.3</ele>
        <time>2022-02-19T15:20:19Z</time>
      </trkpt>
      <trkpt lat="44.26583" lon="1.78829">
        <ele>221.2</ele>
        <time>2022-02-19T15:20:21Z</time>
      </trkpt>
      <trkpt lat="44.26578" lon="1.78826">
        <ele>221.2</ele>
        <time>2022-02-19T15:20:22Z</time>
      </trkpt>
      <trkpt lat="44.26575" lon="1.78824">
        <ele>221.1</ele>
        <time>2022-02-19T15:20:23Z</time>
      </trkpt>
      <trkpt lat="44.26572" lon="1.78822">
        <ele>221.1</ele>
        <time>2022-02-19T15:20:24Z</time>
      </trkpt>
      <trkpt lat="44.26568" lon="1.7882">
        <ele>221</ele>
        <time>2022-02-19T15:20:25Z</time>
      </trkpt>
      <trkpt lat="44.26565" lon="1.78818">
        <ele>221</ele>
        <time>2022-02-19T15:20:26Z</time>
      </trkpt>
      <trkpt lat="44.26561" lon="1.78816">
        <ele>220.9</ele>
        <time>2022-02-19T15:20:27Z</time>
      </trkpt>
      <trkpt lat="44.26557" lon="1.78814">
        <ele>220.9</ele>
        <time>2022-02-19T15:20:28Z</time>
      </trkpt>
      <trkpt lat="44.26551" lon="1.78811">
        <ele>220.8</ele>
        <time>2022-02-19T15:20:30Z</time>
      </trkpt>
      <trkpt lat="44.26547" lon="1.78809">
        <ele>220.7</ele>
        <time>2022-02-19T15:20:31Z</time>
      </trkpt>
      <trkpt lat="44.26543" lon="1.78808">
        <ele>220.7</ele>
        <time>2022-02-19T15:20:32Z</time>
      </trkpt>
      <trkpt lat="44.26539" lon="1.78806">
        <ele>220.6</ele>
        <time>2022-02-19T15:20:33Z</time>
      </trkpt>
      <trkpt lat="44.26535" lon="1.78804">
        <ele>220.5</ele>
        <time>2022-02-19T15:20:34Z</time>
      </trkpt>
      <trkpt lat="44.26531" lon="1.78803">
        <ele>220.5</ele>
        <time>2022-02-19T15:20:35Z</time>
      </trkpt>
      <trkpt lat="44.26527" lon="1.78802">
        <ele>220.4</ele>
        <time>2022-02-19T15:20:36Z</time>
      </trkpt>
      <trkpt lat="44.26524" lon="1.78801">
        <ele>220.4</ele>
        <time>2022-02-19T15:20:37Z</time>
      </trkpt>
      <trkpt lat="44.26519" lon="1.78799">
        <ele>220.3</ele>
        <time>2022-02-19T15:20:38Z</time>
      </trkpt>
      <trkpt lat="44.26515" lon="1.78796">
        <ele>220.2</ele>
        <time>2022-02-19T15:20:39Z</time>
      </trkpt>
      <trkpt lat="44.2651" lon="1.78793">
        <ele>220.1</ele>
        <time>2022-02-19T15:20:40Z</time>
      </trkpt>
      <trkpt lat="44.26506" lon="1.7879">
        <ele>220.1</ele>
        <time>2022-02-19T15:20:41Z</time>
      </trkpt>
      <trkpt lat="44.26503" lon="1.78789">
        <ele>220</ele>
        <time>2022-02-19T15:20:42Z</time>
      </trkpt>
      <trkpt lat="44.26499" lon="1.78789">
        <ele>219.9</ele>
        <time>2022-02-19T15:20:43Z</time>
      </trkpt>
      <trkpt lat="44.26494" lon="1.78783">
        <ele>219.8</ele>
        <time>2022-02-19T15:20:44Z</time>
      </trkpt>
      <trkpt lat="44.26489" lon="1.7878">
        <ele>219.7</ele>
        <time>2022-02-19T15:20:45Z</time>
      </trkpt>
      <trkpt lat="44.26484" lon="1.78777">
        <ele>219.6</ele>
        <time>2022-02-19T15:20:46Z</time>
      </trkpt>
      <trkpt lat="44.26479" lon="1.78774">
        <ele>219.5</ele>
        <time>2022-02-19T15:20:47Z</time>
      </trkpt>
      <trkpt lat="44.26475" lon="1.78772">
        <ele>219.4</ele>
        <time>2022-02-19T15:20:48Z</time>
      </trkpt>
      <trkpt lat="44.26469" lon="1.7877">
        <ele>219.3</ele>
        <time>2022-02-19T15:20:49Z</time>
      </trkpt>
      <trkpt lat="44.26464" lon="1.78769">
        <ele>219.2</ele>
        <time>2022-02-19T15:20:50Z</time>
      </trkpt>
      <trkpt lat="44.26459" lon="1.78768">
        <ele>219.1</ele>
        <time>2022-02-19T15:20:51Z</time>
      </trkpt>
      <trkpt lat="44.26455" lon="1.78766">
        <ele>219</ele>
        <time>2022-02-19T15:20:52Z</time>
      </trkpt>
      <trkpt lat="44.2645" lon="1.78764">
        <ele>219</ele>
        <time>2022-02-19T15:20:53Z</time>
      </trkpt>
      <trkpt lat="44.26445" lon="1.78763">
        <ele>218.9</ele>
        <time>2022-02-19T15:20:54Z</time>
      </trkpt>
      <trkpt lat="44.2644" lon="1.78761">
        <ele>218.8</ele>
        <time>2022-02-19T15:20:55Z</time>
      </trkpt>
      <trkpt lat="44.26435" lon="1.78759">
        <ele>218.8</ele>
        <time>2022-02-19T15:20:56Z</time>
      </trkpt>
      <trkpt lat="44.26431" lon="1.78758">
        <ele>218.7</ele>
        <time>2022-02-19T15:20:57Z</time>
      </trkpt>
      <trkpt lat="44.26426" lon="1.78756">
        <ele>218.7</ele>
        <time>2022-02-19T15:20:58Z</time>
      </trkpt>
      <trkpt lat="44.26422" lon="1.78754">
        <ele>218.6</ele>
        <time>2022-02-19T15:20:59Z</time>
      </trkpt>
      <trkpt lat="44.26417" lon="1.78751">
        <ele>218.6</ele>
        <time>2022-02-19T15:21:00Z</time>
      </trkpt>
      <trkpt lat="44.26412" lon="1.78749">
        <ele>218.6</ele>
        <time>2022-02-19T15:21:01Z</time>
      </trkpt>
      <trkpt lat="44.26407" lon="1.78747">
        <ele>218.6</ele>
        <time>2022-02-19T15:21:02Z</time>
      </trkpt>
      <trkpt lat="44.26403" lon="1.78744">
        <ele>218.6</ele>
        <time>2022-02-19T15:21:03Z</time>
      </trkpt>
      <trkpt lat="44.26399" lon="1.78741">
        <ele>218.5</ele>
        <time>2022-02-19T15:21:04Z</time>
      </trkpt>
      <trkpt lat="44.26395" lon="1.78739">
        <ele>218.5</ele>
        <time>2022-02-19T15:21:05Z</time>
      </trkpt>
      <trkpt lat="44.26392" lon="1.78736">
        <ele>218.5</ele>
        <time>2022-02-19T15:21:06Z</time>
      </trkpt>
      <trkpt lat="44.26389" lon="1.78733">
        <ele>218.5</ele>
        <time>2022-02-19T15:21:07Z</time>
      </trkpt>
      <trkpt lat="44.26385" lon="1.7873">
        <ele>218.4</ele>
        <time>2022-02-19T15:21:08Z</time>
      </trkpt>
      <trkpt lat="44.26382" lon="1.78728">
        <ele>218.4</ele>
        <time>2022-02-19T15:21:09Z</time>
      </trkpt>
      <trkpt lat="44.26378" lon="1.78724">
        <ele>218.4</ele>
        <time>2022-02-19T15:21:10Z</time>
      </trkpt>
      <trkpt lat="44.26376" lon="1.78725">
        <ele>218.4</ele>
        <time>2022-02-19T15:21:11Z</time>
      </trkpt>
      <trkpt lat="44.2637" lon="1.78717">
        <ele>218.3</ele>
        <time>2022-02-19T15:21:13Z</time>
      </trkpt>
      <trkpt lat="44.26366" lon="1.78713">
        <ele>218.3</ele>
        <time>2022-02-19T15:21:14Z</time>
      </trkpt>
      <trkpt lat="44.26362" lon="1.78709">
        <ele>218.3</ele>
        <time>2022-02-19T15:21:15Z</time>
      </trkpt>
      <trkpt lat="44.26358" lon="1.78706">
        <ele>218.2</ele>
        <time>2022-02-19T15:21:16Z</time>
      </trkpt>
      <trkpt lat="44.26354" lon="1.78703">
        <ele>218.2</ele>
        <time>2022-02-19T15:21:17Z</time>
      </trkpt>
      <trkpt lat="44.2635" lon="1.787">
        <ele>218.2</ele>
        <time>2022-02-19T15:21:19Z</time>
      </trkpt>
      <trkpt lat="44.26347" lon="1.78695">
        <ele>218.2</ele>
        <time>2022-02-19T15:21:20Z</time>
      </trkpt>
      <trkpt lat="44.26344" lon="1.78693">
        <ele>218.1</ele>
        <time>2022-02-19T15:21:21Z</time>
      </trkpt>
      <trkpt lat="44.26342" lon="1.78692">
        <ele>218.1</ele>
        <time>2022-02-19T15:21:22Z</time>
      </trkpt>
      <trkpt lat="44.26339" lon="1.7869">
        <ele>218.1</ele>
        <time>2022-02-19T15:21:23Z</time>
      </trkpt>
      <trkpt lat="44.26336" lon="1.78686">
        <ele>218.1</ele>
        <time>2022-02-19T15:21:24Z</time>
      </trkpt>
      <trkpt lat="44.26335" lon="1.78685">
        <ele>218.1</ele>
        <time>2022-02-19T15:21:25Z</time>
      </trkpt>
      <trkpt lat="44.26329" lon="1.78681">
        <ele>218</ele>
        <time>2022-02-19T15:21:27Z</time>
      </trkpt>
      <trkpt lat="44.26326" lon="1.78677">
        <ele>218</ele>
        <time>2022-02-19T15:21:28Z</time>
      </trkpt>
      <trkpt lat="44.26323" lon="1.78675">
        <ele>218</ele>
        <time>2022-02-19T15:21:29Z</time>
      </trkpt>
      <trkpt lat="44.26319" lon="1.78672">
        <ele>218</ele>
        <time>2022-02-19T15:21:30Z</time>
      </trkpt>
      <trkpt lat="44.26315" lon="1.78668">
        <ele>218</ele>
        <time>2022-02-19T15:21:31Z</time>
      </trkpt>
      <trkpt lat="44.26311" lon="1.78664">
        <ele>217.9</ele>
        <time>2022-02-19T15:21:32Z</time>
      </trkpt>
      <trkpt lat="44.26307" lon="1.7866">
        <ele>217.9</ele>
        <time>2022-02-19T15:21:34Z</time>
      </trkpt>
      <trkpt lat="44.26303" lon="1.78657">
        <ele>217.9</ele>
        <time>2022-02-19T15:21:35Z</time>
      </trkpt>
      <trkpt lat="44.263" lon="1.78655">
        <ele>217.8</ele>
        <time>2022-02-19T15:21:36Z</time>
      </trkpt>
      <trkpt lat="44.26295" lon="1.78651">
        <ele>217.8</ele>
        <time>2022-02-19T15:21:38Z</time>
      </trkpt>
      <trkpt lat="44.26292" lon="1.78648">
        <ele>217.8</ele>
        <time>2022-02-19T15:21:39Z</time>
      </trkpt>
      <trkpt lat="44.2629" lon="1.78645">
        <ele>217.7</ele>
        <time>2022-02-19T15:21:40Z</time>
      </trkpt>
      <trkpt lat="44.26287" lon="1.78641">
        <ele>217.7</ele>
        <time>2022-02-19T15:21:41Z</time>
      </trkpt>
      <trkpt lat="44.26284" lon="1.78638">
        <ele>217.7</ele>
        <time>2022-02-19T15:21:42Z</time>
      </trkpt>
      <trkpt lat="44.2628" lon="1.78634">
        <ele>217.6</ele>
        <time>2022-02-19T15:21:43Z</time>
      </trkpt>
      <trkpt lat="44.26277" lon="1.78631">
        <ele>217.6</ele>
        <time>2022-02-19T15:21:44Z</time>
      </trkpt>
      <trkpt lat="44.26273" lon="1.78627">
        <ele>217.6</ele>
        <time>2022-02-19T15:21:46Z</time>
      </trkpt>
      <trkpt lat="44.26269" lon="1.78624">
        <ele>217.5</ele>
        <time>2022-02-19T15:21:47Z</time>
      </trkpt>
      <trkpt lat="44.26265" lon="1.7862">
        <ele>217.5</ele>
        <time>2022-02-19T15:21:48Z</time>
      </trkpt>
      <trkpt lat="44.26262" lon="1.78617">
        <ele>217.5</ele>
        <time>2022-02-19T15:21:49Z</time>
      </trkpt>
      <trkpt lat="44.26258" lon="1.78612">
        <ele>217.5</ele>
        <time>2022-02-19T15:21:50Z</time>
      </trkpt>
      <trkpt lat="44.26254" lon="1.78608">
        <ele>217.4</ele>
        <time>2022-02-19T15:21:51Z</time>
      </trkpt>
      <trkpt lat="44.26249" lon="1.78605">
        <ele>217.4</ele>
        <time>2022-02-19T15:21:53Z</time>
      </trkpt>
      <trkpt lat="44.26245" lon="1.78603">
        <ele>217.4</ele>
        <time>2022-02-19T15:21:54Z</time>
      </trkpt>
      <trkpt lat="44.2624" lon="1.78599">
        <ele>217.4</ele>
        <time>2022-02-19T15:21:55Z</time>
      </trkpt>
      <trkpt lat="44.26237" lon="1.78597">
        <ele>217.4</ele>
        <time>2022-02-19T15:21:56Z</time>
      </trkpt>
      <trkpt lat="44.26234" lon="1.78594">
        <ele>217.4</ele>
        <time>2022-02-19T15:21:57Z</time>
      </trkpt>
      <trkpt lat="44.26231" lon="1.78592">
        <ele>217.4</ele>
        <time>2022-02-19T15:21:58Z</time>
      </trkpt>
      <trkpt lat="44.26227" lon="1.78589">
        <ele>217.3</ele>
        <time>2022-02-19T15:21:59Z</time>
      </trkpt>
      <trkpt lat="44.26223" lon="1.78586">
        <ele>217.3</ele>
        <time>2022-02-19T15:22:01Z</time>
      </trkpt>
      <trkpt lat="44.26218" lon="1.78583">
        <ele>217.3</ele>
        <time>2022-02-19T15:22:02Z</time>
      </trkpt>
      <trkpt lat="44.26214" lon="1.78582">
        <ele>217.3</ele>
        <time>2022-02-19T15:22:03Z</time>
      </trkpt>
      <trkpt lat="44.26211" lon="1.7858">
        <ele>217.3</ele>
        <time>2022-02-19T15:22:04Z</time>
      </trkpt>
      <trkpt lat="44.26208" lon="1.78578">
        <ele>217.3</ele>
        <time>2022-02-19T15:22:05Z</time>
      </trkpt>
      <trkpt lat="44.26202" lon="1.78575">
        <ele>217.3</ele>
        <time>2022-02-19T15:22:07Z</time>
      </trkpt>
      <trkpt lat="44.26198" lon="1.78572">
        <ele>217.3</ele>
        <time>2022-02-19T15:22:08Z</time>
      </trkpt>
      <trkpt lat="44.26194" lon="1.78568">
        <ele>217.2</ele>
        <time>2022-02-19T15:22:09Z</time>
      </trkpt>
      <trkpt lat="44.2619" lon="1.78565">
        <ele>217.2</ele>
        <time>2022-02-19T15:22:10Z</time>
      </trkpt>
      <trkpt lat="44.26186" lon="1.78562">
        <ele>217.2</ele>
        <time>2022-02-19T15:22:11Z</time>
      </trkpt>
      <trkpt lat="44.26182" lon="1.78559">
        <ele>217.1</ele>
        <time>2022-02-19T15:22:12Z</time>
      </trkpt>
      <trkpt lat="44.26178" lon="1.78557">
        <ele>217.1</ele>
        <time>2022-02-19T15:22:13Z</time>
      </trkpt>
      <trkpt lat="44.26171" lon="1.78553">
        <ele>217.1</ele>
        <time>2022-02-19T15:22:15Z</time>
      </trkpt>
      <trkpt lat="44.26167" lon="1.7855">
        <ele>217</ele>
        <time>2022-02-19T15:22:16Z</time>
      </trkpt>
      <trkpt lat="44.26162" lon="1.78547">
        <ele>217</ele>
        <time>2022-02-19T15:22:17Z</time>
      </trkpt>
      <trkpt lat="44.26158" lon="1.78545">
        <ele>217</ele>
        <time>2022-02-19T15:22:18Z</time>
      </trkpt>
      <trkpt lat="44.2615" lon="1.7854">
        <ele>216.9</ele>
        <time>2022-02-19T15:22:20Z</time>
      </trkpt>
      <trkpt lat="44.26145" lon="1.78543">
        <ele>216.8</ele>
        <time>2022-02-19T15:22:22Z</time>
      </trkpt>
      <trkpt lat="44.26139" lon="1.78537">
        <ele>216.8</ele>
        <time>2022-02-19T15:22:23Z</time>
      </trkpt>
      <trkpt lat="44.26132" lon="1.78528">
        <ele>216.7</ele>
        <time>2022-02-19T15:22:25Z</time>
      </trkpt>
      <trkpt lat="44.26126" lon="1.78523">
        <ele>216.7</ele>
        <time>2022-02-19T15:22:26Z</time>
      </trkpt>
      <trkpt lat="44.26123" lon="1.78518">
        <ele>216.6</ele>
        <time>2022-02-19T15:22:27Z</time>
      </trkpt>
      <trkpt lat="44.26118" lon="1.78514">
        <ele>216.6</ele>
        <time>2022-02-19T15:22:28Z</time>
      </trkpt>
      <trkpt lat="44.26114" lon="1.7851">
        <ele>216.6</ele>
        <time>2022-02-19T15:22:30Z</time>
      </trkpt>
      <trkpt lat="44.2611" lon="1.78505">
        <ele>216.6</ele>
        <time>2022-02-19T15:22:31Z</time>
      </trkpt>
      <trkpt lat="44.26106" lon="1.78501">
        <ele>216.5</ele>
        <time>2022-02-19T15:22:32Z</time>
      </trkpt>
      <trkpt lat="44.26103" lon="1.78497">
        <ele>216.5</ele>
        <time>2022-02-19T15:22:33Z</time>
      </trkpt>
      <trkpt lat="44.26101" lon="1.78493">
        <ele>216.5</ele>
        <time>2022-02-19T15:22:34Z</time>
      </trkpt>
      <trkpt lat="44.26096" lon="1.78488">
        <ele>216.4</ele>
        <time>2022-02-19T15:22:35Z</time>
      </trkpt>
      <trkpt lat="44.26091" lon="1.78483">
        <ele>216.3</ele>
        <time>2022-02-19T15:22:36Z</time>
      </trkpt>
      <trkpt lat="44.26087" lon="1.78476">
        <ele>216.2</ele>
        <time>2022-02-19T15:22:38Z</time>
      </trkpt>
      <trkpt lat="44.26084" lon="1.78471">
        <ele>216.2</ele>
        <time>2022-02-19T15:22:39Z</time>
      </trkpt>
      <trkpt lat="44.2608" lon="1.78464">
        <ele>216.1</ele>
        <time>2022-02-19T15:22:40Z</time>
      </trkpt>
      <trkpt lat="44.26078" lon="1.78458">
        <ele>216.1</ele>
        <time>2022-02-19T15:22:41Z</time>
      </trkpt>
      <trkpt lat="44.26076" lon="1.7845">
        <ele>216.1</ele>
        <time>2022-02-19T15:22:43Z</time>
      </trkpt>
      <trkpt lat="44.26072" lon="1.78442">
        <ele>216</ele>
        <time>2022-02-19T15:22:44Z</time>
      </trkpt>
      <trkpt lat="44.26069" lon="1.78436">
        <ele>216</ele>
        <time>2022-02-19T15:22:45Z</time>
      </trkpt>
      <trkpt lat="44.26069" lon="1.78431">
        <ele>216</ele>
        <time>2022-02-19T15:22:46Z</time>
      </trkpt>
      <trkpt lat="44.26066" lon="1.78423">
        <ele>216</ele>
        <time>2022-02-19T15:22:48Z</time>
      </trkpt>
      <trkpt lat="44.26062" lon="1.78415">
        <ele>215.9</ele>
        <time>2022-02-19T15:22:49Z</time>
      </trkpt>
      <trkpt lat="44.26059" lon="1.7841">
        <ele>215.9</ele>
        <time>2022-02-19T15:22:50Z</time>
      </trkpt>
      <trkpt lat="44.26056" lon="1.78404">
        <ele>215.9</ele>
        <time>2022-02-19T15:22:51Z</time>
      </trkpt>
      <trkpt lat="44.26054" lon="1.78399">
        <ele>215.9</ele>
        <time>2022-02-19T15:22:52Z</time>
      </trkpt>
      <trkpt lat="44.26052" lon="1.78394">
        <ele>215.9</ele>
        <time>2022-02-19T15:22:53Z</time>
      </trkpt>
      <trkpt lat="44.26046" lon="1.78384">
        <ele>215.8</ele>
        <time>2022-02-19T15:22:55Z</time>
      </trkpt>
      <trkpt lat="44.26044" lon="1.78379">
        <ele>215.8</ele>
        <time>2022-02-19T15:22:56Z</time>
      </trkpt>
      <trkpt lat="44.26041" lon="1.78374">
        <ele>215.8</ele>
        <time>2022-02-19T15:22:57Z</time>
      </trkpt>
      <trkpt lat="44.26039" lon="1.7837">
        <ele>215.9</ele>
        <time>2022-02-19T15:22:58Z</time>
      </trkpt>
      <trkpt lat="44.26036" lon="1.78366">
        <ele>215.9</ele>
        <time>2022-02-19T15:22:59Z</time>
      </trkpt>
      <trkpt lat="44.26034" lon="1.78362">
        <ele>215.9</ele>
        <time>2022-02-19T15:23:00Z</time>
      </trkpt>
      <trkpt lat="44.26032" lon="1.78357">
        <ele>215.9</ele>
        <time>2022-02-19T15:23:01Z</time>
      </trkpt>
      <trkpt lat="44.2603" lon="1.78353">
        <ele>215.9</ele>
        <time>2022-02-19T15:23:02Z</time>
      </trkpt>
      <trkpt lat="44.26027" lon="1.78349">
        <ele>215.9</ele>
        <time>2022-02-19T15:23:03Z</time>
      </trkpt>
      <trkpt lat="44.26025" lon="1.78345">
        <ele>215.9</ele>
        <time>2022-02-19T15:23:04Z</time>
      </trkpt>
      <trkpt lat="44.26022" lon="1.78342">
        <ele>215.9</ele>
        <time>2022-02-19T15:23:05Z</time>
      </trkpt>
      <trkpt lat="44.26021" lon="1.78341">
        <ele>215.9</ele>
        <time>2022-02-19T15:23:06Z</time>
      </trkpt>
      <trkpt lat="44.2602" lon="1.78339">
        <ele>215.9</ele>
        <time>2022-02-19T15:23:07Z</time>
      </trkpt>
      <trkpt lat="44.2602" lon="1.78338">
        <ele>215.9</ele>
        <time>2022-02-19T15:23:08Z</time>
      </trkpt>
      <trkpt lat="44.26019" lon="1.78337">
        <ele>215.9</ele>
        <time>2022-02-19T15:23:09Z</time>
      </trkpt>
      <trkpt lat="44.26019" lon="1.78336">
        <ele>215.9</ele>
        <time>2022-02-19T15:23:10Z</time>
      </trkpt>
      <trkpt lat="44.26019" lon="1.78336">
        <ele>215.9</ele>
        <time>2022-02-19T15:23:11Z</time>
      </trkpt>
      <trkpt lat="44.26019" lon="1.78335">
        <ele>215.9</ele>
        <time>2022-02-19T15:23:12Z</time>
      </trkpt>
      <trkpt lat="44.26019" lon="1.78334">
        <ele>215.9</ele>
        <time>2022-02-19T15:23:13Z</time>
      </trkpt>
      <trkpt lat="44.26019" lon="1.78333">
        <ele>215.9</ele>
        <time>2022-02-19T15:23:15Z</time>
      </trkpt>
      <trkpt lat="44.26018" lon="1.78332">
        <ele>215.9</ele>
        <time>2022-02-19T15:23:16Z</time>
      </trkpt>
      <trkpt lat="44.26018" lon="1.78331">
        <ele>215.9</ele>
        <time>2022-02-19T15:23:17Z</time>
      </trkpt>
      <trkpt lat="44.26018" lon="1.7833">
        <ele>216</ele>
        <time>2022-02-19T15:23:26Z</time>
      </trkpt>
      <trkpt lat="44.26018" lon="1.78329">
        <ele>216</ele>
        <time>2022-02-19T15:23:28Z</time>
      </trkpt>
      <trkpt lat="44.26018" lon="1.78329">
        <ele>216</ele>
        <time>2022-02-19T15:23:29Z</time>
      </trkpt>
      <trkpt lat="44.26017" lon="1.78328">
        <ele>216</ele>
        <time>2022-02-19T15:23:30Z</time>
      </trkpt>
      <trkpt lat="44.26016" lon="1.78323">
        <ele>216</ele>
        <time>2022-02-19T15:23:31Z</time>
      </trkpt>
      <trkpt lat="44.26015" lon="1.78321">
        <ele>216</ele>
        <time>2022-02-19T15:23:32Z</time>
      </trkpt>
      <trkpt lat="44.26014" lon="1.78317">
        <ele>216</ele>
        <time>2022-02-19T15:23:33Z</time>
      </trkpt>
      <trkpt lat="44.26012" lon="1.78313">
        <ele>216</ele>
        <time>2022-02-19T15:23:34Z</time>
      </trkpt>
      <trkpt lat="44.26011" lon="1.78311">
        <ele>216</ele>
        <time>2022-02-19T15:23:35Z</time>
      </trkpt>
      <trkpt lat="44.26009" lon="1.78308">
        <ele>216</ele>
        <time>2022-02-19T15:23:36Z</time>
      </trkpt>
      <trkpt lat="44.26009" lon="1.78307">
        <ele>216</ele>
        <time>2022-02-19T15:23:37Z</time>
      </trkpt>
      <trkpt lat="44.26008" lon="1.78303">
        <ele>216</ele>
        <time>2022-02-19T15:23:38Z</time>
      </trkpt>
      <trkpt lat="44.26006" lon="1.78299">
        <ele>216</ele>
        <time>2022-02-19T15:23:40Z</time>
      </trkpt>
      <trkpt lat="44.26005" lon="1.78294">
        <ele>216</ele>
        <time>2022-02-19T15:23:41Z</time>
      </trkpt>
      <trkpt lat="44.26003" lon="1.78291">
        <ele>216</ele>
        <time>2022-02-19T15:23:42Z</time>
      </trkpt>
      <trkpt lat="44.26001" lon="1.78285">
        <ele>216</ele>
        <time>2022-02-19T15:23:43Z</time>
      </trkpt>
      <trkpt lat="44.26001" lon="1.78282">
        <ele>216</ele>
        <time>2022-02-19T15:23:44Z</time>
      </trkpt>
      <trkpt lat="44.26" lon="1.78276">
        <ele>216</ele>
        <time>2022-02-19T15:23:46Z</time>
      </trkpt>
      <trkpt lat="44.25999" lon="1.78272">
        <ele>216</ele>
        <time>2022-02-19T15:23:47Z</time>
      </trkpt>
      <trkpt lat="44.25997" lon="1.78268">
        <ele>216</ele>
        <time>2022-02-19T15:23:48Z</time>
      </trkpt>
      <trkpt lat="44.25996" lon="1.78264">
        <ele>216</ele>
        <time>2022-02-19T15:23:49Z</time>
      </trkpt>
      <trkpt lat="44.25995" lon="1.7826">
        <ele>216</ele>
        <time>2022-02-19T15:23:50Z</time>
      </trkpt>
      <trkpt lat="44.25994" lon="1.78254">
        <ele>216</ele>
        <time>2022-02-19T15:23:51Z</time>
      </trkpt>
      <trkpt lat="44.25993" lon="1.7825">
        <ele>216</ele>
        <time>2022-02-19T15:23:52Z</time>
      </trkpt>
      <trkpt lat="44.25991" lon="1.78245">
        <ele>215.9</ele>
        <time>2022-02-19T15:23:54Z</time>
      </trkpt>
      <trkpt lat="44.2599" lon="1.7824">
        <ele>215.9</ele>
        <time>2022-02-19T15:23:55Z</time>
      </trkpt>
      <trkpt lat="44.25988" lon="1.78236">
        <ele>215.9</ele>
        <time>2022-02-19T15:23:56Z</time>
      </trkpt>
      <trkpt lat="44.25986" lon="1.78231">
        <ele>215.9</ele>
        <time>2022-02-19T15:23:57Z</time>
      </trkpt>
      <trkpt lat="44.25985" lon="1.78229">
        <ele>215.9</ele>
        <time>2022-02-19T15:23:58Z</time>
      </trkpt>
      <trkpt lat="44.25983" lon="1.78223">
        <ele>215.8</ele>
        <time>2022-02-19T15:24:00Z</time>
      </trkpt>
      <trkpt lat="44.25982" lon="1.78219">
        <ele>215.8</ele>
        <time>2022-02-19T15:24:01Z</time>
      </trkpt>
      <trkpt lat="44.25981" lon="1.78215">
        <ele>215.8</ele>
        <time>2022-02-19T15:24:02Z</time>
      </trkpt>
      <trkpt lat="44.2598" lon="1.78209">
        <ele>215.6</ele>
        <time>2022-02-19T15:24:03Z</time>
      </trkpt>
      <trkpt lat="44.25977" lon="1.78204">
        <ele>215.5</ele>
        <time>2022-02-19T15:24:05Z</time>
      </trkpt>
      <trkpt lat="44.25976" lon="1.78199">
        <ele>215.4</ele>
        <time>2022-02-19T15:24:06Z</time>
      </trkpt>
      <trkpt lat="44.25974" lon="1.78194">
        <ele>215.3</ele>
        <time>2022-02-19T15:24:07Z</time>
      </trkpt>
      <trkpt lat="44.25972" lon="1.7819">
        <ele>215.2</ele>
        <time>2022-02-19T15:24:08Z</time>
      </trkpt>
      <trkpt lat="44.2597" lon="1.78185">
        <ele>215.1</ele>
        <time>2022-02-19T15:24:09Z</time>
      </trkpt>
      <trkpt lat="44.25966" lon="1.78176">
        <ele>214.9</ele>
        <time>2022-02-19T15:24:11Z</time>
      </trkpt>
      <trkpt lat="44.25964" lon="1.78171">
        <ele>214.7</ele>
        <time>2022-02-19T15:24:12Z</time>
      </trkpt>
      <trkpt lat="44.25963" lon="1.78165">
        <ele>214.6</ele>
        <time>2022-02-19T15:24:13Z</time>
      </trkpt>
      <trkpt lat="44.25961" lon="1.78159">
        <ele>214.5</ele>
        <time>2022-02-19T15:24:14Z</time>
      </trkpt>
      <trkpt lat="44.25958" lon="1.78153">
        <ele>214.4</ele>
        <time>2022-02-19T15:24:15Z</time>
      </trkpt>
      <trkpt lat="44.25955" lon="1.78145">
        <ele>214.3</ele>
        <time>2022-02-19T15:24:17Z</time>
      </trkpt>
      <trkpt lat="44.25953" lon="1.78138">
        <ele>214.2</ele>
        <time>2022-02-19T15:24:18Z</time>
      </trkpt>
      <trkpt lat="44.2595" lon="1.78131">
        <ele>214.1</ele>
        <time>2022-02-19T15:24:19Z</time>
      </trkpt>
      <trkpt lat="44.25947" lon="1.78124">
        <ele>214</ele>
        <time>2022-02-19T15:24:21Z</time>
      </trkpt>
      <trkpt lat="44.25945" lon="1.78119">
        <ele>213.9</ele>
        <time>2022-02-19T15:24:22Z</time>
      </trkpt>
      <trkpt lat="44.25944" lon="1.78115">
        <ele>213.8</ele>
        <time>2022-02-19T15:24:23Z</time>
      </trkpt>
      <trkpt lat="44.25942" lon="1.78111">
        <ele>213.8</ele>
        <time>2022-02-19T15:24:24Z</time>
      </trkpt>
      <trkpt lat="44.25939" lon="1.78107">
        <ele>213.7</ele>
        <time>2022-02-19T15:24:25Z</time>
      </trkpt>
      <trkpt lat="44.25937" lon="1.781">
        <ele>213.6</ele>
        <time>2022-02-19T15:24:26Z</time>
      </trkpt>
      <trkpt lat="44.25934" lon="1.78094">
        <ele>213.5</ele>
        <time>2022-02-19T15:24:28Z</time>
      </trkpt>
      <trkpt lat="44.25932" lon="1.7809">
        <ele>213.4</ele>
        <time>2022-02-19T15:24:29Z</time>
      </trkpt>
      <trkpt lat="44.2593" lon="1.78085">
        <ele>213.4</ele>
        <time>2022-02-19T15:24:30Z</time>
      </trkpt>
      <trkpt lat="44.25928" lon="1.78081">
        <ele>213.3</ele>
        <time>2022-02-19T15:24:31Z</time>
      </trkpt>
      <trkpt lat="44.25926" lon="1.78076">
        <ele>213.2</ele>
        <time>2022-02-19T15:24:32Z</time>
      </trkpt>
      <trkpt lat="44.25922" lon="1.78067">
        <ele>213.1</ele>
        <time>2022-02-19T15:24:34Z</time>
      </trkpt>
      <trkpt lat="44.2592" lon="1.78061">
        <ele>213</ele>
        <time>2022-02-19T15:24:35Z</time>
      </trkpt>
      <trkpt lat="44.25917" lon="1.78055">
        <ele>213</ele>
        <time>2022-02-19T15:24:36Z</time>
      </trkpt>
      <trkpt lat="44.25914" lon="1.78048">
        <ele>212.9</ele>
        <time>2022-02-19T15:24:38Z</time>
      </trkpt>
      <trkpt lat="44.25912" lon="1.78043">
        <ele>212.9</ele>
        <time>2022-02-19T15:24:39Z</time>
      </trkpt>
      <trkpt lat="44.2591" lon="1.78038">
        <ele>212.9</ele>
        <time>2022-02-19T15:24:40Z</time>
      </trkpt>
      <trkpt lat="44.25908" lon="1.78034">
        <ele>212.9</ele>
        <time>2022-02-19T15:24:41Z</time>
      </trkpt>
      <trkpt lat="44.25905" lon="1.78027">
        <ele>212.9</ele>
        <time>2022-02-19T15:24:43Z</time>
      </trkpt>
      <trkpt lat="44.25901" lon="1.78022">
        <ele>213</ele>
        <time>2022-02-19T15:24:44Z</time>
      </trkpt>
      <trkpt lat="44.25899" lon="1.78016">
        <ele>213</ele>
        <time>2022-02-19T15:24:46Z</time>
      </trkpt>
      <trkpt lat="44.25896" lon="1.78012">
        <ele>213.1</ele>
        <time>2022-02-19T15:24:47Z</time>
      </trkpt>
      <trkpt lat="44.25895" lon="1.78008">
        <ele>213.2</ele>
        <time>2022-02-19T15:24:48Z</time>
      </trkpt>
      <trkpt lat="44.25893" lon="1.78005">
        <ele>213.2</ele>
        <time>2022-02-19T15:24:49Z</time>
      </trkpt>
      <trkpt lat="44.25891" lon="1.78002">
        <ele>213.3</ele>
        <time>2022-02-19T15:24:50Z</time>
      </trkpt>
      <trkpt lat="44.25889" lon="1.77999">
        <ele>213.3</ele>
        <time>2022-02-19T15:24:51Z</time>
      </trkpt>
      <trkpt lat="44.25888" lon="1.77995">
        <ele>213.4</ele>
        <time>2022-02-19T15:24:52Z</time>
      </trkpt>
      <trkpt lat="44.25886" lon="1.77992">
        <ele>213.5</ele>
        <time>2022-02-19T15:24:53Z</time>
      </trkpt>
      <trkpt lat="44.25884" lon="1.7799">
        <ele>213.5</ele>
        <time>2022-02-19T15:24:54Z</time>
      </trkpt>
      <trkpt lat="44.25881" lon="1.77986">
        <ele>213.6</ele>
        <time>2022-02-19T15:24:55Z</time>
      </trkpt>
      <trkpt lat="44.2588" lon="1.77985">
        <ele>213.7</ele>
        <time>2022-02-19T15:24:56Z</time>
      </trkpt>
      <trkpt lat="44.25878" lon="1.77982">
        <ele>213.7</ele>
        <time>2022-02-19T15:24:58Z</time>
      </trkpt>
      <trkpt lat="44.25876" lon="1.77981">
        <ele>213.8</ele>
        <time>2022-02-19T15:24:59Z</time>
      </trkpt>
      <trkpt lat="44.25876" lon="1.7798">
        <ele>213.8</ele>
        <time>2022-02-19T15:25:00Z</time>
      </trkpt>
      <trkpt lat="44.25876" lon="1.7798">
        <ele>213.8</ele>
        <time>2022-02-19T15:25:01Z</time>
      </trkpt>
      <trkpt lat="44.25875" lon="1.77979">
        <ele>213.8</ele>
        <time>2022-02-19T15:25:02Z</time>
      </trkpt>
      <trkpt lat="44.25875" lon="1.77979">
        <ele>213.8</ele>
        <time>2022-02-19T15:25:03Z</time>
      </trkpt>
      <trkpt lat="44.25875" lon="1.77978">
        <ele>213.8</ele>
        <time>2022-02-19T15:25:04Z</time>
      </trkpt>
      <trkpt lat="44.25875" lon="1.77978">
        <ele>213.8</ele>
        <time>2022-02-19T15:25:05Z</time>
      </trkpt>
      <trkpt lat="44.25875" lon="1.77978">
        <ele>213.8</ele>
        <time>2022-02-19T15:25:06Z</time>
      </trkpt>
      <trkpt lat="44.25875" lon="1.77978">
        <ele>213.8</ele>
        <time>2022-02-19T15:25:07Z</time>
      </trkpt>
      <trkpt lat="44.25875" lon="1.77978">
        <ele>213.8</ele>
        <time>2022-02-19T15:25:08Z</time>
      </trkpt>
      <trkpt lat="44.25875" lon="1.77978">
        <ele>213.8</ele>
        <time>2022-02-19T15:25:09Z</time>
      </trkpt>
      <trkpt lat="44.25864" lon="1.77968">
        <ele>214.1</ele>
        <time>2022-02-19T15:28:16Z</time>
      </trkpt>
      <trkpt lat="44.25862" lon="1.77964">
        <ele>214.2</ele>
        <time>2022-02-19T15:28:17Z</time>
      </trkpt>
      <trkpt lat="44.25859" lon="1.77957">
        <ele>214.3</ele>
        <time>2022-02-19T15:28:19Z</time>
      </trkpt>
      <trkpt lat="44.25856" lon="1.77954">
        <ele>214.3</ele>
        <time>2022-02-19T15:28:20Z</time>
      </trkpt>
      <trkpt lat="44.25855" lon="1.77952">
        <ele>214.3</ele>
        <time>2022-02-19T15:28:21Z</time>
      </trkpt>
      <trkpt lat="44.25852" lon="1.77949">
        <ele>214.4</ele>
        <time>2022-02-19T15:28:22Z</time>
      </trkpt>
      <trkpt lat="44.25849" lon="1.77946">
        <ele>214.4</ele>
        <time>2022-02-19T15:28:24Z</time>
      </trkpt>
      <trkpt lat="44.25847" lon="1.77944">
        <ele>214.4</ele>
        <time>2022-02-19T15:28:25Z</time>
      </trkpt>
      <trkpt lat="44.25844" lon="1.77941">
        <ele>214.4</ele>
        <time>2022-02-19T15:28:26Z</time>
      </trkpt>
      <trkpt lat="44.25844" lon="1.7794">
        <ele>214.4</ele>
        <time>2022-02-19T15:28:27Z</time>
      </trkpt>
      <trkpt lat="44.25841" lon="1.77937">
        <ele>214.4</ele>
        <time>2022-02-19T15:28:28Z</time>
      </trkpt>
      <trkpt lat="44.25838" lon="1.77935">
        <ele>214.4</ele>
        <time>2022-02-19T15:28:29Z</time>
      </trkpt>
      <trkpt lat="44.25836" lon="1.77932">
        <ele>214.3</ele>
        <time>2022-02-19T15:28:30Z</time>
      </trkpt>
      <trkpt lat="44.25832" lon="1.77929">
        <ele>214.3</ele>
        <time>2022-02-19T15:28:32Z</time>
      </trkpt>
      <trkpt lat="44.2583" lon="1.77926">
        <ele>214.3</ele>
        <time>2022-02-19T15:28:33Z</time>
      </trkpt>
      <trkpt lat="44.25826" lon="1.77924">
        <ele>214.3</ele>
        <time>2022-02-19T15:28:34Z</time>
      </trkpt>
      <trkpt lat="44.25825" lon="1.77923">
        <ele>214.2</ele>
        <time>2022-02-19T15:28:35Z</time>
      </trkpt>
      <trkpt lat="44.25822" lon="1.77921">
        <ele>214.2</ele>
        <time>2022-02-19T15:28:36Z</time>
      </trkpt>
      <trkpt lat="44.2582" lon="1.77919">
        <ele>214.2</ele>
        <time>2022-02-19T15:28:37Z</time>
      </trkpt>
      <trkpt lat="44.25816" lon="1.77916">
        <ele>214.2</ele>
        <time>2022-02-19T15:28:38Z</time>
      </trkpt>
      <trkpt lat="44.25811" lon="1.77912">
        <ele>214.1</ele>
        <time>2022-02-19T15:28:40Z</time>
      </trkpt>
      <trkpt lat="44.2581" lon="1.77911">
        <ele>214.1</ele>
        <time>2022-02-19T15:28:41Z</time>
      </trkpt>
      <trkpt lat="44.25808" lon="1.7791">
        <ele>214.1</ele>
        <time>2022-02-19T15:28:42Z</time>
      </trkpt>
      <trkpt lat="44.25804" lon="1.77908">
        <ele>214.1</ele>
        <time>2022-02-19T15:28:44Z</time>
      </trkpt>
      <trkpt lat="44.25801" lon="1.77906">
        <ele>214</ele>
        <time>2022-02-19T15:28:45Z</time>
      </trkpt>
      <trkpt lat="44.25799" lon="1.77903">
        <ele>214</ele>
        <time>2022-02-19T15:28:46Z</time>
      </trkpt>
      <trkpt lat="44.25795" lon="1.77899">
        <ele>214</ele>
        <time>2022-02-19T15:28:47Z</time>
      </trkpt>
      <trkpt lat="44.25793" lon="1.77898">
        <ele>213.9</ele>
        <time>2022-02-19T15:28:48Z</time>
      </trkpt>
      <trkpt lat="44.2579" lon="1.77896">
        <ele>213.9</ele>
        <time>2022-02-19T15:28:49Z</time>
      </trkpt>
      <trkpt lat="44.25786" lon="1.77894">
        <ele>213.9</ele>
        <time>2022-02-19T15:28:51Z</time>
      </trkpt>
      <trkpt lat="44.25784" lon="1.77892">
        <ele>213.8</ele>
        <time>2022-02-19T15:28:52Z</time>
      </trkpt>
      <trkpt lat="44.25781" lon="1.7789">
        <ele>213.8</ele>
        <time>2022-02-19T15:28:53Z</time>
      </trkpt>
      <trkpt lat="44.25778" lon="1.77888">
        <ele>213.8</ele>
        <time>2022-02-19T15:28:54Z</time>
      </trkpt>
      <trkpt lat="44.25775" lon="1.77886">
        <ele>213.7</ele>
        <time>2022-02-19T15:28:55Z</time>
      </trkpt>
      <trkpt lat="44.25772" lon="1.77883">
        <ele>213.7</ele>
        <time>2022-02-19T15:28:56Z</time>
      </trkpt>
      <trkpt lat="44.25766" lon="1.77879">
        <ele>213.6</ele>
        <time>2022-02-19T15:28:58Z</time>
      </trkpt>
      <trkpt lat="44.25762" lon="1.77877">
        <ele>213.6</ele>
        <time>2022-02-19T15:28:59Z</time>
      </trkpt>
      <trkpt lat="44.25759" lon="1.77874">
        <ele>213.5</ele>
        <time>2022-02-19T15:29:00Z</time>
      </trkpt>
      <trkpt lat="44.25755" lon="1.77872">
        <ele>213.5</ele>
        <time>2022-02-19T15:29:01Z</time>
      </trkpt>
      <trkpt lat="44.25752" lon="1.7787">
        <ele>213.5</ele>
        <time>2022-02-19T15:29:02Z</time>
      </trkpt>
      <trkpt lat="44.25749" lon="1.77868">
        <ele>213.4</ele>
        <time>2022-02-19T15:29:03Z</time>
      </trkpt>
      <trkpt lat="44.25746" lon="1.77866">
        <ele>213.4</ele>
        <time>2022-02-19T15:29:04Z</time>
      </trkpt>
      <trkpt lat="44.25743" lon="1.77864">
        <ele>213.4</ele>
        <time>2022-02-19T15:29:06Z</time>
      </trkpt>
      <trkpt lat="44.2574" lon="1.77862">
        <ele>213.4</ele>
        <time>2022-02-19T15:29:07Z</time>
      </trkpt>
      <trkpt lat="44.25737" lon="1.7786">
        <ele>213.3</ele>
        <time>2022-02-19T15:29:08Z</time>
      </trkpt>
      <trkpt lat="44.25734" lon="1.77858">
        <ele>213.3</ele>
        <time>2022-02-19T15:29:09Z</time>
      </trkpt>
      <trkpt lat="44.25731" lon="1.77855">
        <ele>213.3</ele>
        <time>2022-02-19T15:29:10Z</time>
      </trkpt>
      <trkpt lat="44.25728" lon="1.77853">
        <ele>213.2</ele>
        <time>2022-02-19T15:29:11Z</time>
      </trkpt>
      <trkpt lat="44.25725" lon="1.77851">
        <ele>213.2</ele>
        <time>2022-02-19T15:29:12Z</time>
      </trkpt>
      <trkpt lat="44.25723" lon="1.77849">
        <ele>213.2</ele>
        <time>2022-02-19T15:29:13Z</time>
      </trkpt>
      <trkpt lat="44.2572" lon="1.77847">
        <ele>213.1</ele>
        <time>2022-02-19T15:29:14Z</time>
      </trkpt>
      <trkpt lat="44.25716" lon="1.77846">
        <ele>213.1</ele>
        <time>2022-02-19T15:29:15Z</time>
      </trkpt>
      <trkpt lat="44.25713" lon="1.77844">
        <ele>213</ele>
        <time>2022-02-19T15:29:16Z</time>
      </trkpt>
      <trkpt lat="44.2571" lon="1.77842">
        <ele>213</ele>
        <time>2022-02-19T15:29:17Z</time>
      </trkpt>
      <trkpt lat="44.25707" lon="1.77839">
        <ele>213</ele>
        <time>2022-02-19T15:29:18Z</time>
      </trkpt>
      <trkpt lat="44.25704" lon="1.77835">
        <ele>212.9</ele>
        <time>2022-02-19T15:29:19Z</time>
      </trkpt>
      <trkpt lat="44.257" lon="1.77833">
        <ele>212.9</ele>
        <time>2022-02-19T15:29:20Z</time>
      </trkpt>
      <trkpt lat="44.25697" lon="1.77831">
        <ele>212.9</ele>
        <time>2022-02-19T15:29:21Z</time>
      </trkpt>
      <trkpt lat="44.25693" lon="1.77828">
        <ele>212.8</ele>
        <time>2022-02-19T15:29:23Z</time>
      </trkpt>
      <trkpt lat="44.2569" lon="1.77825">
        <ele>212.8</ele>
        <time>2022-02-19T15:29:24Z</time>
      </trkpt>
      <trkpt lat="44.25686" lon="1.77823">
        <ele>212.8</ele>
        <time>2022-02-19T15:29:25Z</time>
      </trkpt>
      <trkpt lat="44.25684" lon="1.7782">
        <ele>212.7</ele>
        <time>2022-02-19T15:29:26Z</time>
      </trkpt>
      <trkpt lat="44.2568" lon="1.77816">
        <ele>212.7</ele>
        <time>2022-02-19T15:29:27Z</time>
      </trkpt>
      <trkpt lat="44.25678" lon="1.77814">
        <ele>212.7</ele>
        <time>2022-02-19T15:29:28Z</time>
      </trkpt>
      <trkpt lat="44.25674" lon="1.77811">
        <ele>212.6</ele>
        <time>2022-02-19T15:29:30Z</time>
      </trkpt>
      <trkpt lat="44.2567" lon="1.77808">
        <ele>212.6</ele>
        <time>2022-02-19T15:29:31Z</time>
      </trkpt>
      <trkpt lat="44.25667" lon="1.77805">
        <ele>212.6</ele>
        <time>2022-02-19T15:29:32Z</time>
      </trkpt>
      <trkpt lat="44.25662" lon="1.77801">
        <ele>212.5</ele>
        <time>2022-02-19T15:29:34Z</time>
      </trkpt>
      <trkpt lat="44.25658" lon="1.77798">
        <ele>212.5</ele>
        <time>2022-02-19T15:29:35Z</time>
      </trkpt>
      <trkpt lat="44.25655" lon="1.77796">
        <ele>212.5</ele>
        <time>2022-02-19T15:29:36Z</time>
      </trkpt>
      <trkpt lat="44.25653" lon="1.77794">
        <ele>212.5</ele>
        <time>2022-02-19T15:29:37Z</time>
      </trkpt>
      <trkpt lat="44.2565" lon="1.77791">
        <ele>212.5</ele>
        <time>2022-02-19T15:29:38Z</time>
      </trkpt>
      <trkpt lat="44.25646" lon="1.77787">
        <ele>212.5</ele>
        <time>2022-02-19T15:29:39Z</time>
      </trkpt>
      <trkpt lat="44.25642" lon="1.77783">
        <ele>212.5</ele>
        <time>2022-02-19T15:29:41Z</time>
      </trkpt>
      <trkpt lat="44.25639" lon="1.7778">
        <ele>212.4</ele>
        <time>2022-02-19T15:29:42Z</time>
      </trkpt>
      <trkpt lat="44.25636" lon="1.77778">
        <ele>212.4</ele>
        <time>2022-02-19T15:29:43Z</time>
      </trkpt>
      <trkpt lat="44.25633" lon="1.77776">
        <ele>212.4</ele>
        <time>2022-02-19T15:29:44Z</time>
      </trkpt>
      <trkpt lat="44.25631" lon="1.77773">
        <ele>212.4</ele>
        <time>2022-02-19T15:29:45Z</time>
      </trkpt>
      <trkpt lat="44.25627" lon="1.7777">
        <ele>212.4</ele>
        <time>2022-02-19T15:29:46Z</time>
      </trkpt>
      <trkpt lat="44.25623" lon="1.77766">
        <ele>212.3</ele>
        <time>2022-02-19T15:29:48Z</time>
      </trkpt>
      <trkpt lat="44.25619" lon="1.77764">
        <ele>212.3</ele>
        <time>2022-02-19T15:29:49Z</time>
      </trkpt>
      <trkpt lat="44.25616" lon="1.77763">
        <ele>212.3</ele>
        <time>2022-02-19T15:29:50Z</time>
      </trkpt>
      <trkpt lat="44.25612" lon="1.77761">
        <ele>212.3</ele>
        <time>2022-02-19T15:29:51Z</time>
      </trkpt>
      <trkpt lat="44.25608" lon="1.77758">
        <ele>212.2</ele>
        <time>2022-02-19T15:29:52Z</time>
      </trkpt>
      <trkpt lat="44.25605" lon="1.77757">
        <ele>212.2</ele>
        <time>2022-02-19T15:29:53Z</time>
      </trkpt>
      <trkpt lat="44.256" lon="1.77756">
        <ele>212.2</ele>
        <time>2022-02-19T15:29:55Z</time>
      </trkpt>
      <trkpt lat="44.25596" lon="1.77754">
        <ele>212.2</ele>
        <time>2022-02-19T15:29:56Z</time>
      </trkpt>
      <trkpt lat="44.25592" lon="1.77754">
        <ele>212.2</ele>
        <time>2022-02-19T15:29:57Z</time>
      </trkpt>
      <trkpt lat="44.25588" lon="1.77755">
        <ele>212.2</ele>
        <time>2022-02-19T15:29:58Z</time>
      </trkpt>
      <trkpt lat="44.25584" lon="1.77754">
        <ele>212.2</ele>
        <time>2022-02-19T15:29:59Z</time>
      </trkpt>
      <trkpt lat="44.25581" lon="1.77754">
        <ele>212.2</ele>
        <time>2022-02-19T15:30:00Z</time>
      </trkpt>
      <trkpt lat="44.25577" lon="1.77755">
        <ele>212.2</ele>
        <time>2022-02-19T15:30:01Z</time>
      </trkpt>
      <trkpt lat="44.25572" lon="1.77755">
        <ele>212.2</ele>
        <time>2022-02-19T15:30:03Z</time>
      </trkpt>
      <trkpt lat="44.25568" lon="1.77755">
        <ele>212.2</ele>
        <time>2022-02-19T15:30:04Z</time>
      </trkpt>
      <trkpt lat="44.25563" lon="1.77755">
        <ele>212.2</ele>
        <time>2022-02-19T15:30:06Z</time>
      </trkpt>
      <trkpt lat="44.2556" lon="1.77755">
        <ele>212.2</ele>
        <time>2022-02-19T15:30:07Z</time>
      </trkpt>
      <trkpt lat="44.25557" lon="1.77756">
        <ele>212.2</ele>
        <time>2022-02-19T15:30:08Z</time>
      </trkpt>
      <trkpt lat="44.25552" lon="1.77756">
        <ele>212.2</ele>
        <time>2022-02-19T15:30:09Z</time>
      </trkpt>
      <trkpt lat="44.25551" lon="1.77756">
        <ele>212.2</ele>
        <time>2022-02-19T15:30:10Z</time>
      </trkpt>
      <trkpt lat="44.25545" lon="1.77756">
        <ele>212.2</ele>
        <time>2022-02-19T15:30:12Z</time>
      </trkpt>
      <trkpt lat="44.2554" lon="1.77757">
        <ele>212.2</ele>
        <time>2022-02-19T15:30:13Z</time>
      </trkpt>
      <trkpt lat="44.25536" lon="1.77757">
        <ele>212.2</ele>
        <time>2022-02-19T15:30:14Z</time>
      </trkpt>
      <trkpt lat="44.25532" lon="1.77758">
        <ele>212.2</ele>
        <time>2022-02-19T15:30:15Z</time>
      </trkpt>
      <trkpt lat="44.25528" lon="1.77759">
        <ele>212.1</ele>
        <time>2022-02-19T15:30:16Z</time>
      </trkpt>
      <trkpt lat="44.25524" lon="1.7776">
        <ele>212.1</ele>
        <time>2022-02-19T15:30:17Z</time>
      </trkpt>
      <trkpt lat="44.25521" lon="1.77761">
        <ele>212</ele>
        <time>2022-02-19T15:30:18Z</time>
      </trkpt>
      <trkpt lat="44.25517" lon="1.77763">
        <ele>212</ele>
        <time>2022-02-19T15:30:19Z</time>
      </trkpt>
      <trkpt lat="44.25511" lon="1.77765">
        <ele>211.9</ele>
        <time>2022-02-19T15:30:20Z</time>
      </trkpt>
      <trkpt lat="44.25507" lon="1.77765">
        <ele>211.9</ele>
        <time>2022-02-19T15:30:21Z</time>
      </trkpt>
      <trkpt lat="44.25502" lon="1.77767">
        <ele>211.8</ele>
        <time>2022-02-19T15:30:23Z</time>
      </trkpt>
      <trkpt lat="44.25498" lon="1.77769">
        <ele>211.8</ele>
        <time>2022-02-19T15:30:24Z</time>
      </trkpt>
      <trkpt lat="44.25492" lon="1.77772">
        <ele>211.7</ele>
        <time>2022-02-19T15:30:25Z</time>
      </trkpt>
      <trkpt lat="44.25489" lon="1.77774">
        <ele>211.7</ele>
        <time>2022-02-19T15:30:26Z</time>
      </trkpt>
      <trkpt lat="44.25485" lon="1.77775">
        <ele>211.6</ele>
        <time>2022-02-19T15:30:27Z</time>
      </trkpt>
      <trkpt lat="44.2548" lon="1.77776">
        <ele>211.6</ele>
        <time>2022-02-19T15:30:28Z</time>
      </trkpt>
      <trkpt lat="44.25475" lon="1.77777">
        <ele>211.5</ele>
        <time>2022-02-19T15:30:30Z</time>
      </trkpt>
      <trkpt lat="44.2547" lon="1.77779">
        <ele>211.4</ele>
        <time>2022-02-19T15:30:31Z</time>
      </trkpt>
      <trkpt lat="44.25466" lon="1.7778">
        <ele>211.4</ele>
        <time>2022-02-19T15:30:32Z</time>
      </trkpt>
      <trkpt lat="44.25457" lon="1.77782">
        <ele>211.1</ele>
        <time>2022-02-19T15:30:34Z</time>
      </trkpt>
      <trkpt lat="44.25453" lon="1.77783">
        <ele>211</ele>
        <time>2022-02-19T15:30:35Z</time>
      </trkpt>
      <trkpt lat="44.25448" lon="1.77784">
        <ele>210.8</ele>
        <time>2022-02-19T15:30:36Z</time>
      </trkpt>
      <trkpt lat="44.25443" lon="1.77785">
        <ele>210.7</ele>
        <time>2022-02-19T15:30:37Z</time>
      </trkpt>
      <trkpt lat="44.25439" lon="1.77785">
        <ele>210.5</ele>
        <time>2022-02-19T15:30:38Z</time>
      </trkpt>
      <trkpt lat="44.25434" lon="1.77786">
        <ele>210.3</ele>
        <time>2022-02-19T15:30:39Z</time>
      </trkpt>
      <trkpt lat="44.25429" lon="1.77786">
        <ele>210.1</ele>
        <time>2022-02-19T15:30:40Z</time>
      </trkpt>
      <trkpt lat="44.25424" lon="1.77786">
        <ele>209.8</ele>
        <time>2022-02-19T15:30:41Z</time>
      </trkpt>
      <trkpt lat="44.25419" lon="1.77786">
        <ele>209.6</ele>
        <time>2022-02-19T15:30:42Z</time>
      </trkpt>
      <trkpt lat="44.25414" lon="1.77785">
        <ele>209.3</ele>
        <time>2022-02-19T15:30:43Z</time>
      </trkpt>
      <trkpt lat="44.25409" lon="1.77785">
        <ele>209</ele>
        <time>2022-02-19T15:30:44Z</time>
      </trkpt>
      <trkpt lat="44.25403" lon="1.77784">
        <ele>208.7</ele>
        <time>2022-02-19T15:30:45Z</time>
      </trkpt>
      <trkpt lat="44.25397" lon="1.77784">
        <ele>208.4</ele>
        <time>2022-02-19T15:30:46Z</time>
      </trkpt>
      <trkpt lat="44.25392" lon="1.77782">
        <ele>208.1</ele>
        <time>2022-02-19T15:30:47Z</time>
      </trkpt>
      <trkpt lat="44.25386" lon="1.77781">
        <ele>207.7</ele>
        <time>2022-02-19T15:30:48Z</time>
      </trkpt>
      <trkpt lat="44.2538" lon="1.7778">
        <ele>207.4</ele>
        <time>2022-02-19T15:30:49Z</time>
      </trkpt>
      <trkpt lat="44.25373" lon="1.77779">
        <ele>207.1</ele>
        <time>2022-02-19T15:30:50Z</time>
      </trkpt>
      <trkpt lat="44.25367" lon="1.77779">
        <ele>206.8</ele>
        <time>2022-02-19T15:30:51Z</time>
      </trkpt>
      <trkpt lat="44.25361" lon="1.77778">
        <ele>206.5</ele>
        <time>2022-02-19T15:30:52Z</time>
      </trkpt>
      <trkpt lat="44.25354" lon="1.77777">
        <ele>206.3</ele>
        <time>2022-02-19T15:30:53Z</time>
      </trkpt>
      <trkpt lat="44.25347" lon="1.77775">
        <ele>206</ele>
        <time>2022-02-19T15:30:54Z</time>
      </trkpt>
      <trkpt lat="44.2534" lon="1.77772">
        <ele>205.8</ele>
        <time>2022-02-19T15:30:55Z</time>
      </trkpt>
      <trkpt lat="44.25333" lon="1.77768">
        <ele>205.6</ele>
        <time>2022-02-19T15:30:56Z</time>
      </trkpt>
      <trkpt lat="44.25326" lon="1.77764">
        <ele>205.4</ele>
        <time>2022-02-19T15:30:57Z</time>
      </trkpt>
      <trkpt lat="44.2532" lon="1.77759">
        <ele>205.2</ele>
        <time>2022-02-19T15:30:58Z</time>
      </trkpt>
      <trkpt lat="44.25314" lon="1.77754">
        <ele>205.1</ele>
        <time>2022-02-19T15:30:59Z</time>
      </trkpt>
      <trkpt lat="44.25309" lon="1.77749">
        <ele>205</ele>
        <time>2022-02-19T15:31:00Z</time>
      </trkpt>
      <trkpt lat="44.25303" lon="1.77743">
        <ele>204.9</ele>
        <time>2022-02-19T15:31:01Z</time>
      </trkpt>
      <trkpt lat="44.25298" lon="1.77738">
        <ele>204.9</ele>
        <time>2022-02-19T15:31:02Z</time>
      </trkpt>
      <trkpt lat="44.25293" lon="1.77732">
        <ele>204.8</ele>
        <time>2022-02-19T15:31:03Z</time>
      </trkpt>
      <trkpt lat="44.25288" lon="1.77727">
        <ele>204.7</ele>
        <time>2022-02-19T15:31:04Z</time>
      </trkpt>
      <trkpt lat="44.25283" lon="1.77721">
        <ele>204.6</ele>
        <time>2022-02-19T15:31:05Z</time>
      </trkpt>
      <trkpt lat="44.25279" lon="1.77716">
        <ele>204.6</ele>
        <time>2022-02-19T15:31:06Z</time>
      </trkpt>
      <trkpt lat="44.25275" lon="1.77712">
        <ele>204.5</ele>
        <time>2022-02-19T15:31:07Z</time>
      </trkpt>
      <trkpt lat="44.25273" lon="1.77709">
        <ele>204.5</ele>
        <time>2022-02-19T15:31:08Z</time>
      </trkpt>
      <trkpt lat="44.2527" lon="1.77706">
        <ele>204.5</ele>
        <time>2022-02-19T15:31:09Z</time>
      </trkpt>
      <trkpt lat="44.25266" lon="1.77702">
        <ele>204.4</ele>
        <time>2022-02-19T15:31:10Z</time>
      </trkpt>
      <trkpt lat="44.25261" lon="1.77698">
        <ele>204.4</ele>
        <time>2022-02-19T15:31:11Z</time>
      </trkpt>
      <trkpt lat="44.25257" lon="1.77695">
        <ele>204.4</ele>
        <time>2022-02-19T15:31:12Z</time>
      </trkpt>
      <trkpt lat="44.25252" lon="1.77691">
        <ele>204.3</ele>
        <time>2022-02-19T15:31:13Z</time>
      </trkpt>
      <trkpt lat="44.25247" lon="1.77688">
        <ele>204.3</ele>
        <time>2022-02-19T15:31:14Z</time>
      </trkpt>
      <trkpt lat="44.25242" lon="1.77685">
        <ele>204.3</ele>
        <time>2022-02-19T15:31:15Z</time>
      </trkpt>
      <trkpt lat="44.25238" lon="1.77682">
        <ele>204.3</ele>
        <time>2022-02-19T15:31:16Z</time>
      </trkpt>
      <trkpt lat="44.25234" lon="1.77679">
        <ele>204.3</ele>
        <time>2022-02-19T15:31:17Z</time>
      </trkpt>
      <trkpt lat="44.25229" lon="1.77676">
        <ele>204.4</ele>
        <time>2022-02-19T15:31:18Z</time>
      </trkpt>
      <trkpt lat="44.25225" lon="1.77673">
        <ele>204.4</ele>
        <time>2022-02-19T15:31:19Z</time>
      </trkpt>
      <trkpt lat="44.2522" lon="1.7767">
        <ele>204.4</ele>
        <time>2022-02-19T15:31:20Z</time>
      </trkpt>
      <trkpt lat="44.25216" lon="1.77668">
        <ele>204.4</ele>
        <time>2022-02-19T15:31:21Z</time>
      </trkpt>
      <trkpt lat="44.25213" lon="1.77667">
        <ele>204.4</ele>
        <time>2022-02-19T15:31:22Z</time>
      </trkpt>
      <trkpt lat="44.25208" lon="1.77664">
        <ele>204.4</ele>
        <time>2022-02-19T15:31:23Z</time>
      </trkpt>
      <trkpt lat="44.25204" lon="1.77662">
        <ele>204.4</ele>
        <time>2022-02-19T15:31:24Z</time>
      </trkpt>
      <trkpt lat="44.25198" lon="1.7766">
        <ele>204.4</ele>
        <time>2022-02-19T15:31:25Z</time>
      </trkpt>
      <trkpt lat="44.25195" lon="1.77658">
        <ele>204.4</ele>
        <time>2022-02-19T15:31:26Z</time>
      </trkpt>
      <trkpt lat="44.2519" lon="1.77657">
        <ele>204.4</ele>
        <time>2022-02-19T15:31:27Z</time>
      </trkpt>
      <trkpt lat="44.25183" lon="1.77656">
        <ele>204.4</ele>
        <time>2022-02-19T15:31:29Z</time>
      </trkpt>
      <trkpt lat="44.25178" lon="1.77656">
        <ele>204.4</ele>
        <time>2022-02-19T15:31:30Z</time>
      </trkpt>
      <trkpt lat="44.25173" lon="1.77657">
        <ele>204.4</ele>
        <time>2022-02-19T15:31:31Z</time>
      </trkpt>
      <trkpt lat="44.25169" lon="1.77657">
        <ele>204.4</ele>
        <time>2022-02-19T15:31:32Z</time>
      </trkpt>
      <trkpt lat="44.25165" lon="1.77658">
        <ele>204.4</ele>
        <time>2022-02-19T15:31:33Z</time>
      </trkpt>
      <trkpt lat="44.2516" lon="1.7766">
        <ele>204.4</ele>
        <time>2022-02-19T15:31:34Z</time>
      </trkpt>
      <trkpt lat="44.25155" lon="1.77662">
        <ele>204.4</ele>
        <time>2022-02-19T15:31:35Z</time>
      </trkpt>
      <trkpt lat="44.25152" lon="1.77664">
        <ele>204.4</ele>
        <time>2022-02-19T15:31:36Z</time>
      </trkpt>
      <trkpt lat="44.25147" lon="1.77666">
        <ele>204.4</ele>
        <time>2022-02-19T15:31:37Z</time>
      </trkpt>
      <trkpt lat="44.25142" lon="1.77668">
        <ele>204.4</ele>
        <time>2022-02-19T15:31:38Z</time>
      </trkpt>
      <trkpt lat="44.25137" lon="1.7767">
        <ele>204.4</ele>
        <time>2022-02-19T15:31:39Z</time>
      </trkpt>
      <trkpt lat="44.25132" lon="1.77672">
        <ele>204.4</ele>
        <time>2022-02-19T15:31:40Z</time>
      </trkpt>
      <trkpt lat="44.25127" lon="1.77674">
        <ele>204.4</ele>
        <time>2022-02-19T15:31:41Z</time>
      </trkpt>
      <trkpt lat="44.25123" lon="1.77675">
        <ele>204.4</ele>
        <time>2022-02-19T15:31:42Z</time>
      </trkpt>
      <trkpt lat="44.25118" lon="1.77675">
        <ele>204.4</ele>
        <time>2022-02-19T15:31:43Z</time>
      </trkpt>
      <trkpt lat="44.25113" lon="1.77676">
        <ele>204.3</ele>
        <time>2022-02-19T15:31:44Z</time>
      </trkpt>
      <trkpt lat="44.25109" lon="1.77677">
        <ele>204.3</ele>
        <time>2022-02-19T15:31:45Z</time>
      </trkpt>
      <trkpt lat="44.25104" lon="1.77677">
        <ele>204.3</ele>
        <time>2022-02-19T15:31:46Z</time>
      </trkpt>
      <trkpt lat="44.25099" lon="1.77677">
        <ele>204.3</ele>
        <time>2022-02-19T15:31:47Z</time>
      </trkpt>
      <trkpt lat="44.25095" lon="1.77677">
        <ele>204.3</ele>
        <time>2022-02-19T15:31:48Z</time>
      </trkpt>
      <trkpt lat="44.25092" lon="1.77677">
        <ele>204.3</ele>
        <time>2022-02-19T15:31:49Z</time>
      </trkpt>
      <trkpt lat="44.25088" lon="1.77677">
        <ele>204.3</ele>
        <time>2022-02-19T15:31:50Z</time>
      </trkpt>
      <trkpt lat="44.25084" lon="1.77677">
        <ele>204.3</ele>
        <time>2022-02-19T15:31:51Z</time>
      </trkpt>
      <trkpt lat="44.25079" lon="1.77676">
        <ele>204.3</ele>
        <time>2022-02-19T15:31:52Z</time>
      </trkpt>
      <trkpt lat="44.25074" lon="1.77676">
        <ele>204.3</ele>
        <time>2022-02-19T15:31:53Z</time>
      </trkpt>
      <trkpt lat="44.25072" lon="1.77674">
        <ele>204.3</ele>
        <time>2022-02-19T15:31:54Z</time>
      </trkpt>
      <trkpt lat="44.25066" lon="1.77672">
        <ele>204.3</ele>
        <time>2022-02-19T15:31:55Z</time>
      </trkpt>
      <trkpt lat="44.25064" lon="1.77671">
        <ele>204.3</ele>
        <time>2022-02-19T15:31:56Z</time>
      </trkpt>
      <trkpt lat="44.2506" lon="1.77674">
        <ele>204.3</ele>
        <time>2022-02-19T15:31:58Z</time>
      </trkpt>
      <trkpt lat="44.25059" lon="1.77675">
        <ele>204.3</ele>
        <time>2022-02-19T15:31:59Z</time>
      </trkpt>
      <trkpt lat="44.25058" lon="1.77676">
        <ele>204.3</ele>
        <time>2022-02-19T15:32:00Z</time>
      </trkpt>
      <trkpt lat="44.25058" lon="1.77676">
        <ele>204.3</ele>
        <time>2022-02-19T15:32:01Z</time>
      </trkpt>
      <trkpt lat="44.25058" lon="1.77677">
        <ele>204.3</ele>
        <time>2022-02-19T15:32:02Z</time>
      </trkpt>
      <trkpt lat="44.25058" lon="1.77677">
        <ele>204.3</ele>
        <time>2022-02-19T15:32:03Z</time>
      </trkpt>
      <trkpt lat="44.25058" lon="1.77678">
        <ele>204.3</ele>
        <time>2022-02-19T15:32:04Z</time>
      </trkpt>
      <trkpt lat="44.25058" lon="1.77678">
        <ele>204.3</ele>
        <time>2022-02-19T15:32:05Z</time>
      </trkpt>
      <trkpt lat="44.25058" lon="1.77678">
        <ele>204.3</ele>
        <time>2022-02-19T15:32:06Z</time>
      </trkpt>
      <trkpt lat="44.25058" lon="1.77678">
        <ele>204.3</ele>
        <time>2022-02-19T15:32:07Z</time>
      </trkpt>
      <trkpt lat="44.25058" lon="1.77678">
        <ele>204.3</ele>
        <time>2022-02-19T15:32:08Z</time>
      </trkpt>
      <trkpt lat="44.25058" lon="1.77678">
        <ele>204.3</ele>
        <time>2022-02-19T15:32:09Z</time>
      </trkpt>
      <trkpt lat="44.25053" lon="1.77665">
        <ele>204.4</ele>
        <time>2022-02-19T15:32:26Z</time>
      </trkpt>
      <trkpt lat="44.25054" lon="1.77663">
        <ele>204.4</ele>
        <time>2022-02-19T15:32:27Z</time>
      </trkpt>
      <trkpt lat="44.25054" lon="1.77661">
        <ele>204.4</ele>
        <time>2022-02-19T15:32:29Z</time>
      </trkpt>
      <trkpt lat="44.25055" lon="1.77659">
        <ele>204.4</ele>
        <time>2022-02-19T15:32:30Z</time>
      </trkpt>
      <trkpt lat="44.25055" lon="1.77659">
        <ele>204.4</ele>
        <time>2022-02-19T15:32:31Z</time>
      </trkpt>
      <trkpt lat="44.25055" lon="1.77658">
        <ele>204.4</ele>
        <time>2022-02-19T15:32:32Z</time>
      </trkpt>
      <trkpt lat="44.25055" lon="1.77657">
        <ele>204.5</ele>
        <time>2022-02-19T15:32:33Z</time>
      </trkpt>
      <trkpt lat="44.25055" lon="1.77657">
        <ele>204.5</ele>
        <time>2022-02-19T15:32:35Z</time>
      </trkpt>
      <trkpt lat="44.25055" lon="1.77657">
        <ele>204.5</ele>
        <time>2022-02-19T15:32:36Z</time>
      </trkpt>
      <trkpt lat="44.25055" lon="1.77656">
        <ele>204.5</ele>
        <time>2022-02-19T15:32:37Z</time>
      </trkpt>
      <trkpt lat="44.25055" lon="1.77656">
        <ele>204.5</ele>
        <time>2022-02-19T15:32:38Z</time>
      </trkpt>
      <trkpt lat="44.25055" lon="1.77656">
        <ele>204.5</ele>
        <time>2022-02-19T15:32:39Z</time>
      </trkpt>
      <trkpt lat="44.25055" lon="1.77656">
        <ele>204.5</ele>
        <time>2022-02-19T15:32:41Z</time>
      </trkpt>
      <trkpt lat="44.25055" lon="1.77656">
        <ele>204.5</ele>
        <time>2022-02-19T15:32:42Z</time>
      </trkpt>
      <trkpt lat="44.25055" lon="1.77656">
        <ele>204.5</ele>
        <time>2022-02-19T15:32:43Z</time>
      </trkpt>
      <trkpt lat="44.25055" lon="1.77656">
        <ele>204.5</ele>
        <time>2022-02-19T15:32:44Z</time>
      </trkpt>
      <trkpt lat="44.25055" lon="1.77656">
        <ele>204.5</ele>
        <time>2022-02-19T15:32:46Z</time>
      </trkpt>
      <trkpt lat="44.25055" lon="1.77656">
        <ele>204.5</ele>
        <time>2022-02-19T15:32:47Z</time>
      </trkpt>
      <trkpt lat="44.25055" lon="1.77656">
        <ele>204.5</ele>
        <time>2022-02-19T15:32:48Z</time>
      </trkpt>
      <trkpt lat="44.25055" lon="1.77656">
        <ele>204.5</ele>
        <time>2022-02-19T15:32:49Z</time>
      </trkpt>
      <trkpt lat="44.25055" lon="1.77656">
        <ele>204.5</ele>
        <time>2022-02-19T15:32:50Z</time>
      </trkpt>
      <trkpt lat="44.25055" lon="1.77656">
        <ele>204.5</ele>
        <time>2022-02-19T15:32:51Z</time>
      </trkpt>
      <trkpt lat="44.25055" lon="1.77656">
        <ele>204.5</ele>
        <time>2022-02-19T15:32:52Z</time>
      </trkpt>
      <trkpt lat="44.25055" lon="1.77656">
        <ele>204.5</ele>
        <time>2022-02-19T15:32:53Z</time>
      </trkpt>
      <trkpt lat="44.25055" lon="1.77656">
        <ele>204.5</ele>
        <time>2022-02-19T15:32:54Z</time>
      </trkpt>
      <trkpt lat="44.25055" lon="1.77656">
        <ele>204.5</ele>
        <time>2022-02-19T15:32:55Z</time>
      </trkpt>
      <trkpt lat="44.25055" lon="1.77656">
        <ele>204.5</ele>
        <time>2022-02-19T15:32:56Z</time>
      </trkpt>
      <trkpt lat="44.25055" lon="1.77656">
        <ele>204.5</ele>
        <time>2022-02-19T15:32:57Z</time>
      </trkpt>
      <trkpt lat="44.25055" lon="1.77656">
        <ele>204.5</ele>
        <time>2022-02-19T15:32:58Z</time>
      </trkpt>
      <trkpt lat="44.25055" lon="1.77656">
        <ele>204.5</ele>
        <time>2022-02-19T15:32:59Z</time>
      </trkpt>
      <trkpt lat="44.25055" lon="1.77656">
        <ele>204.5</ele>
        <time>2022-02-19T15:33:00Z</time>
      </trkpt>
      <trkpt lat="44.25055" lon="1.77656">
        <ele>204.5</ele>
        <time>2022-02-19T15:33:01Z</time>
      </trkpt>
      <trkpt lat="44.25055" lon="1.77656">
        <ele>204.5</ele>
        <time>2022-02-19T15:33:02Z</time>
      </trkpt>
      <trkpt lat="44.25055" lon="1.77656">
        <ele>204.5</ele>
        <time>2022-02-19T15:33:03Z</time>
      </trkpt>
      <trkpt lat="44.25055" lon="1.77656">
        <ele>204.5</ele>
        <time>2022-02-19T15:33:04Z</time>
      </trkpt>
      <trkpt lat="44.25055" lon="1.77656">
        <ele>204.5</ele>
        <time>2022-02-19T15:33:05Z</time>
      </trkpt>
      <trkpt lat="44.25055" lon="1.77656">
        <ele>204.5</ele>
        <time>2022-02-19T15:33:06Z</time>
      </trkpt>
      <trkpt lat="44.25055" lon="1.77656">
        <ele>204.5</ele>
        <time>2022-02-19T15:33:07Z</time>
      </trkpt>
      <trkpt lat="44.25055" lon="1.77656">
        <ele>204.5</ele>
        <time>2022-02-19T15:33:08Z</time>
      </trkpt>
      <trkpt lat="44.25055" lon="1.77656">
        <ele>204.5</ele>
        <time>2022-02-19T15:33:09Z</time>
      </trkpt>
      <trkpt lat="44.25055" lon="1.77656">
        <ele>204.5</ele>
        <time>2022-02-19T15:33:10Z</time>
      </trkpt>
      <trkpt lat="44.25055" lon="1.77656">
        <ele>204.5</ele>
        <time>2022-02-19T15:33:11Z</time>
      </trkpt>
      <trkpt lat="44.25055" lon="1.77656">
        <ele>204.5</ele>
        <time>2022-02-19T15:33:12Z</time>
      </trkpt>
      <trkpt lat="44.25055" lon="1.77656">
        <ele>204.5</ele>
        <time>2022-02-19T15:33:13Z</time>
      </trkpt>
      <trkpt lat="44.25055" lon="1.77656">
        <ele>204.5</ele>
        <time>2022-02-19T15:33:14Z</time>
      </trkpt>
      <trkpt lat="44.25055" lon="1.77656">
        <ele>204.5</ele>
        <time>2022-02-19T15:33:15Z</time>
      </trkpt>
      <trkpt lat="44.25055" lon="1.77656">
        <ele>204.5</ele>
        <time>2022-02-19T15:33:16Z</time>
      </trkpt>
      <trkpt lat="44.25055" lon="1.77656">
        <ele>204.5</ele>
        <time>2022-02-19T15:33:17Z</time>
      </trkpt>
      <trkpt lat="44.25055" lon="1.77656">
        <ele>204.5</ele>
        <time>2022-02-19T15:33:18Z</time>
      </trkpt>
      <trkpt lat="44.25055" lon="1.77656">
        <ele>204.5</ele>
        <time>2022-02-19T15:33:19Z</time>
      </trkpt>
      <trkpt lat="44.25055" lon="1.77656">
        <ele>204.5</ele>
        <time>2022-02-19T15:33:20Z</time>
      </trkpt>
      <trkpt lat="44.25055" lon="1.77656">
        <ele>204.5</ele>
        <time>2022-02-19T15:33:21Z</time>
      </trkpt>
      <trkpt lat="44.25055" lon="1.77656">
        <ele>204.5</ele>
        <time>2022-02-19T15:33:22Z</time>
      </trkpt>
      <trkpt lat="44.25055" lon="1.77656">
        <ele>204.5</ele>
        <time>2022-02-19T15:33:23Z</time>
      </trkpt>
      <trkpt lat="44.25055" lon="1.77656">
        <ele>204.5</ele>
        <time>2022-02-19T15:33:24Z</time>
      </trkpt>
      <trkpt lat="44.25055" lon="1.77656">
        <ele>204.5</ele>
        <time>2022-02-19T15:33:25Z</time>
      </trkpt>
      <trkpt lat="44.25055" lon="1.77656">
        <ele>204.5</ele>
        <time>2022-02-19T15:33:26Z</time>
      </trkpt>
      <trkpt lat="44.25055" lon="1.77656">
        <ele>204.5</ele>
        <time>2022-02-19T15:33:27Z</time>
      </trkpt>
      <trkpt lat="44.25055" lon="1.77656">
        <ele>204.5</ele>
        <time>2022-02-19T15:33:28Z</time>
      </trkpt>
      <trkpt lat="44.25055" lon="1.77656">
        <ele>204.5</ele>
        <time>2022-02-19T15:33:29Z</time>
      </trkpt>
      <trkpt lat="44.25055" lon="1.77656">
        <ele>204.5</ele>
        <time>2022-02-19T15:33:30Z</time>
      </trkpt>
      <trkpt lat="44.25055" lon="1.77656">
        <ele>204.5</ele>
        <time>2022-02-19T15:33:31Z</time>
      </trkpt>
      <trkpt lat="44.25055" lon="1.77656">
        <ele>204.5</ele>
        <time>2022-02-19T15:33:32Z</time>
      </trkpt>
      <trkpt lat="44.25055" lon="1.77656">
        <ele>204.5</ele>
        <time>2022-02-19T15:33:33Z</time>
      </trkpt>
      <trkpt lat="44.25055" lon="1.77656">
        <ele>204.5</ele>
        <time>2022-02-19T15:33:34Z</time>
      </trkpt>
      <trkpt lat="44.25055" lon="1.77656">
        <ele>204.5</ele>
        <time>2022-02-19T15:33:35Z</time>
      </trkpt>
      <trkpt lat="44.25055" lon="1.77656">
        <ele>204.5</ele>
        <time>2022-02-19T15:33:36Z</time>
      </trkpt>
      <trkpt lat="44.25055" lon="1.77656">
        <ele>204.5</ele>
        <time>2022-02-19T15:33:37Z</time>
      </trkpt>
      <trkpt lat="44.25055" lon="1.77656">
        <ele>204.5</ele>
        <time>2022-02-19T15:33:38Z</time>
      </trkpt>
      <trkpt lat="44.25055" lon="1.77656">
        <ele>204.5</ele>
        <time>2022-02-19T15:33:39Z</time>
      </trkpt>
      <trkpt lat="44.25055" lon="1.77656">
        <ele>204.5</ele>
        <time>2022-02-19T15:33:40Z</time>
      </trkpt>
      <trkpt lat="44.25055" lon="1.77656">
        <ele>204.5</ele>
        <time>2022-02-19T15:33:41Z</time>
      </trkpt>
      <trkpt lat="44.25055" lon="1.77656">
        <ele>204.5</ele>
        <time>2022-02-19T15:33:42Z</time>
      </trkpt>
      <trkpt lat="44.25055" lon="1.77656">
        <ele>204.5</ele>
        <time>2022-02-19T15:33:43Z</time>
      </trkpt>
      <trkpt lat="44.25055" lon="1.77656">
        <ele>204.5</ele>
        <time>2022-02-19T15:33:44Z</time>
      </trkpt>
      <trkpt lat="44.25055" lon="1.77656">
        <ele>204.5</ele>
        <time>2022-02-19T15:33:45Z</time>
      </trkpt>
      <trkpt lat="44.25055" lon="1.77656">
        <ele>204.5</ele>
        <time>2022-02-19T15:33:46Z</time>
      </trkpt>
      <trkpt lat="44.25055" lon="1.77656">
        <ele>204.5</ele>
        <time>2022-02-19T15:33:47Z</time>
      </trkpt>
      <trkpt lat="44.25055" lon="1.77656">
        <ele>204.5</ele>
        <time>2022-02-19T15:33:48Z</time>
      </trkpt>
      <trkpt lat="44.25055" lon="1.77656">
        <ele>204.5</ele>
        <time>2022-02-19T15:33:49Z</time>
      </trkpt>
      <trkpt lat="44.25055" lon="1.77656">
        <ele>204.5</ele>
        <time>2022-02-19T15:33:50Z</time>
      </trkpt>
      <trkpt lat="44.25055" lon="1.77656">
        <ele>204.5</ele>
        <time>2022-02-19T15:33:51Z</time>
      </trkpt>
      <trkpt lat="44.25055" lon="1.77656">
        <ele>204.5</ele>
        <time>2022-02-19T15:33:52Z</time>
      </trkpt>
      <trkpt lat="44.25055" lon="1.77656">
        <ele>204.5</ele>
        <time>2022-02-19T15:33:53Z</time>
      </trkpt>
      <trkpt lat="44.25055" lon="1.77656">
        <ele>204.5</ele>
        <time>2022-02-19T15:33:54Z</time>
      </trkpt>
      <trkpt lat="44.25055" lon="1.77656">
        <ele>204.5</ele>
        <time>2022-02-19T15:33:55Z</time>
      </trkpt>
      <trkpt lat="44.25055" lon="1.77656">
        <ele>204.5</ele>
        <time>2022-02-19T15:33:56Z</time>
      </trkpt>
      <trkpt lat="44.25055" lon="1.77656">
        <ele>204.5</ele>
        <time>2022-02-19T15:33:57Z</time>
      </trkpt>
      <trkpt lat="44.25055" lon="1.77656">
        <ele>204.5</ele>
        <time>2022-02-19T15:33:58Z</time>
      </trkpt>
      <trkpt lat="44.25055" lon="1.77656">
        <ele>204.5</ele>
        <time>2022-02-19T15:33:59Z</time>
      </trkpt>
      <trkpt lat="44.25055" lon="1.77656">
        <ele>204.5</ele>
        <time>2022-02-19T15:34:00Z</time>
      </trkpt>
      <trkpt lat="44.25055" lon="1.77656">
        <ele>204.5</ele>
        <time>2022-02-19T15:34:01Z</time>
      </trkpt>
      <trkpt lat="44.25055" lon="1.77656">
        <ele>204.5</ele>
        <time>2022-02-19T15:34:02Z</time>
      </trkpt>
      <trkpt lat="44.25055" lon="1.77656">
        <ele>204.5</ele>
        <time>2022-02-19T15:34:03Z</time>
      </trkpt>
      <trkpt lat="44.25055" lon="1.77656">
        <ele>204.5</ele>
        <time>2022-02-19T15:34:04Z</time>
      </trkpt>
      <trkpt lat="44.25055" lon="1.77656">
        <ele>204.5</ele>
        <time>2022-02-19T15:34:05Z</time>
      </trkpt>
      <trkpt lat="44.25055" lon="1.77656">
        <ele>204.5</ele>
        <time>2022-02-19T15:34:06Z</time>
      </trkpt>
      <trkpt lat="44.25055" lon="1.77656">
        <ele>204.5</ele>
        <time>2022-02-19T15:34:07Z</time>
      </trkpt>
      <trkpt lat="44.25055" lon="1.77656">
        <ele>204.5</ele>
        <time>2022-02-19T15:34:08Z</time>
      </trkpt>
      <trkpt lat="44.25055" lon="1.77656">
        <ele>204.5</ele>
        <time>2022-02-19T15:34:09Z</time>
      </trkpt>
      <trkpt lat="44.25055" lon="1.77656">
        <ele>204.5</ele>
        <time>2022-02-19T15:34:10Z</time>
      </trkpt>
      <trkpt lat="44.25055" lon="1.77656">
        <ele>204.5</ele>
        <time>2022-02-19T15:34:11Z</time>
      </trkpt>
      <trkpt lat="44.25055" lon="1.77656">
        <ele>204.5</ele>
        <time>2022-02-19T15:34:12Z</time>
      </trkpt>
      <trkpt lat="44.25055" lon="1.77656">
        <ele>204.5</ele>
        <time>2022-02-19T15:34:13Z</time>
      </trkpt>
      <trkpt lat="44.25055" lon="1.77656">
        <ele>204.5</ele>
        <time>2022-02-19T15:34:14Z</time>
      </trkpt>
      <trkpt lat="44.25055" lon="1.77656">
        <ele>204.5</ele>
        <time>2022-02-19T15:34:15Z</time>
      </trkpt>
      <trkpt lat="44.25055" lon="1.77656">
        <ele>204.5</ele>
        <time>2022-02-19T15:34:16Z</time>
      </trkpt>
      <trkpt lat="44.25055" lon="1.77656">
        <ele>204.5</ele>
        <time>2022-02-19T15:34:17Z</time>
      </trkpt>
      <trkpt lat="44.25055" lon="1.77656">
        <ele>204.5</ele>
        <time>2022-02-19T15:34:18Z</time>
      </trkpt>
      <trkpt lat="44.25055" lon="1.77656">
        <ele>204.5</ele>
        <time>2022-02-19T15:34:19Z</time>
      </trkpt>
      <trkpt lat="44.25055" lon="1.77656">
        <ele>204.5</ele>
        <time>2022-02-19T15:34:20Z</time>
      </trkpt>
      <trkpt lat="44.25055" lon="1.77656">
        <ele>204.5</ele>
        <time>2022-02-19T15:34:21Z</time>
      </trkpt>
      <trkpt lat="44.25055" lon="1.77656">
        <ele>204.5</ele>
        <time>2022-02-19T15:34:22Z</time>
      </trkpt>
      <trkpt lat="44.25055" lon="1.77656">
        <ele>204.5</ele>
        <time>2022-02-19T15:34:23Z</time>
      </trkpt>
      <trkpt lat="44.25055" lon="1.77656">
        <ele>204.5</ele>
        <time>2022-02-19T15:34:24Z</time>
      </trkpt>
      <trkpt lat="44.25055" lon="1.77656">
        <ele>204.5</ele>
        <time>2022-02-19T15:34:25Z</time>
      </trkpt>
      <trkpt lat="44.25055" lon="1.77656">
        <ele>204.5</ele>
        <time>2022-02-19T15:34:26Z</time>
      </trkpt>
      <trkpt lat="44.25055" lon="1.77656">
        <ele>204.5</ele>
        <time>2022-02-19T15:34:27Z</time>
      </trkpt>
      <trkpt lat="44.25055" lon="1.77656">
        <ele>204.5</ele>
        <time>2022-02-19T15:34:28Z</time>
      </trkpt>
      <trkpt lat="44.25055" lon="1.77656">
        <ele>204.5</ele>
        <time>2022-02-19T15:34:29Z</time>
      </trkpt>
      <trkpt lat="44.25055" lon="1.77656">
        <ele>204.5</ele>
        <time>2022-02-19T15:34:30Z</time>
      </trkpt>
      <trkpt lat="44.25055" lon="1.77656">
        <ele>204.5</ele>
        <time>2022-02-19T15:34:31Z</time>
      </trkpt>
      <trkpt lat="44.25055" lon="1.77656">
        <ele>204.5</ele>
        <time>2022-02-19T15:34:32Z</time>
      </trkpt>
      <trkpt lat="44.25055" lon="1.77656">
        <ele>204.5</ele>
        <time>2022-02-19T15:34:33Z</time>
      </trkpt>
      <trkpt lat="44.25055" lon="1.77656">
        <ele>204.5</ele>
        <time>2022-02-19T15:34:34Z</time>
      </trkpt>
      <trkpt lat="44.25055" lon="1.77656">
        <ele>204.5</ele>
        <time>2022-02-19T15:34:35Z</time>
      </trkpt>
      <trkpt lat="44.25055" lon="1.77656">
        <ele>204.5</ele>
        <time>2022-02-19T15:34:36Z</time>
      </trkpt>
      <trkpt lat="44.25055" lon="1.77656">
        <ele>204.5</ele>
        <time>2022-02-19T15:34:37Z</time>
      </trkpt>
      <trkpt lat="44.25055" lon="1.77656">
        <ele>204.5</ele>
        <time>2022-02-19T15:34:38Z</time>
      </trkpt>
      <trkpt lat="44.25055" lon="1.77656">
        <ele>204.5</ele>
        <time>2022-02-19T15:34:39Z</time>
      </trkpt>
      <trkpt lat="44.25055" lon="1.77656">
        <ele>204.5</ele>
        <time>2022-02-19T15:34:40Z</time>
      </trkpt>
      <trkpt lat="44.25055" lon="1.77656">
        <ele>204.5</ele>
        <time>2022-02-19T15:34:41Z</time>
      </trkpt>
      <trkpt lat="44.25055" lon="1.77656">
        <ele>204.5</ele>
        <time>2022-02-19T15:34:42Z</time>
      </trkpt>
      <trkpt lat="44.25055" lon="1.77656">
        <ele>204.5</ele>
        <time>2022-02-19T15:34:43Z</time>
      </trkpt>
      <trkpt lat="44.25055" lon="1.77656">
        <ele>204.5</ele>
        <time>2022-02-19T15:34:44Z</time>
      </trkpt>
      <trkpt lat="44.25055" lon="1.77656">
        <ele>204.5</ele>
        <time>2022-02-19T15:34:45Z</time>
      </trkpt>
      <trkpt lat="44.25055" lon="1.77656">
        <ele>204.5</ele>
        <time>2022-02-19T15:34:46Z</time>
      </trkpt>
      <trkpt lat="44.25055" lon="1.77656">
        <ele>204.5</ele>
        <time>2022-02-19T15:34:47Z</time>
      </trkpt>
      <trkpt lat="44.25055" lon="1.77656">
        <ele>204.5</ele>
        <time>2022-02-19T15:34:48Z</time>
      </trkpt>
      <trkpt lat="44.25055" lon="1.77656">
        <ele>204.5</ele>
        <time>2022-02-19T15:34:49Z</time>
      </trkpt>
      <trkpt lat="44.25055" lon="1.77656">
        <ele>204.5</ele>
        <time>2022-02-19T15:34:50Z</time>
      </trkpt>
      <trkpt lat="44.25055" lon="1.77656">
        <ele>204.5</ele>
        <time>2022-02-19T15:34:51Z</time>
      </trkpt>
      <trkpt lat="44.25055" lon="1.77656">
        <ele>204.5</ele>
        <time>2022-02-19T15:34:52Z</time>
      </trkpt>
      <trkpt lat="44.25055" lon="1.77656">
        <ele>204.5</ele>
        <time>2022-02-19T15:34:53Z</time>
      </trkpt>
      <trkpt lat="44.25055" lon="1.77656">
        <ele>204.5</ele>
        <time>2022-02-19T15:34:54Z</time>
      </trkpt>
      <trkpt lat="44.25055" lon="1.77656">
        <ele>204.5</ele>
        <time>2022-02-19T15:34:55Z</time>
      </trkpt>
      <trkpt lat="44.25055" lon="1.77656">
        <ele>204.5</ele>
        <time>2022-02-19T15:34:56Z</time>
      </trkpt>
      <trkpt lat="44.25055" lon="1.77656">
        <ele>204.5</ele>
        <time>2022-02-19T15:34:57Z</time>
      </trkpt>
      <trkpt lat="44.25055" lon="1.77656">
        <ele>204.5</ele>
        <time>2022-02-19T15:34:58Z</time>
      </trkpt>
      <trkpt lat="44.25055" lon="1.77656">
        <ele>204.5</ele>
        <time>2022-02-19T15:34:59Z</time>
      </trkpt>
      <trkpt lat="44.25055" lon="1.77656">
        <ele>204.5</ele>
        <time>2022-02-19T15:35:00Z</time>
      </trkpt>
      <trkpt lat="44.25055" lon="1.77656">
        <ele>204.5</ele>
        <time>2022-02-19T15:35:01Z</time>
      </trkpt>
      <trkpt lat="44.25055" lon="1.77656">
        <ele>204.5</ele>
        <time>2022-02-19T15:35:02Z</time>
      </trkpt>
      <trkpt lat="44.25055" lon="1.77656">
        <ele>204.5</ele>
        <time>2022-02-19T15:35:03Z</time>
      </trkpt>
      <trkpt lat="44.25055" lon="1.77656">
        <ele>204.5</ele>
        <time>2022-02-19T15:35:04Z</time>
      </trkpt>
      <trkpt lat="44.25055" lon="1.77656">
        <ele>204.5</ele>
        <time>2022-02-19T15:35:05Z</time>
      </trkpt>
      <trkpt lat="44.25055" lon="1.77656">
        <ele>204.5</ele>
        <time>2022-02-19T15:35:06Z</time>
      </trkpt>
      <trkpt lat="44.25055" lon="1.77656">
        <ele>204.5</ele>
        <time>2022-02-19T15:35:07Z</time>
      </trkpt>
      <trkpt lat="44.25055" lon="1.77656">
        <ele>204.5</ele>
        <time>2022-02-19T15:35:08Z</time>
      </trkpt>
      <trkpt lat="44.25055" lon="1.77657">
        <ele>204.5</ele>
        <time>2022-02-19T15:35:09Z</time>
      </trkpt>
      <trkpt lat="44.25054" lon="1.77661">
        <ele>204.5</ele>
        <time>2022-02-19T15:35:10Z</time>
      </trkpt>
      <trkpt lat="44.25053" lon="1.7767">
        <ele>204.6</ele>
        <time>2022-02-19T15:35:12Z</time>
      </trkpt>
      <trkpt lat="44.2505" lon="1.77673">
        <ele>204.7</ele>
        <time>2022-02-19T15:35:13Z</time>
      </trkpt>
      <trkpt lat="44.25048" lon="1.77672">
        <ele>204.7</ele>
        <time>2022-02-19T15:35:14Z</time>
      </trkpt>
      <trkpt lat="44.25046" lon="1.77672">
        <ele>204.7</ele>
        <time>2022-02-19T15:35:16Z</time>
      </trkpt>
      <trkpt lat="44.25047" lon="1.77673">
        <ele>204.7</ele>
        <time>2022-02-19T15:35:18Z</time>
      </trkpt>
      <trkpt lat="44.25047" lon="1.77672">
        <ele>204.7</ele>
        <time>2022-02-19T15:35:19Z</time>
      </trkpt>
      <trkpt lat="44.25047" lon="1.77672">
        <ele>204.7</ele>
        <time>2022-02-19T15:35:20Z</time>
      </trkpt>
      <trkpt lat="44.25047" lon="1.77672">
        <ele>204.7</ele>
        <time>2022-02-19T15:35:21Z</time>
      </trkpt>
      <trkpt lat="44.25047" lon="1.77672">
        <ele>204.7</ele>
        <time>2022-02-19T15:35:23Z</time>
      </trkpt>
      <trkpt lat="44.25047" lon="1.77672">
        <ele>204.7</ele>
        <time>2022-02-19T15:35:24Z</time>
      </trkpt>
      <trkpt lat="44.25038" lon="1.77671">
        <ele>204.7</ele>
        <time>2022-02-19T15:35:58Z</time>
      </trkpt>
      <trkpt lat="44.25037" lon="1.7767">
        <ele>204.7</ele>
        <time>2022-02-19T15:36:00Z</time>
      </trkpt>
      <trkpt lat="44.25036" lon="1.77669">
        <ele>204.7</ele>
        <time>2022-02-19T15:36:01Z</time>
      </trkpt>
      <trkpt lat="44.25036" lon="1.77669">
        <ele>204.7</ele>
        <time>2022-02-19T15:36:02Z</time>
      </trkpt>
      <trkpt lat="44.25036" lon="1.77669">
        <ele>204.7</ele>
        <time>2022-02-19T15:36:03Z</time>
      </trkpt>
      <trkpt lat="44.25035" lon="1.77669">
        <ele>204.7</ele>
        <time>2022-02-19T15:36:04Z</time>
      </trkpt>
      <trkpt lat="44.25035" lon="1.77669">
        <ele>204.7</ele>
        <time>2022-02-19T15:36:05Z</time>
      </trkpt>
      <trkpt lat="44.25035" lon="1.77668">
        <ele>204.7</ele>
        <time>2022-02-19T15:36:06Z</time>
      </trkpt>
      <trkpt lat="44.25035" lon="1.77668">
        <ele>204.7</ele>
        <time>2022-02-19T15:36:07Z</time>
      </trkpt>
      <trkpt lat="44.25035" lon="1.77668">
        <ele>204.7</ele>
        <time>2022-02-19T15:36:08Z</time>
      </trkpt>
      <trkpt lat="44.25035" lon="1.77668">
        <ele>204.7</ele>
        <time>2022-02-19T15:36:09Z</time>
      </trkpt>
      <trkpt lat="44.25035" lon="1.77668">
        <ele>204.7</ele>
        <time>2022-02-19T15:36:10Z</time>
      </trkpt>
      <trkpt lat="44.25035" lon="1.77668">
        <ele>204.7</ele>
        <time>2022-02-19T15:36:11Z</time>
      </trkpt>
      <trkpt lat="44.25034" lon="1.77668">
        <ele>204.7</ele>
        <time>2022-02-19T15:36:12Z</time>
      </trkpt>
      <trkpt lat="44.25034" lon="1.77668">
        <ele>204.7</ele>
        <time>2022-02-19T15:36:13Z</time>
      </trkpt>
      <trkpt lat="44.25034" lon="1.77668">
        <ele>204.7</ele>
        <time>2022-02-19T15:36:14Z</time>
      </trkpt>
      <trkpt lat="44.25034" lon="1.77668">
        <ele>204.7</ele>
        <time>2022-02-19T15:36:15Z</time>
      </trkpt>
      <trkpt lat="44.25034" lon="1.77668">
        <ele>204.7</ele>
        <time>2022-02-19T15:36:16Z</time>
      </trkpt>
      <trkpt lat="44.25034" lon="1.77668">
        <ele>204.7</ele>
        <time>2022-02-19T15:36:17Z</time>
      </trkpt>
      <trkpt lat="44.25034" lon="1.77668">
        <ele>204.7</ele>
        <time>2022-02-19T15:36:19Z</time>
      </trkpt>
      <trkpt lat="44.25033" lon="1.77668">
        <ele>204.7</ele>
        <time>2022-02-19T15:36:21Z</time>
      </trkpt>
      <trkpt lat="44.25033" lon="1.77668">
        <ele>204.7</ele>
        <time>2022-02-19T15:36:22Z</time>
      </trkpt>
      <trkpt lat="44.25033" lon="1.77668">
        <ele>204.7</ele>
        <time>2022-02-19T15:36:23Z</time>
      </trkpt>
      <trkpt lat="44.25033" lon="1.77668">
        <ele>204.7</ele>
        <time>2022-02-19T15:36:25Z</time>
      </trkpt>
      <trkpt lat="44.25033" lon="1.77668">
        <ele>204.7</ele>
        <time>2022-02-19T15:36:26Z</time>
      </trkpt>
      <trkpt lat="44.25033" lon="1.77668">
        <ele>204.7</ele>
        <time>2022-02-19T15:36:27Z</time>
      </trkpt>
      <trkpt lat="44.25033" lon="1.77668">
        <ele>204.7</ele>
        <time>2022-02-19T15:36:28Z</time>
      </trkpt>
      <trkpt lat="44.25032" lon="1.77668">
        <ele>204.7</ele>
        <time>2022-02-19T15:36:29Z</time>
      </trkpt>
      <trkpt lat="44.25032" lon="1.77668">
        <ele>204.7</ele>
        <time>2022-02-19T15:36:30Z</time>
      </trkpt>
      <trkpt lat="44.25032" lon="1.77668">
        <ele>204.7</ele>
        <time>2022-02-19T15:36:31Z</time>
      </trkpt>
      <trkpt lat="44.25032" lon="1.77667">
        <ele>204.7</ele>
        <time>2022-02-19T15:36:32Z</time>
      </trkpt>
      <trkpt lat="44.25032" lon="1.77667">
        <ele>204.7</ele>
        <time>2022-02-19T15:36:33Z</time>
      </trkpt>
      <trkpt lat="44.25032" lon="1.77667">
        <ele>204.7</ele>
        <time>2022-02-19T15:36:34Z</time>
      </trkpt>
      <trkpt lat="44.25032" lon="1.77667">
        <ele>204.7</ele>
        <time>2022-02-19T15:36:35Z</time>
      </trkpt>
      <trkpt lat="44.25032" lon="1.77667">
        <ele>204.7</ele>
        <time>2022-02-19T15:36:36Z</time>
      </trkpt>
      <trkpt lat="44.25031" lon="1.77667">
        <ele>204.7</ele>
        <time>2022-02-19T15:36:38Z</time>
      </trkpt>
      <trkpt lat="44.25031" lon="1.77667">
        <ele>204.7</ele>
        <time>2022-02-19T15:36:39Z</time>
      </trkpt>
      <trkpt lat="44.25031" lon="1.77667">
        <ele>204.7</ele>
        <time>2022-02-19T15:36:40Z</time>
      </trkpt>
      <trkpt lat="44.25031" lon="1.77667">
        <ele>204.7</ele>
        <time>2022-02-19T15:36:41Z</time>
      </trkpt>
      <trkpt lat="44.25031" lon="1.77667">
        <ele>204.7</ele>
        <time>2022-02-19T15:36:42Z</time>
      </trkpt>
      <trkpt lat="44.25031" lon="1.77667">
        <ele>204.7</ele>
        <time>2022-02-19T15:36:43Z</time>
      </trkpt>
      <trkpt lat="44.25031" lon="1.77667">
        <ele>204.7</ele>
        <time>2022-02-19T15:36:45Z</time>
      </trkpt>
      <trkpt lat="44.2503" lon="1.77667">
        <ele>204.7</ele>
        <time>2022-02-19T15:36:46Z</time>
      </trkpt>
      <trkpt lat="44.2503" lon="1.77667">
        <ele>204.7</ele>
        <time>2022-02-19T15:36:48Z</time>
      </trkpt>
      <trkpt lat="44.2503" lon="1.77667">
        <ele>204.7</ele>
        <time>2022-02-19T15:36:49Z</time>
      </trkpt>
      <trkpt lat="44.2503" lon="1.77667">
        <ele>204.7</ele>
        <time>2022-02-19T15:36:50Z</time>
      </trkpt>
      <trkpt lat="44.2503" lon="1.77667">
        <ele>204.7</ele>
        <time>2022-02-19T15:36:51Z</time>
      </trkpt>
      <trkpt lat="44.2503" lon="1.77667">
        <ele>204.7</ele>
        <time>2022-02-19T15:36:52Z</time>
      </trkpt>
      <trkpt lat="44.2503" lon="1.77667">
        <ele>204.7</ele>
        <time>2022-02-19T15:36:53Z</time>
      </trkpt>
      <trkpt lat="44.2503" lon="1.77667">
        <ele>204.7</ele>
        <time>2022-02-19T15:37:32Z</time>
      </trkpt>
      <trkpt lat="44.25029" lon="1.77667">
        <ele>204.7</ele>
        <time>2022-02-19T15:37:33Z</time>
      </trkpt>
      <trkpt lat="44.25029" lon="1.77667">
        <ele>204.7</ele>
        <time>2022-02-19T15:37:34Z</time>
      </trkpt>
      <trkpt lat="44.25029" lon="1.77667">
        <ele>204.7</ele>
        <time>2022-02-19T15:37:35Z</time>
      </trkpt>
      <trkpt lat="44.25029" lon="1.77667">
        <ele>204.7</ele>
        <time>2022-02-19T15:37:36Z</time>
      </trkpt>
      <trkpt lat="44.25029" lon="1.77666">
        <ele>204.7</ele>
        <time>2022-02-19T15:37:37Z</time>
      </trkpt>
      <trkpt lat="44.25029" lon="1.77666">
        <ele>204.7</ele>
        <time>2022-02-19T15:37:38Z</time>
      </trkpt>
      <trkpt lat="44.25029" lon="1.77666">
        <ele>204.7</ele>
        <time>2022-02-19T15:37:39Z</time>
      </trkpt>
      <trkpt lat="44.25028" lon="1.77666">
        <ele>204.7</ele>
        <time>2022-02-19T15:37:40Z</time>
      </trkpt>
      <trkpt lat="44.25028" lon="1.77666">
        <ele>204.7</ele>
        <time>2022-02-19T15:37:41Z</time>
      </trkpt>
      <trkpt lat="44.25028" lon="1.77666">
        <ele>204.7</ele>
        <time>2022-02-19T15:37:43Z</time>
      </trkpt>
      <trkpt lat="44.25028" lon="1.77666">
        <ele>204.7</ele>
        <time>2022-02-19T15:38:47Z</time>
      </trkpt>
      <trkpt lat="44.25028" lon="1.77666">
        <ele>204.7</ele>
        <time>2022-02-19T15:38:48Z</time>
      </trkpt>
      <trkpt lat="44.25028" lon="1.77666">
        <ele>204.7</ele>
        <time>2022-02-19T15:38:49Z</time>
      </trkpt>
      <trkpt lat="44.25028" lon="1.77666">
        <ele>204.7</ele>
        <time>2022-02-19T15:38:51Z</time>
      </trkpt>
      <trkpt lat="44.25028" lon="1.77666">
        <ele>204.7</ele>
        <time>2022-02-19T15:38:52Z</time>
      </trkpt>
      <trkpt lat="44.25027" lon="1.77666">
        <ele>204.7</ele>
        <time>2022-02-19T15:38:53Z</time>
      </trkpt>
      <trkpt lat="44.25027" lon="1.77666">
        <ele>204.7</ele>
        <time>2022-02-19T15:38:54Z</time>
      </trkpt>
      <trkpt lat="44.25027" lon="1.77666">
        <ele>204.7</ele>
        <time>2022-02-19T15:38:55Z</time>
      </trkpt>
      <trkpt lat="44.25027" lon="1.77666">
        <ele>204.7</ele>
        <time>2022-02-19T15:38:56Z</time>
      </trkpt>
      <trkpt lat="44.25027" lon="1.77666">
        <ele>204.7</ele>
        <time>2022-02-19T15:38:57Z</time>
      </trkpt>
      <trkpt lat="44.25027" lon="1.77666">
        <ele>204.7</ele>
        <time>2022-02-19T15:38:59Z</time>
      </trkpt>
      <trkpt lat="44.25027" lon="1.77666">
        <ele>204.7</ele>
        <time>2022-02-19T15:39:00Z</time>
      </trkpt>
      <trkpt lat="44.25026" lon="1.77666">
        <ele>204.7</ele>
        <time>2022-02-19T15:39:01Z</time>
      </trkpt>
      <trkpt lat="44.25024" lon="1.77669">
        <ele>204.7</ele>
        <time>2022-02-19T15:39:02Z</time>
      </trkpt>
      <trkpt lat="44.25024" lon="1.7767">
        <ele>204.7</ele>
        <time>2022-02-19T15:39:03Z</time>
      </trkpt>
      <trkpt lat="44.25023" lon="1.77671">
        <ele>204.7</ele>
        <time>2022-02-19T15:39:04Z</time>
      </trkpt>
      <trkpt lat="44.25023" lon="1.77671">
        <ele>204.7</ele>
        <time>2022-02-19T15:39:05Z</time>
      </trkpt>
      <trkpt lat="44.25023" lon="1.77671">
        <ele>204.7</ele>
        <time>2022-02-19T15:39:06Z</time>
      </trkpt>
      <trkpt lat="44.25023" lon="1.77671">
        <ele>204.7</ele>
        <time>2022-02-19T15:39:07Z</time>
      </trkpt>
      <trkpt lat="44.25023" lon="1.77671">
        <ele>204.7</ele>
        <time>2022-02-19T15:39:08Z</time>
      </trkpt>
      <trkpt lat="44.25023" lon="1.77671">
        <ele>204.7</ele>
        <time>2022-02-19T15:39:09Z</time>
      </trkpt>
      <trkpt lat="44.25023" lon="1.77671">
        <ele>204.7</ele>
        <time>2022-02-19T15:39:11Z</time>
      </trkpt>
      <trkpt lat="44.25027" lon="1.7767">
        <ele>204.7</ele>
        <time>2022-02-19T15:39:13Z</time>
      </trkpt>
      <trkpt lat="44.2503" lon="1.77668">
        <ele>204.8</ele>
        <time>2022-02-19T15:39:14Z</time>
      </trkpt>
      <trkpt lat="44.25032" lon="1.77667">
        <ele>204.8</ele>
        <time>2022-02-19T15:39:15Z</time>
      </trkpt>
      <trkpt lat="44.25033" lon="1.77666">
        <ele>204.8</ele>
        <time>2022-02-19T15:39:17Z</time>
      </trkpt>
      <trkpt lat="44.25033" lon="1.77666">
        <ele>204.8</ele>
        <time>2022-02-19T15:39:18Z</time>
      </trkpt>
      <trkpt lat="44.25034" lon="1.77665">
        <ele>204.8</ele>
        <time>2022-02-19T15:39:19Z</time>
      </trkpt>
      <trkpt lat="44.25034" lon="1.77665">
        <ele>204.8</ele>
        <time>2022-02-19T15:39:21Z</time>
      </trkpt>
      <trkpt lat="44.25034" lon="1.77665">
        <ele>204.8</ele>
        <time>2022-02-19T15:39:22Z</time>
      </trkpt>
      <trkpt lat="44.25034" lon="1.77665">
        <ele>204.8</ele>
        <time>2022-02-19T15:39:23Z</time>
      </trkpt>
      <trkpt lat="44.25034" lon="1.77665">
        <ele>204.8</ele>
        <time>2022-02-19T15:39:24Z</time>
      </trkpt>
      <trkpt lat="44.25039" lon="1.77671">
        <ele>204.8</ele>
        <time>2022-02-19T15:40:03Z</time>
      </trkpt>
      <trkpt lat="44.25039" lon="1.77666">
        <ele>204.8</ele>
        <time>2022-02-19T15:40:04Z</time>
      </trkpt>
      <trkpt lat="44.25038" lon="1.77664">
        <ele>204.8</ele>
        <time>2022-02-19T15:40:05Z</time>
      </trkpt>
      <trkpt lat="44.25037" lon="1.77664">
        <ele>204.8</ele>
        <time>2022-02-19T15:40:07Z</time>
      </trkpt>
      <trkpt lat="44.25036" lon="1.77664">
        <ele>204.8</ele>
        <time>2022-02-19T15:40:08Z</time>
      </trkpt>
      <trkpt lat="44.25036" lon="1.77664">
        <ele>204.8</ele>
        <time>2022-02-19T15:40:09Z</time>
      </trkpt>
      <trkpt lat="44.25035" lon="1.77664">
        <ele>204.8</ele>
        <time>2022-02-19T15:40:10Z</time>
      </trkpt>
      <trkpt lat="44.25035" lon="1.77664">
        <ele>204.8</ele>
        <time>2022-02-19T15:40:11Z</time>
      </trkpt>
      <trkpt lat="44.25034" lon="1.77664">
        <ele>204.8</ele>
        <time>2022-02-19T15:40:12Z</time>
      </trkpt>
      <trkpt lat="44.25034" lon="1.77664">
        <ele>204.8</ele>
        <time>2022-02-19T15:40:14Z</time>
      </trkpt>
      <trkpt lat="44.25033" lon="1.77664">
        <ele>204.8</ele>
        <time>2022-02-19T15:40:15Z</time>
      </trkpt>
      <trkpt lat="44.25032" lon="1.77664">
        <ele>204.8</ele>
        <time>2022-02-19T15:40:16Z</time>
      </trkpt>
      <trkpt lat="44.25029" lon="1.77665">
        <ele>204.8</ele>
        <time>2022-02-19T15:40:17Z</time>
      </trkpt>
      <trkpt lat="44.25024" lon="1.77667">
        <ele>204.8</ele>
        <time>2022-02-19T15:40:18Z</time>
      </trkpt>
      <trkpt lat="44.25018" lon="1.77669">
        <ele>204.8</ele>
        <time>2022-02-19T15:40:20Z</time>
      </trkpt>
      <trkpt lat="44.25014" lon="1.7767">
        <ele>204.8</ele>
        <time>2022-02-19T15:40:21Z</time>
      </trkpt>
      <trkpt lat="44.25012" lon="1.77671">
        <ele>204.9</ele>
        <time>2022-02-19T15:40:22Z</time>
      </trkpt>
      <trkpt lat="44.25008" lon="1.77672">
        <ele>204.9</ele>
        <time>2022-02-19T15:40:23Z</time>
      </trkpt>
      <trkpt lat="44.25007" lon="1.77672">
        <ele>204.9</ele>
        <time>2022-02-19T15:40:24Z</time>
      </trkpt>
      <trkpt lat="44.25005" lon="1.77673">
        <ele>205</ele>
        <time>2022-02-19T15:40:25Z</time>
      </trkpt>
      <trkpt lat="44.25004" lon="1.77673">
        <ele>205</ele>
        <time>2022-02-19T15:40:26Z</time>
      </trkpt>
      <trkpt lat="44.25003" lon="1.77673">
        <ele>205</ele>
        <time>2022-02-19T15:40:27Z</time>
      </trkpt>
      <trkpt lat="44.25" lon="1.77674">
        <ele>205.1</ele>
        <time>2022-02-19T15:40:29Z</time>
      </trkpt>
      <trkpt lat="44.24999" lon="1.77674">
        <ele>205.1</ele>
        <time>2022-02-19T15:40:30Z</time>
      </trkpt>
      <trkpt lat="44.24995" lon="1.77675">
        <ele>205.1</ele>
        <time>2022-02-19T15:40:31Z</time>
      </trkpt>
      <trkpt lat="44.24993" lon="1.77676">
        <ele>205.2</ele>
        <time>2022-02-19T15:40:32Z</time>
      </trkpt>
      <trkpt lat="44.24989" lon="1.77678">
        <ele>205.2</ele>
        <time>2022-02-19T15:40:34Z</time>
      </trkpt>
      <trkpt lat="44.24986" lon="1.77679">
        <ele>205.3</ele>
        <time>2022-02-19T15:40:35Z</time>
      </trkpt>
      <trkpt lat="44.24982" lon="1.77679">
        <ele>205.3</ele>
        <time>2022-02-19T15:40:36Z</time>
      </trkpt>
      <trkpt lat="44.24981" lon="1.7768">
        <ele>205.3</ele>
        <time>2022-02-19T15:40:37Z</time>
      </trkpt>
      <trkpt lat="44.24977" lon="1.77679">
        <ele>205.4</ele>
        <time>2022-02-19T15:40:38Z</time>
      </trkpt>
      <trkpt lat="44.24973" lon="1.77679">
        <ele>205.4</ele>
        <time>2022-02-19T15:40:39Z</time>
      </trkpt>
      <trkpt lat="44.24969" lon="1.7768">
        <ele>205.5</ele>
        <time>2022-02-19T15:40:41Z</time>
      </trkpt>
      <trkpt lat="44.24966" lon="1.7768">
        <ele>205.5</ele>
        <time>2022-02-19T15:40:42Z</time>
      </trkpt>
      <trkpt lat="44.24963" lon="1.7768">
        <ele>205.5</ele>
        <time>2022-02-19T15:40:43Z</time>
      </trkpt>
      <trkpt lat="44.24959" lon="1.77681">
        <ele>205.5</ele>
        <time>2022-02-19T15:40:44Z</time>
      </trkpt>
      <trkpt lat="44.24957" lon="1.7768">
        <ele>205.6</ele>
        <time>2022-02-19T15:40:45Z</time>
      </trkpt>
      <trkpt lat="44.24953" lon="1.77679">
        <ele>205.6</ele>
        <time>2022-02-19T15:40:46Z</time>
      </trkpt>
      <trkpt lat="44.2495" lon="1.77678">
        <ele>205.6</ele>
        <time>2022-02-19T15:40:47Z</time>
      </trkpt>
      <trkpt lat="44.24946" lon="1.77678">
        <ele>205.7</ele>
        <time>2022-02-19T15:40:48Z</time>
      </trkpt>
      <trkpt lat="44.24942" lon="1.77677">
        <ele>205.7</ele>
        <time>2022-02-19T15:40:49Z</time>
      </trkpt>
      <trkpt lat="44.24939" lon="1.77677">
        <ele>205.7</ele>
        <time>2022-02-19T15:40:50Z</time>
      </trkpt>
      <trkpt lat="44.24936" lon="1.77676">
        <ele>205.8</ele>
        <time>2022-02-19T15:40:51Z</time>
      </trkpt>
      <trkpt lat="44.24933" lon="1.77675">
        <ele>205.8</ele>
        <time>2022-02-19T15:40:52Z</time>
      </trkpt>
      <trkpt lat="44.24928" lon="1.77673">
        <ele>205.9</ele>
        <time>2022-02-19T15:40:53Z</time>
      </trkpt>
      <trkpt lat="44.24921" lon="1.77672">
        <ele>205.9</ele>
        <time>2022-02-19T15:40:55Z</time>
      </trkpt>
      <trkpt lat="44.24917" lon="1.77671">
        <ele>206</ele>
        <time>2022-02-19T15:40:56Z</time>
      </trkpt>
      <trkpt lat="44.24913" lon="1.7767">
        <ele>206</ele>
        <time>2022-02-19T15:40:57Z</time>
      </trkpt>
      <trkpt lat="44.2491" lon="1.77669">
        <ele>206.1</ele>
        <time>2022-02-19T15:40:58Z</time>
      </trkpt>
      <trkpt lat="44.24907" lon="1.77668">
        <ele>206.1</ele>
        <time>2022-02-19T15:40:59Z</time>
      </trkpt>
      <trkpt lat="44.24904" lon="1.77667">
        <ele>206.2</ele>
        <time>2022-02-19T15:41:00Z</time>
      </trkpt>
      <trkpt lat="44.249" lon="1.77666">
        <ele>206.2</ele>
        <time>2022-02-19T15:41:01Z</time>
      </trkpt>
      <trkpt lat="44.24896" lon="1.77664">
        <ele>206.3</ele>
        <time>2022-02-19T15:41:02Z</time>
      </trkpt>
      <trkpt lat="44.24893" lon="1.77663">
        <ele>206.3</ele>
        <time>2022-02-19T15:41:03Z</time>
      </trkpt>
      <trkpt lat="44.2489" lon="1.77661">
        <ele>206.4</ele>
        <time>2022-02-19T15:41:04Z</time>
      </trkpt>
      <trkpt lat="44.24886" lon="1.7766">
        <ele>206.4</ele>
        <time>2022-02-19T15:41:05Z</time>
      </trkpt>
      <trkpt lat="44.24881" lon="1.77659">
        <ele>206.4</ele>
        <time>2022-02-19T15:41:06Z</time>
      </trkpt>
      <trkpt lat="44.24876" lon="1.77656">
        <ele>206.5</ele>
        <time>2022-02-19T15:41:08Z</time>
      </trkpt>
      <trkpt lat="44.24873" lon="1.77655">
        <ele>206.5</ele>
        <time>2022-02-19T15:41:09Z</time>
      </trkpt>
      <trkpt lat="44.2487" lon="1.77654">
        <ele>206.6</ele>
        <time>2022-02-19T15:41:10Z</time>
      </trkpt>
      <trkpt lat="44.24866" lon="1.77652">
        <ele>206.6</ele>
        <time>2022-02-19T15:41:11Z</time>
      </trkpt>
      <trkpt lat="44.24863" lon="1.77651">
        <ele>206.6</ele>
        <time>2022-02-19T15:41:12Z</time>
      </trkpt>
      <trkpt lat="44.24856" lon="1.77647">
        <ele>206.7</ele>
        <time>2022-02-19T15:41:14Z</time>
      </trkpt>
      <trkpt lat="44.24853" lon="1.77645">
        <ele>206.8</ele>
        <time>2022-02-19T15:41:15Z</time>
      </trkpt>
      <trkpt lat="44.2485" lon="1.77642">
        <ele>206.8</ele>
        <time>2022-02-19T15:41:16Z</time>
      </trkpt>
      <trkpt lat="44.24846" lon="1.7764">
        <ele>206.8</ele>
        <time>2022-02-19T15:41:17Z</time>
      </trkpt>
      <trkpt lat="44.24843" lon="1.77638">
        <ele>206.9</ele>
        <time>2022-02-19T15:41:18Z</time>
      </trkpt>
      <trkpt lat="44.24838" lon="1.77634">
        <ele>206.9</ele>
        <time>2022-02-19T15:41:20Z</time>
      </trkpt>
      <trkpt lat="44.24835" lon="1.77631">
        <ele>206.9</ele>
        <time>2022-02-19T15:41:21Z</time>
      </trkpt>
      <trkpt lat="44.24832" lon="1.77628">
        <ele>206.9</ele>
        <time>2022-02-19T15:41:22Z</time>
      </trkpt>
      <trkpt lat="44.24829" lon="1.77626">
        <ele>207</ele>
        <time>2022-02-19T15:41:23Z</time>
      </trkpt>
      <trkpt lat="44.24827" lon="1.77622">
        <ele>207</ele>
        <time>2022-02-19T15:41:24Z</time>
      </trkpt>
      <trkpt lat="44.24826" lon="1.77621">
        <ele>207</ele>
        <time>2022-02-19T15:41:25Z</time>
      </trkpt>
      <trkpt lat="44.24823" lon="1.77617">
        <ele>207</ele>
        <time>2022-02-19T15:41:26Z</time>
      </trkpt>
      <trkpt lat="44.24821" lon="1.77616">
        <ele>207</ele>
        <time>2022-02-19T15:41:27Z</time>
      </trkpt>
      <trkpt lat="44.24818" lon="1.77614">
        <ele>207</ele>
        <time>2022-02-19T15:41:28Z</time>
      </trkpt>
      <trkpt lat="44.24815" lon="1.77612">
        <ele>207</ele>
        <time>2022-02-19T15:41:29Z</time>
      </trkpt>
      <trkpt lat="44.24811" lon="1.77607">
        <ele>207</ele>
        <time>2022-02-19T15:41:31Z</time>
      </trkpt>
      <trkpt lat="44.24807" lon="1.77604">
        <ele>207</ele>
        <time>2022-02-19T15:41:32Z</time>
      </trkpt>
      <trkpt lat="44.24804" lon="1.77602">
        <ele>207</ele>
        <time>2022-02-19T15:41:33Z</time>
      </trkpt>
      <trkpt lat="44.24801" lon="1.77599">
        <ele>207</ele>
        <time>2022-02-19T15:41:34Z</time>
      </trkpt>
      <trkpt lat="44.24798" lon="1.77596">
        <ele>207</ele>
        <time>2022-02-19T15:41:35Z</time>
      </trkpt>
      <trkpt lat="44.24792" lon="1.77593">
        <ele>207</ele>
        <time>2022-02-19T15:41:36Z</time>
      </trkpt>
      <trkpt lat="44.24788" lon="1.77589">
        <ele>206.9</ele>
        <time>2022-02-19T15:41:38Z</time>
      </trkpt>
      <trkpt lat="44.24784" lon="1.77587">
        <ele>206.8</ele>
        <time>2022-02-19T15:41:39Z</time>
      </trkpt>
      <trkpt lat="44.2478" lon="1.77583">
        <ele>206.8</ele>
        <time>2022-02-19T15:41:40Z</time>
      </trkpt>
      <trkpt lat="44.24776" lon="1.77581">
        <ele>206.7</ele>
        <time>2022-02-19T15:41:41Z</time>
      </trkpt>
      <trkpt lat="44.24773" lon="1.77577">
        <ele>206.6</ele>
        <time>2022-02-19T15:41:42Z</time>
      </trkpt>
      <trkpt lat="44.2477" lon="1.77574">
        <ele>206.5</ele>
        <time>2022-02-19T15:41:43Z</time>
      </trkpt>
      <trkpt lat="44.24767" lon="1.77572">
        <ele>206.4</ele>
        <time>2022-02-19T15:41:44Z</time>
      </trkpt>
      <trkpt lat="44.24761" lon="1.77568">
        <ele>206.2</ele>
        <time>2022-02-19T15:41:45Z</time>
      </trkpt>
      <trkpt lat="44.24757" lon="1.77564">
        <ele>206</ele>
        <time>2022-02-19T15:41:46Z</time>
      </trkpt>
      <trkpt lat="44.24754" lon="1.77561">
        <ele>205.9</ele>
        <time>2022-02-19T15:41:47Z</time>
      </trkpt>
      <trkpt lat="44.24749" lon="1.77555">
        <ele>205.7</ele>
        <time>2022-02-19T15:41:49Z</time>
      </trkpt>
      <trkpt lat="44.24746" lon="1.77551">
        <ele>205.5</ele>
        <time>2022-02-19T15:41:50Z</time>
      </trkpt>
      <trkpt lat="44.24743" lon="1.77546">
        <ele>205.4</ele>
        <time>2022-02-19T15:41:51Z</time>
      </trkpt>
      <trkpt lat="44.24739" lon="1.77541">
        <ele>205.2</ele>
        <time>2022-02-19T15:41:52Z</time>
      </trkpt>
      <trkpt lat="44.24736" lon="1.77535">
        <ele>205</ele>
        <time>2022-02-19T15:41:53Z</time>
      </trkpt>
      <trkpt lat="44.24733" lon="1.7753">
        <ele>204.8</ele>
        <time>2022-02-19T15:41:54Z</time>
      </trkpt>
      <trkpt lat="44.24731" lon="1.77524">
        <ele>204.6</ele>
        <time>2022-02-19T15:41:55Z</time>
      </trkpt>
      <trkpt lat="44.24728" lon="1.77518">
        <ele>204.4</ele>
        <time>2022-02-19T15:41:56Z</time>
      </trkpt>
      <trkpt lat="44.24725" lon="1.77512">
        <ele>204.3</ele>
        <time>2022-02-19T15:41:57Z</time>
      </trkpt>
      <trkpt lat="44.24723" lon="1.77506">
        <ele>204.1</ele>
        <time>2022-02-19T15:41:58Z</time>
      </trkpt>
      <trkpt lat="44.24719" lon="1.77501">
        <ele>204</ele>
        <time>2022-02-19T15:41:59Z</time>
      </trkpt>
      <trkpt lat="44.24716" lon="1.77496">
        <ele>203.8</ele>
        <time>2022-02-19T15:42:00Z</time>
      </trkpt>
      <trkpt lat="44.24713" lon="1.77491">
        <ele>203.7</ele>
        <time>2022-02-19T15:42:01Z</time>
      </trkpt>
      <trkpt lat="44.24712" lon="1.77487">
        <ele>203.6</ele>
        <time>2022-02-19T15:42:02Z</time>
      </trkpt>
      <trkpt lat="44.24711" lon="1.77482">
        <ele>203.5</ele>
        <time>2022-02-19T15:42:03Z</time>
      </trkpt>
      <trkpt lat="44.24706" lon="1.77477">
        <ele>203.4</ele>
        <time>2022-02-19T15:42:04Z</time>
      </trkpt>
      <trkpt lat="44.24702" lon="1.77471">
        <ele>203.3</ele>
        <time>2022-02-19T15:42:05Z</time>
      </trkpt>
      <trkpt lat="44.24698" lon="1.77466">
        <ele>203.1</ele>
        <time>2022-02-19T15:42:06Z</time>
      </trkpt>
      <trkpt lat="44.24694" lon="1.77461">
        <ele>203</ele>
        <time>2022-02-19T15:42:07Z</time>
      </trkpt>
      <trkpt lat="44.24689" lon="1.77457">
        <ele>202.9</ele>
        <time>2022-02-19T15:42:08Z</time>
      </trkpt>
      <trkpt lat="44.24685" lon="1.77452">
        <ele>202.8</ele>
        <time>2022-02-19T15:42:09Z</time>
      </trkpt>
      <trkpt lat="44.24681" lon="1.77447">
        <ele>202.8</ele>
        <time>2022-02-19T15:42:10Z</time>
      </trkpt>
      <trkpt lat="44.24677" lon="1.77443">
        <ele>202.7</ele>
        <time>2022-02-19T15:42:11Z</time>
      </trkpt>
      <trkpt lat="44.24673" lon="1.77438">
        <ele>202.6</ele>
        <time>2022-02-19T15:42:12Z</time>
      </trkpt>
      <trkpt lat="44.24669" lon="1.77434">
        <ele>202.6</ele>
        <time>2022-02-19T15:42:13Z</time>
      </trkpt>
      <trkpt lat="44.24667" lon="1.77432">
        <ele>202.6</ele>
        <time>2022-02-19T15:42:14Z</time>
      </trkpt>
      <trkpt lat="44.24663" lon="1.77429">
        <ele>202.5</ele>
        <time>2022-02-19T15:42:15Z</time>
      </trkpt>
      <trkpt lat="44.2466" lon="1.77427">
        <ele>202.5</ele>
        <time>2022-02-19T15:42:16Z</time>
      </trkpt>
      <trkpt lat="44.24657" lon="1.77425">
        <ele>202.4</ele>
        <time>2022-02-19T15:42:17Z</time>
      </trkpt>
      <trkpt lat="44.24654" lon="1.77423">
        <ele>202.4</ele>
        <time>2022-02-19T15:42:18Z</time>
      </trkpt>
      <trkpt lat="44.2465" lon="1.77422">
        <ele>202.3</ele>
        <time>2022-02-19T15:42:19Z</time>
      </trkpt>
      <trkpt lat="44.24647" lon="1.77421">
        <ele>202.2</ele>
        <time>2022-02-19T15:42:20Z</time>
      </trkpt>
      <trkpt lat="44.24643" lon="1.7742">
        <ele>202</ele>
        <time>2022-02-19T15:42:21Z</time>
      </trkpt>
      <trkpt lat="44.24638" lon="1.7742">
        <ele>201.8</ele>
        <time>2022-02-19T15:42:22Z</time>
      </trkpt>
      <trkpt lat="44.24633" lon="1.77421">
        <ele>201.6</ele>
        <time>2022-02-19T15:42:23Z</time>
      </trkpt>
      <trkpt lat="44.24629" lon="1.77421">
        <ele>201.4</ele>
        <time>2022-02-19T15:42:24Z</time>
      </trkpt>
      <trkpt lat="44.24625" lon="1.77421">
        <ele>201.2</ele>
        <time>2022-02-19T15:42:25Z</time>
      </trkpt>
      <trkpt lat="44.24619" lon="1.77421">
        <ele>201</ele>
        <time>2022-02-19T15:42:26Z</time>
      </trkpt>
      <trkpt lat="44.24614" lon="1.7742">
        <ele>200.8</ele>
        <time>2022-02-19T15:42:27Z</time>
      </trkpt>
      <trkpt lat="44.24608" lon="1.77419">
        <ele>200.5</ele>
        <time>2022-02-19T15:42:28Z</time>
      </trkpt>
      <trkpt lat="44.24601" lon="1.77418">
        <ele>200.2</ele>
        <time>2022-02-19T15:42:29Z</time>
      </trkpt>
      <trkpt lat="44.24594" lon="1.77417">
        <ele>199.9</ele>
        <time>2022-02-19T15:42:30Z</time>
      </trkpt>
      <trkpt lat="44.24587" lon="1.77417">
        <ele>199.6</ele>
        <time>2022-02-19T15:42:31Z</time>
      </trkpt>
      <trkpt lat="44.2458" lon="1.77417">
        <ele>199.4</ele>
        <time>2022-02-19T15:42:32Z</time>
      </trkpt>
      <trkpt lat="44.24574" lon="1.77417">
        <ele>199.2</ele>
        <time>2022-02-19T15:42:33Z</time>
      </trkpt>
      <trkpt lat="44.24569" lon="1.77417">
        <ele>199</ele>
        <time>2022-02-19T15:42:34Z</time>
      </trkpt>
      <trkpt lat="44.24563" lon="1.77418">
        <ele>198.9</ele>
        <time>2022-02-19T15:42:35Z</time>
      </trkpt>
      <trkpt lat="44.24558" lon="1.7742">
        <ele>198.7</ele>
        <time>2022-02-19T15:42:36Z</time>
      </trkpt>
      <trkpt lat="44.24552" lon="1.77421">
        <ele>198.6</ele>
        <time>2022-02-19T15:42:37Z</time>
      </trkpt>
      <trkpt lat="44.24548" lon="1.77422">
        <ele>198.5</ele>
        <time>2022-02-19T15:42:38Z</time>
      </trkpt>
      <trkpt lat="44.24543" lon="1.77423">
        <ele>198.4</ele>
        <time>2022-02-19T15:42:39Z</time>
      </trkpt>
      <trkpt lat="44.24538" lon="1.77426">
        <ele>198.3</ele>
        <time>2022-02-19T15:42:40Z</time>
      </trkpt>
      <trkpt lat="44.24533" lon="1.77428">
        <ele>198.2</ele>
        <time>2022-02-19T15:42:41Z</time>
      </trkpt>
      <trkpt lat="44.24529" lon="1.7743">
        <ele>198.1</ele>
        <time>2022-02-19T15:42:42Z</time>
      </trkpt>
      <trkpt lat="44.24524" lon="1.77433">
        <ele>198</ele>
        <time>2022-02-19T15:42:43Z</time>
      </trkpt>
      <trkpt lat="44.2452" lon="1.77435">
        <ele>197.9</ele>
        <time>2022-02-19T15:42:44Z</time>
      </trkpt>
      <trkpt lat="44.24516" lon="1.77437">
        <ele>197.8</ele>
        <time>2022-02-19T15:42:45Z</time>
      </trkpt>
      <trkpt lat="44.24512" lon="1.7744">
        <ele>197.8</ele>
        <time>2022-02-19T15:42:46Z</time>
      </trkpt>
      <trkpt lat="44.24508" lon="1.77442">
        <ele>197.7</ele>
        <time>2022-02-19T15:42:47Z</time>
      </trkpt>
      <trkpt lat="44.24504" lon="1.77445">
        <ele>197.6</ele>
        <time>2022-02-19T15:42:48Z</time>
      </trkpt>
      <trkpt lat="44.24499" lon="1.77447">
        <ele>197.6</ele>
        <time>2022-02-19T15:42:49Z</time>
      </trkpt>
      <trkpt lat="44.24493" lon="1.77451">
        <ele>197.5</ele>
        <time>2022-02-19T15:42:50Z</time>
      </trkpt>
      <trkpt lat="44.2449" lon="1.77454">
        <ele>197.4</ele>
        <time>2022-02-19T15:42:51Z</time>
      </trkpt>
      <trkpt lat="44.24488" lon="1.77455">
        <ele>197.4</ele>
        <time>2022-02-19T15:42:52Z</time>
      </trkpt>
      <trkpt lat="44.24481" lon="1.77457">
        <ele>197.3</ele>
        <time>2022-02-19T15:42:53Z</time>
      </trkpt>
      <trkpt lat="44.24475" lon="1.7746">
        <ele>197.2</ele>
        <time>2022-02-19T15:42:54Z</time>
      </trkpt>
      <trkpt lat="44.2447" lon="1.77463">
        <ele>197.1</ele>
        <time>2022-02-19T15:42:55Z</time>
      </trkpt>
      <trkpt lat="44.24465" lon="1.77465">
        <ele>197.1</ele>
        <time>2022-02-19T15:42:56Z</time>
      </trkpt>
      <trkpt lat="44.24459" lon="1.77466">
        <ele>197</ele>
        <time>2022-02-19T15:42:57Z</time>
      </trkpt>
      <trkpt lat="44.24454" lon="1.77468">
        <ele>197</ele>
        <time>2022-02-19T15:42:58Z</time>
      </trkpt>
      <trkpt lat="44.24449" lon="1.7747">
        <ele>196.9</ele>
        <time>2022-02-19T15:42:59Z</time>
      </trkpt>
      <trkpt lat="44.24444" lon="1.77471">
        <ele>196.9</ele>
        <time>2022-02-19T15:43:00Z</time>
      </trkpt>
      <trkpt lat="44.24439" lon="1.77472">
        <ele>196.9</ele>
        <time>2022-02-19T15:43:01Z</time>
      </trkpt>
      <trkpt lat="44.24434" lon="1.77472">
        <ele>197</ele>
        <time>2022-02-19T15:43:02Z</time>
      </trkpt>
      <trkpt lat="44.2443" lon="1.77471">
        <ele>197</ele>
        <time>2022-02-19T15:43:03Z</time>
      </trkpt>
      <trkpt lat="44.24425" lon="1.7747">
        <ele>197</ele>
        <time>2022-02-19T15:43:04Z</time>
      </trkpt>
      <trkpt lat="44.2442" lon="1.77471">
        <ele>197.1</ele>
        <time>2022-02-19T15:43:05Z</time>
      </trkpt>
      <trkpt lat="44.24414" lon="1.77472">
        <ele>197.2</ele>
        <time>2022-02-19T15:43:07Z</time>
      </trkpt>
      <trkpt lat="44.24408" lon="1.77472">
        <ele>197.3</ele>
        <time>2022-02-19T15:43:08Z</time>
      </trkpt>
      <trkpt lat="44.24404" lon="1.77473">
        <ele>197.3</ele>
        <time>2022-02-19T15:43:09Z</time>
      </trkpt>
      <trkpt lat="44.24399" lon="1.77475">
        <ele>197.4</ele>
        <time>2022-02-19T15:43:10Z</time>
      </trkpt>
      <trkpt lat="44.24393" lon="1.77475">
        <ele>197.5</ele>
        <time>2022-02-19T15:43:12Z</time>
      </trkpt>
      <trkpt lat="44.24389" lon="1.77477">
        <ele>197.5</ele>
        <time>2022-02-19T15:43:13Z</time>
      </trkpt>
      <trkpt lat="44.24385" lon="1.77479">
        <ele>197.6</ele>
        <time>2022-02-19T15:43:14Z</time>
      </trkpt>
      <trkpt lat="44.24381" lon="1.77481">
        <ele>197.6</ele>
        <time>2022-02-19T15:43:15Z</time>
      </trkpt>
      <trkpt lat="44.24378" lon="1.77482">
        <ele>197.7</ele>
        <time>2022-02-19T15:43:16Z</time>
      </trkpt>
      <trkpt lat="44.24372" lon="1.77485">
        <ele>197.8</ele>
        <time>2022-02-19T15:43:17Z</time>
      </trkpt>
      <trkpt lat="44.24367" lon="1.77489">
        <ele>197.8</ele>
        <time>2022-02-19T15:43:19Z</time>
      </trkpt>
      <trkpt lat="44.24362" lon="1.77493">
        <ele>197.8</ele>
        <time>2022-02-19T15:43:20Z</time>
      </trkpt>
      <trkpt lat="44.24356" lon="1.77498">
        <ele>197.8</ele>
        <time>2022-02-19T15:43:21Z</time>
      </trkpt>
      <trkpt lat="44.24352" lon="1.77502">
        <ele>197.8</ele>
        <time>2022-02-19T15:43:22Z</time>
      </trkpt>
      <trkpt lat="44.24347" lon="1.77505">
        <ele>197.8</ele>
        <time>2022-02-19T15:43:23Z</time>
      </trkpt>
      <trkpt lat="44.24343" lon="1.77508">
        <ele>197.8</ele>
        <time>2022-02-19T15:43:24Z</time>
      </trkpt>
      <trkpt lat="44.2434" lon="1.77512">
        <ele>197.8</ele>
        <time>2022-02-19T15:43:25Z</time>
      </trkpt>
      <trkpt lat="44.24337" lon="1.77513">
        <ele>197.8</ele>
        <time>2022-02-19T15:43:26Z</time>
      </trkpt>
      <trkpt lat="44.24333" lon="1.77517">
        <ele>197.7</ele>
        <time>2022-02-19T15:43:27Z</time>
      </trkpt>
      <trkpt lat="44.24329" lon="1.77521">
        <ele>197.7</ele>
        <time>2022-02-19T15:43:28Z</time>
      </trkpt>
      <trkpt lat="44.24325" lon="1.77525">
        <ele>197.6</ele>
        <time>2022-02-19T15:43:30Z</time>
      </trkpt>
      <trkpt lat="44.2432" lon="1.77529">
        <ele>197.6</ele>
        <time>2022-02-19T15:43:31Z</time>
      </trkpt>
      <trkpt lat="44.24316" lon="1.77534">
        <ele>197.5</ele>
        <time>2022-02-19T15:43:32Z</time>
      </trkpt>
      <trkpt lat="44.24312" lon="1.77538">
        <ele>197.5</ele>
        <time>2022-02-19T15:43:33Z</time>
      </trkpt>
      <trkpt lat="44.24306" lon="1.77544">
        <ele>197.4</ele>
        <time>2022-02-19T15:43:35Z</time>
      </trkpt>
      <trkpt lat="44.24301" lon="1.77547">
        <ele>197.3</ele>
        <time>2022-02-19T15:43:36Z</time>
      </trkpt>
      <trkpt lat="44.24297" lon="1.77551">
        <ele>197.2</ele>
        <time>2022-02-19T15:43:37Z</time>
      </trkpt>
      <trkpt lat="44.24295" lon="1.77553">
        <ele>197.1</ele>
        <time>2022-02-19T15:43:38Z</time>
      </trkpt>
      <trkpt lat="44.2429" lon="1.77556">
        <ele>197.1</ele>
        <time>2022-02-19T15:43:39Z</time>
      </trkpt>
      <trkpt lat="44.24285" lon="1.77558">
        <ele>197</ele>
        <time>2022-02-19T15:43:40Z</time>
      </trkpt>
      <trkpt lat="44.24279" lon="1.7756">
        <ele>196.9</ele>
        <time>2022-02-19T15:43:41Z</time>
      </trkpt>
      <trkpt lat="44.24274" lon="1.77562">
        <ele>196.8</ele>
        <time>2022-02-19T15:43:42Z</time>
      </trkpt>
      <trkpt lat="44.24269" lon="1.77564">
        <ele>196.7</ele>
        <time>2022-02-19T15:43:43Z</time>
      </trkpt>
      <trkpt lat="44.24264" lon="1.77565">
        <ele>196.6</ele>
        <time>2022-02-19T15:43:44Z</time>
      </trkpt>
      <trkpt lat="44.2426" lon="1.77565">
        <ele>196.6</ele>
        <time>2022-02-19T15:43:45Z</time>
      </trkpt>
      <trkpt lat="44.24256" lon="1.77565">
        <ele>196.6</ele>
        <time>2022-02-19T15:43:46Z</time>
      </trkpt>
      <trkpt lat="44.24252" lon="1.77566">
        <ele>196.5</ele>
        <time>2022-02-19T15:43:47Z</time>
      </trkpt>
      <trkpt lat="44.24247" lon="1.77566">
        <ele>196.5</ele>
        <time>2022-02-19T15:43:48Z</time>
      </trkpt>
      <trkpt lat="44.24242" lon="1.77567">
        <ele>196.5</ele>
        <time>2022-02-19T15:43:49Z</time>
      </trkpt>
      <trkpt lat="44.24238" lon="1.77568">
        <ele>196.4</ele>
        <time>2022-02-19T15:43:50Z</time>
      </trkpt>
      <trkpt lat="44.24233" lon="1.7757">
        <ele>196.4</ele>
        <time>2022-02-19T15:43:51Z</time>
      </trkpt>
      <trkpt lat="44.24229" lon="1.77571">
        <ele>196.4</ele>
        <time>2022-02-19T15:43:52Z</time>
      </trkpt>
      <trkpt lat="44.24224" lon="1.7757">
        <ele>196.3</ele>
        <time>2022-02-19T15:43:53Z</time>
      </trkpt>
      <trkpt lat="44.24222" lon="1.7757">
        <ele>196.3</ele>
        <time>2022-02-19T15:43:54Z</time>
      </trkpt>
      <trkpt lat="44.24215" lon="1.77572">
        <ele>196.3</ele>
        <time>2022-02-19T15:43:55Z</time>
      </trkpt>
      <trkpt lat="44.24209" lon="1.77574">
        <ele>196.2</ele>
        <time>2022-02-19T15:43:57Z</time>
      </trkpt>
      <trkpt lat="44.24204" lon="1.77575">
        <ele>196.2</ele>
        <time>2022-02-19T15:43:58Z</time>
      </trkpt>
      <trkpt lat="44.242" lon="1.77576">
        <ele>196.1</ele>
        <time>2022-02-19T15:43:59Z</time>
      </trkpt>
      <trkpt lat="44.24192" lon="1.77577">
        <ele>196</ele>
        <time>2022-02-19T15:44:01Z</time>
      </trkpt>
      <trkpt lat="44.24187" lon="1.77577">
        <ele>196</ele>
        <time>2022-02-19T15:44:02Z</time>
      </trkpt>
      <trkpt lat="44.24182" lon="1.77578">
        <ele>195.9</ele>
        <time>2022-02-19T15:44:03Z</time>
      </trkpt>
      <trkpt lat="44.24178" lon="1.77578">
        <ele>195.8</ele>
        <time>2022-02-19T15:44:04Z</time>
      </trkpt>
      <trkpt lat="44.24172" lon="1.77577">
        <ele>195.7</ele>
        <time>2022-02-19T15:44:05Z</time>
      </trkpt>
      <trkpt lat="44.24168" lon="1.77577">
        <ele>195.6</ele>
        <time>2022-02-19T15:44:06Z</time>
      </trkpt>
      <trkpt lat="44.24164" lon="1.77577">
        <ele>195.5</ele>
        <time>2022-02-19T15:44:07Z</time>
      </trkpt>
      <trkpt lat="44.24158" lon="1.77577">
        <ele>195.3</ele>
        <time>2022-02-19T15:44:08Z</time>
      </trkpt>
      <trkpt lat="44.24153" lon="1.77578">
        <ele>195.1</ele>
        <time>2022-02-19T15:44:09Z</time>
      </trkpt>
      <trkpt lat="44.24144" lon="1.77578">
        <ele>194.9</ele>
        <time>2022-02-19T15:44:11Z</time>
      </trkpt>
      <trkpt lat="44.24139" lon="1.77578">
        <ele>194.7</ele>
        <time>2022-02-19T15:44:12Z</time>
      </trkpt>
      <trkpt lat="44.24133" lon="1.77578">
        <ele>194.5</ele>
        <time>2022-02-19T15:44:13Z</time>
      </trkpt>
      <trkpt lat="44.24128" lon="1.77577">
        <ele>194.3</ele>
        <time>2022-02-19T15:44:14Z</time>
      </trkpt>
      <trkpt lat="44.24123" lon="1.77577">
        <ele>194</ele>
        <time>2022-02-19T15:44:15Z</time>
      </trkpt>
      <trkpt lat="44.24117" lon="1.77577">
        <ele>193.8</ele>
        <time>2022-02-19T15:44:16Z</time>
      </trkpt>
      <trkpt lat="44.24112" lon="1.77577">
        <ele>193.7</ele>
        <time>2022-02-19T15:44:17Z</time>
      </trkpt>
      <trkpt lat="44.24108" lon="1.77577">
        <ele>193.5</ele>
        <time>2022-02-19T15:44:18Z</time>
      </trkpt>
      <trkpt lat="44.24103" lon="1.77578">
        <ele>193.4</ele>
        <time>2022-02-19T15:44:19Z</time>
      </trkpt>
      <trkpt lat="44.24098" lon="1.77579">
        <ele>193.3</ele>
        <time>2022-02-19T15:44:20Z</time>
      </trkpt>
      <trkpt lat="44.24094" lon="1.77581">
        <ele>193.3</ele>
        <time>2022-02-19T15:44:21Z</time>
      </trkpt>
      <trkpt lat="44.24089" lon="1.77582">
        <ele>193.2</ele>
        <time>2022-02-19T15:44:22Z</time>
      </trkpt>
      <trkpt lat="44.24085" lon="1.77584">
        <ele>193.1</ele>
        <time>2022-02-19T15:44:23Z</time>
      </trkpt>
      <trkpt lat="44.2408" lon="1.77584">
        <ele>193</ele>
        <time>2022-02-19T15:44:24Z</time>
      </trkpt>
      <trkpt lat="44.24076" lon="1.77584">
        <ele>193</ele>
        <time>2022-02-19T15:44:25Z</time>
      </trkpt>
      <trkpt lat="44.24073" lon="1.77584">
        <ele>192.9</ele>
        <time>2022-02-19T15:44:26Z</time>
      </trkpt>
      <trkpt lat="44.24068" lon="1.77584">
        <ele>192.9</ele>
        <time>2022-02-19T15:44:27Z</time>
      </trkpt>
      <trkpt lat="44.24065" lon="1.77584">
        <ele>192.8</ele>
        <time>2022-02-19T15:44:28Z</time>
      </trkpt>
      <trkpt lat="44.2406" lon="1.77584">
        <ele>192.8</ele>
        <time>2022-02-19T15:44:29Z</time>
      </trkpt>
      <trkpt lat="44.24056" lon="1.77583">
        <ele>192.7</ele>
        <time>2022-02-19T15:44:30Z</time>
      </trkpt>
      <trkpt lat="44.24052" lon="1.77582">
        <ele>192.7</ele>
        <time>2022-02-19T15:44:31Z</time>
      </trkpt>
      <trkpt lat="44.24045" lon="1.77582">
        <ele>192.6</ele>
        <time>2022-02-19T15:44:33Z</time>
      </trkpt>
      <trkpt lat="44.2404" lon="1.77582">
        <ele>192.6</ele>
        <time>2022-02-19T15:44:34Z</time>
      </trkpt>
      <trkpt lat="44.24034" lon="1.77581">
        <ele>192.6</ele>
        <time>2022-02-19T15:44:35Z</time>
      </trkpt>
      <trkpt lat="44.24029" lon="1.77581">
        <ele>192.6</ele>
        <time>2022-02-19T15:44:36Z</time>
      </trkpt>
      <trkpt lat="44.24024" lon="1.77579">
        <ele>192.7</ele>
        <time>2022-02-19T15:44:37Z</time>
      </trkpt>
      <trkpt lat="44.2402" lon="1.77579">
        <ele>192.7</ele>
        <time>2022-02-19T15:44:38Z</time>
      </trkpt>
      <trkpt lat="44.24016" lon="1.77578">
        <ele>192.7</ele>
        <time>2022-02-19T15:44:39Z</time>
      </trkpt>
      <trkpt lat="44.24011" lon="1.77578">
        <ele>192.7</ele>
        <time>2022-02-19T15:44:40Z</time>
      </trkpt>
      <trkpt lat="44.24007" lon="1.77578">
        <ele>192.8</ele>
        <time>2022-02-19T15:44:41Z</time>
      </trkpt>
      <trkpt lat="44.24001" lon="1.77577">
        <ele>192.8</ele>
        <time>2022-02-19T15:44:43Z</time>
      </trkpt>
      <trkpt lat="44.23994" lon="1.77577">
        <ele>192.9</ele>
        <time>2022-02-19T15:44:45Z</time>
      </trkpt>
      <trkpt lat="44.23989" lon="1.77576">
        <ele>193</ele>
        <time>2022-02-19T15:44:46Z</time>
      </trkpt>
      <trkpt lat="44.23984" lon="1.77576">
        <ele>193.2</ele>
        <time>2022-02-19T15:44:47Z</time>
      </trkpt>
      <trkpt lat="44.2398" lon="1.77575">
        <ele>193.3</ele>
        <time>2022-02-19T15:44:48Z</time>
      </trkpt>
      <trkpt lat="44.23976" lon="1.77574">
        <ele>193.4</ele>
        <time>2022-02-19T15:44:49Z</time>
      </trkpt>
      <trkpt lat="44.23972" lon="1.77573">
        <ele>193.5</ele>
        <time>2022-02-19T15:44:50Z</time>
      </trkpt>
      <trkpt lat="44.23968" lon="1.77571">
        <ele>193.7</ele>
        <time>2022-02-19T15:44:51Z</time>
      </trkpt>
      <trkpt lat="44.23965" lon="1.7757">
        <ele>193.8</ele>
        <time>2022-02-19T15:44:52Z</time>
      </trkpt>
      <trkpt lat="44.23961" lon="1.77569">
        <ele>194</ele>
        <time>2022-02-19T15:44:53Z</time>
      </trkpt>
      <trkpt lat="44.23957" lon="1.77567">
        <ele>194.2</ele>
        <time>2022-02-19T15:44:54Z</time>
      </trkpt>
      <trkpt lat="44.23953" lon="1.77565">
        <ele>194.4</ele>
        <time>2022-02-19T15:44:55Z</time>
      </trkpt>
      <trkpt lat="44.2395" lon="1.77563">
        <ele>194.6</ele>
        <time>2022-02-19T15:44:56Z</time>
      </trkpt>
      <trkpt lat="44.23944" lon="1.77561">
        <ele>195</ele>
        <time>2022-02-19T15:44:58Z</time>
      </trkpt>
      <trkpt lat="44.23941" lon="1.77559">
        <ele>195.3</ele>
        <time>2022-02-19T15:44:59Z</time>
      </trkpt>
      <trkpt lat="44.23938" lon="1.77559">
        <ele>195.5</ele>
        <time>2022-02-19T15:45:00Z</time>
      </trkpt>
      <trkpt lat="44.23936" lon="1.77558">
        <ele>195.7</ele>
        <time>2022-02-19T15:45:01Z</time>
      </trkpt>
      <trkpt lat="44.23932" lon="1.77556">
        <ele>196</ele>
        <time>2022-02-19T15:45:03Z</time>
      </trkpt>
      <trkpt lat="44.2393" lon="1.77556">
        <ele>196.2</ele>
        <time>2022-02-19T15:45:04Z</time>
      </trkpt>
      <trkpt lat="44.23926" lon="1.77555">
        <ele>196.6</ele>
        <time>2022-02-19T15:45:06Z</time>
      </trkpt>
      <trkpt lat="44.23925" lon="1.77555">
        <ele>196.7</ele>
        <time>2022-02-19T15:45:07Z</time>
      </trkpt>
      <trkpt lat="44.23923" lon="1.77555">
        <ele>196.8</ele>
        <time>2022-02-19T15:45:08Z</time>
      </trkpt>
      <trkpt lat="44.23923" lon="1.77555">
        <ele>196.9</ele>
        <time>2022-02-19T15:45:09Z</time>
      </trkpt>
      <trkpt lat="44.23923" lon="1.77555">
        <ele>196.9</ele>
        <time>2022-02-19T15:45:10Z</time>
      </trkpt>
      <trkpt lat="44.23924" lon="1.77556">
        <ele>197</ele>
        <time>2022-02-19T15:45:11Z</time>
      </trkpt>
      <trkpt lat="44.23924" lon="1.77556">
        <ele>197</ele>
        <time>2022-02-19T15:45:12Z</time>
      </trkpt>
      <trkpt lat="44.23924" lon="1.77557">
        <ele>197.1</ele>
        <time>2022-02-19T15:45:13Z</time>
      </trkpt>
      <trkpt lat="44.23924" lon="1.77557">
        <ele>197.1</ele>
        <time>2022-02-19T15:45:14Z</time>
      </trkpt>
      <trkpt lat="44.23924" lon="1.77557">
        <ele>197.1</ele>
        <time>2022-02-19T15:45:15Z</time>
      </trkpt>
      <trkpt lat="44.23924" lon="1.77557">
        <ele>197.1</ele>
        <time>2022-02-19T15:45:16Z</time>
      </trkpt>
      <trkpt lat="44.23924" lon="1.77557">
        <ele>197.1</ele>
        <time>2022-02-19T15:45:17Z</time>
      </trkpt>
      <trkpt lat="44.23924" lon="1.77557">
        <ele>197.1</ele>
        <time>2022-02-19T15:45:18Z</time>
      </trkpt>
      <trkpt lat="44.23924" lon="1.77557">
        <ele>197.1</ele>
        <time>2022-02-19T15:45:20Z</time>
      </trkpt>
      <trkpt lat="44.2391" lon="1.77552">
        <ele>198.1</ele>
        <time>2022-02-19T15:46:24Z</time>
      </trkpt>
      <trkpt lat="44.23908" lon="1.7755">
        <ele>198.3</ele>
        <time>2022-02-19T15:46:25Z</time>
      </trkpt>
      <trkpt lat="44.23905" lon="1.77547">
        <ele>198.5</ele>
        <time>2022-02-19T15:46:26Z</time>
      </trkpt>
      <trkpt lat="44.23904" lon="1.77546">
        <ele>198.6</ele>
        <time>2022-02-19T15:46:27Z</time>
      </trkpt>
      <trkpt lat="44.23902" lon="1.77543">
        <ele>198.8</ele>
        <time>2022-02-19T15:46:28Z</time>
      </trkpt>
      <trkpt lat="44.23901" lon="1.77542">
        <ele>198.9</ele>
        <time>2022-02-19T15:46:29Z</time>
      </trkpt>
      <trkpt lat="44.23899" lon="1.77539">
        <ele>199.1</ele>
        <time>2022-02-19T15:46:30Z</time>
      </trkpt>
      <trkpt lat="44.23898" lon="1.77538">
        <ele>199.2</ele>
        <time>2022-02-19T15:46:31Z</time>
      </trkpt>
      <trkpt lat="44.23896" lon="1.77535">
        <ele>199.4</ele>
        <time>2022-02-19T15:46:32Z</time>
      </trkpt>
      <trkpt lat="44.23895" lon="1.77533">
        <ele>199.5</ele>
        <time>2022-02-19T15:46:33Z</time>
      </trkpt>
      <trkpt lat="44.23893" lon="1.77531">
        <ele>199.8</ele>
        <time>2022-02-19T15:46:34Z</time>
      </trkpt>
      <trkpt lat="44.23892" lon="1.7753">
        <ele>199.9</ele>
        <time>2022-02-19T15:46:35Z</time>
      </trkpt>
      <trkpt lat="44.23889" lon="1.77527">
        <ele>200.1</ele>
        <time>2022-02-19T15:46:36Z</time>
      </trkpt>
      <trkpt lat="44.23889" lon="1.77526">
        <ele>200.2</ele>
        <time>2022-02-19T15:46:37Z</time>
      </trkpt>
      <trkpt lat="44.23886" lon="1.77523">
        <ele>200.5</ele>
        <time>2022-02-19T15:46:38Z</time>
      </trkpt>
      <trkpt lat="44.23885" lon="1.77522">
        <ele>200.6</ele>
        <time>2022-02-19T15:46:39Z</time>
      </trkpt>
      <trkpt lat="44.23882" lon="1.7752">
        <ele>200.8</ele>
        <time>2022-02-19T15:46:40Z</time>
      </trkpt>
      <trkpt lat="44.23881" lon="1.77519">
        <ele>200.9</ele>
        <time>2022-02-19T15:46:41Z</time>
      </trkpt>
      <trkpt lat="44.23878" lon="1.77517">
        <ele>201.2</ele>
        <time>2022-02-19T15:46:42Z</time>
      </trkpt>
      <trkpt lat="44.23878" lon="1.77516">
        <ele>201.3</ele>
        <time>2022-02-19T15:46:43Z</time>
      </trkpt>
      <trkpt lat="44.23875" lon="1.77513">
        <ele>201.5</ele>
        <time>2022-02-19T15:46:44Z</time>
      </trkpt>
      <trkpt lat="44.23874" lon="1.77513">
        <ele>201.6</ele>
        <time>2022-02-19T15:46:45Z</time>
      </trkpt>
      <trkpt lat="44.23872" lon="1.77511">
        <ele>201.9</ele>
        <time>2022-02-19T15:46:46Z</time>
      </trkpt>
      <trkpt lat="44.23871" lon="1.7751">
        <ele>201.9</ele>
        <time>2022-02-19T15:46:47Z</time>
      </trkpt>
      <trkpt lat="44.23868" lon="1.77508">
        <ele>202.3</ele>
        <time>2022-02-19T15:46:48Z</time>
      </trkpt>
      <trkpt lat="44.23867" lon="1.77507">
        <ele>202.4</ele>
        <time>2022-02-19T15:46:49Z</time>
      </trkpt>
      <trkpt lat="44.23866" lon="1.77506">
        <ele>202.5</ele>
        <time>2022-02-19T15:46:50Z</time>
      </trkpt>
      <trkpt lat="44.23864" lon="1.77504">
        <ele>202.7</ele>
        <time>2022-02-19T15:46:51Z</time>
      </trkpt>
      <trkpt lat="44.23863" lon="1.77503">
        <ele>202.8</ele>
        <time>2022-02-19T15:46:52Z</time>
      </trkpt>
      <trkpt lat="44.23862" lon="1.77501">
        <ele>203</ele>
        <time>2022-02-19T15:46:53Z</time>
      </trkpt>
      <trkpt lat="44.2386" lon="1.77498">
        <ele>203.3</ele>
        <time>2022-02-19T15:46:54Z</time>
      </trkpt>
      <trkpt lat="44.23859" lon="1.77497">
        <ele>203.4</ele>
        <time>2022-02-19T15:46:55Z</time>
      </trkpt>
      <trkpt lat="44.23858" lon="1.77494">
        <ele>203.6</ele>
        <time>2022-02-19T15:46:56Z</time>
      </trkpt>
      <trkpt lat="44.23857" lon="1.77493">
        <ele>203.7</ele>
        <time>2022-02-19T15:46:57Z</time>
      </trkpt>
      <trkpt lat="44.23855" lon="1.7749">
        <ele>204</ele>
        <time>2022-02-19T15:46:58Z</time>
      </trkpt>
      <trkpt lat="44.23854" lon="1.77489">
        <ele>204.1</ele>
        <time>2022-02-19T15:46:59Z</time>
      </trkpt>
      <trkpt lat="44.23852" lon="1.77486">
        <ele>204.5</ele>
        <time>2022-02-19T15:47:00Z</time>
      </trkpt>
      <trkpt lat="44.23851" lon="1.77485">
        <ele>204.6</ele>
        <time>2022-02-19T15:47:01Z</time>
      </trkpt>
      <trkpt lat="44.23848" lon="1.77483">
        <ele>204.9</ele>
        <time>2022-02-19T15:47:02Z</time>
      </trkpt>
      <trkpt lat="44.23847" lon="1.77483">
        <ele>205</ele>
        <time>2022-02-19T15:47:03Z</time>
      </trkpt>
      <trkpt lat="44.23845" lon="1.7748">
        <ele>205.3</ele>
        <time>2022-02-19T15:47:04Z</time>
      </trkpt>
      <trkpt lat="44.23844" lon="1.77479">
        <ele>205.4</ele>
        <time>2022-02-19T15:47:05Z</time>
      </trkpt>
      <trkpt lat="44.23841" lon="1.77476">
        <ele>205.7</ele>
        <time>2022-02-19T15:47:06Z</time>
      </trkpt>
      <trkpt lat="44.23841" lon="1.77475">
        <ele>205.8</ele>
        <time>2022-02-19T15:47:07Z</time>
      </trkpt>
      <trkpt lat="44.23838" lon="1.77473">
        <ele>206.1</ele>
        <time>2022-02-19T15:47:08Z</time>
      </trkpt>
      <trkpt lat="44.23837" lon="1.77472">
        <ele>206.2</ele>
        <time>2022-02-19T15:47:09Z</time>
      </trkpt>
      <trkpt lat="44.23835" lon="1.77469">
        <ele>206.5</ele>
        <time>2022-02-19T15:47:10Z</time>
      </trkpt>
      <trkpt lat="44.23834" lon="1.77469">
        <ele>206.6</ele>
        <time>2022-02-19T15:47:11Z</time>
      </trkpt>
      <trkpt lat="44.23831" lon="1.77466">
        <ele>206.9</ele>
        <time>2022-02-19T15:47:12Z</time>
      </trkpt>
      <trkpt lat="44.2383" lon="1.77465">
        <ele>207.1</ele>
        <time>2022-02-19T15:47:13Z</time>
      </trkpt>
      <trkpt lat="44.23827" lon="1.77463">
        <ele>207.4</ele>
        <time>2022-02-19T15:47:14Z</time>
      </trkpt>
      <trkpt lat="44.23827" lon="1.77462">
        <ele>207.5</ele>
        <time>2022-02-19T15:47:15Z</time>
      </trkpt>
      <trkpt lat="44.23824" lon="1.7746">
        <ele>207.7</ele>
        <time>2022-02-19T15:47:16Z</time>
      </trkpt>
      <trkpt lat="44.23823" lon="1.7746">
        <ele>207.8</ele>
        <time>2022-02-19T15:47:17Z</time>
      </trkpt>
      <trkpt lat="44.2382" lon="1.77458">
        <ele>208.2</ele>
        <time>2022-02-19T15:47:18Z</time>
      </trkpt>
      <trkpt lat="44.23819" lon="1.77457">
        <ele>208.3</ele>
        <time>2022-02-19T15:47:19Z</time>
      </trkpt>
      <trkpt lat="44.23816" lon="1.77456">
        <ele>208.6</ele>
        <time>2022-02-19T15:47:20Z</time>
      </trkpt>
      <trkpt lat="44.23815" lon="1.77455">
        <ele>208.7</ele>
        <time>2022-02-19T15:47:21Z</time>
      </trkpt>
      <trkpt lat="44.23812" lon="1.77454">
        <ele>208.9</ele>
        <time>2022-02-19T15:47:22Z</time>
      </trkpt>
      <trkpt lat="44.23811" lon="1.77453">
        <ele>209</ele>
        <time>2022-02-19T15:47:23Z</time>
      </trkpt>
      <trkpt lat="44.2381" lon="1.77452">
        <ele>209.2</ele>
        <time>2022-02-19T15:47:24Z</time>
      </trkpt>
      <trkpt lat="44.23808" lon="1.7745">
        <ele>209.3</ele>
        <time>2022-02-19T15:47:25Z</time>
      </trkpt>
      <trkpt lat="44.23806" lon="1.77448">
        <ele>209.6</ele>
        <time>2022-02-19T15:47:26Z</time>
      </trkpt>
      <trkpt lat="44.23805" lon="1.77447">
        <ele>209.7</ele>
        <time>2022-02-19T15:47:27Z</time>
      </trkpt>
      <trkpt lat="44.23802" lon="1.77445">
        <ele>210</ele>
        <time>2022-02-19T15:47:28Z</time>
      </trkpt>
      <trkpt lat="44.23802" lon="1.77444">
        <ele>210</ele>
        <time>2022-02-19T15:47:29Z</time>
      </trkpt>
      <trkpt lat="44.23799" lon="1.77442">
        <ele>210.3</ele>
        <time>2022-02-19T15:47:30Z</time>
      </trkpt>
      <trkpt lat="44.23798" lon="1.77441">
        <ele>210.4</ele>
        <time>2022-02-19T15:47:31Z</time>
      </trkpt>
      <trkpt lat="44.23795" lon="1.77438">
        <ele>210.7</ele>
        <time>2022-02-19T15:47:32Z</time>
      </trkpt>
      <trkpt lat="44.23794" lon="1.77437">
        <ele>210.8</ele>
        <time>2022-02-19T15:47:33Z</time>
      </trkpt>
      <trkpt lat="44.23791" lon="1.77434">
        <ele>211.2</ele>
        <time>2022-02-19T15:47:34Z</time>
      </trkpt>
      <trkpt lat="44.2379" lon="1.77433">
        <ele>211.3</ele>
        <time>2022-02-19T15:47:35Z</time>
      </trkpt>
      <trkpt lat="44.23788" lon="1.7743">
        <ele>211.6</ele>
        <time>2022-02-19T15:47:36Z</time>
      </trkpt>
      <trkpt lat="44.23787" lon="1.77429">
        <ele>211.7</ele>
        <time>2022-02-19T15:47:37Z</time>
      </trkpt>
      <trkpt lat="44.23784" lon="1.77427">
        <ele>212</ele>
        <time>2022-02-19T15:47:38Z</time>
      </trkpt>
      <trkpt lat="44.23783" lon="1.77426">
        <ele>212.1</ele>
        <time>2022-02-19T15:47:39Z</time>
      </trkpt>
      <trkpt lat="44.2378" lon="1.77423">
        <ele>212.4</ele>
        <time>2022-02-19T15:47:40Z</time>
      </trkpt>
      <trkpt lat="44.23779" lon="1.77423">
        <ele>212.5</ele>
        <time>2022-02-19T15:47:41Z</time>
      </trkpt>
      <trkpt lat="44.23777" lon="1.7742">
        <ele>212.7</ele>
        <time>2022-02-19T15:47:42Z</time>
      </trkpt>
      <trkpt lat="44.23776" lon="1.77419">
        <ele>212.8</ele>
        <time>2022-02-19T15:47:43Z</time>
      </trkpt>
      <trkpt lat="44.23773" lon="1.77416">
        <ele>213.2</ele>
        <time>2022-02-19T15:47:45Z</time>
      </trkpt>
      <trkpt lat="44.2377" lon="1.77414">
        <ele>213.5</ele>
        <time>2022-02-19T15:47:46Z</time>
      </trkpt>
      <trkpt lat="44.23769" lon="1.77413">
        <ele>213.6</ele>
        <time>2022-02-19T15:47:47Z</time>
      </trkpt>
      <trkpt lat="44.23767" lon="1.7741">
        <ele>213.9</ele>
        <time>2022-02-19T15:47:48Z</time>
      </trkpt>
      <trkpt lat="44.23766" lon="1.77409">
        <ele>214</ele>
        <time>2022-02-19T15:47:49Z</time>
      </trkpt>
      <trkpt lat="44.23762" lon="1.77406">
        <ele>214.4</ele>
        <time>2022-02-19T15:47:51Z</time>
      </trkpt>
      <trkpt lat="44.23761" lon="1.77405">
        <ele>214.5</ele>
        <time>2022-02-19T15:47:52Z</time>
      </trkpt>
      <trkpt lat="44.2376" lon="1.77404">
        <ele>214.7</ele>
        <time>2022-02-19T15:47:53Z</time>
      </trkpt>
      <trkpt lat="44.23759" lon="1.77402">
        <ele>214.8</ele>
        <time>2022-02-19T15:47:54Z</time>
      </trkpt>
      <trkpt lat="44.2376" lon="1.774">
        <ele>215</ele>
        <time>2022-02-19T15:47:55Z</time>
      </trkpt>
      <trkpt lat="44.23759" lon="1.77399">
        <ele>215</ele>
        <time>2022-02-19T15:47:56Z</time>
      </trkpt>
      <trkpt lat="44.23759" lon="1.77399">
        <ele>215.1</ele>
        <time>2022-02-19T15:47:57Z</time>
      </trkpt>
      <trkpt lat="44.23758" lon="1.77399">
        <ele>215.1</ele>
        <time>2022-02-19T15:47:58Z</time>
      </trkpt>
      <trkpt lat="44.23757" lon="1.77399">
        <ele>215.2</ele>
        <time>2022-02-19T15:47:59Z</time>
      </trkpt>
      <trkpt lat="44.23757" lon="1.77398">
        <ele>215.2</ele>
        <time>2022-02-19T15:48:00Z</time>
      </trkpt>
      <trkpt lat="44.23756" lon="1.77398">
        <ele>215.3</ele>
        <time>2022-02-19T15:48:01Z</time>
      </trkpt>
      <trkpt lat="44.23756" lon="1.77398">
        <ele>215.3</ele>
        <time>2022-02-19T15:48:03Z</time>
      </trkpt>
      <trkpt lat="44.23755" lon="1.77397">
        <ele>215.4</ele>
        <time>2022-02-19T15:48:04Z</time>
      </trkpt>
      <trkpt lat="44.23755" lon="1.77397">
        <ele>215.5</ele>
        <time>2022-02-19T15:48:38Z</time>
      </trkpt>
      <trkpt lat="44.23754" lon="1.77397">
        <ele>215.5</ele>
        <time>2022-02-19T15:48:39Z</time>
      </trkpt>
      <trkpt lat="44.23754" lon="1.77397">
        <ele>215.6</ele>
        <time>2022-02-19T15:48:40Z</time>
      </trkpt>
      <trkpt lat="44.23753" lon="1.77396">
        <ele>215.6</ele>
        <time>2022-02-19T15:48:41Z</time>
      </trkpt>
      <trkpt lat="44.23752" lon="1.77396">
        <ele>215.6</ele>
        <time>2022-02-19T15:48:42Z</time>
      </trkpt>
      <trkpt lat="44.23751" lon="1.77396">
        <ele>215.7</ele>
        <time>2022-02-19T15:48:43Z</time>
      </trkpt>
      <trkpt lat="44.23751" lon="1.77395">
        <ele>215.8</ele>
        <time>2022-02-19T15:48:44Z</time>
      </trkpt>
      <trkpt lat="44.2375" lon="1.77394">
        <ele>215.9</ele>
        <time>2022-02-19T15:48:45Z</time>
      </trkpt>
      <trkpt lat="44.23749" lon="1.77392">
        <ele>216.1</ele>
        <time>2022-02-19T15:48:46Z</time>
      </trkpt>
      <trkpt lat="44.23747" lon="1.77391">
        <ele>216.2</ele>
        <time>2022-02-19T15:48:47Z</time>
      </trkpt>
      <trkpt lat="44.23745" lon="1.77387">
        <ele>216.5</ele>
        <time>2022-02-19T15:48:48Z</time>
      </trkpt>
      <trkpt lat="44.23744" lon="1.77386">
        <ele>216.6</ele>
        <time>2022-02-19T15:48:49Z</time>
      </trkpt>
      <trkpt lat="44.23743" lon="1.77384">
        <ele>216.8</ele>
        <time>2022-02-19T15:48:50Z</time>
      </trkpt>
      <trkpt lat="44.23742" lon="1.77382">
        <ele>216.9</ele>
        <time>2022-02-19T15:48:51Z</time>
      </trkpt>
      <trkpt lat="44.2374" lon="1.7738">
        <ele>217.1</ele>
        <time>2022-02-19T15:48:52Z</time>
      </trkpt>
      <trkpt lat="44.23739" lon="1.77379">
        <ele>217.2</ele>
        <time>2022-02-19T15:48:53Z</time>
      </trkpt>
      <trkpt lat="44.23739" lon="1.77379">
        <ele>217.3</ele>
        <time>2022-02-19T15:48:54Z</time>
      </trkpt>
      <trkpt lat="44.23737" lon="1.77377">
        <ele>217.4</ele>
        <time>2022-02-19T15:48:55Z</time>
      </trkpt>
      <trkpt lat="44.23736" lon="1.77376">
        <ele>217.5</ele>
        <time>2022-02-19T15:48:56Z</time>
      </trkpt>
      <trkpt lat="44.23735" lon="1.77375">
        <ele>217.6</ele>
        <time>2022-02-19T15:48:57Z</time>
      </trkpt>
      <trkpt lat="44.23734" lon="1.77374">
        <ele>217.8</ele>
        <time>2022-02-19T15:48:58Z</time>
      </trkpt>
      <trkpt lat="44.23732" lon="1.77372">
        <ele>217.9</ele>
        <time>2022-02-19T15:48:59Z</time>
      </trkpt>
      <trkpt lat="44.23732" lon="1.77371">
        <ele>218</ele>
        <time>2022-02-19T15:49:00Z</time>
      </trkpt>
      <trkpt lat="44.23731" lon="1.7737">
        <ele>218.1</ele>
        <time>2022-02-19T15:49:01Z</time>
      </trkpt>
      <trkpt lat="44.23729" lon="1.77369">
        <ele>218.3</ele>
        <time>2022-02-19T15:49:02Z</time>
      </trkpt>
      <trkpt lat="44.23729" lon="1.77368">
        <ele>218.3</ele>
        <time>2022-02-19T15:49:03Z</time>
      </trkpt>
      <trkpt lat="44.23728" lon="1.77368">
        <ele>218.4</ele>
        <time>2022-02-19T15:49:04Z</time>
      </trkpt>
      <trkpt lat="44.23726" lon="1.77367">
        <ele>218.6</ele>
        <time>2022-02-19T15:49:05Z</time>
      </trkpt>
      <trkpt lat="44.23725" lon="1.77364">
        <ele>218.8</ele>
        <time>2022-02-19T15:49:07Z</time>
      </trkpt>
      <trkpt lat="44.23724" lon="1.77363">
        <ele>218.9</ele>
        <time>2022-02-19T15:49:08Z</time>
      </trkpt>
      <trkpt lat="44.23723" lon="1.77361">
        <ele>219</ele>
        <time>2022-02-19T15:49:09Z</time>
      </trkpt>
      <trkpt lat="44.2372" lon="1.77358">
        <ele>219.3</ele>
        <time>2022-02-19T15:49:11Z</time>
      </trkpt>
      <trkpt lat="44.2372" lon="1.77357">
        <ele>219.4</ele>
        <time>2022-02-19T15:49:12Z</time>
      </trkpt>
      <trkpt lat="44.23718" lon="1.77355">
        <ele>219.6</ele>
        <time>2022-02-19T15:49:13Z</time>
      </trkpt>
      <trkpt lat="44.23717" lon="1.77353">
        <ele>219.7</ele>
        <time>2022-02-19T15:49:15Z</time>
      </trkpt>
      <trkpt lat="44.23715" lon="1.77352">
        <ele>219.9</ele>
        <time>2022-02-19T15:49:16Z</time>
      </trkpt>
      <trkpt lat="44.23714" lon="1.77352">
        <ele>220</ele>
        <time>2022-02-19T15:49:17Z</time>
      </trkpt>
      <trkpt lat="44.23713" lon="1.77352">
        <ele>220.1</ele>
        <time>2022-02-19T15:49:18Z</time>
      </trkpt>
      <trkpt lat="44.23711" lon="1.77351">
        <ele>220.3</ele>
        <time>2022-02-19T15:49:19Z</time>
      </trkpt>
      <trkpt lat="44.2371" lon="1.7735">
        <ele>220.4</ele>
        <time>2022-02-19T15:49:21Z</time>
      </trkpt>
      <trkpt lat="44.23709" lon="1.77349">
        <ele>220.5</ele>
        <time>2022-02-19T15:49:22Z</time>
      </trkpt>
      <trkpt lat="44.23708" lon="1.77349">
        <ele>220.6</ele>
        <time>2022-02-19T15:49:23Z</time>
      </trkpt>
      <trkpt lat="44.23707" lon="1.77348">
        <ele>220.8</ele>
        <time>2022-02-19T15:49:24Z</time>
      </trkpt>
      <trkpt lat="44.23705" lon="1.77347">
        <ele>220.9</ele>
        <time>2022-02-19T15:49:25Z</time>
      </trkpt>
      <trkpt lat="44.23704" lon="1.77346">
        <ele>221</ele>
        <time>2022-02-19T15:49:27Z</time>
      </trkpt>
      <trkpt lat="44.23704" lon="1.77345">
        <ele>221.1</ele>
        <time>2022-02-19T15:49:28Z</time>
      </trkpt>
      <trkpt lat="44.23703" lon="1.77345">
        <ele>221.2</ele>
        <time>2022-02-19T15:49:29Z</time>
      </trkpt>
      <trkpt lat="44.23702" lon="1.77344">
        <ele>221.3</ele>
        <time>2022-02-19T15:49:30Z</time>
      </trkpt>
      <trkpt lat="44.237" lon="1.77342">
        <ele>221.6</ele>
        <time>2022-02-19T15:49:31Z</time>
      </trkpt>
      <trkpt lat="44.23699" lon="1.7734">
        <ele>221.7</ele>
        <time>2022-02-19T15:49:32Z</time>
      </trkpt>
      <trkpt lat="44.23698" lon="1.77339">
        <ele>221.7</ele>
        <time>2022-02-19T15:49:33Z</time>
      </trkpt>
      <trkpt lat="44.23698" lon="1.77338">
        <ele>221.8</ele>
        <time>2022-02-19T15:49:34Z</time>
      </trkpt>
      <trkpt lat="44.23697" lon="1.77336">
        <ele>221.8</ele>
        <time>2022-02-19T15:49:35Z</time>
      </trkpt>
      <trkpt lat="44.23697" lon="1.77334">
        <ele>221.9</ele>
        <time>2022-02-19T15:49:36Z</time>
      </trkpt>
      <trkpt lat="44.23699" lon="1.77332">
        <ele>222</ele>
        <time>2022-02-19T15:49:37Z</time>
      </trkpt>
      <trkpt lat="44.237" lon="1.77332">
        <ele>223.5</ele>
        <time>2022-02-19T15:49:38Z</time>
      </trkpt>
      <trkpt lat="44.23701" lon="1.77331">
        <ele>223.5</ele>
        <time>2022-02-19T15:49:39Z</time>
      </trkpt>
      <trkpt lat="44.23702" lon="1.77331">
        <ele>223.5</ele>
        <time>2022-02-19T15:49:40Z</time>
      </trkpt>
      <trkpt lat="44.23703" lon="1.77331">
        <ele>223.5</ele>
        <time>2022-02-19T15:49:41Z</time>
      </trkpt>
      <trkpt lat="44.23703" lon="1.77331">
        <ele>223.5</ele>
        <time>2022-02-19T15:49:42Z</time>
      </trkpt>
      <trkpt lat="44.23703" lon="1.77331">
        <ele>223.5</ele>
        <time>2022-02-19T15:49:43Z</time>
      </trkpt>
      <trkpt lat="44.23703" lon="1.77331">
        <ele>223.5</ele>
        <time>2022-02-19T15:49:44Z</time>
      </trkpt>
      <trkpt lat="44.23703" lon="1.77331">
        <ele>223.5</ele>
        <time>2022-02-19T15:49:45Z</time>
      </trkpt>
      <trkpt lat="44.23703" lon="1.77331">
        <ele>223.5</ele>
        <time>2022-02-19T15:49:46Z</time>
      </trkpt>
      <trkpt lat="44.23703" lon="1.77331">
        <ele>223.5</ele>
        <time>2022-02-19T15:49:47Z</time>
      </trkpt>
      <trkpt lat="44.23704" lon="1.77331">
        <ele>223.6</ele>
        <time>2022-02-19T15:49:48Z</time>
      </trkpt>
      <trkpt lat="44.23704" lon="1.77331">
        <ele>223.6</ele>
        <time>2022-02-19T15:49:49Z</time>
      </trkpt>
      <trkpt lat="44.23704" lon="1.77331">
        <ele>223.6</ele>
        <time>2022-02-19T15:49:50Z</time>
      </trkpt>
      <trkpt lat="44.23704" lon="1.77331">
        <ele>223.6</ele>
        <time>2022-02-19T15:49:51Z</time>
      </trkpt>
      <trkpt lat="44.23708" lon="1.77332">
        <ele>223.6</ele>
        <time>2022-02-19T15:49:54Z</time>
      </trkpt>
      <trkpt lat="44.23712" lon="1.77333">
        <ele>223.7</ele>
        <time>2022-02-19T15:49:55Z</time>
      </trkpt>
      <trkpt lat="44.23715" lon="1.77334">
        <ele>223.8</ele>
        <time>2022-02-19T15:49:56Z</time>
      </trkpt>
      <trkpt lat="44.23718" lon="1.77334">
        <ele>223.8</ele>
        <time>2022-02-19T15:49:57Z</time>
      </trkpt>
      <trkpt lat="44.23722" lon="1.77335">
        <ele>223.9</ele>
        <time>2022-02-19T15:49:59Z</time>
      </trkpt>
      <trkpt lat="44.23726" lon="1.77335">
        <ele>224</ele>
        <time>2022-02-19T15:50:01Z</time>
      </trkpt>
      <trkpt lat="44.23729" lon="1.77336">
        <ele>224.1</ele>
        <time>2022-02-19T15:50:02Z</time>
      </trkpt>
      <trkpt lat="44.23729" lon="1.77336">
        <ele>224.2</ele>
        <time>2022-02-19T15:50:03Z</time>
      </trkpt>
      <trkpt lat="44.23732" lon="1.77336">
        <ele>224.2</ele>
        <time>2022-02-19T15:50:04Z</time>
      </trkpt>
      <trkpt lat="44.23733" lon="1.77336">
        <ele>224.3</ele>
        <time>2022-02-19T15:50:05Z</time>
      </trkpt>
      <trkpt lat="44.23734" lon="1.77337">
        <ele>224.3</ele>
        <time>2022-02-19T15:50:06Z</time>
      </trkpt>
      <trkpt lat="44.23735" lon="1.77336">
        <ele>224.4</ele>
        <time>2022-02-19T15:50:07Z</time>
      </trkpt>
      <trkpt lat="44.23737" lon="1.77337">
        <ele>224.4</ele>
        <time>2022-02-19T15:50:08Z</time>
      </trkpt>
      <trkpt lat="44.23738" lon="1.77338">
        <ele>224.5</ele>
        <time>2022-02-19T15:50:09Z</time>
      </trkpt>
      <trkpt lat="44.2374" lon="1.77337">
        <ele>224.5</ele>
        <time>2022-02-19T15:50:10Z</time>
      </trkpt>
      <trkpt lat="44.23741" lon="1.77336">
        <ele>224.6</ele>
        <time>2022-02-19T15:50:11Z</time>
      </trkpt>
      <trkpt lat="44.23743" lon="1.77338">
        <ele>224.6</ele>
        <time>2022-02-19T15:50:12Z</time>
      </trkpt>
      <trkpt lat="44.23744" lon="1.77339">
        <ele>224.7</ele>
        <time>2022-02-19T15:50:13Z</time>
      </trkpt>
      <trkpt lat="44.23747" lon="1.7734">
        <ele>224.8</ele>
        <time>2022-02-19T15:50:15Z</time>
      </trkpt>
      <trkpt lat="44.23749" lon="1.77342">
        <ele>224.9</ele>
        <time>2022-02-19T15:50:16Z</time>
      </trkpt>
      <trkpt lat="44.23752" lon="1.77342">
        <ele>225</ele>
        <time>2022-02-19T15:50:18Z</time>
      </trkpt>
      <trkpt lat="44.23753" lon="1.77343">
        <ele>225</ele>
        <time>2022-02-19T15:50:19Z</time>
      </trkpt>
      <trkpt lat="44.23755" lon="1.77343">
        <ele>225.1</ele>
        <time>2022-02-19T15:50:20Z</time>
      </trkpt>
      <trkpt lat="44.23757" lon="1.77343">
        <ele>225.2</ele>
        <time>2022-02-19T15:50:21Z</time>
      </trkpt>
      <trkpt lat="44.23758" lon="1.77344">
        <ele>225.2</ele>
        <time>2022-02-19T15:50:22Z</time>
      </trkpt>
      <trkpt lat="44.2376" lon="1.77345">
        <ele>225.3</ele>
        <time>2022-02-19T15:50:23Z</time>
      </trkpt>
      <trkpt lat="44.23761" lon="1.77345">
        <ele>225.3</ele>
        <time>2022-02-19T15:50:24Z</time>
      </trkpt>
      <trkpt lat="44.23763" lon="1.77345">
        <ele>225.4</ele>
        <time>2022-02-19T15:50:25Z</time>
      </trkpt>
      <trkpt lat="44.23764" lon="1.77347">
        <ele>225.5</ele>
        <time>2022-02-19T15:50:26Z</time>
      </trkpt>
      <trkpt lat="44.23766" lon="1.77347">
        <ele>225.5</ele>
        <time>2022-02-19T15:50:27Z</time>
      </trkpt>
      <trkpt lat="44.23767" lon="1.77348">
        <ele>225.5</ele>
        <time>2022-02-19T15:50:28Z</time>
      </trkpt>
      <trkpt lat="44.23769" lon="1.77348">
        <ele>225.5</ele>
        <time>2022-02-19T15:50:29Z</time>
      </trkpt>
      <trkpt lat="44.2377" lon="1.77349">
        <ele>225.5</ele>
        <time>2022-02-19T15:50:30Z</time>
      </trkpt>
      <trkpt lat="44.23772" lon="1.77349">
        <ele>225.5</ele>
        <time>2022-02-19T15:50:31Z</time>
      </trkpt>
      <trkpt lat="44.23773" lon="1.7735">
        <ele>225.5</ele>
        <time>2022-02-19T15:50:32Z</time>
      </trkpt>
      <trkpt lat="44.23775" lon="1.7735">
        <ele>225.6</ele>
        <time>2022-02-19T15:50:33Z</time>
      </trkpt>
      <trkpt lat="44.23778" lon="1.77352">
        <ele>225.6</ele>
        <time>2022-02-19T15:50:35Z</time>
      </trkpt>
      <trkpt lat="44.23779" lon="1.77352">
        <ele>225.6</ele>
        <time>2022-02-19T15:50:36Z</time>
      </trkpt>
      <trkpt lat="44.23781" lon="1.77353">
        <ele>225.6</ele>
        <time>2022-02-19T15:50:37Z</time>
      </trkpt>
      <trkpt lat="44.23783" lon="1.77353">
        <ele>225.6</ele>
        <time>2022-02-19T15:50:38Z</time>
      </trkpt>
      <trkpt lat="44.23784" lon="1.77354">
        <ele>225.6</ele>
        <time>2022-02-19T15:50:39Z</time>
      </trkpt>
      <trkpt lat="44.23786" lon="1.77354">
        <ele>225.6</ele>
        <time>2022-02-19T15:50:40Z</time>
      </trkpt>
      <trkpt lat="44.23787" lon="1.77355">
        <ele>225.7</ele>
        <time>2022-02-19T15:50:41Z</time>
      </trkpt>
      <trkpt lat="44.23789" lon="1.77356">
        <ele>225.7</ele>
        <time>2022-02-19T15:50:42Z</time>
      </trkpt>
      <trkpt lat="44.2379" lon="1.77357">
        <ele>225.7</ele>
        <time>2022-02-19T15:50:43Z</time>
      </trkpt>
      <trkpt lat="44.23791" lon="1.77357">
        <ele>225.7</ele>
        <time>2022-02-19T15:50:44Z</time>
      </trkpt>
      <trkpt lat="44.23793" lon="1.77357">
        <ele>225.7</ele>
        <time>2022-02-19T15:50:45Z</time>
      </trkpt>
      <trkpt lat="44.23795" lon="1.77358">
        <ele>225.7</ele>
        <time>2022-02-19T15:50:46Z</time>
      </trkpt>
      <trkpt lat="44.23796" lon="1.77358">
        <ele>225.7</ele>
        <time>2022-02-19T15:50:47Z</time>
      </trkpt>
      <trkpt lat="44.23798" lon="1.77359">
        <ele>225.7</ele>
        <time>2022-02-19T15:50:48Z</time>
      </trkpt>
      <trkpt lat="44.23799" lon="1.77359">
        <ele>225.7</ele>
        <time>2022-02-19T15:50:49Z</time>
      </trkpt>
      <trkpt lat="44.23802" lon="1.77361">
        <ele>225.7</ele>
        <time>2022-02-19T15:50:50Z</time>
      </trkpt>
      <trkpt lat="44.23803" lon="1.77361">
        <ele>225.7</ele>
        <time>2022-02-19T15:50:51Z</time>
      </trkpt>
      <trkpt lat="44.23805" lon="1.77361">
        <ele>225.7</ele>
        <time>2022-02-19T15:50:52Z</time>
      </trkpt>
      <trkpt lat="44.23806" lon="1.77362">
        <ele>225.7</ele>
        <time>2022-02-19T15:50:53Z</time>
      </trkpt>
      <trkpt lat="44.23808" lon="1.77362">
        <ele>225.8</ele>
        <time>2022-02-19T15:50:54Z</time>
      </trkpt>
      <trkpt lat="44.23809" lon="1.77362">
        <ele>225.8</ele>
        <time>2022-02-19T15:50:55Z</time>
      </trkpt>
      <trkpt lat="44.23812" lon="1.77363">
        <ele>225.8</ele>
        <time>2022-02-19T15:50:56Z</time>
      </trkpt>
      <trkpt lat="44.23813" lon="1.77363">
        <ele>225.8</ele>
        <time>2022-02-19T15:50:57Z</time>
      </trkpt>
      <trkpt lat="44.23815" lon="1.77364">
        <ele>225.8</ele>
        <time>2022-02-19T15:50:58Z</time>
      </trkpt>
      <trkpt lat="44.23816" lon="1.77364">
        <ele>225.8</ele>
        <time>2022-02-19T15:50:59Z</time>
      </trkpt>
      <trkpt lat="44.23817" lon="1.77365">
        <ele>225.8</ele>
        <time>2022-02-19T15:51:00Z</time>
      </trkpt>
      <trkpt lat="44.23819" lon="1.77365">
        <ele>225.8</ele>
        <time>2022-02-19T15:51:01Z</time>
      </trkpt>
      <trkpt lat="44.23821" lon="1.77366">
        <ele>225.8</ele>
        <time>2022-02-19T15:51:02Z</time>
      </trkpt>
      <trkpt lat="44.23823" lon="1.77366">
        <ele>225.8</ele>
        <time>2022-02-19T15:51:03Z</time>
      </trkpt>
      <trkpt lat="44.23825" lon="1.77366">
        <ele>225.8</ele>
        <time>2022-02-19T15:51:04Z</time>
      </trkpt>
      <trkpt lat="44.23826" lon="1.77366">
        <ele>225.8</ele>
        <time>2022-02-19T15:51:05Z</time>
      </trkpt>
      <trkpt lat="44.23828" lon="1.77367">
        <ele>225.8</ele>
        <time>2022-02-19T15:51:06Z</time>
      </trkpt>
      <trkpt lat="44.2383" lon="1.77367">
        <ele>225.8</ele>
        <time>2022-02-19T15:51:07Z</time>
      </trkpt>
      <trkpt lat="44.23831" lon="1.77368">
        <ele>225.8</ele>
        <time>2022-02-19T15:51:08Z</time>
      </trkpt>
      <trkpt lat="44.23833" lon="1.77369">
        <ele>225.8</ele>
        <time>2022-02-19T15:51:09Z</time>
      </trkpt>
      <trkpt lat="44.23834" lon="1.77369">
        <ele>225.8</ele>
        <time>2022-02-19T15:51:10Z</time>
      </trkpt>
      <trkpt lat="44.23836" lon="1.7737">
        <ele>225.8</ele>
        <time>2022-02-19T15:51:11Z</time>
      </trkpt>
      <trkpt lat="44.23838" lon="1.7737">
        <ele>225.8</ele>
        <time>2022-02-19T15:51:12Z</time>
      </trkpt>
      <trkpt lat="44.23839" lon="1.77371">
        <ele>225.8</ele>
        <time>2022-02-19T15:51:13Z</time>
      </trkpt>
      <trkpt lat="44.23841" lon="1.77372">
        <ele>225.8</ele>
        <time>2022-02-19T15:51:14Z</time>
      </trkpt>
      <trkpt lat="44.23842" lon="1.77373">
        <ele>225.8</ele>
        <time>2022-02-19T15:51:15Z</time>
      </trkpt>
      <trkpt lat="44.23845" lon="1.77373">
        <ele>225.7</ele>
        <time>2022-02-19T15:51:16Z</time>
      </trkpt>
      <trkpt lat="44.23846" lon="1.77374">
        <ele>225.7</ele>
        <time>2022-02-19T15:51:17Z</time>
      </trkpt>
      <trkpt lat="44.23849" lon="1.77375">
        <ele>225.7</ele>
        <time>2022-02-19T15:51:18Z</time>
      </trkpt>
      <trkpt lat="44.2385" lon="1.77375">
        <ele>225.7</ele>
        <time>2022-02-19T15:51:19Z</time>
      </trkpt>
      <trkpt lat="44.23853" lon="1.77375">
        <ele>225.7</ele>
        <time>2022-02-19T15:51:20Z</time>
      </trkpt>
      <trkpt lat="44.23853" lon="1.77375">
        <ele>225.7</ele>
        <time>2022-02-19T15:51:21Z</time>
      </trkpt>
      <trkpt lat="44.23855" lon="1.77375">
        <ele>225.7</ele>
        <time>2022-02-19T15:51:22Z</time>
      </trkpt>
      <trkpt lat="44.23857" lon="1.77376">
        <ele>225.7</ele>
        <time>2022-02-19T15:51:23Z</time>
      </trkpt>
      <trkpt lat="44.23859" lon="1.77377">
        <ele>225.7</ele>
        <time>2022-02-19T15:51:24Z</time>
      </trkpt>
      <trkpt lat="44.2386" lon="1.77377">
        <ele>225.7</ele>
        <time>2022-02-19T15:51:25Z</time>
      </trkpt>
      <trkpt lat="44.23864" lon="1.77378">
        <ele>225.7</ele>
        <time>2022-02-19T15:51:26Z</time>
      </trkpt>
      <trkpt lat="44.23865" lon="1.77379">
        <ele>225.7</ele>
        <time>2022-02-19T15:51:27Z</time>
      </trkpt>
      <trkpt lat="44.23868" lon="1.7738">
        <ele>225.7</ele>
        <time>2022-02-19T15:51:28Z</time>
      </trkpt>
      <trkpt lat="44.23869" lon="1.7738">
        <ele>225.8</ele>
        <time>2022-02-19T15:51:29Z</time>
      </trkpt>
      <trkpt lat="44.23872" lon="1.77381">
        <ele>225.8</ele>
        <time>2022-02-19T15:51:30Z</time>
      </trkpt>
      <trkpt lat="44.23873" lon="1.77382">
        <ele>225.8</ele>
        <time>2022-02-19T15:51:31Z</time>
      </trkpt>
      <trkpt lat="44.23876" lon="1.77383">
        <ele>225.8</ele>
        <time>2022-02-19T15:51:32Z</time>
      </trkpt>
      <trkpt lat="44.23877" lon="1.77383">
        <ele>225.8</ele>
        <time>2022-02-19T15:51:33Z</time>
      </trkpt>
      <trkpt lat="44.2388" lon="1.77385">
        <ele>225.8</ele>
        <time>2022-02-19T15:51:34Z</time>
      </trkpt>
      <trkpt lat="44.23881" lon="1.77385">
        <ele>225.8</ele>
        <time>2022-02-19T15:51:35Z</time>
      </trkpt>
      <trkpt lat="44.23884" lon="1.77386">
        <ele>225.8</ele>
        <time>2022-02-19T15:51:36Z</time>
      </trkpt>
      <trkpt lat="44.23885" lon="1.77386">
        <ele>225.8</ele>
        <time>2022-02-19T15:51:37Z</time>
      </trkpt>
      <trkpt lat="44.23888" lon="1.77387">
        <ele>225.8</ele>
        <time>2022-02-19T15:51:38Z</time>
      </trkpt>
      <trkpt lat="44.2389" lon="1.77387">
        <ele>225.8</ele>
        <time>2022-02-19T15:51:39Z</time>
      </trkpt>
      <trkpt lat="44.23893" lon="1.77388">
        <ele>225.8</ele>
        <time>2022-02-19T15:51:40Z</time>
      </trkpt>
      <trkpt lat="44.23894" lon="1.77388">
        <ele>225.8</ele>
        <time>2022-02-19T15:51:41Z</time>
      </trkpt>
      <trkpt lat="44.23897" lon="1.77389">
        <ele>225.8</ele>
        <time>2022-02-19T15:51:42Z</time>
      </trkpt>
      <trkpt lat="44.23898" lon="1.7739">
        <ele>225.8</ele>
        <time>2022-02-19T15:51:43Z</time>
      </trkpt>
      <trkpt lat="44.23902" lon="1.77391">
        <ele>225.8</ele>
        <time>2022-02-19T15:51:44Z</time>
      </trkpt>
      <trkpt lat="44.23903" lon="1.77391">
        <ele>225.8</ele>
        <time>2022-02-19T15:51:45Z</time>
      </trkpt>
      <trkpt lat="44.23906" lon="1.77392">
        <ele>225.9</ele>
        <time>2022-02-19T15:51:46Z</time>
      </trkpt>
      <trkpt lat="44.23909" lon="1.77393">
        <ele>225.9</ele>
        <time>2022-02-19T15:51:47Z</time>
      </trkpt>
      <trkpt lat="44.2391" lon="1.77394">
        <ele>225.9</ele>
        <time>2022-02-19T15:51:48Z</time>
      </trkpt>
      <trkpt lat="44.23913" lon="1.77395">
        <ele>225.9</ele>
        <time>2022-02-19T15:51:49Z</time>
      </trkpt>
      <trkpt lat="44.23915" lon="1.77396">
        <ele>225.9</ele>
        <time>2022-02-19T15:51:50Z</time>
      </trkpt>
      <trkpt lat="44.23918" lon="1.77397">
        <ele>226</ele>
        <time>2022-02-19T15:51:51Z</time>
      </trkpt>
      <trkpt lat="44.23919" lon="1.77397">
        <ele>226</ele>
        <time>2022-02-19T15:51:52Z</time>
      </trkpt>
      <trkpt lat="44.23922" lon="1.77398">
        <ele>226</ele>
        <time>2022-02-19T15:51:53Z</time>
      </trkpt>
      <trkpt lat="44.23923" lon="1.77399">
        <ele>226</ele>
        <time>2022-02-19T15:51:54Z</time>
      </trkpt>
      <trkpt lat="44.23927" lon="1.774">
        <ele>226.1</ele>
        <time>2022-02-19T15:51:55Z</time>
      </trkpt>
      <trkpt lat="44.23928" lon="1.774">
        <ele>226.1</ele>
        <time>2022-02-19T15:51:56Z</time>
      </trkpt>
      <trkpt lat="44.23931" lon="1.77402">
        <ele>226.1</ele>
        <time>2022-02-19T15:51:57Z</time>
      </trkpt>
      <trkpt lat="44.23932" lon="1.77402">
        <ele>226.1</ele>
        <time>2022-02-19T15:51:58Z</time>
      </trkpt>
      <trkpt lat="44.23935" lon="1.77404">
        <ele>226.2</ele>
        <time>2022-02-19T15:51:59Z</time>
      </trkpt>
      <trkpt lat="44.23936" lon="1.77404">
        <ele>226.2</ele>
        <time>2022-02-19T15:52:00Z</time>
      </trkpt>
      <trkpt lat="44.23939" lon="1.77405">
        <ele>226.2</ele>
        <time>2022-02-19T15:52:01Z</time>
      </trkpt>
      <trkpt lat="44.2394" lon="1.77406">
        <ele>226.3</ele>
        <time>2022-02-19T15:52:02Z</time>
      </trkpt>
      <trkpt lat="44.23942" lon="1.77406">
        <ele>226.3</ele>
        <time>2022-02-19T15:52:03Z</time>
      </trkpt>
      <trkpt lat="44.23943" lon="1.77407">
        <ele>226.3</ele>
        <time>2022-02-19T15:52:04Z</time>
      </trkpt>
      <trkpt lat="44.23947" lon="1.77408">
        <ele>226.4</ele>
        <time>2022-02-19T15:52:05Z</time>
      </trkpt>
      <trkpt lat="44.23948" lon="1.77408">
        <ele>226.4</ele>
        <time>2022-02-19T15:52:06Z</time>
      </trkpt>
      <trkpt lat="44.23951" lon="1.7741">
        <ele>226.5</ele>
        <time>2022-02-19T15:52:07Z</time>
      </trkpt>
      <trkpt lat="44.23952" lon="1.7741">
        <ele>226.5</ele>
        <time>2022-02-19T15:52:08Z</time>
      </trkpt>
      <trkpt lat="44.23955" lon="1.77411">
        <ele>226.5</ele>
        <time>2022-02-19T15:52:09Z</time>
      </trkpt>
      <trkpt lat="44.23956" lon="1.77411">
        <ele>226.6</ele>
        <time>2022-02-19T15:52:10Z</time>
      </trkpt>
      <trkpt lat="44.23959" lon="1.77412">
        <ele>226.6</ele>
        <time>2022-02-19T15:52:11Z</time>
      </trkpt>
      <trkpt lat="44.2396" lon="1.77412">
        <ele>226.6</ele>
        <time>2022-02-19T15:52:12Z</time>
      </trkpt>
      <trkpt lat="44.23963" lon="1.77413">
        <ele>226.7</ele>
        <time>2022-02-19T15:52:13Z</time>
      </trkpt>
      <trkpt lat="44.23964" lon="1.77412">
        <ele>226.7</ele>
        <time>2022-02-19T15:52:14Z</time>
      </trkpt>
      <trkpt lat="44.23965" lon="1.77411">
        <ele>226.7</ele>
        <time>2022-02-19T15:52:15Z</time>
      </trkpt>
      <trkpt lat="44.23967" lon="1.7741">
        <ele>226.8</ele>
        <time>2022-02-19T15:52:16Z</time>
      </trkpt>
      <trkpt lat="44.23968" lon="1.77409">
        <ele>226.8</ele>
        <time>2022-02-19T15:52:17Z</time>
      </trkpt>
      <trkpt lat="44.2397" lon="1.77408">
        <ele>226.9</ele>
        <time>2022-02-19T15:52:18Z</time>
      </trkpt>
      <trkpt lat="44.23972" lon="1.77405">
        <ele>226.9</ele>
        <time>2022-02-19T15:52:19Z</time>
      </trkpt>
      <trkpt lat="44.23973" lon="1.77405">
        <ele>227</ele>
        <time>2022-02-19T15:52:20Z</time>
      </trkpt>
      <trkpt lat="44.23975" lon="1.77402">
        <ele>227</ele>
        <time>2022-02-19T15:52:21Z</time>
      </trkpt>
      <trkpt lat="44.23976" lon="1.77401">
        <ele>227</ele>
        <time>2022-02-19T15:52:22Z</time>
      </trkpt>
      <trkpt lat="44.23978" lon="1.774">
        <ele>227.1</ele>
        <time>2022-02-19T15:52:23Z</time>
      </trkpt>
      <trkpt lat="44.23979" lon="1.774">
        <ele>227.1</ele>
        <time>2022-02-19T15:52:24Z</time>
      </trkpt>
      <trkpt lat="44.2398" lon="1.77399">
        <ele>227.1</ele>
        <time>2022-02-19T15:52:25Z</time>
      </trkpt>
      <trkpt lat="44.23981" lon="1.77399">
        <ele>227.2</ele>
        <time>2022-02-19T15:52:26Z</time>
      </trkpt>
      <trkpt lat="44.23982" lon="1.77399">
        <ele>227.2</ele>
        <time>2022-02-19T15:52:27Z</time>
      </trkpt>
      <trkpt lat="44.23982" lon="1.77399">
        <ele>227.2</ele>
        <time>2022-02-19T15:52:28Z</time>
      </trkpt>
      <trkpt lat="44.23982" lon="1.77399">
        <ele>227.2</ele>
        <time>2022-02-19T15:52:29Z</time>
      </trkpt>
      <trkpt lat="44.23982" lon="1.77399">
        <ele>227.2</ele>
        <time>2022-02-19T15:52:30Z</time>
      </trkpt>
      <trkpt lat="44.23982" lon="1.77399">
        <ele>227.2</ele>
        <time>2022-02-19T15:52:31Z</time>
      </trkpt>
      <trkpt lat="44.23982" lon="1.77399">
        <ele>227.2</ele>
        <time>2022-02-19T15:52:32Z</time>
      </trkpt>
      <trkpt lat="44.23982" lon="1.77399">
        <ele>227.2</ele>
        <time>2022-02-19T15:52:33Z</time>
      </trkpt>
      <trkpt lat="44.23983" lon="1.77399">
        <ele>227.2</ele>
        <time>2022-02-19T15:52:35Z</time>
      </trkpt>
      <trkpt lat="44.23986" lon="1.77399">
        <ele>227.3</ele>
        <time>2022-02-19T15:52:40Z</time>
      </trkpt>
      <trkpt lat="44.23987" lon="1.77399">
        <ele>227.4</ele>
        <time>2022-02-19T15:52:41Z</time>
      </trkpt>
      <trkpt lat="44.23988" lon="1.77399">
        <ele>227.4</ele>
        <time>2022-02-19T15:52:42Z</time>
      </trkpt>
      <trkpt lat="44.23988" lon="1.774">
        <ele>227.4</ele>
        <time>2022-02-19T15:52:43Z</time>
      </trkpt>
      <trkpt lat="44.23989" lon="1.77401">
        <ele>227.4</ele>
        <time>2022-02-19T15:52:44Z</time>
      </trkpt>
      <trkpt lat="44.23989" lon="1.77401">
        <ele>227.4</ele>
        <time>2022-02-19T15:52:45Z</time>
      </trkpt>
      <trkpt lat="44.23989" lon="1.77401">
        <ele>227.4</ele>
        <time>2022-02-19T15:52:46Z</time>
      </trkpt>
      <trkpt lat="44.2399" lon="1.77401">
        <ele>227.4</ele>
        <time>2022-02-19T15:52:47Z</time>
      </trkpt>
      <trkpt lat="44.2399" lon="1.77401">
        <ele>227.5</ele>
        <time>2022-02-19T15:52:48Z</time>
      </trkpt>
      <trkpt lat="44.2399" lon="1.77401">
        <ele>227.5</ele>
        <time>2022-02-19T15:52:49Z</time>
      </trkpt>
      <trkpt lat="44.2399" lon="1.77401">
        <ele>227.5</ele>
        <time>2022-02-19T15:52:50Z</time>
      </trkpt>
      <trkpt lat="44.2399" lon="1.77401">
        <ele>227.5</ele>
        <time>2022-02-19T15:52:51Z</time>
      </trkpt>
      <trkpt lat="44.2399" lon="1.77401">
        <ele>227.5</ele>
        <time>2022-02-19T15:52:53Z</time>
      </trkpt>
      <trkpt lat="44.23991" lon="1.77401">
        <ele>227.5</ele>
        <time>2022-02-19T15:52:55Z</time>
      </trkpt>
      <trkpt lat="44.23991" lon="1.77401">
        <ele>227.5</ele>
        <time>2022-02-19T15:52:56Z</time>
      </trkpt>
      <trkpt lat="44.2399" lon="1.77401">
        <ele>227.5</ele>
        <time>2022-02-19T15:52:57Z</time>
      </trkpt>
      <trkpt lat="44.2399" lon="1.77401">
        <ele>227.5</ele>
        <time>2022-02-19T15:52:58Z</time>
      </trkpt>
      <trkpt lat="44.2399" lon="1.77402">
        <ele>227.5</ele>
        <time>2022-02-19T15:53:00Z</time>
      </trkpt>
      <trkpt lat="44.2399" lon="1.77402">
        <ele>227.5</ele>
        <time>2022-02-19T15:53:01Z</time>
      </trkpt>
      <trkpt lat="44.2399" lon="1.77402">
        <ele>227.5</ele>
        <time>2022-02-19T15:53:02Z</time>
      </trkpt>
      <trkpt lat="44.2399" lon="1.77402">
        <ele>227.5</ele>
        <time>2022-02-19T15:53:03Z</time>
      </trkpt>
      <trkpt lat="44.2399" lon="1.77402">
        <ele>227.5</ele>
        <time>2022-02-19T15:53:05Z</time>
      </trkpt>
      <trkpt lat="44.2399" lon="1.77402">
        <ele>227.5</ele>
        <time>2022-02-19T15:53:06Z</time>
      </trkpt>
      <trkpt lat="44.2399" lon="1.77402">
        <ele>227.5</ele>
        <time>2022-02-19T15:53:07Z</time>
      </trkpt>
      <trkpt lat="44.2399" lon="1.77402">
        <ele>227.5</ele>
        <time>2022-02-19T15:53:08Z</time>
      </trkpt>
      <trkpt lat="44.2399" lon="1.77401">
        <ele>227.5</ele>
        <time>2022-02-19T15:53:09Z</time>
      </trkpt>
      <trkpt lat="44.2399" lon="1.77402">
        <ele>227.5</ele>
        <time>2022-02-19T15:53:10Z</time>
      </trkpt>
      <trkpt lat="44.2399" lon="1.77402">
        <ele>227.5</ele>
        <time>2022-02-19T15:53:11Z</time>
      </trkpt>
      <trkpt lat="44.2399" lon="1.77402">
        <ele>227.5</ele>
        <time>2022-02-19T15:53:12Z</time>
      </trkpt>
      <trkpt lat="44.2399" lon="1.77402">
        <ele>227.5</ele>
        <time>2022-02-19T15:53:13Z</time>
      </trkpt>
      <trkpt lat="44.2399" lon="1.77402">
        <ele>227.5</ele>
        <time>2022-02-19T15:53:15Z</time>
      </trkpt>
      <trkpt lat="44.2399" lon="1.77402">
        <ele>227.5</ele>
        <time>2022-02-19T15:53:16Z</time>
      </trkpt>
      <trkpt lat="44.2399" lon="1.77402">
        <ele>227.5</ele>
        <time>2022-02-19T15:53:17Z</time>
      </trkpt>
      <trkpt lat="44.2399" lon="1.77402">
        <ele>227.5</ele>
        <time>2022-02-19T15:53:18Z</time>
      </trkpt>
      <trkpt lat="44.2399" lon="1.77402">
        <ele>227.5</ele>
        <time>2022-02-19T15:53:20Z</time>
      </trkpt>
      <trkpt lat="44.2399" lon="1.77402">
        <ele>227.5</ele>
        <time>2022-02-19T15:53:21Z</time>
      </trkpt>
      <trkpt lat="44.2399" lon="1.77402">
        <ele>227.5</ele>
        <time>2022-02-19T15:53:22Z</time>
      </trkpt>
      <trkpt lat="44.2399" lon="1.77402">
        <ele>227.5</ele>
        <time>2022-02-19T15:53:23Z</time>
      </trkpt>
      <trkpt lat="44.2399" lon="1.77402">
        <ele>227.5</ele>
        <time>2022-02-19T15:53:25Z</time>
      </trkpt>
      <trkpt lat="44.2399" lon="1.77402">
        <ele>227.5</ele>
        <time>2022-02-19T15:53:26Z</time>
      </trkpt>
      <trkpt lat="44.2399" lon="1.77402">
        <ele>227.5</ele>
        <time>2022-02-19T15:53:27Z</time>
      </trkpt>
      <trkpt lat="44.2399" lon="1.77401">
        <ele>227.5</ele>
        <time>2022-02-19T15:53:28Z</time>
      </trkpt>
      <trkpt lat="44.2399" lon="1.77401">
        <ele>227.5</ele>
        <time>2022-02-19T15:53:29Z</time>
      </trkpt>
      <trkpt lat="44.2399" lon="1.77401">
        <ele>227.5</ele>
        <time>2022-02-19T15:53:30Z</time>
      </trkpt>
      <trkpt lat="44.2399" lon="1.77401">
        <ele>227.5</ele>
        <time>2022-02-19T15:53:31Z</time>
      </trkpt>
      <trkpt lat="44.2399" lon="1.77401">
        <ele>227.5</ele>
        <time>2022-02-19T15:53:32Z</time>
      </trkpt>
      <trkpt lat="44.2399" lon="1.77402">
        <ele>227.5</ele>
        <time>2022-02-19T15:53:33Z</time>
      </trkpt>
      <trkpt lat="44.2399" lon="1.77402">
        <ele>227.5</ele>
        <time>2022-02-19T15:53:34Z</time>
      </trkpt>
      <trkpt lat="44.2399" lon="1.77402">
        <ele>227.5</ele>
        <time>2022-02-19T15:53:35Z</time>
      </trkpt>
      <trkpt lat="44.2399" lon="1.77402">
        <ele>227.5</ele>
        <time>2022-02-19T15:53:36Z</time>
      </trkpt>
      <trkpt lat="44.2399" lon="1.77402">
        <ele>227.5</ele>
        <time>2022-02-19T15:53:37Z</time>
      </trkpt>
      <trkpt lat="44.2399" lon="1.77401">
        <ele>227.5</ele>
        <time>2022-02-19T15:53:38Z</time>
      </trkpt>
      <trkpt lat="44.2399" lon="1.77401">
        <ele>227.5</ele>
        <time>2022-02-19T15:53:39Z</time>
      </trkpt>
      <trkpt lat="44.2399" lon="1.77402">
        <ele>227.5</ele>
        <time>2022-02-19T15:53:40Z</time>
      </trkpt>
      <trkpt lat="44.2399" lon="1.77402">
        <ele>227.5</ele>
        <time>2022-02-19T15:53:41Z</time>
      </trkpt>
      <trkpt lat="44.2399" lon="1.77402">
        <ele>227.5</ele>
        <time>2022-02-19T15:53:42Z</time>
      </trkpt>
      <trkpt lat="44.2399" lon="1.77402">
        <ele>227.5</ele>
        <time>2022-02-19T15:53:43Z</time>
      </trkpt>
    </trkseg>
  </trk>
</gpx>